<?xml version="1.0" encoding="UTF-8" standalone="no" ?>
<gpx xmlns="http://www.topografix.com/GPX/1/1" xmlns:xsi="http://www.w3.org/2001/XMLSchema-instance" xsi:schemaLocation="http://www.topografix.com/GPX/1/1 http://www.topografix.com/GPX/1/1/gpx.xsd" version="1.1" creator="VisuGPX - https://www.visugpx.com">
  <metadata>
    <name>Le caylar - Dio et Valquières</name>
    <desc><![CDATA[23 août 2014 - 1ère journée des 3 fantastiques]]></desc>
  </metadata>
  <trk>
    <name><![CDATA[Le Caylar - Dio et Valquière 2014-08-23 15:54:36]]></name>
    <trkseg>
      <trkpt lat="43.86299" lon="3.3176">
        <ele>721.13</ele>
        <time>2014-08-23T07:53:28Z</time>
      </trkpt>
      <trkpt lat="43.863" lon="3.3176">
        <ele>721.13</ele>
        <time>2014-08-23T07:53:29Z</time>
      </trkpt>
      <trkpt lat="43.86293" lon="3.31758">
        <ele>724.49</ele>
        <time>2014-08-23T07:53:37Z</time>
      </trkpt>
      <trkpt lat="43.86292" lon="3.31757">
        <ele>728.82</ele>
        <time>2014-08-23T07:53:41Z</time>
      </trkpt>
      <trkpt lat="43.86291" lon="3.31757">
        <ele>732.18</ele>
        <time>2014-08-23T07:53:45Z</time>
      </trkpt>
      <trkpt lat="43.8629" lon="3.31758">
        <ele>736.03</ele>
        <time>2014-08-23T07:53:50Z</time>
      </trkpt>
      <trkpt lat="43.86289" lon="3.31758">
        <ele>738.43</ele>
        <time>2014-08-23T07:53:53Z</time>
      </trkpt>
      <trkpt lat="43.86289" lon="3.31758">
        <ele>739.39</ele>
        <time>2014-08-23T07:53:55Z</time>
      </trkpt>
      <trkpt lat="43.86288" lon="3.31759">
        <ele>742.76</ele>
        <time>2014-08-23T07:54:00Z</time>
      </trkpt>
      <trkpt lat="43.86289" lon="3.31758">
        <ele>746.12</ele>
        <time>2014-08-23T07:54:06Z</time>
      </trkpt>
      <trkpt lat="43.8629" lon="3.31758">
        <ele>749</ele>
        <time>2014-08-23T07:54:12Z</time>
      </trkpt>
      <trkpt lat="43.8629" lon="3.31759">
        <ele>751.89</ele>
        <time>2014-08-23T07:54:23Z</time>
      </trkpt>
      <trkpt lat="43.86289" lon="3.31756">
        <ele>754.77</ele>
        <time>2014-08-23T07:54:36Z</time>
      </trkpt>
      <trkpt lat="43.86289" lon="3.31755">
        <ele>757.66</ele>
        <time>2014-08-23T07:54:53Z</time>
      </trkpt>
      <trkpt lat="43.86292" lon="3.31756">
        <ele>759.1</ele>
        <time>2014-08-23T07:55:06Z</time>
      </trkpt>
      <trkpt lat="43.86292" lon="3.31756">
        <ele>760.54</ele>
        <time>2014-08-23T07:55:19Z</time>
      </trkpt>
      <trkpt lat="43.86292" lon="3.31756">
        <ele>760.54</ele>
        <time>2014-08-23T07:55:28Z</time>
      </trkpt>
      <trkpt lat="43.86294" lon="3.3176">
        <ele>760.54</ele>
        <time>2014-08-23T07:55:39Z</time>
      </trkpt>
      <trkpt lat="43.86293" lon="3.3176">
        <ele>759.58</ele>
        <time>2014-08-23T07:55:49Z</time>
      </trkpt>
      <trkpt lat="43.86295" lon="3.31761">
        <ele>759.58</ele>
        <time>2014-08-23T07:56:09Z</time>
      </trkpt>
      <trkpt lat="43.86294" lon="3.31761">
        <ele>759.58</ele>
        <time>2014-08-23T07:56:24Z</time>
      </trkpt>
      <trkpt lat="43.86294" lon="3.31761">
        <ele>759.58</ele>
        <time>2014-08-23T07:56:27Z</time>
      </trkpt>
      <trkpt lat="43.86293" lon="3.31762">
        <ele>759.58</ele>
        <time>2014-08-23T07:56:34Z</time>
      </trkpt>
      <trkpt lat="43.86292" lon="3.31766">
        <ele>759.58</ele>
        <time>2014-08-23T07:56:37Z</time>
      </trkpt>
      <trkpt lat="43.86287" lon="3.31771">
        <ele>759.58</ele>
        <time>2014-08-23T07:56:44Z</time>
      </trkpt>
      <trkpt lat="43.86284" lon="3.31771">
        <ele>759.58</ele>
        <time>2014-08-23T07:56:48Z</time>
      </trkpt>
      <trkpt lat="43.8628" lon="3.31767">
        <ele>759.58</ele>
        <time>2014-08-23T07:56:51Z</time>
      </trkpt>
      <trkpt lat="43.86262" lon="3.31746">
        <ele>759.1</ele>
        <time>2014-08-23T07:56:59Z</time>
      </trkpt>
      <trkpt lat="43.86238" lon="3.31733">
        <ele>759.1</ele>
        <time>2014-08-23T07:57:08Z</time>
      </trkpt>
      <trkpt lat="43.86215" lon="3.31729">
        <ele>758.62</ele>
        <time>2014-08-23T07:57:16Z</time>
      </trkpt>
      <trkpt lat="43.86192" lon="3.31728">
        <ele>758.14</ele>
        <time>2014-08-23T07:57:24Z</time>
      </trkpt>
      <trkpt lat="43.86184" lon="3.31721">
        <ele>758.14</ele>
        <time>2014-08-23T07:57:28Z</time>
      </trkpt>
      <trkpt lat="43.86181" lon="3.31695">
        <ele>757.66</ele>
        <time>2014-08-23T07:57:36Z</time>
      </trkpt>
      <trkpt lat="43.86185" lon="3.3167">
        <ele>757.66</ele>
        <time>2014-08-23T07:57:43Z</time>
      </trkpt>
      <trkpt lat="43.86191" lon="3.31653">
        <ele>756.21</ele>
        <time>2014-08-23T07:57:48Z</time>
      </trkpt>
      <trkpt lat="43.86193" lon="3.31652">
        <ele>756.21</ele>
        <time>2014-08-23T07:57:49Z</time>
      </trkpt>
      <trkpt lat="43.86204" lon="3.31651">
        <ele>756.21</ele>
        <time>2014-08-23T07:57:54Z</time>
      </trkpt>
      <trkpt lat="43.86216" lon="3.3165">
        <ele>757.66</ele>
        <time>2014-08-23T07:57:58Z</time>
      </trkpt>
      <trkpt lat="43.86237" lon="3.31647">
        <ele>757.66</ele>
        <time>2014-08-23T07:58:05Z</time>
      </trkpt>
      <trkpt lat="43.86239" lon="3.31646">
        <ele>757.66</ele>
        <time>2014-08-23T07:58:06Z</time>
      </trkpt>
      <trkpt lat="43.86241" lon="3.31642">
        <ele>757.66</ele>
        <time>2014-08-23T07:58:07Z</time>
      </trkpt>
      <trkpt lat="43.86242" lon="3.31639">
        <ele>757.66</ele>
        <time>2014-08-23T07:58:08Z</time>
      </trkpt>
      <trkpt lat="43.86243" lon="3.31635">
        <ele>757.66</ele>
        <time>2014-08-23T07:58:09Z</time>
      </trkpt>
      <trkpt lat="43.86243" lon="3.3163">
        <ele>757.66</ele>
        <time>2014-08-23T07:58:10Z</time>
      </trkpt>
      <trkpt lat="43.86243" lon="3.31626">
        <ele>757.66</ele>
        <time>2014-08-23T07:58:11Z</time>
      </trkpt>
      <trkpt lat="43.86242" lon="3.31613">
        <ele>757.66</ele>
        <time>2014-08-23T07:58:14Z</time>
      </trkpt>
      <trkpt lat="43.86246" lon="3.31584">
        <ele>757.66</ele>
        <time>2014-08-23T07:58:21Z</time>
      </trkpt>
      <trkpt lat="43.8625" lon="3.31541">
        <ele>755.73</ele>
        <time>2014-08-23T07:58:30Z</time>
      </trkpt>
      <trkpt lat="43.86241" lon="3.31516">
        <ele>755.25</ele>
        <time>2014-08-23T07:58:37Z</time>
      </trkpt>
      <trkpt lat="43.86217" lon="3.31496">
        <ele>754.29</ele>
        <time>2014-08-23T07:58:45Z</time>
      </trkpt>
      <trkpt lat="43.86212" lon="3.31478">
        <ele>753.81</ele>
        <time>2014-08-23T07:58:51Z</time>
      </trkpt>
      <trkpt lat="43.86211" lon="3.31477">
        <ele>754.77</ele>
        <time>2014-08-23T07:58:57Z</time>
      </trkpt>
      <trkpt lat="43.8621" lon="3.31477">
        <ele>753.81</ele>
        <time>2014-08-23T07:58:59Z</time>
      </trkpt>
      <trkpt lat="43.8621" lon="3.31477">
        <ele>753.33</ele>
        <time>2014-08-23T07:59:04Z</time>
      </trkpt>
      <trkpt lat="43.8621" lon="3.31477">
        <ele>754.77</ele>
        <time>2014-08-23T07:59:06Z</time>
      </trkpt>
      <trkpt lat="43.8621" lon="3.31476">
        <ele>754.29</ele>
        <time>2014-08-23T07:59:25Z</time>
      </trkpt>
      <trkpt lat="43.86211" lon="3.31468">
        <ele>753.33</ele>
        <time>2014-08-23T07:59:31Z</time>
      </trkpt>
      <trkpt lat="43.86212" lon="3.31438">
        <ele>752.37</ele>
        <time>2014-08-23T07:59:36Z</time>
      </trkpt>
      <trkpt lat="43.86213" lon="3.31431">
        <ele>751.41</ele>
        <time>2014-08-23T07:59:37Z</time>
      </trkpt>
      <trkpt lat="43.86216" lon="3.31399">
        <ele>750.45</ele>
        <time>2014-08-23T07:59:41Z</time>
      </trkpt>
      <trkpt lat="43.86218" lon="3.31392">
        <ele>750.45</ele>
        <time>2014-08-23T07:59:42Z</time>
      </trkpt>
      <trkpt lat="43.8622" lon="3.31384">
        <ele>750.45</ele>
        <time>2014-08-23T07:59:43Z</time>
      </trkpt>
      <trkpt lat="43.86221" lon="3.31376">
        <ele>750.45</ele>
        <time>2014-08-23T07:59:44Z</time>
      </trkpt>
      <trkpt lat="43.86222" lon="3.31368">
        <ele>750.45</ele>
        <time>2014-08-23T07:59:45Z</time>
      </trkpt>
      <trkpt lat="43.86221" lon="3.3136">
        <ele>749.97</ele>
        <time>2014-08-23T07:59:46Z</time>
      </trkpt>
      <trkpt lat="43.86219" lon="3.31354">
        <ele>749.97</ele>
        <time>2014-08-23T07:59:47Z</time>
      </trkpt>
      <trkpt lat="43.86217" lon="3.31351">
        <ele>749.97</ele>
        <time>2014-08-23T07:59:48Z</time>
      </trkpt>
      <trkpt lat="43.86215" lon="3.31349">
        <ele>749.97</ele>
        <time>2014-08-23T07:59:49Z</time>
      </trkpt>
      <trkpt lat="43.86215" lon="3.31347">
        <ele>749.97</ele>
        <time>2014-08-23T07:59:50Z</time>
      </trkpt>
      <trkpt lat="43.86213" lon="3.3134">
        <ele>749.97</ele>
        <time>2014-08-23T07:59:57Z</time>
      </trkpt>
      <trkpt lat="43.86208" lon="3.31329">
        <ele>749.97</ele>
        <time>2014-08-23T08:00:02Z</time>
      </trkpt>
      <trkpt lat="43.86193" lon="3.31305">
        <ele>749</ele>
        <time>2014-08-23T08:00:10Z</time>
      </trkpt>
      <trkpt lat="43.86181" lon="3.31292">
        <ele>749</ele>
        <time>2014-08-23T08:00:16Z</time>
      </trkpt>
      <trkpt lat="43.86179" lon="3.31292">
        <ele>749</ele>
        <time>2014-08-23T08:00:22Z</time>
      </trkpt>
      <trkpt lat="43.86176" lon="3.31289">
        <ele>749</ele>
        <time>2014-08-23T08:00:29Z</time>
      </trkpt>
      <trkpt lat="43.86175" lon="3.31285">
        <ele>748.52</ele>
        <time>2014-08-23T08:00:36Z</time>
      </trkpt>
      <trkpt lat="43.86175" lon="3.31286">
        <ele>748.52</ele>
        <time>2014-08-23T08:00:47Z</time>
      </trkpt>
      <trkpt lat="43.86175" lon="3.31286">
        <ele>748.52</ele>
        <time>2014-08-23T08:01:06Z</time>
      </trkpt>
      <trkpt lat="43.86174" lon="3.31285">
        <ele>749.49</ele>
        <time>2014-08-23T08:01:23Z</time>
      </trkpt>
      <trkpt lat="43.86174" lon="3.31286">
        <ele>749.49</ele>
        <time>2014-08-23T08:01:42Z</time>
      </trkpt>
      <trkpt lat="43.86175" lon="3.31287">
        <ele>749.97</ele>
        <time>2014-08-23T08:01:49Z</time>
      </trkpt>
      <trkpt lat="43.86174" lon="3.31288">
        <ele>748.52</ele>
        <time>2014-08-23T08:01:52Z</time>
      </trkpt>
      <trkpt lat="43.86176" lon="3.31288">
        <ele>748.52</ele>
        <time>2014-08-23T08:02:00Z</time>
      </trkpt>
      <trkpt lat="43.86175" lon="3.31289">
        <ele>749.97</ele>
        <time>2014-08-23T08:02:10Z</time>
      </trkpt>
      <trkpt lat="43.86175" lon="3.31289">
        <ele>749.97</ele>
        <time>2014-08-23T08:02:11Z</time>
      </trkpt>
      <trkpt lat="43.86174" lon="3.31288">
        <ele>749.97</ele>
        <time>2014-08-23T08:02:30Z</time>
      </trkpt>
      <trkpt lat="43.86175" lon="3.31288">
        <ele>749.49</ele>
        <time>2014-08-23T08:02:42Z</time>
      </trkpt>
      <trkpt lat="43.86174" lon="3.31288">
        <ele>749.49</ele>
        <time>2014-08-23T08:02:50Z</time>
      </trkpt>
      <trkpt lat="43.86173" lon="3.31287">
        <ele>749.49</ele>
        <time>2014-08-23T08:02:51Z</time>
      </trkpt>
      <trkpt lat="43.86162" lon="3.3128">
        <ele>749.49</ele>
        <time>2014-08-23T08:02:57Z</time>
      </trkpt>
      <trkpt lat="43.86146" lon="3.31273">
        <ele>749.49</ele>
        <time>2014-08-23T08:03:04Z</time>
      </trkpt>
      <trkpt lat="43.86128" lon="3.3126">
        <ele>750.45</ele>
        <time>2014-08-23T08:03:12Z</time>
      </trkpt>
      <trkpt lat="43.86116" lon="3.31233">
        <ele>750.45</ele>
        <time>2014-08-23T08:03:20Z</time>
      </trkpt>
      <trkpt lat="43.86101" lon="3.31206">
        <ele>750.45</ele>
        <time>2014-08-23T08:03:28Z</time>
      </trkpt>
      <trkpt lat="43.86091" lon="3.31178">
        <ele>750.93</ele>
        <time>2014-08-23T08:03:36Z</time>
      </trkpt>
      <trkpt lat="43.86082" lon="3.31149">
        <ele>750.93</ele>
        <time>2014-08-23T08:03:44Z</time>
      </trkpt>
      <trkpt lat="43.86072" lon="3.31125">
        <ele>751.41</ele>
        <time>2014-08-23T08:03:51Z</time>
      </trkpt>
      <trkpt lat="43.86055" lon="3.31087">
        <ele>752.37</ele>
        <time>2014-08-23T08:04:01Z</time>
      </trkpt>
      <trkpt lat="43.86037" lon="3.31065">
        <ele>752.85</ele>
        <time>2014-08-23T08:04:09Z</time>
      </trkpt>
      <trkpt lat="43.86013" lon="3.3106">
        <ele>752.85</ele>
        <time>2014-08-23T08:04:16Z</time>
      </trkpt>
      <trkpt lat="43.86002" lon="3.31061">
        <ele>751.41</ele>
        <time>2014-08-23T08:04:19Z</time>
      </trkpt>
      <trkpt lat="43.85998" lon="3.31062">
        <ele>750.93</ele>
        <time>2014-08-23T08:04:20Z</time>
      </trkpt>
      <trkpt lat="43.85994" lon="3.31062">
        <ele>750.45</ele>
        <time>2014-08-23T08:04:21Z</time>
      </trkpt>
      <trkpt lat="43.85977" lon="3.31062">
        <ele>748.52</ele>
        <time>2014-08-23T08:04:25Z</time>
      </trkpt>
      <trkpt lat="43.85972" lon="3.31062">
        <ele>748.04</ele>
        <time>2014-08-23T08:04:26Z</time>
      </trkpt>
      <trkpt lat="43.85967" lon="3.31062">
        <ele>747.56</ele>
        <time>2014-08-23T08:04:27Z</time>
      </trkpt>
      <trkpt lat="43.85961" lon="3.31059">
        <ele>746.6</ele>
        <time>2014-08-23T08:04:28Z</time>
      </trkpt>
      <trkpt lat="43.85957" lon="3.31056">
        <ele>746.12</ele>
        <time>2014-08-23T08:04:29Z</time>
      </trkpt>
      <trkpt lat="43.85953" lon="3.31052">
        <ele>745.64</ele>
        <time>2014-08-23T08:04:30Z</time>
      </trkpt>
      <trkpt lat="43.8595" lon="3.31048">
        <ele>745.16</ele>
        <time>2014-08-23T08:04:31Z</time>
      </trkpt>
      <trkpt lat="43.85949" lon="3.31043">
        <ele>745.16</ele>
        <time>2014-08-23T08:04:32Z</time>
      </trkpt>
      <trkpt lat="43.85948" lon="3.31038">
        <ele>745.16</ele>
        <time>2014-08-23T08:04:33Z</time>
      </trkpt>
      <trkpt lat="43.85948" lon="3.31033">
        <ele>745.16</ele>
        <time>2014-08-23T08:04:34Z</time>
      </trkpt>
      <trkpt lat="43.85948" lon="3.31028">
        <ele>745.16</ele>
        <time>2014-08-23T08:04:35Z</time>
      </trkpt>
      <trkpt lat="43.8595" lon="3.30999">
        <ele>745.16</ele>
        <time>2014-08-23T08:04:42Z</time>
      </trkpt>
      <trkpt lat="43.85955" lon="3.30975">
        <ele>745.16</ele>
        <time>2014-08-23T08:04:47Z</time>
      </trkpt>
      <trkpt lat="43.85972" lon="3.30956">
        <ele>746.12</ele>
        <time>2014-08-23T08:04:53Z</time>
      </trkpt>
      <trkpt lat="43.85992" lon="3.30957">
        <ele>747.08</ele>
        <time>2014-08-23T08:04:59Z</time>
      </trkpt>
      <trkpt lat="43.86007" lon="3.3096">
        <ele>748.04</ele>
        <time>2014-08-23T08:05:04Z</time>
      </trkpt>
      <trkpt lat="43.86028" lon="3.30966">
        <ele>749.49</ele>
        <time>2014-08-23T08:05:12Z</time>
      </trkpt>
      <trkpt lat="43.86053" lon="3.30975">
        <ele>751.89</ele>
        <time>2014-08-23T08:05:22Z</time>
      </trkpt>
      <trkpt lat="43.86074" lon="3.30981">
        <ele>752.85</ele>
        <time>2014-08-23T08:05:30Z</time>
      </trkpt>
      <trkpt lat="43.86076" lon="3.30978">
        <ele>752.85</ele>
        <time>2014-08-23T08:05:31Z</time>
      </trkpt>
      <trkpt lat="43.86078" lon="3.30971">
        <ele>752.85</ele>
        <time>2014-08-23T08:05:33Z</time>
      </trkpt>
      <trkpt lat="43.86078" lon="3.30967">
        <ele>752.85</ele>
        <time>2014-08-23T08:05:34Z</time>
      </trkpt>
      <trkpt lat="43.86078" lon="3.30964">
        <ele>752.85</ele>
        <time>2014-08-23T08:05:35Z</time>
      </trkpt>
      <trkpt lat="43.86078" lon="3.30961">
        <ele>752.85</ele>
        <time>2014-08-23T08:05:36Z</time>
      </trkpt>
      <trkpt lat="43.86079" lon="3.30958">
        <ele>752.85</ele>
        <time>2014-08-23T08:05:37Z</time>
      </trkpt>
      <trkpt lat="43.86075" lon="3.30933">
        <ele>752.85</ele>
        <time>2014-08-23T08:05:44Z</time>
      </trkpt>
      <trkpt lat="43.86073" lon="3.30907">
        <ele>753.33</ele>
        <time>2014-08-23T08:05:51Z</time>
      </trkpt>
      <trkpt lat="43.86071" lon="3.30883">
        <ele>753.81</ele>
        <time>2014-08-23T08:05:58Z</time>
      </trkpt>
      <trkpt lat="43.8607" lon="3.30881">
        <ele>754.29</ele>
        <time>2014-08-23T08:06:02Z</time>
      </trkpt>
      <trkpt lat="43.86071" lon="3.30881">
        <ele>754.77</ele>
        <time>2014-08-23T08:06:22Z</time>
      </trkpt>
      <trkpt lat="43.8607" lon="3.30881">
        <ele>754.77</ele>
        <time>2014-08-23T08:06:41Z</time>
      </trkpt>
      <trkpt lat="43.8607" lon="3.3088">
        <ele>754.77</ele>
        <time>2014-08-23T08:06:48Z</time>
      </trkpt>
      <trkpt lat="43.86069" lon="3.30878">
        <ele>754.77</ele>
        <time>2014-08-23T08:06:53Z</time>
      </trkpt>
      <trkpt lat="43.86069" lon="3.30876">
        <ele>754.77</ele>
        <time>2014-08-23T08:06:54Z</time>
      </trkpt>
      <trkpt lat="43.86068" lon="3.30865">
        <ele>754.29</ele>
        <time>2014-08-23T08:06:59Z</time>
      </trkpt>
      <trkpt lat="43.86067" lon="3.30862">
        <ele>754.29</ele>
        <time>2014-08-23T08:07:00Z</time>
      </trkpt>
      <trkpt lat="43.86066" lon="3.30859">
        <ele>754.29</ele>
        <time>2014-08-23T08:07:01Z</time>
      </trkpt>
      <trkpt lat="43.86065" lon="3.30856">
        <ele>754.29</ele>
        <time>2014-08-23T08:07:02Z</time>
      </trkpt>
      <trkpt lat="43.86065" lon="3.30854">
        <ele>754.29</ele>
        <time>2014-08-23T08:07:03Z</time>
      </trkpt>
      <trkpt lat="43.86064" lon="3.30852">
        <ele>754.29</ele>
        <time>2014-08-23T08:07:04Z</time>
      </trkpt>
      <trkpt lat="43.86063" lon="3.30849">
        <ele>754.29</ele>
        <time>2014-08-23T08:07:05Z</time>
      </trkpt>
      <trkpt lat="43.86063" lon="3.30846">
        <ele>754.29</ele>
        <time>2014-08-23T08:07:06Z</time>
      </trkpt>
      <trkpt lat="43.86062" lon="3.30843">
        <ele>754.29</ele>
        <time>2014-08-23T08:07:07Z</time>
      </trkpt>
      <trkpt lat="43.86062" lon="3.3084">
        <ele>754.29</ele>
        <time>2014-08-23T08:07:08Z</time>
      </trkpt>
      <trkpt lat="43.8606" lon="3.30837">
        <ele>754.77</ele>
        <time>2014-08-23T08:07:09Z</time>
      </trkpt>
      <trkpt lat="43.86055" lon="3.30813">
        <ele>755.25</ele>
        <time>2014-08-23T08:07:16Z</time>
      </trkpt>
      <trkpt lat="43.86047" lon="3.30783">
        <ele>755.73</ele>
        <time>2014-08-23T08:07:24Z</time>
      </trkpt>
      <trkpt lat="43.86037" lon="3.30753">
        <ele>755.73</ele>
        <time>2014-08-23T08:07:31Z</time>
      </trkpt>
      <trkpt lat="43.86021" lon="3.30728">
        <ele>755.73</ele>
        <time>2014-08-23T08:07:38Z</time>
      </trkpt>
      <trkpt lat="43.85995" lon="3.30703">
        <ele>755.73</ele>
        <time>2014-08-23T08:07:47Z</time>
      </trkpt>
      <trkpt lat="43.8597" lon="3.30679">
        <ele>754.29</ele>
        <time>2014-08-23T08:07:55Z</time>
      </trkpt>
      <trkpt lat="43.85955" lon="3.30671">
        <ele>753.81</ele>
        <time>2014-08-23T08:07:59Z</time>
      </trkpt>
      <trkpt lat="43.8594" lon="3.30664">
        <ele>753.81</ele>
        <time>2014-08-23T08:08:03Z</time>
      </trkpt>
      <trkpt lat="43.85927" lon="3.3066">
        <ele>753.33</ele>
        <time>2014-08-23T08:08:06Z</time>
      </trkpt>
      <trkpt lat="43.85923" lon="3.30658">
        <ele>753.33</ele>
        <time>2014-08-23T08:08:07Z</time>
      </trkpt>
      <trkpt lat="43.85919" lon="3.30655">
        <ele>753.33</ele>
        <time>2014-08-23T08:08:08Z</time>
      </trkpt>
      <trkpt lat="43.8591" lon="3.30648">
        <ele>752.37</ele>
        <time>2014-08-23T08:08:10Z</time>
      </trkpt>
      <trkpt lat="43.85906" lon="3.30643">
        <ele>752.37</ele>
        <time>2014-08-23T08:08:11Z</time>
      </trkpt>
      <trkpt lat="43.85902" lon="3.30638">
        <ele>751.89</ele>
        <time>2014-08-23T08:08:12Z</time>
      </trkpt>
      <trkpt lat="43.85893" lon="3.30622">
        <ele>750.93</ele>
        <time>2014-08-23T08:08:15Z</time>
      </trkpt>
      <trkpt lat="43.8587" lon="3.30577">
        <ele>752.85</ele>
        <time>2014-08-23T08:08:24Z</time>
      </trkpt>
      <trkpt lat="43.85844" lon="3.30542">
        <ele>752.85</ele>
        <time>2014-08-23T08:08:33Z</time>
      </trkpt>
      <trkpt lat="43.85833" lon="3.30527">
        <ele>750.93</ele>
        <time>2014-08-23T08:08:36Z</time>
      </trkpt>
      <trkpt lat="43.85825" lon="3.30518">
        <ele>750.93</ele>
        <time>2014-08-23T08:08:38Z</time>
      </trkpt>
      <trkpt lat="43.85817" lon="3.30509">
        <ele>750.93</ele>
        <time>2014-08-23T08:08:40Z</time>
      </trkpt>
      <trkpt lat="43.85812" lon="3.30506">
        <ele>749.97</ele>
        <time>2014-08-23T08:08:41Z</time>
      </trkpt>
      <trkpt lat="43.85807" lon="3.30504">
        <ele>749.97</ele>
        <time>2014-08-23T08:08:42Z</time>
      </trkpt>
      <trkpt lat="43.85802" lon="3.30503">
        <ele>749.97</ele>
        <time>2014-08-23T08:08:43Z</time>
      </trkpt>
      <trkpt lat="43.85797" lon="3.30502">
        <ele>749.49</ele>
        <time>2014-08-23T08:08:44Z</time>
      </trkpt>
      <trkpt lat="43.85793" lon="3.305">
        <ele>749</ele>
        <time>2014-08-23T08:08:45Z</time>
      </trkpt>
      <trkpt lat="43.85789" lon="3.30496">
        <ele>749</ele>
        <time>2014-08-23T08:08:46Z</time>
      </trkpt>
      <trkpt lat="43.85786" lon="3.3049">
        <ele>749</ele>
        <time>2014-08-23T08:08:47Z</time>
      </trkpt>
      <trkpt lat="43.85785" lon="3.30483">
        <ele>748.04</ele>
        <time>2014-08-23T08:08:48Z</time>
      </trkpt>
      <trkpt lat="43.85784" lon="3.30476">
        <ele>747.56</ele>
        <time>2014-08-23T08:08:49Z</time>
      </trkpt>
      <trkpt lat="43.85782" lon="3.30454">
        <ele>747.56</ele>
        <time>2014-08-23T08:08:52Z</time>
      </trkpt>
      <trkpt lat="43.85771" lon="3.30396">
        <ele>747.56</ele>
        <time>2014-08-23T08:09:01Z</time>
      </trkpt>
      <trkpt lat="43.85758" lon="3.30351">
        <ele>749</ele>
        <time>2014-08-23T08:09:10Z</time>
      </trkpt>
      <trkpt lat="43.85747" lon="3.3032">
        <ele>749.97</ele>
        <time>2014-08-23T08:09:18Z</time>
      </trkpt>
      <trkpt lat="43.85735" lon="3.30288">
        <ele>751.89</ele>
        <time>2014-08-23T08:09:27Z</time>
      </trkpt>
      <trkpt lat="43.85722" lon="3.30263">
        <ele>753.81</ele>
        <time>2014-08-23T08:09:35Z</time>
      </trkpt>
      <trkpt lat="43.8571" lon="3.3024">
        <ele>756.21</ele>
        <time>2014-08-23T08:09:43Z</time>
      </trkpt>
      <trkpt lat="43.85703" lon="3.3021">
        <ele>757.66</ele>
        <time>2014-08-23T08:09:52Z</time>
      </trkpt>
      <trkpt lat="43.85698" lon="3.30185">
        <ele>759.1</ele>
        <time>2014-08-23T08:10:00Z</time>
      </trkpt>
      <trkpt lat="43.85692" lon="3.30165">
        <ele>760.06</ele>
        <time>2014-08-23T08:10:07Z</time>
      </trkpt>
      <trkpt lat="43.85682" lon="3.30138">
        <ele>762.46</ele>
        <time>2014-08-23T08:10:17Z</time>
      </trkpt>
      <trkpt lat="43.85674" lon="3.3011">
        <ele>762.46</ele>
        <time>2014-08-23T08:10:26Z</time>
      </trkpt>
      <trkpt lat="43.85668" lon="3.30087">
        <ele>762.94</ele>
        <time>2014-08-23T08:10:33Z</time>
      </trkpt>
      <trkpt lat="43.85662" lon="3.30058">
        <ele>763.42</ele>
        <time>2014-08-23T08:10:41Z</time>
      </trkpt>
      <trkpt lat="43.85657" lon="3.30031">
        <ele>763.9</ele>
        <time>2014-08-23T08:10:48Z</time>
      </trkpt>
      <trkpt lat="43.85651" lon="3.29991">
        <ele>762.46</ele>
        <time>2014-08-23T08:10:56Z</time>
      </trkpt>
      <trkpt lat="43.85649" lon="3.29986">
        <ele>762.46</ele>
        <time>2014-08-23T08:10:57Z</time>
      </trkpt>
      <trkpt lat="43.85646" lon="3.29981">
        <ele>761.5</ele>
        <time>2014-08-23T08:10:58Z</time>
      </trkpt>
      <trkpt lat="43.85643" lon="3.29976">
        <ele>761.5</ele>
        <time>2014-08-23T08:10:59Z</time>
      </trkpt>
      <trkpt lat="43.8564" lon="3.29971">
        <ele>761.5</ele>
        <time>2014-08-23T08:11:00Z</time>
      </trkpt>
      <trkpt lat="43.85633" lon="3.29961">
        <ele>760.54</ele>
        <time>2014-08-23T08:11:02Z</time>
      </trkpt>
      <trkpt lat="43.8563" lon="3.29954">
        <ele>759.58</ele>
        <time>2014-08-23T08:11:03Z</time>
      </trkpt>
      <trkpt lat="43.85627" lon="3.29946">
        <ele>759.58</ele>
        <time>2014-08-23T08:11:04Z</time>
      </trkpt>
      <trkpt lat="43.85625" lon="3.29938">
        <ele>758.14</ele>
        <time>2014-08-23T08:11:05Z</time>
      </trkpt>
      <trkpt lat="43.85623" lon="3.29928">
        <ele>757.66</ele>
        <time>2014-08-23T08:11:06Z</time>
      </trkpt>
      <trkpt lat="43.85617" lon="3.29899">
        <ele>756.21</ele>
        <time>2014-08-23T08:11:09Z</time>
      </trkpt>
      <trkpt lat="43.856" lon="3.29816">
        <ele>754.29</ele>
        <time>2014-08-23T08:11:18Z</time>
      </trkpt>
      <trkpt lat="43.85586" lon="3.29763">
        <ele>754.29</ele>
        <time>2014-08-23T08:11:25Z</time>
      </trkpt>
      <trkpt lat="43.85578" lon="3.29731">
        <ele>753.33</ele>
        <time>2014-08-23T08:11:30Z</time>
      </trkpt>
      <trkpt lat="43.85576" lon="3.29725">
        <ele>752.37</ele>
        <time>2014-08-23T08:11:31Z</time>
      </trkpt>
      <trkpt lat="43.85561" lon="3.29676">
        <ele>751.89</ele>
        <time>2014-08-23T08:11:38Z</time>
      </trkpt>
      <trkpt lat="43.85541" lon="3.29619">
        <ele>751.89</ele>
        <time>2014-08-23T08:11:47Z</time>
      </trkpt>
      <trkpt lat="43.85523" lon="3.29577">
        <ele>751.89</ele>
        <time>2014-08-23T08:11:55Z</time>
      </trkpt>
      <trkpt lat="43.85494" lon="3.2953">
        <ele>751.89</ele>
        <time>2014-08-23T08:12:05Z</time>
      </trkpt>
      <trkpt lat="43.85471" lon="3.29479">
        <ele>751.41</ele>
        <time>2014-08-23T08:12:14Z</time>
      </trkpt>
      <trkpt lat="43.85462" lon="3.29438">
        <ele>750.93</ele>
        <time>2014-08-23T08:12:21Z</time>
      </trkpt>
      <trkpt lat="43.85453" lon="3.29384">
        <ele>750.45</ele>
        <time>2014-08-23T08:12:30Z</time>
      </trkpt>
      <trkpt lat="43.85438" lon="3.29329">
        <ele>749.49</ele>
        <time>2014-08-23T08:12:39Z</time>
      </trkpt>
      <trkpt lat="43.85423" lon="3.29285">
        <ele>749</ele>
        <time>2014-08-23T08:12:47Z</time>
      </trkpt>
      <trkpt lat="43.85418" lon="3.29265">
        <ele>748.04</ele>
        <time>2014-08-23T08:12:52Z</time>
      </trkpt>
      <trkpt lat="43.854" lon="3.29218">
        <ele>748.04</ele>
        <time>2014-08-23T08:13:02Z</time>
      </trkpt>
      <trkpt lat="43.8539" lon="3.29189">
        <ele>748.04</ele>
        <time>2014-08-23T08:13:08Z</time>
      </trkpt>
      <trkpt lat="43.85372" lon="3.29141">
        <ele>748.04</ele>
        <time>2014-08-23T08:13:17Z</time>
      </trkpt>
      <trkpt lat="43.85361" lon="3.29096">
        <ele>747.56</ele>
        <time>2014-08-23T08:13:26Z</time>
      </trkpt>
      <trkpt lat="43.85353" lon="3.29048">
        <ele>750.45</ele>
        <time>2014-08-23T08:13:36Z</time>
      </trkpt>
      <trkpt lat="43.85347" lon="3.29016">
        <ele>751.41</ele>
        <time>2014-08-23T08:13:44Z</time>
      </trkpt>
      <trkpt lat="43.85339" lon="3.28977">
        <ele>750.93</ele>
        <time>2014-08-23T08:13:53Z</time>
      </trkpt>
      <trkpt lat="43.8533" lon="3.28937">
        <ele>748.52</ele>
        <time>2014-08-23T08:14:00Z</time>
      </trkpt>
      <trkpt lat="43.85329" lon="3.28931">
        <ele>748.52</ele>
        <time>2014-08-23T08:14:01Z</time>
      </trkpt>
      <trkpt lat="43.85326" lon="3.28925">
        <ele>748.52</ele>
        <time>2014-08-23T08:14:02Z</time>
      </trkpt>
      <trkpt lat="43.85308" lon="3.28869">
        <ele>747.56</ele>
        <time>2014-08-23T08:14:11Z</time>
      </trkpt>
      <trkpt lat="43.85303" lon="3.28852">
        <ele>747.56</ele>
        <time>2014-08-23T08:14:14Z</time>
      </trkpt>
      <trkpt lat="43.85302" lon="3.28847">
        <ele>747.56</ele>
        <time>2014-08-23T08:14:15Z</time>
      </trkpt>
      <trkpt lat="43.853" lon="3.28841">
        <ele>747.56</ele>
        <time>2014-08-23T08:14:16Z</time>
      </trkpt>
      <trkpt lat="43.85283" lon="3.28798">
        <ele>747.56</ele>
        <time>2014-08-23T08:14:25Z</time>
      </trkpt>
      <trkpt lat="43.8527" lon="3.28772">
        <ele>747.56</ele>
        <time>2014-08-23T08:14:31Z</time>
      </trkpt>
      <trkpt lat="43.85252" lon="3.28727">
        <ele>747.08</ele>
        <time>2014-08-23T08:14:40Z</time>
      </trkpt>
      <trkpt lat="43.85251" lon="3.28722">
        <ele>747.08</ele>
        <time>2014-08-23T08:14:41Z</time>
      </trkpt>
      <trkpt lat="43.8525" lon="3.28716">
        <ele>746.6</ele>
        <time>2014-08-23T08:14:42Z</time>
      </trkpt>
      <trkpt lat="43.85249" lon="3.28709">
        <ele>746.6</ele>
        <time>2014-08-23T08:14:43Z</time>
      </trkpt>
      <trkpt lat="43.85246" lon="3.28691">
        <ele>746.12</ele>
        <time>2014-08-23T08:14:46Z</time>
      </trkpt>
      <trkpt lat="43.85244" lon="3.28685">
        <ele>746.12</ele>
        <time>2014-08-23T08:14:47Z</time>
      </trkpt>
      <trkpt lat="43.85242" lon="3.2868">
        <ele>745.64</ele>
        <time>2014-08-23T08:14:48Z</time>
      </trkpt>
      <trkpt lat="43.85221" lon="3.28637">
        <ele>746.12</ele>
        <time>2014-08-23T08:14:57Z</time>
      </trkpt>
      <trkpt lat="43.85202" lon="3.28605">
        <ele>747.56</ele>
        <time>2014-08-23T08:15:05Z</time>
      </trkpt>
      <trkpt lat="43.852" lon="3.28602">
        <ele>747.56</ele>
        <time>2014-08-23T08:15:06Z</time>
      </trkpt>
      <trkpt lat="43.85191" lon="3.28591">
        <ele>748.52</ele>
        <time>2014-08-23T08:15:10Z</time>
      </trkpt>
      <trkpt lat="43.85188" lon="3.28591">
        <ele>748.52</ele>
        <time>2014-08-23T08:15:11Z</time>
      </trkpt>
      <trkpt lat="43.85185" lon="3.28591">
        <ele>748.52</ele>
        <time>2014-08-23T08:15:12Z</time>
      </trkpt>
      <trkpt lat="43.85159" lon="3.28598">
        <ele>749.97</ele>
        <time>2014-08-23T08:15:21Z</time>
      </trkpt>
      <trkpt lat="43.85138" lon="3.28602">
        <ele>750.45</ele>
        <time>2014-08-23T08:15:29Z</time>
      </trkpt>
      <trkpt lat="43.85124" lon="3.28605">
        <ele>750.93</ele>
        <time>2014-08-23T08:15:36Z</time>
      </trkpt>
      <trkpt lat="43.85122" lon="3.28606">
        <ele>750.93</ele>
        <time>2014-08-23T08:15:37Z</time>
      </trkpt>
      <trkpt lat="43.85119" lon="3.28607">
        <ele>751.41</ele>
        <time>2014-08-23T08:15:42Z</time>
      </trkpt>
      <trkpt lat="43.85117" lon="3.28607">
        <ele>751.41</ele>
        <time>2014-08-23T08:15:43Z</time>
      </trkpt>
      <trkpt lat="43.851" lon="3.28609">
        <ele>751.89</ele>
        <time>2014-08-23T08:15:50Z</time>
      </trkpt>
      <trkpt lat="43.85077" lon="3.28614">
        <ele>751.89</ele>
        <time>2014-08-23T08:15:58Z</time>
      </trkpt>
      <trkpt lat="43.85074" lon="3.28615">
        <ele>752.37</ele>
        <time>2014-08-23T08:16:04Z</time>
      </trkpt>
      <trkpt lat="43.85072" lon="3.28614">
        <ele>752.37</ele>
        <time>2014-08-23T08:16:17Z</time>
      </trkpt>
      <trkpt lat="43.85066" lon="3.28616">
        <ele>751.89</ele>
        <time>2014-08-23T08:16:21Z</time>
      </trkpt>
      <trkpt lat="43.85065" lon="3.28616">
        <ele>751.89</ele>
        <time>2014-08-23T08:16:22Z</time>
      </trkpt>
      <trkpt lat="43.85063" lon="3.28617">
        <ele>751.89</ele>
        <time>2014-08-23T08:16:23Z</time>
      </trkpt>
      <trkpt lat="43.85061" lon="3.28617">
        <ele>751.89</ele>
        <time>2014-08-23T08:16:24Z</time>
      </trkpt>
      <trkpt lat="43.85059" lon="3.28617">
        <ele>752.37</ele>
        <time>2014-08-23T08:16:25Z</time>
      </trkpt>
      <trkpt lat="43.85057" lon="3.28617">
        <ele>752.37</ele>
        <time>2014-08-23T08:16:26Z</time>
      </trkpt>
      <trkpt lat="43.85043" lon="3.28621">
        <ele>751.89</ele>
        <time>2014-08-23T08:16:32Z</time>
      </trkpt>
      <trkpt lat="43.85027" lon="3.28624">
        <ele>751.89</ele>
        <time>2014-08-23T08:16:38Z</time>
      </trkpt>
      <trkpt lat="43.85006" lon="3.28629">
        <ele>752.37</ele>
        <time>2014-08-23T08:16:46Z</time>
      </trkpt>
      <trkpt lat="43.84983" lon="3.28635">
        <ele>753.33</ele>
        <time>2014-08-23T08:16:54Z</time>
      </trkpt>
      <trkpt lat="43.8496" lon="3.2864">
        <ele>754.29</ele>
        <time>2014-08-23T08:17:03Z</time>
      </trkpt>
      <trkpt lat="43.84943" lon="3.28643">
        <ele>755.73</ele>
        <time>2014-08-23T08:17:10Z</time>
      </trkpt>
      <trkpt lat="43.84926" lon="3.28646">
        <ele>755.73</ele>
        <time>2014-08-23T08:17:17Z</time>
      </trkpt>
      <trkpt lat="43.84906" lon="3.28651">
        <ele>757.66</ele>
        <time>2014-08-23T08:17:25Z</time>
      </trkpt>
      <trkpt lat="43.84887" lon="3.28656">
        <ele>758.14</ele>
        <time>2014-08-23T08:17:32Z</time>
      </trkpt>
      <trkpt lat="43.84865" lon="3.2866">
        <ele>759.1</ele>
        <time>2014-08-23T08:17:40Z</time>
      </trkpt>
      <trkpt lat="43.84851" lon="3.28661">
        <ele>759.58</ele>
        <time>2014-08-23T08:17:47Z</time>
      </trkpt>
      <trkpt lat="43.84849" lon="3.2866">
        <ele>761.02</ele>
        <time>2014-08-23T08:17:52Z</time>
      </trkpt>
      <trkpt lat="43.84846" lon="3.28659">
        <ele>761.02</ele>
        <time>2014-08-23T08:17:57Z</time>
      </trkpt>
      <trkpt lat="43.84843" lon="3.28658">
        <ele>761.02</ele>
        <time>2014-08-23T08:17:59Z</time>
      </trkpt>
      <trkpt lat="43.84841" lon="3.28655">
        <ele>761.02</ele>
        <time>2014-08-23T08:18:00Z</time>
      </trkpt>
      <trkpt lat="43.84841" lon="3.28652">
        <ele>761.02</ele>
        <time>2014-08-23T08:18:01Z</time>
      </trkpt>
      <trkpt lat="43.84841" lon="3.28649">
        <ele>761.02</ele>
        <time>2014-08-23T08:18:02Z</time>
      </trkpt>
      <trkpt lat="43.84842" lon="3.28645">
        <ele>759.58</ele>
        <time>2014-08-23T08:18:03Z</time>
      </trkpt>
      <trkpt lat="43.84845" lon="3.28639">
        <ele>758.62</ele>
        <time>2014-08-23T08:18:05Z</time>
      </trkpt>
      <trkpt lat="43.84846" lon="3.28631">
        <ele>760.06</ele>
        <time>2014-08-23T08:18:08Z</time>
      </trkpt>
      <trkpt lat="43.84846" lon="3.28625">
        <ele>761.5</ele>
        <time>2014-08-23T08:18:12Z</time>
      </trkpt>
      <trkpt lat="43.84847" lon="3.28606">
        <ele>761.5</ele>
        <time>2014-08-23T08:18:22Z</time>
      </trkpt>
      <trkpt lat="43.84847" lon="3.28603">
        <ele>762.94</ele>
        <time>2014-08-23T08:18:25Z</time>
      </trkpt>
      <trkpt lat="43.84848" lon="3.28603">
        <ele>765.35</ele>
        <time>2014-08-23T08:18:37Z</time>
      </trkpt>
      <trkpt lat="43.84848" lon="3.28604">
        <ele>765.35</ele>
        <time>2014-08-23T08:18:45Z</time>
      </trkpt>
      <trkpt lat="43.84848" lon="3.28604">
        <ele>763.9</ele>
        <time>2014-08-23T08:18:55Z</time>
      </trkpt>
      <trkpt lat="43.84847" lon="3.28604">
        <ele>763.9</ele>
        <time>2014-08-23T08:19:12Z</time>
      </trkpt>
      <trkpt lat="43.84847" lon="3.28604">
        <ele>763.9</ele>
        <time>2014-08-23T08:19:26Z</time>
      </trkpt>
      <trkpt lat="43.84847" lon="3.28603">
        <ele>764.87</ele>
        <time>2014-08-23T08:19:38Z</time>
      </trkpt>
      <trkpt lat="43.84847" lon="3.28603">
        <ele>764.87</ele>
        <time>2014-08-23T08:19:42Z</time>
      </trkpt>
      <trkpt lat="43.84845" lon="3.28609">
        <ele>762.46</ele>
        <time>2014-08-23T08:19:46Z</time>
      </trkpt>
      <trkpt lat="43.84844" lon="3.28623">
        <ele>761.98</ele>
        <time>2014-08-23T08:19:55Z</time>
      </trkpt>
      <trkpt lat="43.84844" lon="3.28623">
        <ele>761.5</ele>
        <time>2014-08-23T08:20:06Z</time>
      </trkpt>
      <trkpt lat="43.84844" lon="3.28623">
        <ele>761.5</ele>
        <time>2014-08-23T08:20:16Z</time>
      </trkpt>
      <trkpt lat="43.84844" lon="3.28623">
        <ele>762.94</ele>
        <time>2014-08-23T08:20:18Z</time>
      </trkpt>
      <trkpt lat="43.84844" lon="3.28622">
        <ele>762.46</ele>
        <time>2014-08-23T08:20:28Z</time>
      </trkpt>
      <trkpt lat="43.84845" lon="3.28623">
        <ele>762.46</ele>
        <time>2014-08-23T08:20:42Z</time>
      </trkpt>
      <trkpt lat="43.84842" lon="3.28631">
        <ele>760.54</ele>
        <time>2014-08-23T08:20:51Z</time>
      </trkpt>
      <trkpt lat="43.84839" lon="3.28644">
        <ele>760.54</ele>
        <time>2014-08-23T08:20:57Z</time>
      </trkpt>
      <trkpt lat="43.84839" lon="3.28647">
        <ele>760.54</ele>
        <time>2014-08-23T08:20:58Z</time>
      </trkpt>
      <trkpt lat="43.84839" lon="3.28649">
        <ele>760.54</ele>
        <time>2014-08-23T08:20:59Z</time>
      </trkpt>
      <trkpt lat="43.84839" lon="3.28652">
        <ele>760.54</ele>
        <time>2014-08-23T08:21:00Z</time>
      </trkpt>
      <trkpt lat="43.84838" lon="3.28654">
        <ele>760.54</ele>
        <time>2014-08-23T08:21:01Z</time>
      </trkpt>
      <trkpt lat="43.84837" lon="3.28656">
        <ele>760.54</ele>
        <time>2014-08-23T08:21:02Z</time>
      </trkpt>
      <trkpt lat="43.84836" lon="3.28658">
        <ele>760.06</ele>
        <time>2014-08-23T08:21:03Z</time>
      </trkpt>
      <trkpt lat="43.84834" lon="3.28659">
        <ele>760.06</ele>
        <time>2014-08-23T08:21:04Z</time>
      </trkpt>
      <trkpt lat="43.84833" lon="3.28658">
        <ele>760.06</ele>
        <time>2014-08-23T08:21:05Z</time>
      </trkpt>
      <trkpt lat="43.84831" lon="3.28657">
        <ele>760.06</ele>
        <time>2014-08-23T08:21:06Z</time>
      </trkpt>
      <trkpt lat="43.8483" lon="3.28656">
        <ele>760.06</ele>
        <time>2014-08-23T08:21:07Z</time>
      </trkpt>
      <trkpt lat="43.84828" lon="3.28654">
        <ele>760.06</ele>
        <time>2014-08-23T08:21:12Z</time>
      </trkpt>
      <trkpt lat="43.84828" lon="3.28654">
        <ele>761.02</ele>
        <time>2014-08-23T08:21:18Z</time>
      </trkpt>
      <trkpt lat="43.84822" lon="3.28652">
        <ele>760.54</ele>
        <time>2014-08-23T08:21:25Z</time>
      </trkpt>
      <trkpt lat="43.84813" lon="3.28648">
        <ele>758.62</ele>
        <time>2014-08-23T08:21:29Z</time>
      </trkpt>
      <trkpt lat="43.84795" lon="3.28643">
        <ele>756.21</ele>
        <time>2014-08-23T08:21:33Z</time>
      </trkpt>
      <trkpt lat="43.84789" lon="3.28643">
        <ele>756.21</ele>
        <time>2014-08-23T08:21:34Z</time>
      </trkpt>
      <trkpt lat="43.84772" lon="3.28647">
        <ele>752.85</ele>
        <time>2014-08-23T08:21:37Z</time>
      </trkpt>
      <trkpt lat="43.84766" lon="3.28649">
        <ele>751.89</ele>
        <time>2014-08-23T08:21:38Z</time>
      </trkpt>
      <trkpt lat="43.84748" lon="3.28652">
        <ele>749.49</ele>
        <time>2014-08-23T08:21:41Z</time>
      </trkpt>
      <trkpt lat="43.84743" lon="3.28652">
        <ele>749</ele>
        <time>2014-08-23T08:21:42Z</time>
      </trkpt>
      <trkpt lat="43.84738" lon="3.28649">
        <ele>749</ele>
        <time>2014-08-23T08:21:43Z</time>
      </trkpt>
      <trkpt lat="43.84734" lon="3.28644">
        <ele>748.52</ele>
        <time>2014-08-23T08:21:44Z</time>
      </trkpt>
      <trkpt lat="43.84731" lon="3.28636">
        <ele>747.56</ele>
        <time>2014-08-23T08:21:45Z</time>
      </trkpt>
      <trkpt lat="43.84728" lon="3.28628">
        <ele>745.64</ele>
        <time>2014-08-23T08:21:46Z</time>
      </trkpt>
      <trkpt lat="43.84725" lon="3.28619">
        <ele>744.68</ele>
        <time>2014-08-23T08:21:47Z</time>
      </trkpt>
      <trkpt lat="43.84721" lon="3.28609">
        <ele>743.24</ele>
        <time>2014-08-23T08:21:48Z</time>
      </trkpt>
      <trkpt lat="43.84716" lon="3.286">
        <ele>742.28</ele>
        <time>2014-08-23T08:21:49Z</time>
      </trkpt>
      <trkpt lat="43.8471" lon="3.28592">
        <ele>740.83</ele>
        <time>2014-08-23T08:21:50Z</time>
      </trkpt>
      <trkpt lat="43.84702" lon="3.28585">
        <ele>739.39</ele>
        <time>2014-08-23T08:21:51Z</time>
      </trkpt>
      <trkpt lat="43.84694" lon="3.28578">
        <ele>737.95</ele>
        <time>2014-08-23T08:21:52Z</time>
      </trkpt>
      <trkpt lat="43.84685" lon="3.28571">
        <ele>736.03</ele>
        <time>2014-08-23T08:21:53Z</time>
      </trkpt>
      <trkpt lat="43.84675" lon="3.28565">
        <ele>734.1</ele>
        <time>2014-08-23T08:21:54Z</time>
      </trkpt>
      <trkpt lat="43.84655" lon="3.2855">
        <ele>730.26</ele>
        <time>2014-08-23T08:21:56Z</time>
      </trkpt>
      <trkpt lat="43.84635" lon="3.28535">
        <ele>728.82</ele>
        <time>2014-08-23T08:21:58Z</time>
      </trkpt>
      <trkpt lat="43.84606" lon="3.28509">
        <ele>727.37</ele>
        <time>2014-08-23T08:22:01Z</time>
      </trkpt>
      <trkpt lat="43.84598" lon="3.28498">
        <ele>726.89</ele>
        <time>2014-08-23T08:22:02Z</time>
      </trkpt>
      <trkpt lat="43.84563" lon="3.28457">
        <ele>724.49</ele>
        <time>2014-08-23T08:22:06Z</time>
      </trkpt>
      <trkpt lat="43.84553" lon="3.28451">
        <ele>723.53</ele>
        <time>2014-08-23T08:22:07Z</time>
      </trkpt>
      <trkpt lat="43.84543" lon="3.28447">
        <ele>722.09</ele>
        <time>2014-08-23T08:22:08Z</time>
      </trkpt>
      <trkpt lat="43.845" lon="3.2843">
        <ele>718.24</ele>
        <time>2014-08-23T08:22:12Z</time>
      </trkpt>
      <trkpt lat="43.8449" lon="3.28424">
        <ele>717.76</ele>
        <time>2014-08-23T08:22:13Z</time>
      </trkpt>
      <trkpt lat="43.84481" lon="3.28415">
        <ele>716.8</ele>
        <time>2014-08-23T08:22:14Z</time>
      </trkpt>
      <trkpt lat="43.84471" lon="3.28407">
        <ele>716.32</ele>
        <time>2014-08-23T08:22:15Z</time>
      </trkpt>
      <trkpt lat="43.84461" lon="3.28399">
        <ele>715.84</ele>
        <time>2014-08-23T08:22:16Z</time>
      </trkpt>
      <trkpt lat="43.84451" lon="3.28393">
        <ele>715.36</ele>
        <time>2014-08-23T08:22:17Z</time>
      </trkpt>
      <trkpt lat="43.84429" lon="3.28381">
        <ele>711.51</ele>
        <time>2014-08-23T08:22:19Z</time>
      </trkpt>
      <trkpt lat="43.84383" lon="3.28353">
        <ele>707.19</ele>
        <time>2014-08-23T08:22:23Z</time>
      </trkpt>
      <trkpt lat="43.8436" lon="3.2834">
        <ele>706.23</ele>
        <time>2014-08-23T08:22:25Z</time>
      </trkpt>
      <trkpt lat="43.84337" lon="3.28328">
        <ele>703.82</ele>
        <time>2014-08-23T08:22:27Z</time>
      </trkpt>
      <trkpt lat="43.84327" lon="3.2832">
        <ele>702.86</ele>
        <time>2014-08-23T08:22:28Z</time>
      </trkpt>
      <trkpt lat="43.84317" lon="3.2831">
        <ele>700.94</ele>
        <time>2014-08-23T08:22:29Z</time>
      </trkpt>
      <trkpt lat="43.8431" lon="3.28298">
        <ele>700.94</ele>
        <time>2014-08-23T08:22:30Z</time>
      </trkpt>
      <trkpt lat="43.84303" lon="3.28286">
        <ele>700.94</ele>
        <time>2014-08-23T08:22:31Z</time>
      </trkpt>
      <trkpt lat="43.84275" lon="3.28225">
        <ele>700.94</ele>
        <time>2014-08-23T08:22:36Z</time>
      </trkpt>
      <trkpt lat="43.84247" lon="3.28154">
        <ele>701.9</ele>
        <time>2014-08-23T08:22:43Z</time>
      </trkpt>
      <trkpt lat="43.84241" lon="3.28136">
        <ele>701.9</ele>
        <time>2014-08-23T08:22:45Z</time>
      </trkpt>
      <trkpt lat="43.84232" lon="3.28087">
        <ele>702.86</ele>
        <time>2014-08-23T08:22:51Z</time>
      </trkpt>
      <trkpt lat="43.84228" lon="3.28061">
        <ele>702.86</ele>
        <time>2014-08-23T08:22:55Z</time>
      </trkpt>
      <trkpt lat="43.84227" lon="3.28054">
        <ele>702.86</ele>
        <time>2014-08-23T08:22:56Z</time>
      </trkpt>
      <trkpt lat="43.84222" lon="3.28012">
        <ele>703.34</ele>
        <time>2014-08-23T08:23:04Z</time>
      </trkpt>
      <trkpt lat="43.84222" lon="3.27997">
        <ele>703.34</ele>
        <time>2014-08-23T08:23:07Z</time>
      </trkpt>
      <trkpt lat="43.84221" lon="3.27991">
        <ele>703.34</ele>
        <time>2014-08-23T08:23:08Z</time>
      </trkpt>
      <trkpt lat="43.8422" lon="3.27971">
        <ele>703.34</ele>
        <time>2014-08-23T08:23:11Z</time>
      </trkpt>
      <trkpt lat="43.8422" lon="3.27964">
        <ele>701.42</ele>
        <time>2014-08-23T08:23:12Z</time>
      </trkpt>
      <trkpt lat="43.84218" lon="3.27949">
        <ele>700.46</ele>
        <time>2014-08-23T08:23:14Z</time>
      </trkpt>
      <trkpt lat="43.84216" lon="3.27941">
        <ele>699.98</ele>
        <time>2014-08-23T08:23:15Z</time>
      </trkpt>
      <trkpt lat="43.84213" lon="3.27934">
        <ele>699.98</ele>
        <time>2014-08-23T08:23:16Z</time>
      </trkpt>
      <trkpt lat="43.84209" lon="3.27929">
        <ele>699.98</ele>
        <time>2014-08-23T08:23:17Z</time>
      </trkpt>
      <trkpt lat="43.84203" lon="3.27925">
        <ele>699.98</ele>
        <time>2014-08-23T08:23:18Z</time>
      </trkpt>
      <trkpt lat="43.84197" lon="3.27923">
        <ele>699.98</ele>
        <time>2014-08-23T08:23:19Z</time>
      </trkpt>
      <trkpt lat="43.84191" lon="3.27922">
        <ele>699.5</ele>
        <time>2014-08-23T08:23:20Z</time>
      </trkpt>
      <trkpt lat="43.84165" lon="3.27919">
        <ele>698.05</ele>
        <time>2014-08-23T08:23:24Z</time>
      </trkpt>
      <trkpt lat="43.84114" lon="3.2791">
        <ele>696.13</ele>
        <time>2014-08-23T08:23:32Z</time>
      </trkpt>
      <trkpt lat="43.8407" lon="3.27903">
        <ele>696.13</ele>
        <time>2014-08-23T08:23:40Z</time>
      </trkpt>
      <trkpt lat="43.84048" lon="3.279">
        <ele>696.13</ele>
        <time>2014-08-23T08:23:44Z</time>
      </trkpt>
      <trkpt lat="43.84043" lon="3.27897">
        <ele>696.13</ele>
        <time>2014-08-23T08:23:45Z</time>
      </trkpt>
      <trkpt lat="43.84011" lon="3.27883">
        <ele>694.21</ele>
        <time>2014-08-23T08:23:51Z</time>
      </trkpt>
      <trkpt lat="43.84" lon="3.27881">
        <ele>694.21</ele>
        <time>2014-08-23T08:23:53Z</time>
      </trkpt>
      <trkpt lat="43.83994" lon="3.27881">
        <ele>694.21</ele>
        <time>2014-08-23T08:23:54Z</time>
      </trkpt>
      <trkpt lat="43.83989" lon="3.27883">
        <ele>694.21</ele>
        <time>2014-08-23T08:23:55Z</time>
      </trkpt>
      <trkpt lat="43.83986" lon="3.27885">
        <ele>694.21</ele>
        <time>2014-08-23T08:23:56Z</time>
      </trkpt>
      <trkpt lat="43.83984" lon="3.27887">
        <ele>693.73</ele>
        <time>2014-08-23T08:23:57Z</time>
      </trkpt>
      <trkpt lat="43.83977" lon="3.27891">
        <ele>693.73</ele>
        <time>2014-08-23T08:24:03Z</time>
      </trkpt>
      <trkpt lat="43.83975" lon="3.2789">
        <ele>693.73</ele>
        <time>2014-08-23T08:24:04Z</time>
      </trkpt>
      <trkpt lat="43.83973" lon="3.27886">
        <ele>693.25</ele>
        <time>2014-08-23T08:24:05Z</time>
      </trkpt>
      <trkpt lat="43.83972" lon="3.27882">
        <ele>693.25</ele>
        <time>2014-08-23T08:24:06Z</time>
      </trkpt>
      <trkpt lat="43.83972" lon="3.27878">
        <ele>692.77</ele>
        <time>2014-08-23T08:24:07Z</time>
      </trkpt>
      <trkpt lat="43.83971" lon="3.27874">
        <ele>692.77</ele>
        <time>2014-08-23T08:24:08Z</time>
      </trkpt>
      <trkpt lat="43.8397" lon="3.27871">
        <ele>692.77</ele>
        <time>2014-08-23T08:24:09Z</time>
      </trkpt>
      <trkpt lat="43.83968" lon="3.27831">
        <ele>692.77</ele>
        <time>2014-08-23T08:24:18Z</time>
      </trkpt>
      <trkpt lat="43.83959" lon="3.2779">
        <ele>693.25</ele>
        <time>2014-08-23T08:24:27Z</time>
      </trkpt>
      <trkpt lat="43.83948" lon="3.27785">
        <ele>693.25</ele>
        <time>2014-08-23T08:24:30Z</time>
      </trkpt>
      <trkpt lat="43.83945" lon="3.27787">
        <ele>693.25</ele>
        <time>2014-08-23T08:24:31Z</time>
      </trkpt>
      <trkpt lat="43.83932" lon="3.27794">
        <ele>691.81</ele>
        <time>2014-08-23T08:24:34Z</time>
      </trkpt>
      <trkpt lat="43.83911" lon="3.27806">
        <ele>691.33</ele>
        <time>2014-08-23T08:24:39Z</time>
      </trkpt>
      <trkpt lat="43.83893" lon="3.27815">
        <ele>690.84</ele>
        <time>2014-08-23T08:24:43Z</time>
      </trkpt>
      <trkpt lat="43.83888" lon="3.27817">
        <ele>690.36</ele>
        <time>2014-08-23T08:24:44Z</time>
      </trkpt>
      <trkpt lat="43.8387" lon="3.27824">
        <ele>690.36</ele>
        <time>2014-08-23T08:24:48Z</time>
      </trkpt>
      <trkpt lat="43.83865" lon="3.27825">
        <ele>690.36</ele>
        <time>2014-08-23T08:24:49Z</time>
      </trkpt>
      <trkpt lat="43.8386" lon="3.27825">
        <ele>690.36</ele>
        <time>2014-08-23T08:24:50Z</time>
      </trkpt>
      <trkpt lat="43.83849" lon="3.27825">
        <ele>690.36</ele>
        <time>2014-08-23T08:24:52Z</time>
      </trkpt>
      <trkpt lat="43.83797" lon="3.27817">
        <ele>689.88</ele>
        <time>2014-08-23T08:25:02Z</time>
      </trkpt>
      <trkpt lat="43.83761" lon="3.27813">
        <ele>690.84</ele>
        <time>2014-08-23T08:25:10Z</time>
      </trkpt>
      <trkpt lat="43.83726" lon="3.27805">
        <ele>689.88</ele>
        <time>2014-08-23T08:25:17Z</time>
      </trkpt>
      <trkpt lat="43.83691" lon="3.2779">
        <ele>689.4</ele>
        <time>2014-08-23T08:25:24Z</time>
      </trkpt>
      <trkpt lat="43.83643" lon="3.27764">
        <ele>687.96</ele>
        <time>2014-08-23T08:25:34Z</time>
      </trkpt>
      <trkpt lat="43.83637" lon="3.27763">
        <ele>687.96</ele>
        <time>2014-08-23T08:25:35Z</time>
      </trkpt>
      <trkpt lat="43.83631" lon="3.27763">
        <ele>687.96</ele>
        <time>2014-08-23T08:25:36Z</time>
      </trkpt>
      <trkpt lat="43.83625" lon="3.27764">
        <ele>687.96</ele>
        <time>2014-08-23T08:25:37Z</time>
      </trkpt>
      <trkpt lat="43.83619" lon="3.27766">
        <ele>687.48</ele>
        <time>2014-08-23T08:25:38Z</time>
      </trkpt>
      <trkpt lat="43.83614" lon="3.27769">
        <ele>687.48</ele>
        <time>2014-08-23T08:25:39Z</time>
      </trkpt>
      <trkpt lat="43.83608" lon="3.27773">
        <ele>687.48</ele>
        <time>2014-08-23T08:25:40Z</time>
      </trkpt>
      <trkpt lat="43.83587" lon="3.27788">
        <ele>687.48</ele>
        <time>2014-08-23T08:25:44Z</time>
      </trkpt>
      <trkpt lat="43.83576" lon="3.27794">
        <ele>687.48</ele>
        <time>2014-08-23T08:25:46Z</time>
      </trkpt>
      <trkpt lat="43.83571" lon="3.27796">
        <ele>687.48</ele>
        <time>2014-08-23T08:25:47Z</time>
      </trkpt>
      <trkpt lat="43.83565" lon="3.27797">
        <ele>687</ele>
        <time>2014-08-23T08:25:48Z</time>
      </trkpt>
      <trkpt lat="43.83523" lon="3.27795">
        <ele>687</ele>
        <time>2014-08-23T08:25:56Z</time>
      </trkpt>
      <trkpt lat="43.83507" lon="3.27783">
        <ele>688.44</ele>
        <time>2014-08-23T08:26:00Z</time>
      </trkpt>
      <trkpt lat="43.83477" lon="3.27751">
        <ele>689.88</ele>
        <time>2014-08-23T08:26:09Z</time>
      </trkpt>
      <trkpt lat="43.83451" lon="3.2772">
        <ele>691.33</ele>
        <time>2014-08-23T08:26:19Z</time>
      </trkpt>
      <trkpt lat="43.83429" lon="3.27683">
        <ele>693.25</ele>
        <time>2014-08-23T08:26:30Z</time>
      </trkpt>
      <trkpt lat="43.83409" lon="3.27649">
        <ele>694.69</ele>
        <time>2014-08-23T08:26:40Z</time>
      </trkpt>
      <trkpt lat="43.8339" lon="3.27625">
        <ele>695.65</ele>
        <time>2014-08-23T08:26:48Z</time>
      </trkpt>
      <trkpt lat="43.83367" lon="3.27603">
        <ele>696.61</ele>
        <time>2014-08-23T08:26:56Z</time>
      </trkpt>
      <trkpt lat="43.83329" lon="3.27574">
        <ele>696.61</ele>
        <time>2014-08-23T08:27:07Z</time>
      </trkpt>
      <trkpt lat="43.83303" lon="3.2757">
        <ele>697.09</ele>
        <time>2014-08-23T08:27:14Z</time>
      </trkpt>
      <trkpt lat="43.83282" lon="3.27546">
        <ele>697.57</ele>
        <time>2014-08-23T08:27:21Z</time>
      </trkpt>
      <trkpt lat="43.83253" lon="3.27508">
        <ele>699.02</ele>
        <time>2014-08-23T08:27:31Z</time>
      </trkpt>
      <trkpt lat="43.83216" lon="3.27468">
        <ele>700.46</ele>
        <time>2014-08-23T08:27:43Z</time>
      </trkpt>
      <trkpt lat="43.83182" lon="3.27434">
        <ele>701.42</ele>
        <time>2014-08-23T08:27:54Z</time>
      </trkpt>
      <trkpt lat="43.83158" lon="3.2741">
        <ele>702.38</ele>
        <time>2014-08-23T08:28:02Z</time>
      </trkpt>
      <trkpt lat="43.83136" lon="3.27388">
        <ele>703.34</ele>
        <time>2014-08-23T08:28:09Z</time>
      </trkpt>
      <trkpt lat="43.8311" lon="3.27367">
        <ele>703.34</ele>
        <time>2014-08-23T08:28:17Z</time>
      </trkpt>
      <trkpt lat="43.83088" lon="3.27352">
        <ele>703.82</ele>
        <time>2014-08-23T08:28:24Z</time>
      </trkpt>
      <trkpt lat="43.83076" lon="3.27325">
        <ele>703.82</ele>
        <time>2014-08-23T08:28:30Z</time>
      </trkpt>
      <trkpt lat="43.83081" lon="3.27294">
        <ele>703.82</ele>
        <time>2014-08-23T08:28:36Z</time>
      </trkpt>
      <trkpt lat="43.831" lon="3.27244">
        <ele>705.75</ele>
        <time>2014-08-23T08:28:47Z</time>
      </trkpt>
      <trkpt lat="43.83099" lon="3.27214">
        <ele>706.71</ele>
        <time>2014-08-23T08:28:53Z</time>
      </trkpt>
      <trkpt lat="43.83083" lon="3.27183">
        <ele>708.15</ele>
        <time>2014-08-23T08:29:01Z</time>
      </trkpt>
      <trkpt lat="43.83056" lon="3.27154">
        <ele>708.63</ele>
        <time>2014-08-23T08:29:11Z</time>
      </trkpt>
      <trkpt lat="43.83026" lon="3.27117">
        <ele>710.07</ele>
        <time>2014-08-23T08:29:22Z</time>
      </trkpt>
      <trkpt lat="43.83" lon="3.27082">
        <ele>709.59</ele>
        <time>2014-08-23T08:29:31Z</time>
      </trkpt>
      <trkpt lat="43.82975" lon="3.27045">
        <ele>708.63</ele>
        <time>2014-08-23T08:29:40Z</time>
      </trkpt>
      <trkpt lat="43.82962" lon="3.27023">
        <ele>710.07</ele>
        <time>2014-08-23T08:29:46Z</time>
      </trkpt>
      <trkpt lat="43.82944" lon="3.26982">
        <ele>710.55</ele>
        <time>2014-08-23T08:29:55Z</time>
      </trkpt>
      <trkpt lat="43.82925" lon="3.26945">
        <ele>711.51</ele>
        <time>2014-08-23T08:30:04Z</time>
      </trkpt>
      <trkpt lat="43.82904" lon="3.26916">
        <ele>712.95</ele>
        <time>2014-08-23T08:30:12Z</time>
      </trkpt>
      <trkpt lat="43.8287" lon="3.26856">
        <ele>713.44</ele>
        <time>2014-08-23T08:30:25Z</time>
      </trkpt>
      <trkpt lat="43.82845" lon="3.26818">
        <ele>713.92</ele>
        <time>2014-08-23T08:30:34Z</time>
      </trkpt>
      <trkpt lat="43.82842" lon="3.26814">
        <ele>713.92</ele>
        <time>2014-08-23T08:30:35Z</time>
      </trkpt>
      <trkpt lat="43.82815" lon="3.26777">
        <ele>714.4</ele>
        <time>2014-08-23T08:30:44Z</time>
      </trkpt>
      <trkpt lat="43.82812" lon="3.26773">
        <ele>714.4</ele>
        <time>2014-08-23T08:30:45Z</time>
      </trkpt>
      <trkpt lat="43.82807" lon="3.26765">
        <ele>713.44</ele>
        <time>2014-08-23T08:30:47Z</time>
      </trkpt>
      <trkpt lat="43.82776" lon="3.26722">
        <ele>713.44</ele>
        <time>2014-08-23T08:30:57Z</time>
      </trkpt>
      <trkpt lat="43.82741" lon="3.26676">
        <ele>712.95</ele>
        <time>2014-08-23T08:31:08Z</time>
      </trkpt>
      <trkpt lat="43.82713" lon="3.26635">
        <ele>712.95</ele>
        <time>2014-08-23T08:31:17Z</time>
      </trkpt>
      <trkpt lat="43.82676" lon="3.26592">
        <ele>712.95</ele>
        <time>2014-08-23T08:31:27Z</time>
      </trkpt>
      <trkpt lat="43.82631" lon="3.26548">
        <ele>712.47</ele>
        <time>2014-08-23T08:31:38Z</time>
      </trkpt>
      <trkpt lat="43.8259" lon="3.26506">
        <ele>711.99</ele>
        <time>2014-08-23T08:31:49Z</time>
      </trkpt>
      <trkpt lat="43.8258" lon="3.26493">
        <ele>711.99</ele>
        <time>2014-08-23T08:31:52Z</time>
      </trkpt>
      <trkpt lat="43.82561" lon="3.26474">
        <ele>711.51</ele>
        <time>2014-08-23T08:31:57Z</time>
      </trkpt>
      <trkpt lat="43.82543" lon="3.26461">
        <ele>710.55</ele>
        <time>2014-08-23T08:32:01Z</time>
      </trkpt>
      <trkpt lat="43.82534" lon="3.26456">
        <ele>710.55</ele>
        <time>2014-08-23T08:32:03Z</time>
      </trkpt>
      <trkpt lat="43.82529" lon="3.26452">
        <ele>710.55</ele>
        <time>2014-08-23T08:32:04Z</time>
      </trkpt>
      <trkpt lat="43.82525" lon="3.26448">
        <ele>709.59</ele>
        <time>2014-08-23T08:32:05Z</time>
      </trkpt>
      <trkpt lat="43.82513" lon="3.26432">
        <ele>708.15</ele>
        <time>2014-08-23T08:32:08Z</time>
      </trkpt>
      <trkpt lat="43.82483" lon="3.26381">
        <ele>707.67</ele>
        <time>2014-08-23T08:32:16Z</time>
      </trkpt>
      <trkpt lat="43.82478" lon="3.26376">
        <ele>707.67</ele>
        <time>2014-08-23T08:32:17Z</time>
      </trkpt>
      <trkpt lat="43.82473" lon="3.26371">
        <ele>707.67</ele>
        <time>2014-08-23T08:32:18Z</time>
      </trkpt>
      <trkpt lat="43.82468" lon="3.26368">
        <ele>707.19</ele>
        <time>2014-08-23T08:32:19Z</time>
      </trkpt>
      <trkpt lat="43.82462" lon="3.26366">
        <ele>707.19</ele>
        <time>2014-08-23T08:32:20Z</time>
      </trkpt>
      <trkpt lat="43.82456" lon="3.26366">
        <ele>706.71</ele>
        <time>2014-08-23T08:32:21Z</time>
      </trkpt>
      <trkpt lat="43.8245" lon="3.26366">
        <ele>706.71</ele>
        <time>2014-08-23T08:32:22Z</time>
      </trkpt>
      <trkpt lat="43.82419" lon="3.26376">
        <ele>706.71</ele>
        <time>2014-08-23T08:32:28Z</time>
      </trkpt>
      <trkpt lat="43.82413" lon="3.26379">
        <ele>706.71</ele>
        <time>2014-08-23T08:32:29Z</time>
      </trkpt>
      <trkpt lat="43.82408" lon="3.26382">
        <ele>706.23</ele>
        <time>2014-08-23T08:32:30Z</time>
      </trkpt>
      <trkpt lat="43.82353" lon="3.26413">
        <ele>704.3</ele>
        <time>2014-08-23T08:32:40Z</time>
      </trkpt>
      <trkpt lat="43.82306" lon="3.26438">
        <ele>703.82</ele>
        <time>2014-08-23T08:32:48Z</time>
      </trkpt>
      <trkpt lat="43.82302" lon="3.26441">
        <ele>703.82</ele>
        <time>2014-08-23T08:32:49Z</time>
      </trkpt>
      <trkpt lat="43.82288" lon="3.26456">
        <ele>703.82</ele>
        <time>2014-08-23T08:32:54Z</time>
      </trkpt>
      <trkpt lat="43.82287" lon="3.26458">
        <ele>705.26</ele>
        <time>2014-08-23T08:32:58Z</time>
      </trkpt>
      <trkpt lat="43.82287" lon="3.26457">
        <ele>705.26</ele>
        <time>2014-08-23T08:33:04Z</time>
      </trkpt>
      <trkpt lat="43.82287" lon="3.26457">
        <ele>705.26</ele>
        <time>2014-08-23T08:33:13Z</time>
      </trkpt>
      <trkpt lat="43.82286" lon="3.26459">
        <ele>705.26</ele>
        <time>2014-08-23T08:33:18Z</time>
      </trkpt>
      <trkpt lat="43.82286" lon="3.26459">
        <ele>705.75</ele>
        <time>2014-08-23T08:33:31Z</time>
      </trkpt>
      <trkpt lat="43.82286" lon="3.2646">
        <ele>705.75</ele>
        <time>2014-08-23T08:33:40Z</time>
      </trkpt>
      <trkpt lat="43.82286" lon="3.26461">
        <ele>704.3</ele>
        <time>2014-08-23T08:33:48Z</time>
      </trkpt>
      <trkpt lat="43.82285" lon="3.2646">
        <ele>704.3</ele>
        <time>2014-08-23T08:33:59Z</time>
      </trkpt>
      <trkpt lat="43.82285" lon="3.26461">
        <ele>704.3</ele>
        <time>2014-08-23T08:34:08Z</time>
      </trkpt>
      <trkpt lat="43.82286" lon="3.2646">
        <ele>704.3</ele>
        <time>2014-08-23T08:34:17Z</time>
      </trkpt>
      <trkpt lat="43.82286" lon="3.2646">
        <ele>703.82</ele>
        <time>2014-08-23T08:34:29Z</time>
      </trkpt>
      <trkpt lat="43.82286" lon="3.26459">
        <ele>705.26</ele>
        <time>2014-08-23T08:34:40Z</time>
      </trkpt>
      <trkpt lat="43.82286" lon="3.26459">
        <ele>704.78</ele>
        <time>2014-08-23T08:34:58Z</time>
      </trkpt>
      <trkpt lat="43.82286" lon="3.26459">
        <ele>704.78</ele>
        <time>2014-08-23T08:35:13Z</time>
      </trkpt>
      <trkpt lat="43.82287" lon="3.26459">
        <ele>704.78</ele>
        <time>2014-08-23T08:35:41Z</time>
      </trkpt>
      <trkpt lat="43.82286" lon="3.26459">
        <ele>703.82</ele>
        <time>2014-08-23T08:35:56Z</time>
      </trkpt>
      <trkpt lat="43.82285" lon="3.2646">
        <ele>703.82</ele>
        <time>2014-08-23T08:36:05Z</time>
      </trkpt>
      <trkpt lat="43.82285" lon="3.26459">
        <ele>703.34</ele>
        <time>2014-08-23T08:36:22Z</time>
      </trkpt>
      <trkpt lat="43.82285" lon="3.26459">
        <ele>703.34</ele>
        <time>2014-08-23T08:36:35Z</time>
      </trkpt>
      <trkpt lat="43.82285" lon="3.26459">
        <ele>699.98</ele>
        <time>2014-08-23T08:36:36Z</time>
      </trkpt>
      <trkpt lat="43.82285" lon="3.26459">
        <ele>705.75</ele>
        <time>2014-08-23T08:36:37Z</time>
      </trkpt>
      <trkpt lat="43.82286" lon="3.26459">
        <ele>703.82</ele>
        <time>2014-08-23T08:36:50Z</time>
      </trkpt>
      <trkpt lat="43.82286" lon="3.2646">
        <ele>704.3</ele>
        <time>2014-08-23T08:37:08Z</time>
      </trkpt>
      <trkpt lat="43.82286" lon="3.2646">
        <ele>702.86</ele>
        <time>2014-08-23T08:37:13Z</time>
      </trkpt>
      <trkpt lat="43.82286" lon="3.2646">
        <ele>705.75</ele>
        <time>2014-08-23T08:37:14Z</time>
      </trkpt>
      <trkpt lat="43.82285" lon="3.2646">
        <ele>703.82</ele>
        <time>2014-08-23T08:37:28Z</time>
      </trkpt>
      <trkpt lat="43.82283" lon="3.26461">
        <ele>703.82</ele>
        <time>2014-08-23T08:37:35Z</time>
      </trkpt>
      <trkpt lat="43.82283" lon="3.26462">
        <ele>703.34</ele>
        <time>2014-08-23T08:37:41Z</time>
      </trkpt>
      <trkpt lat="43.82282" lon="3.26463">
        <ele>702.86</ele>
        <time>2014-08-23T08:37:46Z</time>
      </trkpt>
      <trkpt lat="43.82282" lon="3.26463">
        <ele>702.86</ele>
        <time>2014-08-23T08:38:00Z</time>
      </trkpt>
      <trkpt lat="43.82284" lon="3.26463">
        <ele>702.86</ele>
        <time>2014-08-23T08:38:10Z</time>
      </trkpt>
      <trkpt lat="43.82284" lon="3.26462">
        <ele>702.38</ele>
        <time>2014-08-23T08:38:21Z</time>
      </trkpt>
      <trkpt lat="43.82285" lon="3.26463">
        <ele>702.38</ele>
        <time>2014-08-23T08:38:37Z</time>
      </trkpt>
      <trkpt lat="43.82285" lon="3.26463">
        <ele>702.38</ele>
        <time>2014-08-23T08:38:59Z</time>
      </trkpt>
      <trkpt lat="43.82285" lon="3.26464">
        <ele>701.9</ele>
        <time>2014-08-23T08:39:14Z</time>
      </trkpt>
      <trkpt lat="43.82286" lon="3.26463">
        <ele>701.9</ele>
        <time>2014-08-23T08:39:30Z</time>
      </trkpt>
      <trkpt lat="43.82285" lon="3.26464">
        <ele>702.86</ele>
        <time>2014-08-23T08:39:42Z</time>
      </trkpt>
      <trkpt lat="43.82284" lon="3.26464">
        <ele>701.9</ele>
        <time>2014-08-23T08:39:56Z</time>
      </trkpt>
      <trkpt lat="43.82284" lon="3.26464">
        <ele>701.9</ele>
        <time>2014-08-23T08:40:13Z</time>
      </trkpt>
      <trkpt lat="43.82284" lon="3.26463">
        <ele>701.9</ele>
        <time>2014-08-23T08:40:29Z</time>
      </trkpt>
      <trkpt lat="43.82286" lon="3.26461">
        <ele>701.42</ele>
        <time>2014-08-23T08:40:45Z</time>
      </trkpt>
      <trkpt lat="43.82285" lon="3.26462">
        <ele>701.42</ele>
        <time>2014-08-23T08:40:58Z</time>
      </trkpt>
      <trkpt lat="43.82284" lon="3.26462">
        <ele>701.42</ele>
        <time>2014-08-23T08:41:09Z</time>
      </trkpt>
      <trkpt lat="43.82285" lon="3.26462">
        <ele>701.42</ele>
        <time>2014-08-23T08:41:25Z</time>
      </trkpt>
      <trkpt lat="43.82283" lon="3.26465">
        <ele>702.86</ele>
        <time>2014-08-23T08:41:36Z</time>
      </trkpt>
      <trkpt lat="43.82282" lon="3.26466">
        <ele>702.86</ele>
        <time>2014-08-23T08:41:37Z</time>
      </trkpt>
      <trkpt lat="43.82276" lon="3.26473">
        <ele>702.86</ele>
        <time>2014-08-23T08:41:42Z</time>
      </trkpt>
      <trkpt lat="43.82275" lon="3.26475">
        <ele>703.34</ele>
        <time>2014-08-23T08:41:43Z</time>
      </trkpt>
      <trkpt lat="43.82264" lon="3.26488">
        <ele>702.86</ele>
        <time>2014-08-23T08:41:49Z</time>
      </trkpt>
      <trkpt lat="43.82248" lon="3.26496">
        <ele>702.86</ele>
        <time>2014-08-23T08:41:55Z</time>
      </trkpt>
      <trkpt lat="43.82228" lon="3.26492">
        <ele>702.86</ele>
        <time>2014-08-23T08:42:02Z</time>
      </trkpt>
      <trkpt lat="43.82208" lon="3.26472">
        <ele>702.86</ele>
        <time>2014-08-23T08:42:10Z</time>
      </trkpt>
      <trkpt lat="43.82193" lon="3.26446">
        <ele>702.86</ele>
        <time>2014-08-23T08:42:17Z</time>
      </trkpt>
      <trkpt lat="43.8218" lon="3.26432">
        <ele>702.86</ele>
        <time>2014-08-23T08:42:22Z</time>
      </trkpt>
      <trkpt lat="43.82177" lon="3.26432">
        <ele>702.86</ele>
        <time>2014-08-23T08:42:23Z</time>
      </trkpt>
      <trkpt lat="43.82173" lon="3.26433">
        <ele>703.34</ele>
        <time>2014-08-23T08:42:24Z</time>
      </trkpt>
      <trkpt lat="43.82143" lon="3.26446">
        <ele>703.82</ele>
        <time>2014-08-23T08:42:32Z</time>
      </trkpt>
      <trkpt lat="43.82107" lon="3.26457">
        <ele>704.78</ele>
        <time>2014-08-23T08:42:41Z</time>
      </trkpt>
      <trkpt lat="43.82087" lon="3.26444">
        <ele>706.23</ele>
        <time>2014-08-23T08:42:47Z</time>
      </trkpt>
      <trkpt lat="43.8207" lon="3.26424">
        <ele>708.15</ele>
        <time>2014-08-23T08:42:54Z</time>
      </trkpt>
      <trkpt lat="43.82049" lon="3.26409">
        <ele>709.59</ele>
        <time>2014-08-23T08:43:02Z</time>
      </trkpt>
      <trkpt lat="43.82034" lon="3.26408">
        <ele>709.59</ele>
        <time>2014-08-23T08:43:06Z</time>
      </trkpt>
      <trkpt lat="43.8203" lon="3.26411">
        <ele>709.59</ele>
        <time>2014-08-23T08:43:07Z</time>
      </trkpt>
      <trkpt lat="43.82026" lon="3.26414">
        <ele>708.15</ele>
        <time>2014-08-23T08:43:08Z</time>
      </trkpt>
      <trkpt lat="43.82022" lon="3.2642">
        <ele>707.67</ele>
        <time>2014-08-23T08:43:09Z</time>
      </trkpt>
      <trkpt lat="43.82018" lon="3.26426">
        <ele>707.67</ele>
        <time>2014-08-23T08:43:10Z</time>
      </trkpt>
      <trkpt lat="43.82014" lon="3.26432">
        <ele>707.67</ele>
        <time>2014-08-23T08:43:11Z</time>
      </trkpt>
      <trkpt lat="43.82011" lon="3.26439">
        <ele>706.71</ele>
        <time>2014-08-23T08:43:12Z</time>
      </trkpt>
      <trkpt lat="43.82005" lon="3.26453">
        <ele>706.23</ele>
        <time>2014-08-23T08:43:14Z</time>
      </trkpt>
      <trkpt lat="43.82003" lon="3.26461">
        <ele>706.23</ele>
        <time>2014-08-23T08:43:15Z</time>
      </trkpt>
      <trkpt lat="43.81995" lon="3.26486">
        <ele>706.23</ele>
        <time>2014-08-23T08:43:19Z</time>
      </trkpt>
      <trkpt lat="43.81981" lon="3.26531">
        <ele>706.23</ele>
        <time>2014-08-23T08:43:26Z</time>
      </trkpt>
      <trkpt lat="43.8198" lon="3.26538">
        <ele>707.67</ele>
        <time>2014-08-23T08:43:27Z</time>
      </trkpt>
      <trkpt lat="43.81979" lon="3.26544">
        <ele>708.15</ele>
        <time>2014-08-23T08:43:28Z</time>
      </trkpt>
      <trkpt lat="43.81977" lon="3.26556">
        <ele>709.11</ele>
        <time>2014-08-23T08:43:30Z</time>
      </trkpt>
      <trkpt lat="43.81977" lon="3.26562">
        <ele>709.59</ele>
        <time>2014-08-23T08:43:31Z</time>
      </trkpt>
      <trkpt lat="43.81977" lon="3.26568">
        <ele>709.59</ele>
        <time>2014-08-23T08:43:32Z</time>
      </trkpt>
      <trkpt lat="43.81978" lon="3.26573">
        <ele>710.07</ele>
        <time>2014-08-23T08:43:33Z</time>
      </trkpt>
      <trkpt lat="43.8198" lon="3.26578">
        <ele>710.55</ele>
        <time>2014-08-23T08:43:34Z</time>
      </trkpt>
      <trkpt lat="43.81992" lon="3.26618">
        <ele>711.51</ele>
        <time>2014-08-23T08:43:43Z</time>
      </trkpt>
      <trkpt lat="43.81996" lon="3.26647">
        <ele>711.99</ele>
        <time>2014-08-23T08:43:49Z</time>
      </trkpt>
      <trkpt lat="43.81995" lon="3.26687">
        <ele>712.95</ele>
        <time>2014-08-23T08:43:57Z</time>
      </trkpt>
      <trkpt lat="43.81992" lon="3.26727">
        <ele>713.44</ele>
        <time>2014-08-23T08:44:05Z</time>
      </trkpt>
      <trkpt lat="43.81988" lon="3.26743">
        <ele>713.44</ele>
        <time>2014-08-23T08:44:08Z</time>
      </trkpt>
      <trkpt lat="43.81972" lon="3.26792">
        <ele>713.92</ele>
        <time>2014-08-23T08:44:18Z</time>
      </trkpt>
      <trkpt lat="43.81955" lon="3.26825">
        <ele>715.36</ele>
        <time>2014-08-23T08:44:27Z</time>
      </trkpt>
      <trkpt lat="43.81937" lon="3.26846">
        <ele>716.32</ele>
        <time>2014-08-23T08:44:35Z</time>
      </trkpt>
      <trkpt lat="43.81915" lon="3.26868">
        <ele>717.28</ele>
        <time>2014-08-23T08:44:44Z</time>
      </trkpt>
      <trkpt lat="43.81889" lon="3.26892">
        <ele>718.72</ele>
        <time>2014-08-23T08:44:54Z</time>
      </trkpt>
      <trkpt lat="43.81865" lon="3.26898">
        <ele>719.2</ele>
        <time>2014-08-23T08:45:01Z</time>
      </trkpt>
      <trkpt lat="43.81839" lon="3.26893">
        <ele>718.24</ele>
        <time>2014-08-23T08:45:09Z</time>
      </trkpt>
      <trkpt lat="43.8182" lon="3.26886">
        <ele>720.16</ele>
        <time>2014-08-23T08:45:14Z</time>
      </trkpt>
      <trkpt lat="43.81787" lon="3.26875">
        <ele>718.72</ele>
        <time>2014-08-23T08:45:23Z</time>
      </trkpt>
      <trkpt lat="43.81756" lon="3.26869">
        <ele>718.72</ele>
        <time>2014-08-23T08:45:31Z</time>
      </trkpt>
      <trkpt lat="43.81748" lon="3.26868">
        <ele>720.16</ele>
        <time>2014-08-23T08:45:33Z</time>
      </trkpt>
      <trkpt lat="43.81727" lon="3.26868">
        <ele>721.61</ele>
        <time>2014-08-23T08:45:40Z</time>
      </trkpt>
      <trkpt lat="43.81712" lon="3.2687">
        <ele>723.53</ele>
        <time>2014-08-23T08:45:46Z</time>
      </trkpt>
      <trkpt lat="43.81696" lon="3.26869">
        <ele>726.41</ele>
        <time>2014-08-23T08:45:52Z</time>
      </trkpt>
      <trkpt lat="43.81679" lon="3.26864">
        <ele>729.3</ele>
        <time>2014-08-23T08:45:59Z</time>
      </trkpt>
      <trkpt lat="43.8166" lon="3.26863">
        <ele>731.22</ele>
        <time>2014-08-23T08:46:07Z</time>
      </trkpt>
      <trkpt lat="43.8164" lon="3.26874">
        <ele>733.62</ele>
        <time>2014-08-23T08:46:15Z</time>
      </trkpt>
      <trkpt lat="43.81618" lon="3.2688">
        <ele>735.55</ele>
        <time>2014-08-23T08:46:23Z</time>
      </trkpt>
      <trkpt lat="43.81601" lon="3.26881">
        <ele>734.58</ele>
        <time>2014-08-23T08:46:28Z</time>
      </trkpt>
      <trkpt lat="43.81564" lon="3.26882">
        <ele>732.18</ele>
        <time>2014-08-23T08:46:35Z</time>
      </trkpt>
      <trkpt lat="43.81551" lon="3.26881">
        <ele>730.74</ele>
        <time>2014-08-23T08:46:37Z</time>
      </trkpt>
      <trkpt lat="43.81543" lon="3.26882">
        <ele>730.26</ele>
        <time>2014-08-23T08:46:38Z</time>
      </trkpt>
      <trkpt lat="43.81536" lon="3.26884">
        <ele>729.78</ele>
        <time>2014-08-23T08:46:39Z</time>
      </trkpt>
      <trkpt lat="43.81474" lon="3.26895">
        <ele>727.37</ele>
        <time>2014-08-23T08:46:47Z</time>
      </trkpt>
      <trkpt lat="43.81459" lon="3.26897">
        <ele>727.37</ele>
        <time>2014-08-23T08:46:49Z</time>
      </trkpt>
      <trkpt lat="43.81413" lon="3.26909">
        <ele>725.45</ele>
        <time>2014-08-23T08:46:55Z</time>
      </trkpt>
      <trkpt lat="43.81389" lon="3.26911">
        <ele>724.49</ele>
        <time>2014-08-23T08:46:58Z</time>
      </trkpt>
      <trkpt lat="43.81382" lon="3.26913">
        <ele>724.49</ele>
        <time>2014-08-23T08:46:59Z</time>
      </trkpt>
      <trkpt lat="43.81375" lon="3.26916">
        <ele>724.49</ele>
        <time>2014-08-23T08:47:00Z</time>
      </trkpt>
      <trkpt lat="43.81349" lon="3.26931">
        <ele>726.41</ele>
        <time>2014-08-23T08:47:04Z</time>
      </trkpt>
      <trkpt lat="43.81331" lon="3.26939">
        <ele>727.86</ele>
        <time>2014-08-23T08:47:07Z</time>
      </trkpt>
      <trkpt lat="43.81293" lon="3.26946">
        <ele>730.74</ele>
        <time>2014-08-23T08:47:14Z</time>
      </trkpt>
      <trkpt lat="43.81257" lon="3.2695">
        <ele>731.22</ele>
        <time>2014-08-23T08:47:21Z</time>
      </trkpt>
      <trkpt lat="43.81253" lon="3.2695">
        <ele>731.22</ele>
        <time>2014-08-23T08:47:22Z</time>
      </trkpt>
      <trkpt lat="43.8124" lon="3.26947">
        <ele>731.7</ele>
        <time>2014-08-23T08:47:25Z</time>
      </trkpt>
      <trkpt lat="43.81216" lon="3.26939">
        <ele>732.18</ele>
        <time>2014-08-23T08:47:30Z</time>
      </trkpt>
      <trkpt lat="43.81192" lon="3.2693">
        <ele>734.1</ele>
        <time>2014-08-23T08:47:37Z</time>
      </trkpt>
      <trkpt lat="43.81177" lon="3.2693">
        <ele>735.07</ele>
        <time>2014-08-23T08:47:43Z</time>
      </trkpt>
      <trkpt lat="43.81148" lon="3.26933">
        <ele>737.47</ele>
        <time>2014-08-23T08:47:52Z</time>
      </trkpt>
      <trkpt lat="43.81142" lon="3.26934">
        <ele>737.95</ele>
        <time>2014-08-23T08:47:54Z</time>
      </trkpt>
      <trkpt lat="43.81116" lon="3.2693">
        <ele>739.39</ele>
        <time>2014-08-23T08:48:03Z</time>
      </trkpt>
      <trkpt lat="43.81093" lon="3.26918">
        <ele>741.31</ele>
        <time>2014-08-23T08:48:12Z</time>
      </trkpt>
      <trkpt lat="43.81073" lon="3.26907">
        <ele>742.76</ele>
        <time>2014-08-23T08:48:20Z</time>
      </trkpt>
      <trkpt lat="43.81047" lon="3.26898">
        <ele>743.72</ele>
        <time>2014-08-23T08:48:29Z</time>
      </trkpt>
      <trkpt lat="43.81017" lon="3.26891">
        <ele>741.79</ele>
        <time>2014-08-23T08:48:37Z</time>
      </trkpt>
      <trkpt lat="43.80998" lon="3.26886">
        <ele>741.79</ele>
        <time>2014-08-23T08:48:41Z</time>
      </trkpt>
      <trkpt lat="43.80994" lon="3.26886">
        <ele>741.79</ele>
        <time>2014-08-23T08:48:42Z</time>
      </trkpt>
      <trkpt lat="43.8099" lon="3.26885">
        <ele>741.79</ele>
        <time>2014-08-23T08:48:43Z</time>
      </trkpt>
      <trkpt lat="43.80986" lon="3.26883">
        <ele>741.31</ele>
        <time>2014-08-23T08:48:44Z</time>
      </trkpt>
      <trkpt lat="43.80981" lon="3.26881">
        <ele>741.31</ele>
        <time>2014-08-23T08:48:45Z</time>
      </trkpt>
      <trkpt lat="43.80977" lon="3.26877">
        <ele>740.83</ele>
        <time>2014-08-23T08:48:46Z</time>
      </trkpt>
      <trkpt lat="43.80971" lon="3.26873">
        <ele>739.87</ele>
        <time>2014-08-23T08:48:47Z</time>
      </trkpt>
      <trkpt lat="43.80948" lon="3.26854">
        <ele>737.47</ele>
        <time>2014-08-23T08:48:51Z</time>
      </trkpt>
      <trkpt lat="43.80933" lon="3.26846">
        <ele>737.47</ele>
        <time>2014-08-23T08:48:53Z</time>
      </trkpt>
      <trkpt lat="43.80925" lon="3.26843">
        <ele>736.51</ele>
        <time>2014-08-23T08:48:54Z</time>
      </trkpt>
      <trkpt lat="43.80916" lon="3.26843">
        <ele>735.55</ele>
        <time>2014-08-23T08:48:55Z</time>
      </trkpt>
      <trkpt lat="43.8089" lon="3.26847">
        <ele>734.58</ele>
        <time>2014-08-23T08:48:58Z</time>
      </trkpt>
      <trkpt lat="43.80882" lon="3.26851">
        <ele>733.14</ele>
        <time>2014-08-23T08:48:59Z</time>
      </trkpt>
      <trkpt lat="43.80875" lon="3.26856">
        <ele>733.14</ele>
        <time>2014-08-23T08:49:00Z</time>
      </trkpt>
      <trkpt lat="43.80859" lon="3.26866">
        <ele>733.14</ele>
        <time>2014-08-23T08:49:02Z</time>
      </trkpt>
      <trkpt lat="43.8085" lon="3.26868">
        <ele>732.66</ele>
        <time>2014-08-23T08:49:03Z</time>
      </trkpt>
      <trkpt lat="43.8084" lon="3.26868">
        <ele>731.7</ele>
        <time>2014-08-23T08:49:04Z</time>
      </trkpt>
      <trkpt lat="43.80831" lon="3.26866">
        <ele>731.22</ele>
        <time>2014-08-23T08:49:05Z</time>
      </trkpt>
      <trkpt lat="43.80822" lon="3.26863">
        <ele>730.74</ele>
        <time>2014-08-23T08:49:06Z</time>
      </trkpt>
      <trkpt lat="43.80793" lon="3.26855">
        <ele>729.3</ele>
        <time>2014-08-23T08:49:09Z</time>
      </trkpt>
      <trkpt lat="43.80783" lon="3.26854">
        <ele>728.34</ele>
        <time>2014-08-23T08:49:10Z</time>
      </trkpt>
      <trkpt lat="43.8076" lon="3.26851">
        <ele>725.45</ele>
        <time>2014-08-23T08:49:13Z</time>
      </trkpt>
      <trkpt lat="43.80756" lon="3.26848">
        <ele>724.97</ele>
        <time>2014-08-23T08:49:14Z</time>
      </trkpt>
      <trkpt lat="43.80752" lon="3.26844">
        <ele>723.53</ele>
        <time>2014-08-23T08:49:15Z</time>
      </trkpt>
      <trkpt lat="43.80748" lon="3.2684">
        <ele>723.53</ele>
        <time>2014-08-23T08:49:16Z</time>
      </trkpt>
      <trkpt lat="43.80744" lon="3.26838">
        <ele>723.53</ele>
        <time>2014-08-23T08:49:17Z</time>
      </trkpt>
      <trkpt lat="43.80741" lon="3.26836">
        <ele>723.53</ele>
        <time>2014-08-23T08:49:18Z</time>
      </trkpt>
      <trkpt lat="43.80739" lon="3.26833">
        <ele>723.53</ele>
        <time>2014-08-23T08:49:19Z</time>
      </trkpt>
      <trkpt lat="43.80737" lon="3.26831">
        <ele>724.97</ele>
        <time>2014-08-23T08:49:20Z</time>
      </trkpt>
      <trkpt lat="43.80734" lon="3.26828">
        <ele>725.93</ele>
        <time>2014-08-23T08:49:22Z</time>
      </trkpt>
      <trkpt lat="43.8073" lon="3.26825">
        <ele>727.37</ele>
        <time>2014-08-23T08:49:28Z</time>
      </trkpt>
      <trkpt lat="43.80731" lon="3.26825">
        <ele>727.86</ele>
        <time>2014-08-23T08:49:43Z</time>
      </trkpt>
      <trkpt lat="43.8073" lon="3.26824">
        <ele>727.86</ele>
        <time>2014-08-23T08:49:54Z</time>
      </trkpt>
      <trkpt lat="43.8073" lon="3.26823">
        <ele>727.86</ele>
        <time>2014-08-23T08:49:55Z</time>
      </trkpt>
      <trkpt lat="43.80727" lon="3.26821">
        <ele>725.93</ele>
        <time>2014-08-23T08:49:57Z</time>
      </trkpt>
      <trkpt lat="43.80726" lon="3.26819">
        <ele>725.93</ele>
        <time>2014-08-23T08:49:58Z</time>
      </trkpt>
      <trkpt lat="43.80725" lon="3.26817">
        <ele>725.93</ele>
        <time>2014-08-23T08:49:59Z</time>
      </trkpt>
      <trkpt lat="43.80725" lon="3.26815">
        <ele>725.93</ele>
        <time>2014-08-23T08:50:00Z</time>
      </trkpt>
      <trkpt lat="43.80723" lon="3.26813">
        <ele>725.93</ele>
        <time>2014-08-23T08:50:01Z</time>
      </trkpt>
      <trkpt lat="43.80723" lon="3.2681">
        <ele>725.45</ele>
        <time>2014-08-23T08:50:02Z</time>
      </trkpt>
      <trkpt lat="43.80722" lon="3.26807">
        <ele>724.49</ele>
        <time>2014-08-23T08:50:03Z</time>
      </trkpt>
      <trkpt lat="43.80722" lon="3.26803">
        <ele>724.49</ele>
        <time>2014-08-23T08:50:04Z</time>
      </trkpt>
      <trkpt lat="43.80723" lon="3.268">
        <ele>724.49</ele>
        <time>2014-08-23T08:50:05Z</time>
      </trkpt>
      <trkpt lat="43.80724" lon="3.26797">
        <ele>724.49</ele>
        <time>2014-08-23T08:50:06Z</time>
      </trkpt>
      <trkpt lat="43.80724" lon="3.26795">
        <ele>724.49</ele>
        <time>2014-08-23T08:50:07Z</time>
      </trkpt>
      <trkpt lat="43.80724" lon="3.26793">
        <ele>724.49</ele>
        <time>2014-08-23T08:50:08Z</time>
      </trkpt>
      <trkpt lat="43.80725" lon="3.26791">
        <ele>724.49</ele>
        <time>2014-08-23T08:50:09Z</time>
      </trkpt>
      <trkpt lat="43.80726" lon="3.2679">
        <ele>724.49</ele>
        <time>2014-08-23T08:50:10Z</time>
      </trkpt>
      <trkpt lat="43.80727" lon="3.26788">
        <ele>724.49</ele>
        <time>2014-08-23T08:50:11Z</time>
      </trkpt>
      <trkpt lat="43.80727" lon="3.26786">
        <ele>726.41</ele>
        <time>2014-08-23T08:50:14Z</time>
      </trkpt>
      <trkpt lat="43.80728" lon="3.26786">
        <ele>726.41</ele>
        <time>2014-08-23T08:50:25Z</time>
      </trkpt>
      <trkpt lat="43.80729" lon="3.26787">
        <ele>726.89</ele>
        <time>2014-08-23T08:50:29Z</time>
      </trkpt>
      <trkpt lat="43.80728" lon="3.26789">
        <ele>726.89</ele>
        <time>2014-08-23T08:50:30Z</time>
      </trkpt>
      <trkpt lat="43.80727" lon="3.26791">
        <ele>726.89</ele>
        <time>2014-08-23T08:50:31Z</time>
      </trkpt>
      <trkpt lat="43.80725" lon="3.26793">
        <ele>726.89</ele>
        <time>2014-08-23T08:50:32Z</time>
      </trkpt>
      <trkpt lat="43.80724" lon="3.26796">
        <ele>726.89</ele>
        <time>2014-08-23T08:50:33Z</time>
      </trkpt>
      <trkpt lat="43.80722" lon="3.268">
        <ele>726.89</ele>
        <time>2014-08-23T08:50:34Z</time>
      </trkpt>
      <trkpt lat="43.80721" lon="3.26805">
        <ele>725.45</ele>
        <time>2014-08-23T08:50:35Z</time>
      </trkpt>
      <trkpt lat="43.80722" lon="3.26811">
        <ele>725.45</ele>
        <time>2014-08-23T08:50:36Z</time>
      </trkpt>
      <trkpt lat="43.80724" lon="3.26815">
        <ele>725.45</ele>
        <time>2014-08-23T08:50:37Z</time>
      </trkpt>
      <trkpt lat="43.80726" lon="3.26818">
        <ele>725.45</ele>
        <time>2014-08-23T08:50:38Z</time>
      </trkpt>
      <trkpt lat="43.80736" lon="3.2683">
        <ele>725.45</ele>
        <time>2014-08-23T08:50:45Z</time>
      </trkpt>
      <trkpt lat="43.80746" lon="3.26837">
        <ele>724.97</ele>
        <time>2014-08-23T08:50:50Z</time>
      </trkpt>
      <trkpt lat="43.8075" lon="3.26841">
        <ele>724.49</ele>
        <time>2014-08-23T08:50:52Z</time>
      </trkpt>
      <trkpt lat="43.80752" lon="3.26844">
        <ele>724.49</ele>
        <time>2014-08-23T08:50:53Z</time>
      </trkpt>
      <trkpt lat="43.80752" lon="3.26847">
        <ele>724.49</ele>
        <time>2014-08-23T08:50:54Z</time>
      </trkpt>
      <trkpt lat="43.80751" lon="3.26849">
        <ele>724.49</ele>
        <time>2014-08-23T08:50:55Z</time>
      </trkpt>
      <trkpt lat="43.80748" lon="3.2685">
        <ele>724.01</ele>
        <time>2014-08-23T08:50:56Z</time>
      </trkpt>
      <trkpt lat="43.80745" lon="3.26849">
        <ele>724.01</ele>
        <time>2014-08-23T08:50:57Z</time>
      </trkpt>
      <trkpt lat="43.80741" lon="3.26849">
        <ele>723.05</ele>
        <time>2014-08-23T08:50:58Z</time>
      </trkpt>
      <trkpt lat="43.80736" lon="3.2685">
        <ele>723.05</ele>
        <time>2014-08-23T08:50:59Z</time>
      </trkpt>
      <trkpt lat="43.80731" lon="3.26851">
        <ele>722.09</ele>
        <time>2014-08-23T08:51:00Z</time>
      </trkpt>
      <trkpt lat="43.80726" lon="3.26853">
        <ele>722.09</ele>
        <time>2014-08-23T08:51:01Z</time>
      </trkpt>
      <trkpt lat="43.8072" lon="3.26856">
        <ele>722.09</ele>
        <time>2014-08-23T08:51:02Z</time>
      </trkpt>
      <trkpt lat="43.80698" lon="3.26868">
        <ele>719.68</ele>
        <time>2014-08-23T08:51:06Z</time>
      </trkpt>
      <trkpt lat="43.80694" lon="3.26869">
        <ele>719.2</ele>
        <time>2014-08-23T08:51:07Z</time>
      </trkpt>
      <trkpt lat="43.80691" lon="3.2687">
        <ele>719.2</ele>
        <time>2014-08-23T08:51:08Z</time>
      </trkpt>
      <trkpt lat="43.80682" lon="3.26868">
        <ele>717.76</ele>
        <time>2014-08-23T08:51:13Z</time>
      </trkpt>
      <trkpt lat="43.80681" lon="3.26866">
        <ele>717.76</ele>
        <time>2014-08-23T08:51:20Z</time>
      </trkpt>
      <trkpt lat="43.80681" lon="3.26865">
        <ele>717.28</ele>
        <time>2014-08-23T08:51:37Z</time>
      </trkpt>
      <trkpt lat="43.80682" lon="3.26866">
        <ele>717.28</ele>
        <time>2014-08-23T08:51:51Z</time>
      </trkpt>
      <trkpt lat="43.80682" lon="3.26867">
        <ele>717.28</ele>
        <time>2014-08-23T08:52:08Z</time>
      </trkpt>
      <trkpt lat="43.80682" lon="3.26866">
        <ele>717.28</ele>
        <time>2014-08-23T08:52:23Z</time>
      </trkpt>
      <trkpt lat="43.80682" lon="3.26866">
        <ele>717.28</ele>
        <time>2014-08-23T08:52:38Z</time>
      </trkpt>
      <trkpt lat="43.80681" lon="3.26865">
        <ele>717.28</ele>
        <time>2014-08-23T08:52:57Z</time>
      </trkpt>
      <trkpt lat="43.80681" lon="3.26865">
        <ele>717.28</ele>
        <time>2014-08-23T08:53:15Z</time>
      </trkpt>
      <trkpt lat="43.80682" lon="3.26867">
        <ele>717.28</ele>
        <time>2014-08-23T08:53:37Z</time>
      </trkpt>
      <trkpt lat="43.80682" lon="3.26868">
        <ele>717.28</ele>
        <time>2014-08-23T08:53:52Z</time>
      </trkpt>
      <trkpt lat="43.80683" lon="3.26868">
        <ele>717.28</ele>
        <time>2014-08-23T08:54:05Z</time>
      </trkpt>
      <trkpt lat="43.80685" lon="3.26869">
        <ele>717.28</ele>
        <time>2014-08-23T08:54:24Z</time>
      </trkpt>
      <trkpt lat="43.80685" lon="3.26868">
        <ele>717.28</ele>
        <time>2014-08-23T08:54:47Z</time>
      </trkpt>
      <trkpt lat="43.80684" lon="3.26867">
        <ele>717.28</ele>
        <time>2014-08-23T08:55:01Z</time>
      </trkpt>
      <trkpt lat="43.80685" lon="3.26866">
        <ele>717.76</ele>
        <time>2014-08-23T08:55:09Z</time>
      </trkpt>
      <trkpt lat="43.80686" lon="3.26866">
        <ele>717.76</ele>
        <time>2014-08-23T08:55:21Z</time>
      </trkpt>
      <trkpt lat="43.80686" lon="3.26867">
        <ele>717.76</ele>
        <time>2014-08-23T08:55:31Z</time>
      </trkpt>
      <trkpt lat="43.80684" lon="3.26867">
        <ele>717.76</ele>
        <time>2014-08-23T08:55:50Z</time>
      </trkpt>
      <trkpt lat="43.80685" lon="3.26868">
        <ele>717.76</ele>
        <time>2014-08-23T08:56:07Z</time>
      </trkpt>
      <trkpt lat="43.80685" lon="3.26869">
        <ele>717.76</ele>
        <time>2014-08-23T08:56:30Z</time>
      </trkpt>
      <trkpt lat="43.80687" lon="3.26869">
        <ele>717.76</ele>
        <time>2014-08-23T08:56:50Z</time>
      </trkpt>
      <trkpt lat="43.80686" lon="3.26868">
        <ele>717.76</ele>
        <time>2014-08-23T08:57:05Z</time>
      </trkpt>
      <trkpt lat="43.80685" lon="3.26869">
        <ele>717.76</ele>
        <time>2014-08-23T08:57:16Z</time>
      </trkpt>
      <trkpt lat="43.80684" lon="3.26868">
        <ele>717.76</ele>
        <time>2014-08-23T08:57:37Z</time>
      </trkpt>
      <trkpt lat="43.80683" lon="3.26868">
        <ele>717.76</ele>
        <time>2014-08-23T08:57:55Z</time>
      </trkpt>
      <trkpt lat="43.80683" lon="3.26868">
        <ele>717.76</ele>
        <time>2014-08-23T08:58:14Z</time>
      </trkpt>
      <trkpt lat="43.80682" lon="3.26867">
        <ele>717.76</ele>
        <time>2014-08-23T08:58:32Z</time>
      </trkpt>
      <trkpt lat="43.80679" lon="3.26868">
        <ele>717.76</ele>
        <time>2014-08-23T08:58:49Z</time>
      </trkpt>
      <trkpt lat="43.80674" lon="3.26866">
        <ele>717.76</ele>
        <time>2014-08-23T08:58:52Z</time>
      </trkpt>
      <trkpt lat="43.80664" lon="3.26855">
        <ele>717.76</ele>
        <time>2014-08-23T08:58:58Z</time>
      </trkpt>
      <trkpt lat="43.80663" lon="3.26853">
        <ele>717.28</ele>
        <time>2014-08-23T08:58:59Z</time>
      </trkpt>
      <trkpt lat="43.80657" lon="3.26847">
        <ele>717.28</ele>
        <time>2014-08-23T08:59:05Z</time>
      </trkpt>
      <trkpt lat="43.80647" lon="3.26842">
        <ele>717.28</ele>
        <time>2014-08-23T08:59:12Z</time>
      </trkpt>
      <trkpt lat="43.80648" lon="3.26822">
        <ele>717.28</ele>
        <time>2014-08-23T08:59:18Z</time>
      </trkpt>
      <trkpt lat="43.80654" lon="3.26813">
        <ele>719.68</ele>
        <time>2014-08-23T08:59:24Z</time>
      </trkpt>
      <trkpt lat="43.80656" lon="3.26812">
        <ele>720.65</ele>
        <time>2014-08-23T08:59:30Z</time>
      </trkpt>
      <trkpt lat="43.80656" lon="3.26812">
        <ele>720.65</ele>
        <time>2014-08-23T08:59:31Z</time>
      </trkpt>
      <trkpt lat="43.80657" lon="3.26815">
        <ele>720.65</ele>
        <time>2014-08-23T08:59:33Z</time>
      </trkpt>
      <trkpt lat="43.80657" lon="3.26823">
        <ele>721.13</ele>
        <time>2014-08-23T08:59:38Z</time>
      </trkpt>
      <trkpt lat="43.80658" lon="3.26834">
        <ele>721.61</ele>
        <time>2014-08-23T08:59:47Z</time>
      </trkpt>
      <trkpt lat="43.80659" lon="3.26833">
        <ele>721.61</ele>
        <time>2014-08-23T08:59:53Z</time>
      </trkpt>
      <trkpt lat="43.80664" lon="3.26838">
        <ele>720.65</ele>
        <time>2014-08-23T09:00:00Z</time>
      </trkpt>
      <trkpt lat="43.80665" lon="3.26837">
        <ele>720.65</ele>
        <time>2014-08-23T09:00:01Z</time>
      </trkpt>
      <trkpt lat="43.80668" lon="3.26836">
        <ele>721.61</ele>
        <time>2014-08-23T09:00:07Z</time>
      </trkpt>
      <trkpt lat="43.80668" lon="3.26836">
        <ele>722.57</ele>
        <time>2014-08-23T09:00:19Z</time>
      </trkpt>
      <trkpt lat="43.80668" lon="3.26835">
        <ele>723.05</ele>
        <time>2014-08-23T09:00:26Z</time>
      </trkpt>
      <trkpt lat="43.80669" lon="3.26836">
        <ele>723.05</ele>
        <time>2014-08-23T09:00:35Z</time>
      </trkpt>
      <trkpt lat="43.80669" lon="3.26838">
        <ele>722.09</ele>
        <time>2014-08-23T09:00:40Z</time>
      </trkpt>
      <trkpt lat="43.80672" lon="3.26845">
        <ele>721.61</ele>
        <time>2014-08-23T09:00:47Z</time>
      </trkpt>
      <trkpt lat="43.80672" lon="3.26845">
        <ele>721.13</ele>
        <time>2014-08-23T09:00:56Z</time>
      </trkpt>
      <trkpt lat="43.80671" lon="3.26845">
        <ele>721.13</ele>
        <time>2014-08-23T09:01:04Z</time>
      </trkpt>
      <trkpt lat="43.80671" lon="3.26845">
        <ele>721.13</ele>
        <time>2014-08-23T09:01:20Z</time>
      </trkpt>
      <trkpt lat="43.80671" lon="3.26846">
        <ele>721.13</ele>
        <time>2014-08-23T09:01:31Z</time>
      </trkpt>
      <trkpt lat="43.80672" lon="3.26847">
        <ele>721.13</ele>
        <time>2014-08-23T09:01:41Z</time>
      </trkpt>
      <trkpt lat="43.80673" lon="3.26846">
        <ele>721.13</ele>
        <time>2014-08-23T09:01:54Z</time>
      </trkpt>
      <trkpt lat="43.80672" lon="3.26846">
        <ele>721.13</ele>
        <time>2014-08-23T09:02:11Z</time>
      </trkpt>
      <trkpt lat="43.80672" lon="3.26846">
        <ele>720.65</ele>
        <time>2014-08-23T09:02:25Z</time>
      </trkpt>
      <trkpt lat="43.80671" lon="3.26846">
        <ele>720.65</ele>
        <time>2014-08-23T09:02:41Z</time>
      </trkpt>
      <trkpt lat="43.80671" lon="3.26845">
        <ele>720.65</ele>
        <time>2014-08-23T09:02:49Z</time>
      </trkpt>
      <trkpt lat="43.80672" lon="3.26845">
        <ele>720.65</ele>
        <time>2014-08-23T09:02:55Z</time>
      </trkpt>
      <trkpt lat="43.80671" lon="3.26845">
        <ele>720.65</ele>
        <time>2014-08-23T09:03:03Z</time>
      </trkpt>
      <trkpt lat="43.80671" lon="3.26845">
        <ele>720.65</ele>
        <time>2014-08-23T09:03:15Z</time>
      </trkpt>
      <trkpt lat="43.80671" lon="3.26845">
        <ele>720.65</ele>
        <time>2014-08-23T09:03:23Z</time>
      </trkpt>
      <trkpt lat="43.80671" lon="3.26847">
        <ele>720.65</ele>
        <time>2014-08-23T09:03:32Z</time>
      </trkpt>
      <trkpt lat="43.80671" lon="3.26847">
        <ele>720.65</ele>
        <time>2014-08-23T09:03:42Z</time>
      </trkpt>
      <trkpt lat="43.8067" lon="3.26846">
        <ele>720.65</ele>
        <time>2014-08-23T09:03:52Z</time>
      </trkpt>
      <trkpt lat="43.8067" lon="3.26844">
        <ele>720.65</ele>
        <time>2014-08-23T09:04:04Z</time>
      </trkpt>
      <trkpt lat="43.80668" lon="3.26844">
        <ele>720.65</ele>
        <time>2014-08-23T09:04:08Z</time>
      </trkpt>
      <trkpt lat="43.80661" lon="3.26852">
        <ele>719.2</ele>
        <time>2014-08-23T09:04:13Z</time>
      </trkpt>
      <trkpt lat="43.80664" lon="3.26854">
        <ele>718.24</ele>
        <time>2014-08-23T09:04:17Z</time>
      </trkpt>
      <trkpt lat="43.80665" lon="3.26855">
        <ele>718.24</ele>
        <time>2014-08-23T09:04:25Z</time>
      </trkpt>
      <trkpt lat="43.80664" lon="3.26853">
        <ele>718.24</ele>
        <time>2014-08-23T09:04:36Z</time>
      </trkpt>
      <trkpt lat="43.80665" lon="3.26854">
        <ele>717.76</ele>
        <time>2014-08-23T09:04:52Z</time>
      </trkpt>
      <trkpt lat="43.80664" lon="3.26854">
        <ele>717.76</ele>
        <time>2014-08-23T09:05:13Z</time>
      </trkpt>
      <trkpt lat="43.80664" lon="3.26854">
        <ele>717.28</ele>
        <time>2014-08-23T09:05:30Z</time>
      </trkpt>
      <trkpt lat="43.80666" lon="3.26857">
        <ele>717.28</ele>
        <time>2014-08-23T09:05:47Z</time>
      </trkpt>
      <trkpt lat="43.80676" lon="3.26868">
        <ele>717.28</ele>
        <time>2014-08-23T09:05:53Z</time>
      </trkpt>
      <trkpt lat="43.80678" lon="3.26869">
        <ele>717.28</ele>
        <time>2014-08-23T09:05:54Z</time>
      </trkpt>
      <trkpt lat="43.8068" lon="3.2687">
        <ele>717.28</ele>
        <time>2014-08-23T09:05:55Z</time>
      </trkpt>
      <trkpt lat="43.80682" lon="3.2687">
        <ele>717.28</ele>
        <time>2014-08-23T09:05:56Z</time>
      </trkpt>
      <trkpt lat="43.80683" lon="3.26871">
        <ele>717.28</ele>
        <time>2014-08-23T09:05:57Z</time>
      </trkpt>
      <trkpt lat="43.80685" lon="3.26871">
        <ele>717.28</ele>
        <time>2014-08-23T09:05:58Z</time>
      </trkpt>
      <trkpt lat="43.80688" lon="3.26871">
        <ele>717.28</ele>
        <time>2014-08-23T09:05:59Z</time>
      </trkpt>
      <trkpt lat="43.80691" lon="3.26871">
        <ele>717.28</ele>
        <time>2014-08-23T09:06:00Z</time>
      </trkpt>
      <trkpt lat="43.80693" lon="3.2687">
        <ele>717.28</ele>
        <time>2014-08-23T09:06:01Z</time>
      </trkpt>
      <trkpt lat="43.80698" lon="3.26869">
        <ele>718.72</ele>
        <time>2014-08-23T09:06:03Z</time>
      </trkpt>
      <trkpt lat="43.80714" lon="3.26858">
        <ele>720.16</ele>
        <time>2014-08-23T09:06:11Z</time>
      </trkpt>
      <trkpt lat="43.80731" lon="3.26852">
        <ele>722.09</ele>
        <time>2014-08-23T09:06:18Z</time>
      </trkpt>
      <trkpt lat="43.80751" lon="3.26851">
        <ele>723.53</ele>
        <time>2014-08-23T09:06:26Z</time>
      </trkpt>
      <trkpt lat="43.80752" lon="3.26849">
        <ele>724.49</ele>
        <time>2014-08-23T09:06:27Z</time>
      </trkpt>
      <trkpt lat="43.80753" lon="3.26846">
        <ele>724.49</ele>
        <time>2014-08-23T09:06:28Z</time>
      </trkpt>
      <trkpt lat="43.80752" lon="3.26843">
        <ele>724.49</ele>
        <time>2014-08-23T09:06:29Z</time>
      </trkpt>
      <trkpt lat="43.80751" lon="3.2684">
        <ele>724.49</ele>
        <time>2014-08-23T09:06:30Z</time>
      </trkpt>
      <trkpt lat="43.80749" lon="3.26838">
        <ele>724.49</ele>
        <time>2014-08-23T09:06:31Z</time>
      </trkpt>
      <trkpt lat="43.80746" lon="3.26837">
        <ele>724.49</ele>
        <time>2014-08-23T09:06:32Z</time>
      </trkpt>
      <trkpt lat="43.80744" lon="3.26836">
        <ele>724.97</ele>
        <time>2014-08-23T09:06:33Z</time>
      </trkpt>
      <trkpt lat="43.8074" lon="3.26833">
        <ele>725.93</ele>
        <time>2014-08-23T09:06:35Z</time>
      </trkpt>
      <trkpt lat="43.80728" lon="3.26819">
        <ele>727.37</ele>
        <time>2014-08-23T09:06:42Z</time>
      </trkpt>
      <trkpt lat="43.80721" lon="3.26807">
        <ele>724.97</ele>
        <time>2014-08-23T09:06:46Z</time>
      </trkpt>
      <trkpt lat="43.80722" lon="3.26802">
        <ele>724.97</ele>
        <time>2014-08-23T09:06:47Z</time>
      </trkpt>
      <trkpt lat="43.80723" lon="3.26798">
        <ele>724.49</ele>
        <time>2014-08-23T09:06:48Z</time>
      </trkpt>
      <trkpt lat="43.80724" lon="3.26795">
        <ele>724.49</ele>
        <time>2014-08-23T09:06:49Z</time>
      </trkpt>
      <trkpt lat="43.80725" lon="3.26792">
        <ele>724.49</ele>
        <time>2014-08-23T09:06:50Z</time>
      </trkpt>
      <trkpt lat="43.80727" lon="3.2679">
        <ele>726.41</ele>
        <time>2014-08-23T09:06:51Z</time>
      </trkpt>
      <trkpt lat="43.80728" lon="3.26787">
        <ele>725.93</ele>
        <time>2014-08-23T09:06:52Z</time>
      </trkpt>
      <trkpt lat="43.80745" lon="3.2676">
        <ele>726.41</ele>
        <time>2014-08-23T09:07:00Z</time>
      </trkpt>
      <trkpt lat="43.80754" lon="3.26746">
        <ele>723.53</ele>
        <time>2014-08-23T09:07:03Z</time>
      </trkpt>
      <trkpt lat="43.80757" lon="3.2674">
        <ele>723.05</ele>
        <time>2014-08-23T09:07:04Z</time>
      </trkpt>
      <trkpt lat="43.80758" lon="3.26734">
        <ele>723.05</ele>
        <time>2014-08-23T09:07:05Z</time>
      </trkpt>
      <trkpt lat="43.80757" lon="3.26727">
        <ele>722.09</ele>
        <time>2014-08-23T09:07:06Z</time>
      </trkpt>
      <trkpt lat="43.80755" lon="3.26722">
        <ele>722.09</ele>
        <time>2014-08-23T09:07:07Z</time>
      </trkpt>
      <trkpt lat="43.80752" lon="3.26718">
        <ele>722.09</ele>
        <time>2014-08-23T09:07:08Z</time>
      </trkpt>
      <trkpt lat="43.80749" lon="3.26714">
        <ele>722.09</ele>
        <time>2014-08-23T09:07:09Z</time>
      </trkpt>
      <trkpt lat="43.80746" lon="3.2671">
        <ele>721.61</ele>
        <time>2014-08-23T09:07:10Z</time>
      </trkpt>
      <trkpt lat="43.80743" lon="3.26706">
        <ele>721.61</ele>
        <time>2014-08-23T09:07:11Z</time>
      </trkpt>
      <trkpt lat="43.80738" lon="3.26704">
        <ele>721.61</ele>
        <time>2014-08-23T09:07:12Z</time>
      </trkpt>
      <trkpt lat="43.80733" lon="3.26701">
        <ele>721.13</ele>
        <time>2014-08-23T09:07:13Z</time>
      </trkpt>
      <trkpt lat="43.80728" lon="3.267">
        <ele>720.16</ele>
        <time>2014-08-23T09:07:14Z</time>
      </trkpt>
      <trkpt lat="43.80723" lon="3.26698">
        <ele>720.16</ele>
        <time>2014-08-23T09:07:15Z</time>
      </trkpt>
      <trkpt lat="43.80708" lon="3.26697">
        <ele>720.16</ele>
        <time>2014-08-23T09:07:18Z</time>
      </trkpt>
      <trkpt lat="43.80684" lon="3.26699">
        <ele>721.61</ele>
        <time>2014-08-23T09:07:24Z</time>
      </trkpt>
      <trkpt lat="43.80678" lon="3.26693">
        <ele>721.61</ele>
        <time>2014-08-23T09:07:26Z</time>
      </trkpt>
      <trkpt lat="43.80676" lon="3.26689">
        <ele>721.61</ele>
        <time>2014-08-23T09:07:27Z</time>
      </trkpt>
      <trkpt lat="43.80676" lon="3.26684">
        <ele>721.61</ele>
        <time>2014-08-23T09:07:28Z</time>
      </trkpt>
      <trkpt lat="43.80676" lon="3.2668">
        <ele>721.61</ele>
        <time>2014-08-23T09:07:29Z</time>
      </trkpt>
      <trkpt lat="43.80676" lon="3.26675">
        <ele>721.61</ele>
        <time>2014-08-23T09:07:30Z</time>
      </trkpt>
      <trkpt lat="43.80681" lon="3.26647">
        <ele>721.61</ele>
        <time>2014-08-23T09:07:37Z</time>
      </trkpt>
      <trkpt lat="43.80698" lon="3.26619">
        <ele>722.09</ele>
        <time>2014-08-23T09:07:45Z</time>
      </trkpt>
      <trkpt lat="43.80702" lon="3.26596">
        <ele>723.53</ele>
        <time>2014-08-23T09:07:50Z</time>
      </trkpt>
      <trkpt lat="43.80699" lon="3.26589">
        <ele>722.09</ele>
        <time>2014-08-23T09:07:52Z</time>
      </trkpt>
      <trkpt lat="43.80696" lon="3.26576">
        <ele>723.53</ele>
        <time>2014-08-23T09:07:56Z</time>
      </trkpt>
      <trkpt lat="43.8069" lon="3.26548">
        <ele>724.49</ele>
        <time>2014-08-23T09:08:04Z</time>
      </trkpt>
      <trkpt lat="43.80687" lon="3.26533">
        <ele>724.49</ele>
        <time>2014-08-23T09:08:10Z</time>
      </trkpt>
      <trkpt lat="43.80684" lon="3.26512">
        <ele>724.49</ele>
        <time>2014-08-23T09:08:17Z</time>
      </trkpt>
      <trkpt lat="43.80684" lon="3.2649">
        <ele>726.41</ele>
        <time>2014-08-23T09:08:24Z</time>
      </trkpt>
      <trkpt lat="43.80687" lon="3.26471">
        <ele>726.89</ele>
        <time>2014-08-23T09:08:30Z</time>
      </trkpt>
      <trkpt lat="43.80687" lon="3.26468">
        <ele>726.89</ele>
        <time>2014-08-23T09:08:31Z</time>
      </trkpt>
      <trkpt lat="43.8069" lon="3.26441">
        <ele>728.34</ele>
        <time>2014-08-23T09:08:39Z</time>
      </trkpt>
      <trkpt lat="43.80696" lon="3.26416">
        <ele>728.82</ele>
        <time>2014-08-23T09:08:46Z</time>
      </trkpt>
      <trkpt lat="43.80706" lon="3.26398">
        <ele>729.3</ele>
        <time>2014-08-23T09:08:52Z</time>
      </trkpt>
      <trkpt lat="43.80717" lon="3.26376">
        <ele>729.78</ele>
        <time>2014-08-23T09:08:59Z</time>
      </trkpt>
      <trkpt lat="43.80727" lon="3.26364">
        <ele>730.26</ele>
        <time>2014-08-23T09:09:05Z</time>
      </trkpt>
      <trkpt lat="43.80742" lon="3.26355">
        <ele>732.18</ele>
        <time>2014-08-23T09:09:11Z</time>
      </trkpt>
      <trkpt lat="43.80759" lon="3.26345">
        <ele>733.14</ele>
        <time>2014-08-23T09:09:19Z</time>
      </trkpt>
      <trkpt lat="43.80772" lon="3.26337">
        <ele>733.62</ele>
        <time>2014-08-23T09:09:26Z</time>
      </trkpt>
      <trkpt lat="43.80779" lon="3.26328">
        <ele>735.07</ele>
        <time>2014-08-23T09:09:32Z</time>
      </trkpt>
      <trkpt lat="43.8078" lon="3.26325">
        <ele>735.07</ele>
        <time>2014-08-23T09:09:33Z</time>
      </trkpt>
      <trkpt lat="43.8078" lon="3.26323">
        <ele>735.07</ele>
        <time>2014-08-23T09:09:34Z</time>
      </trkpt>
      <trkpt lat="43.80777" lon="3.26316">
        <ele>735.55</ele>
        <time>2014-08-23T09:09:37Z</time>
      </trkpt>
      <trkpt lat="43.80775" lon="3.26315">
        <ele>735.55</ele>
        <time>2014-08-23T09:09:38Z</time>
      </trkpt>
      <trkpt lat="43.80773" lon="3.26314">
        <ele>735.55</ele>
        <time>2014-08-23T09:09:39Z</time>
      </trkpt>
      <trkpt lat="43.80763" lon="3.26316">
        <ele>736.03</ele>
        <time>2014-08-23T09:09:44Z</time>
      </trkpt>
      <trkpt lat="43.80748" lon="3.26312">
        <ele>737.47</ele>
        <time>2014-08-23T09:09:51Z</time>
      </trkpt>
      <trkpt lat="43.80737" lon="3.2631">
        <ele>737.47</ele>
        <time>2014-08-23T09:09:57Z</time>
      </trkpt>
      <trkpt lat="43.80733" lon="3.26308">
        <ele>738.43</ele>
        <time>2014-08-23T09:10:01Z</time>
      </trkpt>
      <trkpt lat="43.80731" lon="3.26308">
        <ele>738.43</ele>
        <time>2014-08-23T09:10:02Z</time>
      </trkpt>
      <trkpt lat="43.80717" lon="3.26318">
        <ele>739.39</ele>
        <time>2014-08-23T09:10:11Z</time>
      </trkpt>
      <trkpt lat="43.80702" lon="3.26322">
        <ele>739.39</ele>
        <time>2014-08-23T09:10:18Z</time>
      </trkpt>
      <trkpt lat="43.80689" lon="3.26324">
        <ele>738.91</ele>
        <time>2014-08-23T09:10:23Z</time>
      </trkpt>
      <trkpt lat="43.80666" lon="3.26322">
        <ele>740.35</ele>
        <time>2014-08-23T09:10:30Z</time>
      </trkpt>
      <trkpt lat="43.80664" lon="3.26321">
        <ele>740.83</ele>
        <time>2014-08-23T09:10:31Z</time>
      </trkpt>
      <trkpt lat="43.80662" lon="3.26319">
        <ele>740.83</ele>
        <time>2014-08-23T09:10:32Z</time>
      </trkpt>
      <trkpt lat="43.80661" lon="3.26317">
        <ele>740.83</ele>
        <time>2014-08-23T09:10:33Z</time>
      </trkpt>
      <trkpt lat="43.80659" lon="3.26315">
        <ele>740.83</ele>
        <time>2014-08-23T09:10:34Z</time>
      </trkpt>
      <trkpt lat="43.80657" lon="3.26313">
        <ele>741.31</ele>
        <time>2014-08-23T09:10:35Z</time>
      </trkpt>
      <trkpt lat="43.80655" lon="3.26311">
        <ele>741.31</ele>
        <time>2014-08-23T09:10:36Z</time>
      </trkpt>
      <trkpt lat="43.80654" lon="3.26308">
        <ele>741.31</ele>
        <time>2014-08-23T09:10:37Z</time>
      </trkpt>
      <trkpt lat="43.80654" lon="3.26305">
        <ele>741.31</ele>
        <time>2014-08-23T09:10:38Z</time>
      </trkpt>
      <trkpt lat="43.80654" lon="3.26303">
        <ele>742.28</ele>
        <time>2014-08-23T09:10:39Z</time>
      </trkpt>
      <trkpt lat="43.80654" lon="3.26299">
        <ele>742.28</ele>
        <time>2014-08-23T09:10:40Z</time>
      </trkpt>
      <trkpt lat="43.80655" lon="3.26296">
        <ele>742.28</ele>
        <time>2014-08-23T09:10:41Z</time>
      </trkpt>
      <trkpt lat="43.80656" lon="3.26293">
        <ele>742.28</ele>
        <time>2014-08-23T09:10:42Z</time>
      </trkpt>
      <trkpt lat="43.80657" lon="3.2629">
        <ele>743.24</ele>
        <time>2014-08-23T09:10:43Z</time>
      </trkpt>
      <trkpt lat="43.80657" lon="3.26287">
        <ele>743.72</ele>
        <time>2014-08-23T09:10:44Z</time>
      </trkpt>
      <trkpt lat="43.80657" lon="3.26284">
        <ele>743.72</ele>
        <time>2014-08-23T09:10:45Z</time>
      </trkpt>
      <trkpt lat="43.80656" lon="3.26281">
        <ele>743.72</ele>
        <time>2014-08-23T09:10:46Z</time>
      </trkpt>
      <trkpt lat="43.80656" lon="3.26278">
        <ele>743.72</ele>
        <time>2014-08-23T09:10:47Z</time>
      </trkpt>
      <trkpt lat="43.80657" lon="3.26275">
        <ele>743.72</ele>
        <time>2014-08-23T09:10:48Z</time>
      </trkpt>
      <trkpt lat="43.80657" lon="3.26272">
        <ele>743.72</ele>
        <time>2014-08-23T09:10:49Z</time>
      </trkpt>
      <trkpt lat="43.80667" lon="3.26262">
        <ele>744.2</ele>
        <time>2014-08-23T09:10:56Z</time>
      </trkpt>
      <trkpt lat="43.80673" lon="3.26258">
        <ele>744.2</ele>
        <time>2014-08-23T09:11:00Z</time>
      </trkpt>
      <trkpt lat="43.80675" lon="3.26257">
        <ele>744.2</ele>
        <time>2014-08-23T09:11:01Z</time>
      </trkpt>
      <trkpt lat="43.80681" lon="3.26252">
        <ele>742.76</ele>
        <time>2014-08-23T09:11:04Z</time>
      </trkpt>
      <trkpt lat="43.80696" lon="3.26241">
        <ele>742.28</ele>
        <time>2014-08-23T09:11:11Z</time>
      </trkpt>
      <trkpt lat="43.80709" lon="3.26234">
        <ele>742.28</ele>
        <time>2014-08-23T09:11:18Z</time>
      </trkpt>
      <trkpt lat="43.80722" lon="3.26228">
        <ele>741.79</ele>
        <time>2014-08-23T09:11:24Z</time>
      </trkpt>
      <trkpt lat="43.80749" lon="3.26223">
        <ele>739.87</ele>
        <time>2014-08-23T09:11:31Z</time>
      </trkpt>
      <trkpt lat="43.80759" lon="3.26221">
        <ele>738.43</ele>
        <time>2014-08-23T09:11:33Z</time>
      </trkpt>
      <trkpt lat="43.80764" lon="3.26218">
        <ele>737.47</ele>
        <time>2014-08-23T09:11:34Z</time>
      </trkpt>
      <trkpt lat="43.80767" lon="3.26214">
        <ele>736.99</ele>
        <time>2014-08-23T09:11:35Z</time>
      </trkpt>
      <trkpt lat="43.8077" lon="3.26208">
        <ele>736.99</ele>
        <time>2014-08-23T09:11:36Z</time>
      </trkpt>
      <trkpt lat="43.80772" lon="3.26202">
        <ele>736.99</ele>
        <time>2014-08-23T09:11:37Z</time>
      </trkpt>
      <trkpt lat="43.80773" lon="3.26195">
        <ele>735.55</ele>
        <time>2014-08-23T09:11:38Z</time>
      </trkpt>
      <trkpt lat="43.80774" lon="3.26187">
        <ele>735.55</ele>
        <time>2014-08-23T09:11:39Z</time>
      </trkpt>
      <trkpt lat="43.80773" lon="3.26179">
        <ele>734.58</ele>
        <time>2014-08-23T09:11:40Z</time>
      </trkpt>
      <trkpt lat="43.80772" lon="3.26164">
        <ele>733.62</ele>
        <time>2014-08-23T09:11:42Z</time>
      </trkpt>
      <trkpt lat="43.80773" lon="3.26157">
        <ele>733.62</ele>
        <time>2014-08-23T09:11:43Z</time>
      </trkpt>
      <trkpt lat="43.80774" lon="3.2615">
        <ele>733.14</ele>
        <time>2014-08-23T09:11:44Z</time>
      </trkpt>
      <trkpt lat="43.8078" lon="3.26129">
        <ele>730.74</ele>
        <time>2014-08-23T09:11:47Z</time>
      </trkpt>
      <trkpt lat="43.80788" lon="3.26099">
        <ele>730.26</ele>
        <time>2014-08-23T09:11:51Z</time>
      </trkpt>
      <trkpt lat="43.80793" lon="3.26078">
        <ele>729.3</ele>
        <time>2014-08-23T09:11:54Z</time>
      </trkpt>
      <trkpt lat="43.80795" lon="3.26064">
        <ele>729.3</ele>
        <time>2014-08-23T09:11:56Z</time>
      </trkpt>
      <trkpt lat="43.80799" lon="3.26034">
        <ele>728.82</ele>
        <time>2014-08-23T09:12:02Z</time>
      </trkpt>
      <trkpt lat="43.80788" lon="3.26016">
        <ele>730.26</ele>
        <time>2014-08-23T09:12:07Z</time>
      </trkpt>
      <trkpt lat="43.80771" lon="3.26008">
        <ele>730.74</ele>
        <time>2014-08-23T09:12:14Z</time>
      </trkpt>
      <trkpt lat="43.80762" lon="3.25995">
        <ele>731.22</ele>
        <time>2014-08-23T09:12:19Z</time>
      </trkpt>
      <trkpt lat="43.8076" lon="3.25993">
        <ele>731.22</ele>
        <time>2014-08-23T09:12:20Z</time>
      </trkpt>
      <trkpt lat="43.80749" lon="3.25984">
        <ele>731.22</ele>
        <time>2014-08-23T09:12:25Z</time>
      </trkpt>
      <trkpt lat="43.80746" lon="3.25983">
        <ele>731.7</ele>
        <time>2014-08-23T09:12:26Z</time>
      </trkpt>
      <trkpt lat="43.80744" lon="3.25983">
        <ele>731.7</ele>
        <time>2014-08-23T09:12:27Z</time>
      </trkpt>
      <trkpt lat="43.80741" lon="3.25982">
        <ele>731.7</ele>
        <time>2014-08-23T09:12:28Z</time>
      </trkpt>
      <trkpt lat="43.80738" lon="3.2598">
        <ele>730.26</ele>
        <time>2014-08-23T09:12:29Z</time>
      </trkpt>
      <trkpt lat="43.80736" lon="3.25979">
        <ele>730.26</ele>
        <time>2014-08-23T09:12:30Z</time>
      </trkpt>
      <trkpt lat="43.80734" lon="3.25977">
        <ele>730.26</ele>
        <time>2014-08-23T09:12:31Z</time>
      </trkpt>
      <trkpt lat="43.80731" lon="3.25974">
        <ele>730.26</ele>
        <time>2014-08-23T09:12:32Z</time>
      </trkpt>
      <trkpt lat="43.80728" lon="3.25971">
        <ele>730.26</ele>
        <time>2014-08-23T09:12:33Z</time>
      </trkpt>
      <trkpt lat="43.80726" lon="3.25968">
        <ele>729.78</ele>
        <time>2014-08-23T09:12:34Z</time>
      </trkpt>
      <trkpt lat="43.80723" lon="3.25964">
        <ele>729.78</ele>
        <time>2014-08-23T09:12:35Z</time>
      </trkpt>
      <trkpt lat="43.80716" lon="3.25954">
        <ele>730.74</ele>
        <time>2014-08-23T09:12:38Z</time>
      </trkpt>
      <trkpt lat="43.80701" lon="3.25941">
        <ele>729.78</ele>
        <time>2014-08-23T09:12:44Z</time>
      </trkpt>
      <trkpt lat="43.8069" lon="3.25934">
        <ele>730.74</ele>
        <time>2014-08-23T09:12:48Z</time>
      </trkpt>
      <trkpt lat="43.80674" lon="3.25922">
        <ele>731.7</ele>
        <time>2014-08-23T09:12:55Z</time>
      </trkpt>
      <trkpt lat="43.80653" lon="3.25912">
        <ele>731.22</ele>
        <time>2014-08-23T09:13:03Z</time>
      </trkpt>
      <trkpt lat="43.80634" lon="3.259">
        <ele>732.66</ele>
        <time>2014-08-23T09:13:10Z</time>
      </trkpt>
      <trkpt lat="43.80621" lon="3.25888">
        <ele>734.1</ele>
        <time>2014-08-23T09:13:17Z</time>
      </trkpt>
      <trkpt lat="43.80609" lon="3.25877">
        <ele>736.03</ele>
        <time>2014-08-23T09:13:24Z</time>
      </trkpt>
      <trkpt lat="43.80597" lon="3.25867">
        <ele>737.47</ele>
        <time>2014-08-23T09:13:31Z</time>
      </trkpt>
      <trkpt lat="43.80584" lon="3.25853">
        <ele>738.43</ele>
        <time>2014-08-23T09:13:39Z</time>
      </trkpt>
      <trkpt lat="43.80574" lon="3.25839">
        <ele>739.39</ele>
        <time>2014-08-23T09:13:45Z</time>
      </trkpt>
      <trkpt lat="43.80574" lon="3.25837">
        <ele>739.39</ele>
        <time>2014-08-23T09:13:46Z</time>
      </trkpt>
      <trkpt lat="43.80571" lon="3.25828">
        <ele>740.35</ele>
        <time>2014-08-23T09:13:50Z</time>
      </trkpt>
      <trkpt lat="43.8057" lon="3.25827">
        <ele>740.35</ele>
        <time>2014-08-23T09:13:51Z</time>
      </trkpt>
      <trkpt lat="43.8056" lon="3.25805">
        <ele>741.31</ele>
        <time>2014-08-23T09:13:59Z</time>
      </trkpt>
      <trkpt lat="43.80553" lon="3.25787">
        <ele>739.39</ele>
        <time>2014-08-23T09:14:04Z</time>
      </trkpt>
      <trkpt lat="43.80553" lon="3.25784">
        <ele>739.39</ele>
        <time>2014-08-23T09:14:05Z</time>
      </trkpt>
      <trkpt lat="43.80554" lon="3.2578">
        <ele>739.39</ele>
        <time>2014-08-23T09:14:06Z</time>
      </trkpt>
      <trkpt lat="43.80554" lon="3.25774">
        <ele>740.35</ele>
        <time>2014-08-23T09:14:08Z</time>
      </trkpt>
      <trkpt lat="43.80554" lon="3.25771">
        <ele>740.83</ele>
        <time>2014-08-23T09:14:09Z</time>
      </trkpt>
      <trkpt lat="43.80552" lon="3.25768">
        <ele>740.83</ele>
        <time>2014-08-23T09:14:10Z</time>
      </trkpt>
      <trkpt lat="43.80551" lon="3.25764">
        <ele>740.83</ele>
        <time>2014-08-23T09:14:11Z</time>
      </trkpt>
      <trkpt lat="43.80551" lon="3.25761">
        <ele>740.83</ele>
        <time>2014-08-23T09:14:12Z</time>
      </trkpt>
      <trkpt lat="43.80547" lon="3.25725">
        <ele>739.39</ele>
        <time>2014-08-23T09:14:21Z</time>
      </trkpt>
      <trkpt lat="43.80549" lon="3.2569">
        <ele>739.39</ele>
        <time>2014-08-23T09:14:28Z</time>
      </trkpt>
      <trkpt lat="43.80556" lon="3.25659">
        <ele>737.95</ele>
        <time>2014-08-23T09:14:34Z</time>
      </trkpt>
      <trkpt lat="43.80558" lon="3.25653">
        <ele>737.95</ele>
        <time>2014-08-23T09:14:35Z</time>
      </trkpt>
      <trkpt lat="43.80566" lon="3.25632">
        <ele>736.03</ele>
        <time>2014-08-23T09:14:38Z</time>
      </trkpt>
      <trkpt lat="43.80568" lon="3.25624">
        <ele>735.07</ele>
        <time>2014-08-23T09:14:39Z</time>
      </trkpt>
      <trkpt lat="43.80568" lon="3.25618">
        <ele>735.07</ele>
        <time>2014-08-23T09:14:40Z</time>
      </trkpt>
      <trkpt lat="43.80566" lon="3.25615">
        <ele>735.07</ele>
        <time>2014-08-23T09:14:41Z</time>
      </trkpt>
      <trkpt lat="43.80563" lon="3.25612">
        <ele>734.58</ele>
        <time>2014-08-23T09:14:42Z</time>
      </trkpt>
      <trkpt lat="43.80559" lon="3.2561">
        <ele>734.58</ele>
        <time>2014-08-23T09:14:43Z</time>
      </trkpt>
      <trkpt lat="43.80555" lon="3.25609">
        <ele>735.07</ele>
        <time>2014-08-23T09:14:44Z</time>
      </trkpt>
      <trkpt lat="43.80551" lon="3.25608">
        <ele>735.07</ele>
        <time>2014-08-23T09:14:45Z</time>
      </trkpt>
      <trkpt lat="43.80547" lon="3.25606">
        <ele>735.07</ele>
        <time>2014-08-23T09:14:46Z</time>
      </trkpt>
      <trkpt lat="43.80534" lon="3.256">
        <ele>735.07</ele>
        <time>2014-08-23T09:14:49Z</time>
      </trkpt>
      <trkpt lat="43.8053" lon="3.25599">
        <ele>735.07</ele>
        <time>2014-08-23T09:14:50Z</time>
      </trkpt>
      <trkpt lat="43.80525" lon="3.25599">
        <ele>735.07</ele>
        <time>2014-08-23T09:14:51Z</time>
      </trkpt>
      <trkpt lat="43.80512" lon="3.25601">
        <ele>735.07</ele>
        <time>2014-08-23T09:14:54Z</time>
      </trkpt>
      <trkpt lat="43.80498" lon="3.25599">
        <ele>735.07</ele>
        <time>2014-08-23T09:14:57Z</time>
      </trkpt>
      <trkpt lat="43.80488" lon="3.25597">
        <ele>735.07</ele>
        <time>2014-08-23T09:14:59Z</time>
      </trkpt>
      <trkpt lat="43.80476" lon="3.25591">
        <ele>736.03</ele>
        <time>2014-08-23T09:15:02Z</time>
      </trkpt>
      <trkpt lat="43.80472" lon="3.25587">
        <ele>736.03</ele>
        <time>2014-08-23T09:15:03Z</time>
      </trkpt>
      <trkpt lat="43.80449" lon="3.25557">
        <ele>736.51</ele>
        <time>2014-08-23T09:15:11Z</time>
      </trkpt>
      <trkpt lat="43.8044" lon="3.25527">
        <ele>735.55</ele>
        <time>2014-08-23T09:15:18Z</time>
      </trkpt>
      <trkpt lat="43.80431" lon="3.25499">
        <ele>737.95</ele>
        <time>2014-08-23T09:15:25Z</time>
      </trkpt>
      <trkpt lat="43.80414" lon="3.25482">
        <ele>738.91</ele>
        <time>2014-08-23T09:15:31Z</time>
      </trkpt>
      <trkpt lat="43.80397" lon="3.2548">
        <ele>739.39</ele>
        <time>2014-08-23T09:15:36Z</time>
      </trkpt>
      <trkpt lat="43.80377" lon="3.25477">
        <ele>739.87</ele>
        <time>2014-08-23T09:15:43Z</time>
      </trkpt>
      <trkpt lat="43.80356" lon="3.25465">
        <ele>741.79</ele>
        <time>2014-08-23T09:15:51Z</time>
      </trkpt>
      <trkpt lat="43.80354" lon="3.25461">
        <ele>740.83</ele>
        <time>2014-08-23T09:15:52Z</time>
      </trkpt>
      <trkpt lat="43.80352" lon="3.25432">
        <ele>740.35</ele>
        <time>2014-08-23T09:15:59Z</time>
      </trkpt>
      <trkpt lat="43.80352" lon="3.254">
        <ele>740.35</ele>
        <time>2014-08-23T09:16:05Z</time>
      </trkpt>
      <trkpt lat="43.80351" lon="3.25368">
        <ele>740.35</ele>
        <time>2014-08-23T09:16:11Z</time>
      </trkpt>
      <trkpt lat="43.8035" lon="3.25348">
        <ele>741.31</ele>
        <time>2014-08-23T09:16:15Z</time>
      </trkpt>
      <trkpt lat="43.80341" lon="3.25318">
        <ele>740.83</ele>
        <time>2014-08-23T09:16:22Z</time>
      </trkpt>
      <trkpt lat="43.8034" lon="3.25313">
        <ele>740.83</ele>
        <time>2014-08-23T09:16:23Z</time>
      </trkpt>
      <trkpt lat="43.80337" lon="3.25302">
        <ele>741.79</ele>
        <time>2014-08-23T09:16:25Z</time>
      </trkpt>
      <trkpt lat="43.80336" lon="3.25296">
        <ele>741.79</ele>
        <time>2014-08-23T09:16:26Z</time>
      </trkpt>
      <trkpt lat="43.80336" lon="3.25283">
        <ele>741.79</ele>
        <time>2014-08-23T09:16:28Z</time>
      </trkpt>
      <trkpt lat="43.80334" lon="3.25277">
        <ele>741.79</ele>
        <time>2014-08-23T09:16:29Z</time>
      </trkpt>
      <trkpt lat="43.80332" lon="3.25271">
        <ele>741.79</ele>
        <time>2014-08-23T09:16:30Z</time>
      </trkpt>
      <trkpt lat="43.80329" lon="3.25267">
        <ele>741.79</ele>
        <time>2014-08-23T09:16:31Z</time>
      </trkpt>
      <trkpt lat="43.80327" lon="3.25262">
        <ele>741.79</ele>
        <time>2014-08-23T09:16:32Z</time>
      </trkpt>
      <trkpt lat="43.80325" lon="3.25257">
        <ele>741.79</ele>
        <time>2014-08-23T09:16:33Z</time>
      </trkpt>
      <trkpt lat="43.80322" lon="3.25254">
        <ele>741.79</ele>
        <time>2014-08-23T09:16:34Z</time>
      </trkpt>
      <trkpt lat="43.8032" lon="3.2525">
        <ele>741.79</ele>
        <time>2014-08-23T09:16:35Z</time>
      </trkpt>
      <trkpt lat="43.80307" lon="3.25238">
        <ele>743.24</ele>
        <time>2014-08-23T09:16:40Z</time>
      </trkpt>
      <trkpt lat="43.80296" lon="3.25212">
        <ele>745.16</ele>
        <time>2014-08-23T09:16:49Z</time>
      </trkpt>
      <trkpt lat="43.80292" lon="3.252">
        <ele>746.12</ele>
        <time>2014-08-23T09:16:53Z</time>
      </trkpt>
      <trkpt lat="43.8029" lon="3.25198">
        <ele>746.12</ele>
        <time>2014-08-23T09:16:54Z</time>
      </trkpt>
      <trkpt lat="43.80281" lon="3.25179">
        <ele>747.56</ele>
        <time>2014-08-23T09:17:01Z</time>
      </trkpt>
      <trkpt lat="43.80273" lon="3.25162">
        <ele>749</ele>
        <time>2014-08-23T09:17:07Z</time>
      </trkpt>
      <trkpt lat="43.80265" lon="3.25146">
        <ele>749.97</ele>
        <time>2014-08-23T09:17:13Z</time>
      </trkpt>
      <trkpt lat="43.80253" lon="3.25125">
        <ele>749.97</ele>
        <time>2014-08-23T09:17:21Z</time>
      </trkpt>
      <trkpt lat="43.80245" lon="3.25111">
        <ele>750.93</ele>
        <time>2014-08-23T09:17:27Z</time>
      </trkpt>
      <trkpt lat="43.80242" lon="3.25107">
        <ele>751.41</ele>
        <time>2014-08-23T09:17:29Z</time>
      </trkpt>
      <trkpt lat="43.8024" lon="3.25106">
        <ele>752.37</ele>
        <time>2014-08-23T09:17:30Z</time>
      </trkpt>
      <trkpt lat="43.80239" lon="3.25104">
        <ele>752.37</ele>
        <time>2014-08-23T09:17:31Z</time>
      </trkpt>
      <trkpt lat="43.80238" lon="3.25103">
        <ele>752.37</ele>
        <time>2014-08-23T09:17:32Z</time>
      </trkpt>
      <trkpt lat="43.80236" lon="3.25101">
        <ele>752.37</ele>
        <time>2014-08-23T09:17:33Z</time>
      </trkpt>
      <trkpt lat="43.80234" lon="3.251">
        <ele>752.85</ele>
        <time>2014-08-23T09:17:34Z</time>
      </trkpt>
      <trkpt lat="43.80232" lon="3.25099">
        <ele>752.85</ele>
        <time>2014-08-23T09:17:35Z</time>
      </trkpt>
      <trkpt lat="43.8023" lon="3.25099">
        <ele>752.85</ele>
        <time>2014-08-23T09:17:36Z</time>
      </trkpt>
      <trkpt lat="43.80228" lon="3.25098">
        <ele>752.85</ele>
        <time>2014-08-23T09:17:37Z</time>
      </trkpt>
      <trkpt lat="43.80226" lon="3.25098">
        <ele>753.81</ele>
        <time>2014-08-23T09:17:38Z</time>
      </trkpt>
      <trkpt lat="43.80224" lon="3.25097">
        <ele>753.81</ele>
        <time>2014-08-23T09:17:39Z</time>
      </trkpt>
      <trkpt lat="43.80206" lon="3.25091">
        <ele>755.73</ele>
        <time>2014-08-23T09:17:48Z</time>
      </trkpt>
      <trkpt lat="43.80193" lon="3.25087">
        <ele>756.69</ele>
        <time>2014-08-23T09:17:55Z</time>
      </trkpt>
      <trkpt lat="43.80179" lon="3.25082">
        <ele>757.18</ele>
        <time>2014-08-23T09:18:02Z</time>
      </trkpt>
      <trkpt lat="43.80169" lon="3.25082">
        <ele>759.1</ele>
        <time>2014-08-23T09:18:08Z</time>
      </trkpt>
      <trkpt lat="43.8015" lon="3.25079">
        <ele>760.54</ele>
        <time>2014-08-23T09:18:15Z</time>
      </trkpt>
      <trkpt lat="43.80128" lon="3.25076">
        <ele>761.02</ele>
        <time>2014-08-23T09:18:23Z</time>
      </trkpt>
      <trkpt lat="43.80108" lon="3.25073">
        <ele>761.5</ele>
        <time>2014-08-23T09:18:30Z</time>
      </trkpt>
      <trkpt lat="43.80083" lon="3.25074">
        <ele>761.98</ele>
        <time>2014-08-23T09:18:40Z</time>
      </trkpt>
      <trkpt lat="43.80063" lon="3.25074">
        <ele>763.9</ele>
        <time>2014-08-23T09:18:49Z</time>
      </trkpt>
      <trkpt lat="43.80054" lon="3.25074">
        <ele>763.9</ele>
        <time>2014-08-23T09:18:54Z</time>
      </trkpt>
      <trkpt lat="43.80052" lon="3.25074">
        <ele>763.9</ele>
        <time>2014-08-23T09:18:55Z</time>
      </trkpt>
      <trkpt lat="43.80037" lon="3.25074">
        <ele>765.35</ele>
        <time>2014-08-23T09:19:03Z</time>
      </trkpt>
      <trkpt lat="43.80024" lon="3.25073">
        <ele>766.79</ele>
        <time>2014-08-23T09:19:10Z</time>
      </trkpt>
      <trkpt lat="43.80009" lon="3.25069">
        <ele>767.75</ele>
        <time>2014-08-23T09:19:17Z</time>
      </trkpt>
      <trkpt lat="43.79994" lon="3.25061">
        <ele>769.67</ele>
        <time>2014-08-23T09:19:24Z</time>
      </trkpt>
      <trkpt lat="43.79979" lon="3.25055">
        <ele>771.11</ele>
        <time>2014-08-23T09:19:31Z</time>
      </trkpt>
      <trkpt lat="43.79969" lon="3.25051">
        <ele>772.08</ele>
        <time>2014-08-23T09:19:37Z</time>
      </trkpt>
      <trkpt lat="43.79957" lon="3.25046">
        <ele>773.04</ele>
        <time>2014-08-23T09:19:44Z</time>
      </trkpt>
      <trkpt lat="43.79954" lon="3.25045">
        <ele>773.52</ele>
        <time>2014-08-23T09:19:46Z</time>
      </trkpt>
      <trkpt lat="43.79952" lon="3.25044">
        <ele>773.52</ele>
        <time>2014-08-23T09:19:47Z</time>
      </trkpt>
      <trkpt lat="43.79935" lon="3.25042">
        <ele>774.48</ele>
        <time>2014-08-23T09:19:55Z</time>
      </trkpt>
      <trkpt lat="43.79919" lon="3.25037">
        <ele>776.4</ele>
        <time>2014-08-23T09:20:03Z</time>
      </trkpt>
      <trkpt lat="43.79902" lon="3.25032">
        <ele>778.32</ele>
        <time>2014-08-23T09:20:11Z</time>
      </trkpt>
      <trkpt lat="43.79887" lon="3.25026">
        <ele>779.77</ele>
        <time>2014-08-23T09:20:19Z</time>
      </trkpt>
      <trkpt lat="43.79874" lon="3.25023">
        <ele>780.73</ele>
        <time>2014-08-23T09:20:26Z</time>
      </trkpt>
      <trkpt lat="43.79857" lon="3.25015">
        <ele>782.17</ele>
        <time>2014-08-23T09:20:35Z</time>
      </trkpt>
      <trkpt lat="43.79844" lon="3.25007">
        <ele>783.13</ele>
        <time>2014-08-23T09:20:42Z</time>
      </trkpt>
      <trkpt lat="43.79821" lon="3.24994">
        <ele>781.69</ele>
        <time>2014-08-23T09:20:50Z</time>
      </trkpt>
      <trkpt lat="43.79818" lon="3.24992">
        <ele>781.69</ele>
        <time>2014-08-23T09:20:51Z</time>
      </trkpt>
      <trkpt lat="43.79794" lon="3.24983">
        <ele>781.21</ele>
        <time>2014-08-23T09:20:58Z</time>
      </trkpt>
      <trkpt lat="43.79776" lon="3.24982">
        <ele>780.73</ele>
        <time>2014-08-23T09:21:03Z</time>
      </trkpt>
      <trkpt lat="43.79758" lon="3.24974">
        <ele>783.61</ele>
        <time>2014-08-23T09:21:09Z</time>
      </trkpt>
      <trkpt lat="43.7974" lon="3.24962">
        <ele>786.5</ele>
        <time>2014-08-23T09:21:19Z</time>
      </trkpt>
      <trkpt lat="43.79729" lon="3.24957">
        <ele>788.42</ele>
        <time>2014-08-23T09:21:26Z</time>
      </trkpt>
      <trkpt lat="43.79719" lon="3.24954">
        <ele>789.86</ele>
        <time>2014-08-23T09:21:33Z</time>
      </trkpt>
      <trkpt lat="43.79707" lon="3.24949">
        <ele>791.78</ele>
        <time>2014-08-23T09:21:41Z</time>
      </trkpt>
      <trkpt lat="43.79701" lon="3.24947">
        <ele>792.74</ele>
        <time>2014-08-23T09:21:45Z</time>
      </trkpt>
      <trkpt lat="43.797" lon="3.24947">
        <ele>793.22</ele>
        <time>2014-08-23T09:21:46Z</time>
      </trkpt>
      <trkpt lat="43.79698" lon="3.24947">
        <ele>793.22</ele>
        <time>2014-08-23T09:21:47Z</time>
      </trkpt>
      <trkpt lat="43.79696" lon="3.24947">
        <ele>793.22</ele>
        <time>2014-08-23T09:21:48Z</time>
      </trkpt>
      <trkpt lat="43.79695" lon="3.24946">
        <ele>793.71</ele>
        <time>2014-08-23T09:21:49Z</time>
      </trkpt>
      <trkpt lat="43.79693" lon="3.24945">
        <ele>793.71</ele>
        <time>2014-08-23T09:21:50Z</time>
      </trkpt>
      <trkpt lat="43.79691" lon="3.24944">
        <ele>793.71</ele>
        <time>2014-08-23T09:21:51Z</time>
      </trkpt>
      <trkpt lat="43.7969" lon="3.24944">
        <ele>794.19</ele>
        <time>2014-08-23T09:21:52Z</time>
      </trkpt>
      <trkpt lat="43.79679" lon="3.24944">
        <ele>795.63</ele>
        <time>2014-08-23T09:21:59Z</time>
      </trkpt>
      <trkpt lat="43.79678" lon="3.24944">
        <ele>795.63</ele>
        <time>2014-08-23T09:22:00Z</time>
      </trkpt>
      <trkpt lat="43.79666" lon="3.24945">
        <ele>797.07</ele>
        <time>2014-08-23T09:22:08Z</time>
      </trkpt>
      <trkpt lat="43.79653" lon="3.24944">
        <ele>798.99</ele>
        <time>2014-08-23T09:22:17Z</time>
      </trkpt>
      <trkpt lat="43.79641" lon="3.24941">
        <ele>801.4</ele>
        <time>2014-08-23T09:22:26Z</time>
      </trkpt>
      <trkpt lat="43.79631" lon="3.24941">
        <ele>802.84</ele>
        <time>2014-08-23T09:22:34Z</time>
      </trkpt>
      <trkpt lat="43.79621" lon="3.2494">
        <ele>804.28</ele>
        <time>2014-08-23T09:22:41Z</time>
      </trkpt>
      <trkpt lat="43.79608" lon="3.2494">
        <ele>806.2</ele>
        <time>2014-08-23T09:22:49Z</time>
      </trkpt>
      <trkpt lat="43.79606" lon="3.2494">
        <ele>806.68</ele>
        <time>2014-08-23T09:22:51Z</time>
      </trkpt>
      <trkpt lat="43.79604" lon="3.2494">
        <ele>806.68</ele>
        <time>2014-08-23T09:22:52Z</time>
      </trkpt>
      <trkpt lat="43.79603" lon="3.24941">
        <ele>807.16</ele>
        <time>2014-08-23T09:22:53Z</time>
      </trkpt>
      <trkpt lat="43.79602" lon="3.24941">
        <ele>807.16</ele>
        <time>2014-08-23T09:22:54Z</time>
      </trkpt>
      <trkpt lat="43.79601" lon="3.24941">
        <ele>807.64</ele>
        <time>2014-08-23T09:22:55Z</time>
      </trkpt>
      <trkpt lat="43.79599" lon="3.24942">
        <ele>807.64</ele>
        <time>2014-08-23T09:22:56Z</time>
      </trkpt>
      <trkpt lat="43.79598" lon="3.24942">
        <ele>808.13</ele>
        <time>2014-08-23T09:22:57Z</time>
      </trkpt>
      <trkpt lat="43.7959" lon="3.24943">
        <ele>808.61</ele>
        <time>2014-08-23T09:23:03Z</time>
      </trkpt>
      <trkpt lat="43.79579" lon="3.24945">
        <ele>811.01</ele>
        <time>2014-08-23T09:23:11Z</time>
      </trkpt>
      <trkpt lat="43.79576" lon="3.24944">
        <ele>811.49</ele>
        <time>2014-08-23T09:23:14Z</time>
      </trkpt>
      <trkpt lat="43.79575" lon="3.24945">
        <ele>811.49</ele>
        <time>2014-08-23T09:23:15Z</time>
      </trkpt>
      <trkpt lat="43.79574" lon="3.24945">
        <ele>811.49</ele>
        <time>2014-08-23T09:23:16Z</time>
      </trkpt>
      <trkpt lat="43.79573" lon="3.24945">
        <ele>811.49</ele>
        <time>2014-08-23T09:23:17Z</time>
      </trkpt>
      <trkpt lat="43.79566" lon="3.24946">
        <ele>813.41</ele>
        <time>2014-08-23T09:23:23Z</time>
      </trkpt>
      <trkpt lat="43.79564" lon="3.24946">
        <ele>813.41</ele>
        <time>2014-08-23T09:23:24Z</time>
      </trkpt>
      <trkpt lat="43.79562" lon="3.24947">
        <ele>813.41</ele>
        <time>2014-08-23T09:23:25Z</time>
      </trkpt>
      <trkpt lat="43.7956" lon="3.24947">
        <ele>813.89</ele>
        <time>2014-08-23T09:23:26Z</time>
      </trkpt>
      <trkpt lat="43.79559" lon="3.24948">
        <ele>813.89</ele>
        <time>2014-08-23T09:23:27Z</time>
      </trkpt>
      <trkpt lat="43.79548" lon="3.24949">
        <ele>815.34</ele>
        <time>2014-08-23T09:23:34Z</time>
      </trkpt>
      <trkpt lat="43.79543" lon="3.2495">
        <ele>815.34</ele>
        <time>2014-08-23T09:23:37Z</time>
      </trkpt>
      <trkpt lat="43.79541" lon="3.24951">
        <ele>815.82</ele>
        <time>2014-08-23T09:23:38Z</time>
      </trkpt>
      <trkpt lat="43.7954" lon="3.24951">
        <ele>815.82</ele>
        <time>2014-08-23T09:23:39Z</time>
      </trkpt>
      <trkpt lat="43.79539" lon="3.24951">
        <ele>815.82</ele>
        <time>2014-08-23T09:23:40Z</time>
      </trkpt>
      <trkpt lat="43.79537" lon="3.24951">
        <ele>816.3</ele>
        <time>2014-08-23T09:23:41Z</time>
      </trkpt>
      <trkpt lat="43.79533" lon="3.24952">
        <ele>816.78</ele>
        <time>2014-08-23T09:23:47Z</time>
      </trkpt>
      <trkpt lat="43.79521" lon="3.24953">
        <ele>818.22</ele>
        <time>2014-08-23T09:23:54Z</time>
      </trkpt>
      <trkpt lat="43.7951" lon="3.24954">
        <ele>819.18</ele>
        <time>2014-08-23T09:24:01Z</time>
      </trkpt>
      <trkpt lat="43.795" lon="3.24952">
        <ele>820.14</ele>
        <time>2014-08-23T09:24:08Z</time>
      </trkpt>
      <trkpt lat="43.79488" lon="3.24951">
        <ele>821.1</ele>
        <time>2014-08-23T09:24:16Z</time>
      </trkpt>
      <trkpt lat="43.79474" lon="3.24951">
        <ele>822.06</ele>
        <time>2014-08-23T09:24:22Z</time>
      </trkpt>
      <trkpt lat="43.79455" lon="3.24949">
        <ele>823.51</ele>
        <time>2014-08-23T09:24:31Z</time>
      </trkpt>
      <trkpt lat="43.79451" lon="3.24947">
        <ele>823.99</ele>
        <time>2014-08-23T09:24:34Z</time>
      </trkpt>
      <trkpt lat="43.79433" lon="3.24946">
        <ele>824.95</ele>
        <time>2014-08-23T09:24:44Z</time>
      </trkpt>
      <trkpt lat="43.79417" lon="3.24939">
        <ele>827.35</ele>
        <time>2014-08-23T09:24:52Z</time>
      </trkpt>
      <trkpt lat="43.79412" lon="3.24926">
        <ele>828.31</ele>
        <time>2014-08-23T09:24:59Z</time>
      </trkpt>
      <trkpt lat="43.79417" lon="3.24911">
        <ele>828.31</ele>
        <time>2014-08-23T09:25:06Z</time>
      </trkpt>
      <trkpt lat="43.7942" lon="3.24898">
        <ele>829.27</ele>
        <time>2014-08-23T09:25:13Z</time>
      </trkpt>
      <trkpt lat="43.79421" lon="3.24897">
        <ele>829.27</ele>
        <time>2014-08-23T09:25:14Z</time>
      </trkpt>
      <trkpt lat="43.79422" lon="3.24895">
        <ele>829.27</ele>
        <time>2014-08-23T09:25:15Z</time>
      </trkpt>
      <trkpt lat="43.79423" lon="3.24893">
        <ele>829.27</ele>
        <time>2014-08-23T09:25:16Z</time>
      </trkpt>
      <trkpt lat="43.79423" lon="3.24891">
        <ele>829.27</ele>
        <time>2014-08-23T09:25:17Z</time>
      </trkpt>
      <trkpt lat="43.79424" lon="3.24889">
        <ele>829.27</ele>
        <time>2014-08-23T09:25:18Z</time>
      </trkpt>
      <trkpt lat="43.79425" lon="3.24887">
        <ele>829.27</ele>
        <time>2014-08-23T09:25:19Z</time>
      </trkpt>
      <trkpt lat="43.79425" lon="3.24885">
        <ele>829.27</ele>
        <time>2014-08-23T09:25:20Z</time>
      </trkpt>
      <trkpt lat="43.7943" lon="3.24868">
        <ele>830.72</ele>
        <time>2014-08-23T09:25:29Z</time>
      </trkpt>
      <trkpt lat="43.79432" lon="3.24858">
        <ele>831.2</ele>
        <time>2014-08-23T09:25:33Z</time>
      </trkpt>
      <trkpt lat="43.79433" lon="3.24856">
        <ele>831.2</ele>
        <time>2014-08-23T09:25:34Z</time>
      </trkpt>
      <trkpt lat="43.79433" lon="3.24853">
        <ele>831.2</ele>
        <time>2014-08-23T09:25:35Z</time>
      </trkpt>
      <trkpt lat="43.79434" lon="3.24851">
        <ele>831.2</ele>
        <time>2014-08-23T09:25:36Z</time>
      </trkpt>
      <trkpt lat="43.79434" lon="3.24848">
        <ele>831.2</ele>
        <time>2014-08-23T09:25:37Z</time>
      </trkpt>
      <trkpt lat="43.79437" lon="3.24827">
        <ele>831.68</ele>
        <time>2014-08-23T09:25:45Z</time>
      </trkpt>
      <trkpt lat="43.79441" lon="3.24801">
        <ele>832.16</ele>
        <time>2014-08-23T09:25:54Z</time>
      </trkpt>
      <trkpt lat="43.79442" lon="3.24794">
        <ele>832.16</ele>
        <time>2014-08-23T09:25:56Z</time>
      </trkpt>
      <trkpt lat="43.79448" lon="3.24769">
        <ele>830.24</ele>
        <time>2014-08-23T09:26:03Z</time>
      </trkpt>
      <trkpt lat="43.7946" lon="3.24736">
        <ele>830.24</ele>
        <time>2014-08-23T09:26:11Z</time>
      </trkpt>
      <trkpt lat="43.79473" lon="3.247">
        <ele>829.27</ele>
        <time>2014-08-23T09:26:19Z</time>
      </trkpt>
      <trkpt lat="43.7949" lon="3.24667">
        <ele>829.27</ele>
        <time>2014-08-23T09:26:27Z</time>
      </trkpt>
      <trkpt lat="43.79512" lon="3.24629">
        <ele>828.79</ele>
        <time>2014-08-23T09:26:37Z</time>
      </trkpt>
      <trkpt lat="43.79526" lon="3.24607">
        <ele>828.79</ele>
        <time>2014-08-23T09:26:43Z</time>
      </trkpt>
      <trkpt lat="43.79537" lon="3.24584">
        <ele>828.79</ele>
        <time>2014-08-23T09:26:49Z</time>
      </trkpt>
      <trkpt lat="43.79544" lon="3.24569">
        <ele>830.24</ele>
        <time>2014-08-23T09:26:53Z</time>
      </trkpt>
      <trkpt lat="43.79559" lon="3.24538">
        <ele>831.68</ele>
        <time>2014-08-23T09:27:02Z</time>
      </trkpt>
      <trkpt lat="43.7957" lon="3.24507">
        <ele>832.16</ele>
        <time>2014-08-23T09:27:11Z</time>
      </trkpt>
      <trkpt lat="43.79577" lon="3.24488">
        <ele>833.12</ele>
        <time>2014-08-23T09:27:17Z</time>
      </trkpt>
      <trkpt lat="43.79586" lon="3.24459">
        <ele>833.6</ele>
        <time>2014-08-23T09:27:26Z</time>
      </trkpt>
      <trkpt lat="43.79588" lon="3.24447">
        <ele>834.56</ele>
        <time>2014-08-23T09:27:31Z</time>
      </trkpt>
      <trkpt lat="43.79588" lon="3.24431">
        <ele>836.48</ele>
        <time>2014-08-23T09:27:38Z</time>
      </trkpt>
      <trkpt lat="43.7959" lon="3.2441">
        <ele>836.48</ele>
        <time>2014-08-23T09:27:45Z</time>
      </trkpt>
      <trkpt lat="43.79596" lon="3.24389">
        <ele>836.96</ele>
        <time>2014-08-23T09:27:50Z</time>
      </trkpt>
      <trkpt lat="43.79599" lon="3.24357">
        <ele>836.96</ele>
        <time>2014-08-23T09:27:57Z</time>
      </trkpt>
      <trkpt lat="43.79601" lon="3.24341">
        <ele>836</ele>
        <time>2014-08-23T09:28:00Z</time>
      </trkpt>
      <trkpt lat="43.79603" lon="3.24318">
        <ele>835.52</ele>
        <time>2014-08-23T09:28:06Z</time>
      </trkpt>
      <trkpt lat="43.79614" lon="3.24277">
        <ele>835.04</ele>
        <time>2014-08-23T09:28:12Z</time>
      </trkpt>
      <trkpt lat="43.79621" lon="3.24257">
        <ele>835.04</ele>
        <time>2014-08-23T09:28:15Z</time>
      </trkpt>
      <trkpt lat="43.79623" lon="3.2425">
        <ele>834.56</ele>
        <time>2014-08-23T09:28:16Z</time>
      </trkpt>
      <trkpt lat="43.79627" lon="3.24236">
        <ele>833.6</ele>
        <time>2014-08-23T09:28:18Z</time>
      </trkpt>
      <trkpt lat="43.79633" lon="3.24215">
        <ele>832.64</ele>
        <time>2014-08-23T09:28:21Z</time>
      </trkpt>
      <trkpt lat="43.79635" lon="3.24209">
        <ele>832.16</ele>
        <time>2014-08-23T09:28:22Z</time>
      </trkpt>
      <trkpt lat="43.79636" lon="3.24202">
        <ele>832.16</ele>
        <time>2014-08-23T09:28:23Z</time>
      </trkpt>
      <trkpt lat="43.79636" lon="3.24197">
        <ele>832.16</ele>
        <time>2014-08-23T09:28:24Z</time>
      </trkpt>
      <trkpt lat="43.79634" lon="3.24193">
        <ele>832.16</ele>
        <time>2014-08-23T09:28:25Z</time>
      </trkpt>
      <trkpt lat="43.79632" lon="3.24191">
        <ele>832.16</ele>
        <time>2014-08-23T09:28:26Z</time>
      </trkpt>
      <trkpt lat="43.79629" lon="3.24189">
        <ele>832.16</ele>
        <time>2014-08-23T09:28:27Z</time>
      </trkpt>
      <trkpt lat="43.79627" lon="3.24187">
        <ele>832.16</ele>
        <time>2014-08-23T09:28:28Z</time>
      </trkpt>
      <trkpt lat="43.79621" lon="3.24186">
        <ele>832.16</ele>
        <time>2014-08-23T09:28:30Z</time>
      </trkpt>
      <trkpt lat="43.796" lon="3.24185">
        <ele>832.16</ele>
        <time>2014-08-23T09:28:38Z</time>
      </trkpt>
      <trkpt lat="43.79595" lon="3.24184">
        <ele>831.68</ele>
        <time>2014-08-23T09:28:40Z</time>
      </trkpt>
      <trkpt lat="43.79593" lon="3.24184">
        <ele>831.68</ele>
        <time>2014-08-23T09:28:41Z</time>
      </trkpt>
      <trkpt lat="43.79579" lon="3.24185">
        <ele>831.2</ele>
        <time>2014-08-23T09:28:48Z</time>
      </trkpt>
      <trkpt lat="43.79559" lon="3.24192">
        <ele>831.2</ele>
        <time>2014-08-23T09:28:56Z</time>
      </trkpt>
      <trkpt lat="43.79542" lon="3.24196">
        <ele>830.72</ele>
        <time>2014-08-23T09:29:02Z</time>
      </trkpt>
      <trkpt lat="43.79514" lon="3.24202">
        <ele>828.31</ele>
        <time>2014-08-23T09:29:11Z</time>
      </trkpt>
      <trkpt lat="43.79494" lon="3.24208">
        <ele>827.35</ele>
        <time>2014-08-23T09:29:16Z</time>
      </trkpt>
      <trkpt lat="43.79455" lon="3.24217">
        <ele>826.39</ele>
        <time>2014-08-23T09:29:24Z</time>
      </trkpt>
      <trkpt lat="43.79439" lon="3.24221">
        <ele>824.95</ele>
        <time>2014-08-23T09:29:27Z</time>
      </trkpt>
      <trkpt lat="43.79406" lon="3.2423">
        <ele>823.99</ele>
        <time>2014-08-23T09:29:32Z</time>
      </trkpt>
      <trkpt lat="43.79399" lon="3.24232">
        <ele>823.03</ele>
        <time>2014-08-23T09:29:33Z</time>
      </trkpt>
      <trkpt lat="43.79363" lon="3.24243">
        <ele>820.14</ele>
        <time>2014-08-23T09:29:38Z</time>
      </trkpt>
      <trkpt lat="43.79355" lon="3.24245">
        <ele>820.14</ele>
        <time>2014-08-23T09:29:39Z</time>
      </trkpt>
      <trkpt lat="43.79339" lon="3.24248">
        <ele>819.18</ele>
        <time>2014-08-23T09:29:41Z</time>
      </trkpt>
      <trkpt lat="43.7933" lon="3.24248">
        <ele>818.22</ele>
        <time>2014-08-23T09:29:42Z</time>
      </trkpt>
      <trkpt lat="43.79322" lon="3.24248">
        <ele>817.74</ele>
        <time>2014-08-23T09:29:43Z</time>
      </trkpt>
      <trkpt lat="43.79314" lon="3.24247">
        <ele>816.78</ele>
        <time>2014-08-23T09:29:44Z</time>
      </trkpt>
      <trkpt lat="43.79306" lon="3.24247">
        <ele>816.3</ele>
        <time>2014-08-23T09:29:45Z</time>
      </trkpt>
      <trkpt lat="43.79298" lon="3.24248">
        <ele>816.3</ele>
        <time>2014-08-23T09:29:46Z</time>
      </trkpt>
      <trkpt lat="43.79275" lon="3.24253">
        <ele>816.3</ele>
        <time>2014-08-23T09:29:49Z</time>
      </trkpt>
      <trkpt lat="43.7926" lon="3.24259">
        <ele>815.34</ele>
        <time>2014-08-23T09:29:51Z</time>
      </trkpt>
      <trkpt lat="43.79253" lon="3.24263">
        <ele>814.85</ele>
        <time>2014-08-23T09:29:52Z</time>
      </trkpt>
      <trkpt lat="43.79247" lon="3.24269">
        <ele>814.85</ele>
        <time>2014-08-23T09:29:53Z</time>
      </trkpt>
      <trkpt lat="43.79243" lon="3.24275">
        <ele>814.85</ele>
        <time>2014-08-23T09:29:54Z</time>
      </trkpt>
      <trkpt lat="43.79239" lon="3.24282">
        <ele>814.85</ele>
        <time>2014-08-23T09:29:55Z</time>
      </trkpt>
      <trkpt lat="43.79227" lon="3.24299">
        <ele>814.85</ele>
        <time>2014-08-23T09:29:58Z</time>
      </trkpt>
      <trkpt lat="43.79223" lon="3.24305">
        <ele>814.85</ele>
        <time>2014-08-23T09:29:59Z</time>
      </trkpt>
      <trkpt lat="43.79219" lon="3.24312">
        <ele>815.34</ele>
        <time>2014-08-23T09:30:00Z</time>
      </trkpt>
      <trkpt lat="43.79198" lon="3.24335">
        <ele>815.34</ele>
        <time>2014-08-23T09:30:05Z</time>
      </trkpt>
      <trkpt lat="43.79175" lon="3.24351">
        <ele>816.3</ele>
        <time>2014-08-23T09:30:11Z</time>
      </trkpt>
      <trkpt lat="43.79148" lon="3.24372">
        <ele>815.34</ele>
        <time>2014-08-23T09:30:18Z</time>
      </trkpt>
      <trkpt lat="43.79139" lon="3.24377">
        <ele>815.34</ele>
        <time>2014-08-23T09:30:20Z</time>
      </trkpt>
      <trkpt lat="43.79112" lon="3.24397">
        <ele>815.34</ele>
        <time>2014-08-23T09:30:27Z</time>
      </trkpt>
      <trkpt lat="43.791" lon="3.24404">
        <ele>814.85</ele>
        <time>2014-08-23T09:30:30Z</time>
      </trkpt>
      <trkpt lat="43.79095" lon="3.24406">
        <ele>814.85</ele>
        <time>2014-08-23T09:30:31Z</time>
      </trkpt>
      <trkpt lat="43.79091" lon="3.24407">
        <ele>814.85</ele>
        <time>2014-08-23T09:30:32Z</time>
      </trkpt>
      <trkpt lat="43.79088" lon="3.24409">
        <ele>814.37</ele>
        <time>2014-08-23T09:30:33Z</time>
      </trkpt>
      <trkpt lat="43.79084" lon="3.24411">
        <ele>814.37</ele>
        <time>2014-08-23T09:30:34Z</time>
      </trkpt>
      <trkpt lat="43.7908" lon="3.24414">
        <ele>814.37</ele>
        <time>2014-08-23T09:30:35Z</time>
      </trkpt>
      <trkpt lat="43.79076" lon="3.24415">
        <ele>814.37</ele>
        <time>2014-08-23T09:30:36Z</time>
      </trkpt>
      <trkpt lat="43.79072" lon="3.24417">
        <ele>814.37</ele>
        <time>2014-08-23T09:30:37Z</time>
      </trkpt>
      <trkpt lat="43.79068" lon="3.24419">
        <ele>813.89</ele>
        <time>2014-08-23T09:30:38Z</time>
      </trkpt>
      <trkpt lat="43.79046" lon="3.24431">
        <ele>813.41</ele>
        <time>2014-08-23T09:30:43Z</time>
      </trkpt>
      <trkpt lat="43.79041" lon="3.24432">
        <ele>812.93</ele>
        <time>2014-08-23T09:30:44Z</time>
      </trkpt>
      <trkpt lat="43.79036" lon="3.24433">
        <ele>812.93</ele>
        <time>2014-08-23T09:30:45Z</time>
      </trkpt>
      <trkpt lat="43.79031" lon="3.24433">
        <ele>812.93</ele>
        <time>2014-08-23T09:30:46Z</time>
      </trkpt>
      <trkpt lat="43.79026" lon="3.24432">
        <ele>812.93</ele>
        <time>2014-08-23T09:30:47Z</time>
      </trkpt>
      <trkpt lat="43.79021" lon="3.24431">
        <ele>812.93</ele>
        <time>2014-08-23T09:30:48Z</time>
      </trkpt>
      <trkpt lat="43.79013" lon="3.24429">
        <ele>812.93</ele>
        <time>2014-08-23T09:30:50Z</time>
      </trkpt>
      <trkpt lat="43.78988" lon="3.24418">
        <ele>813.89</ele>
        <time>2014-08-23T09:30:57Z</time>
      </trkpt>
      <trkpt lat="43.78957" lon="3.24401">
        <ele>814.85</ele>
        <time>2014-08-23T09:31:06Z</time>
      </trkpt>
      <trkpt lat="43.78935" lon="3.24379">
        <ele>816.3</ele>
        <time>2014-08-23T09:31:14Z</time>
      </trkpt>
      <trkpt lat="43.78911" lon="3.2436">
        <ele>817.26</ele>
        <time>2014-08-23T09:31:22Z</time>
      </trkpt>
      <trkpt lat="43.78882" lon="3.24349">
        <ele>818.22</ele>
        <time>2014-08-23T09:31:30Z</time>
      </trkpt>
      <trkpt lat="43.78874" lon="3.24347">
        <ele>818.7</ele>
        <time>2014-08-23T09:31:32Z</time>
      </trkpt>
      <trkpt lat="43.78853" lon="3.24348">
        <ele>819.18</ele>
        <time>2014-08-23T09:31:37Z</time>
      </trkpt>
      <trkpt lat="43.78816" lon="3.24351">
        <ele>820.14</ele>
        <time>2014-08-23T09:31:46Z</time>
      </trkpt>
      <trkpt lat="43.78778" lon="3.24342">
        <ele>821.1</ele>
        <time>2014-08-23T09:31:55Z</time>
      </trkpt>
      <trkpt lat="43.78765" lon="3.24338">
        <ele>822.06</ele>
        <time>2014-08-23T09:31:58Z</time>
      </trkpt>
      <trkpt lat="43.78737" lon="3.24321">
        <ele>823.51</ele>
        <time>2014-08-23T09:32:06Z</time>
      </trkpt>
      <trkpt lat="43.78724" lon="3.24309">
        <ele>822.06</ele>
        <time>2014-08-23T09:32:10Z</time>
      </trkpt>
      <trkpt lat="43.78712" lon="3.24292">
        <ele>821.58</ele>
        <time>2014-08-23T09:32:15Z</time>
      </trkpt>
      <trkpt lat="43.78707" lon="3.24281">
        <ele>820.62</ele>
        <time>2014-08-23T09:32:18Z</time>
      </trkpt>
      <trkpt lat="43.78706" lon="3.24277">
        <ele>820.14</ele>
        <time>2014-08-23T09:32:19Z</time>
      </trkpt>
      <trkpt lat="43.78706" lon="3.24273">
        <ele>820.14</ele>
        <time>2014-08-23T09:32:20Z</time>
      </trkpt>
      <trkpt lat="43.78705" lon="3.24242">
        <ele>820.14</ele>
        <time>2014-08-23T09:32:27Z</time>
      </trkpt>
      <trkpt lat="43.78702" lon="3.24207">
        <ele>821.58</ele>
        <time>2014-08-23T09:32:34Z</time>
      </trkpt>
      <trkpt lat="43.78701" lon="3.24179">
        <ele>821.58</ele>
        <time>2014-08-23T09:32:39Z</time>
      </trkpt>
      <trkpt lat="43.78702" lon="3.24174">
        <ele>821.58</ele>
        <time>2014-08-23T09:32:40Z</time>
      </trkpt>
      <trkpt lat="43.7871" lon="3.24131">
        <ele>821.58</ele>
        <time>2014-08-23T09:32:48Z</time>
      </trkpt>
      <trkpt lat="43.78718" lon="3.241">
        <ele>822.06</ele>
        <time>2014-08-23T09:32:55Z</time>
      </trkpt>
      <trkpt lat="43.78726" lon="3.24083">
        <ele>822.06</ele>
        <time>2014-08-23T09:33:00Z</time>
      </trkpt>
      <trkpt lat="43.78747" lon="3.24063">
        <ele>821.1</ele>
        <time>2014-08-23T09:33:07Z</time>
      </trkpt>
      <trkpt lat="43.78771" lon="3.24042">
        <ele>820.14</ele>
        <time>2014-08-23T09:33:14Z</time>
      </trkpt>
      <trkpt lat="43.78778" lon="3.24036">
        <ele>819.18</ele>
        <time>2014-08-23T09:33:16Z</time>
      </trkpt>
      <trkpt lat="43.78785" lon="3.24028">
        <ele>817.74</ele>
        <time>2014-08-23T09:33:18Z</time>
      </trkpt>
      <trkpt lat="43.78801" lon="3.24013">
        <ele>816.78</ele>
        <time>2014-08-23T09:33:22Z</time>
      </trkpt>
      <trkpt lat="43.7882" lon="3.23995">
        <ele>816.3</ele>
        <time>2014-08-23T09:33:27Z</time>
      </trkpt>
      <trkpt lat="43.78824" lon="3.23991">
        <ele>815.34</ele>
        <time>2014-08-23T09:33:28Z</time>
      </trkpt>
      <trkpt lat="43.78828" lon="3.23988">
        <ele>815.34</ele>
        <time>2014-08-23T09:33:29Z</time>
      </trkpt>
      <trkpt lat="43.78867" lon="3.23952">
        <ele>815.82</ele>
        <time>2014-08-23T09:33:39Z</time>
      </trkpt>
      <trkpt lat="43.78886" lon="3.23933">
        <ele>815.82</ele>
        <time>2014-08-23T09:33:44Z</time>
      </trkpt>
      <trkpt lat="43.78894" lon="3.23921">
        <ele>813.41</ele>
        <time>2014-08-23T09:33:47Z</time>
      </trkpt>
      <trkpt lat="43.78897" lon="3.23917">
        <ele>812.45</ele>
        <time>2014-08-23T09:33:48Z</time>
      </trkpt>
      <trkpt lat="43.78899" lon="3.23913">
        <ele>811.97</ele>
        <time>2014-08-23T09:33:49Z</time>
      </trkpt>
      <trkpt lat="43.78901" lon="3.23907">
        <ele>811.97</ele>
        <time>2014-08-23T09:33:50Z</time>
      </trkpt>
      <trkpt lat="43.78903" lon="3.23901">
        <ele>810.53</ele>
        <time>2014-08-23T09:33:51Z</time>
      </trkpt>
      <trkpt lat="43.78903" lon="3.23893">
        <ele>810.53</ele>
        <time>2014-08-23T09:33:52Z</time>
      </trkpt>
      <trkpt lat="43.78902" lon="3.23886">
        <ele>809.09</ele>
        <time>2014-08-23T09:33:53Z</time>
      </trkpt>
      <trkpt lat="43.78899" lon="3.23881">
        <ele>808.61</ele>
        <time>2014-08-23T09:33:54Z</time>
      </trkpt>
      <trkpt lat="43.78895" lon="3.23877">
        <ele>806.68</ele>
        <time>2014-08-23T09:33:55Z</time>
      </trkpt>
      <trkpt lat="43.7889" lon="3.23874">
        <ele>806.2</ele>
        <time>2014-08-23T09:33:56Z</time>
      </trkpt>
      <trkpt lat="43.78885" lon="3.23873">
        <ele>809.09</ele>
        <time>2014-08-23T09:33:57Z</time>
      </trkpt>
      <trkpt lat="43.7888" lon="3.23871">
        <ele>809.09</ele>
        <time>2014-08-23T09:33:58Z</time>
      </trkpt>
      <trkpt lat="43.78876" lon="3.23869">
        <ele>807.64</ele>
        <time>2014-08-23T09:33:59Z</time>
      </trkpt>
      <trkpt lat="43.78871" lon="3.23869">
        <ele>806.68</ele>
        <time>2014-08-23T09:34:00Z</time>
      </trkpt>
      <trkpt lat="43.7886" lon="3.23868">
        <ele>805.72</ele>
        <time>2014-08-23T09:34:02Z</time>
      </trkpt>
      <trkpt lat="43.78852" lon="3.23868">
        <ele>805.72</ele>
        <time>2014-08-23T09:34:04Z</time>
      </trkpt>
      <trkpt lat="43.7885" lon="3.23866">
        <ele>804.76</ele>
        <time>2014-08-23T09:34:05Z</time>
      </trkpt>
      <trkpt lat="43.7885" lon="3.2386">
        <ele>804.76</ele>
        <time>2014-08-23T09:34:07Z</time>
      </trkpt>
      <trkpt lat="43.78852" lon="3.23857">
        <ele>803.32</ele>
        <time>2014-08-23T09:34:08Z</time>
      </trkpt>
      <trkpt lat="43.78854" lon="3.23856">
        <ele>802.84</ele>
        <time>2014-08-23T09:34:09Z</time>
      </trkpt>
      <trkpt lat="43.78857" lon="3.23855">
        <ele>802.84</ele>
        <time>2014-08-23T09:34:10Z</time>
      </trkpt>
      <trkpt lat="43.7886" lon="3.23853">
        <ele>801.88</ele>
        <time>2014-08-23T09:34:11Z</time>
      </trkpt>
      <trkpt lat="43.78864" lon="3.2385">
        <ele>800.92</ele>
        <time>2014-08-23T09:34:12Z</time>
      </trkpt>
      <trkpt lat="43.78868" lon="3.23849">
        <ele>800.92</ele>
        <time>2014-08-23T09:34:13Z</time>
      </trkpt>
      <trkpt lat="43.78872" lon="3.23846">
        <ele>799.47</ele>
        <time>2014-08-23T09:34:14Z</time>
      </trkpt>
      <trkpt lat="43.78877" lon="3.23843">
        <ele>799.47</ele>
        <time>2014-08-23T09:34:15Z</time>
      </trkpt>
      <trkpt lat="43.7889" lon="3.23834">
        <ele>797.55</ele>
        <time>2014-08-23T09:34:18Z</time>
      </trkpt>
      <trkpt lat="43.789" lon="3.23825">
        <ele>794.19</ele>
        <time>2014-08-23T09:34:20Z</time>
      </trkpt>
      <trkpt lat="43.7891" lon="3.23817">
        <ele>792.74</ele>
        <time>2014-08-23T09:34:22Z</time>
      </trkpt>
      <trkpt lat="43.78915" lon="3.23811">
        <ele>790.82</ele>
        <time>2014-08-23T09:34:23Z</time>
      </trkpt>
      <trkpt lat="43.7893" lon="3.23796">
        <ele>786.98</ele>
        <time>2014-08-23T09:34:26Z</time>
      </trkpt>
      <trkpt lat="43.78944" lon="3.23785">
        <ele>784.09</ele>
        <time>2014-08-23T09:34:29Z</time>
      </trkpt>
      <trkpt lat="43.78948" lon="3.23778">
        <ele>782.65</ele>
        <time>2014-08-23T09:34:31Z</time>
      </trkpt>
      <trkpt lat="43.78948" lon="3.23774">
        <ele>782.65</ele>
        <time>2014-08-23T09:34:32Z</time>
      </trkpt>
      <trkpt lat="43.78946" lon="3.23771">
        <ele>781.69</ele>
        <time>2014-08-23T09:34:33Z</time>
      </trkpt>
      <trkpt lat="43.78943" lon="3.2377">
        <ele>781.69</ele>
        <time>2014-08-23T09:34:34Z</time>
      </trkpt>
      <trkpt lat="43.78939" lon="3.23768">
        <ele>780.73</ele>
        <time>2014-08-23T09:34:35Z</time>
      </trkpt>
      <trkpt lat="43.78934" lon="3.23766">
        <ele>780.25</ele>
        <time>2014-08-23T09:34:36Z</time>
      </trkpt>
      <trkpt lat="43.7892" lon="3.23758">
        <ele>777.84</ele>
        <time>2014-08-23T09:34:39Z</time>
      </trkpt>
      <trkpt lat="43.78915" lon="3.23754">
        <ele>777.84</ele>
        <time>2014-08-23T09:34:40Z</time>
      </trkpt>
      <trkpt lat="43.78912" lon="3.23748">
        <ele>776.88</ele>
        <time>2014-08-23T09:34:41Z</time>
      </trkpt>
      <trkpt lat="43.7891" lon="3.23742">
        <ele>775.92</ele>
        <time>2014-08-23T09:34:42Z</time>
      </trkpt>
      <trkpt lat="43.7891" lon="3.23736">
        <ele>774.96</ele>
        <time>2014-08-23T09:34:43Z</time>
      </trkpt>
      <trkpt lat="43.78911" lon="3.2373">
        <ele>774.48</ele>
        <time>2014-08-23T09:34:44Z</time>
      </trkpt>
      <trkpt lat="43.78914" lon="3.23725">
        <ele>773.52</ele>
        <time>2014-08-23T09:34:45Z</time>
      </trkpt>
      <trkpt lat="43.78917" lon="3.23721">
        <ele>772.08</ele>
        <time>2014-08-23T09:34:46Z</time>
      </trkpt>
      <trkpt lat="43.7892" lon="3.23718">
        <ele>771.11</ele>
        <time>2014-08-23T09:34:47Z</time>
      </trkpt>
      <trkpt lat="43.78925" lon="3.23714">
        <ele>769.67</ele>
        <time>2014-08-23T09:34:48Z</time>
      </trkpt>
      <trkpt lat="43.78937" lon="3.23704">
        <ele>765.35</ele>
        <time>2014-08-23T09:34:50Z</time>
      </trkpt>
      <trkpt lat="43.78942" lon="3.23697">
        <ele>763.42</ele>
        <time>2014-08-23T09:34:51Z</time>
      </trkpt>
      <trkpt lat="43.78947" lon="3.23689">
        <ele>760.54</ele>
        <time>2014-08-23T09:34:52Z</time>
      </trkpt>
      <trkpt lat="43.78951" lon="3.2368">
        <ele>760.54</ele>
        <time>2014-08-23T09:34:53Z</time>
      </trkpt>
      <trkpt lat="43.7896" lon="3.23653">
        <ele>757.18</ele>
        <time>2014-08-23T09:34:56Z</time>
      </trkpt>
      <trkpt lat="43.78971" lon="3.23632">
        <ele>753.33</ele>
        <time>2014-08-23T09:34:59Z</time>
      </trkpt>
      <trkpt lat="43.78979" lon="3.2362">
        <ele>751.41</ele>
        <time>2014-08-23T09:35:01Z</time>
      </trkpt>
      <trkpt lat="43.78984" lon="3.23616">
        <ele>750.45</ele>
        <time>2014-08-23T09:35:02Z</time>
      </trkpt>
      <trkpt lat="43.78989" lon="3.23611">
        <ele>749.49</ele>
        <time>2014-08-23T09:35:03Z</time>
      </trkpt>
      <trkpt lat="43.78994" lon="3.23606">
        <ele>748.52</ele>
        <time>2014-08-23T09:35:04Z</time>
      </trkpt>
      <trkpt lat="43.78997" lon="3.23599">
        <ele>747.56</ele>
        <time>2014-08-23T09:35:05Z</time>
      </trkpt>
      <trkpt lat="43.78999" lon="3.23591">
        <ele>746.6</ele>
        <time>2014-08-23T09:35:06Z</time>
      </trkpt>
      <trkpt lat="43.79006" lon="3.23569">
        <ele>744.2</ele>
        <time>2014-08-23T09:35:09Z</time>
      </trkpt>
      <trkpt lat="43.79008" lon="3.23561">
        <ele>743.72</ele>
        <time>2014-08-23T09:35:10Z</time>
      </trkpt>
      <trkpt lat="43.7901" lon="3.23546">
        <ele>742.76</ele>
        <time>2014-08-23T09:35:12Z</time>
      </trkpt>
      <trkpt lat="43.79012" lon="3.23518">
        <ele>739.39</ele>
        <time>2014-08-23T09:35:15Z</time>
      </trkpt>
      <trkpt lat="43.79016" lon="3.23475">
        <ele>736.03</ele>
        <time>2014-08-23T09:35:19Z</time>
      </trkpt>
      <trkpt lat="43.79018" lon="3.23465">
        <ele>735.07</ele>
        <time>2014-08-23T09:35:20Z</time>
      </trkpt>
      <trkpt lat="43.79021" lon="3.23456">
        <ele>735.07</ele>
        <time>2014-08-23T09:35:21Z</time>
      </trkpt>
      <trkpt lat="43.79027" lon="3.23423">
        <ele>735.55</ele>
        <time>2014-08-23T09:35:26Z</time>
      </trkpt>
      <trkpt lat="43.79025" lon="3.23412">
        <ele>735.55</ele>
        <time>2014-08-23T09:35:29Z</time>
      </trkpt>
      <trkpt lat="43.79025" lon="3.23413">
        <ele>735.55</ele>
        <time>2014-08-23T09:35:33Z</time>
      </trkpt>
      <trkpt lat="43.79025" lon="3.23413">
        <ele>735.55</ele>
        <time>2014-08-23T09:35:40Z</time>
      </trkpt>
      <trkpt lat="43.79027" lon="3.2341">
        <ele>735.55</ele>
        <time>2014-08-23T09:35:46Z</time>
      </trkpt>
      <trkpt lat="43.79028" lon="3.23408">
        <ele>735.55</ele>
        <time>2014-08-23T09:35:54Z</time>
      </trkpt>
      <trkpt lat="43.79028" lon="3.23406">
        <ele>735.07</ele>
        <time>2014-08-23T09:35:57Z</time>
      </trkpt>
      <trkpt lat="43.79028" lon="3.23404">
        <ele>735.07</ele>
        <time>2014-08-23T09:35:58Z</time>
      </trkpt>
      <trkpt lat="43.79028" lon="3.23402">
        <ele>735.07</ele>
        <time>2014-08-23T09:35:59Z</time>
      </trkpt>
      <trkpt lat="43.79028" lon="3.234">
        <ele>735.07</ele>
        <time>2014-08-23T09:36:00Z</time>
      </trkpt>
      <trkpt lat="43.79029" lon="3.23386">
        <ele>735.07</ele>
        <time>2014-08-23T09:36:07Z</time>
      </trkpt>
      <trkpt lat="43.79034" lon="3.23364">
        <ele>735.07</ele>
        <time>2014-08-23T09:36:15Z</time>
      </trkpt>
      <trkpt lat="43.79037" lon="3.23339">
        <ele>736.51</ele>
        <time>2014-08-23T09:36:21Z</time>
      </trkpt>
      <trkpt lat="43.7904" lon="3.23315">
        <ele>736.99</ele>
        <time>2014-08-23T09:36:27Z</time>
      </trkpt>
      <trkpt lat="43.79052" lon="3.23291">
        <ele>736.99</ele>
        <time>2014-08-23T09:36:33Z</time>
      </trkpt>
      <trkpt lat="43.79055" lon="3.23286">
        <ele>736.99</ele>
        <time>2014-08-23T09:36:34Z</time>
      </trkpt>
      <trkpt lat="43.79056" lon="3.2328">
        <ele>736.99</ele>
        <time>2014-08-23T09:36:35Z</time>
      </trkpt>
      <trkpt lat="43.79057" lon="3.23268">
        <ele>735.55</ele>
        <time>2014-08-23T09:36:37Z</time>
      </trkpt>
      <trkpt lat="43.7906" lon="3.23255">
        <ele>735.07</ele>
        <time>2014-08-23T09:36:39Z</time>
      </trkpt>
      <trkpt lat="43.79063" lon="3.2325">
        <ele>735.07</ele>
        <time>2014-08-23T09:36:40Z</time>
      </trkpt>
      <trkpt lat="43.79069" lon="3.23233">
        <ele>735.07</ele>
        <time>2014-08-23T09:36:43Z</time>
      </trkpt>
      <trkpt lat="43.79069" lon="3.23227">
        <ele>735.07</ele>
        <time>2014-08-23T09:36:44Z</time>
      </trkpt>
      <trkpt lat="43.7907" lon="3.23215">
        <ele>734.58</ele>
        <time>2014-08-23T09:36:46Z</time>
      </trkpt>
      <trkpt lat="43.79069" lon="3.23209">
        <ele>733.62</ele>
        <time>2014-08-23T09:36:47Z</time>
      </trkpt>
      <trkpt lat="43.7907" lon="3.23202">
        <ele>732.66</ele>
        <time>2014-08-23T09:36:48Z</time>
      </trkpt>
      <trkpt lat="43.7907" lon="3.23193">
        <ele>731.22</ele>
        <time>2014-08-23T09:36:49Z</time>
      </trkpt>
      <trkpt lat="43.7907" lon="3.23185">
        <ele>729.3</ele>
        <time>2014-08-23T09:36:50Z</time>
      </trkpt>
      <trkpt lat="43.7907" lon="3.23178">
        <ele>728.34</ele>
        <time>2014-08-23T09:36:51Z</time>
      </trkpt>
      <trkpt lat="43.79071" lon="3.23171">
        <ele>727.86</ele>
        <time>2014-08-23T09:36:52Z</time>
      </trkpt>
      <trkpt lat="43.79072" lon="3.23164">
        <ele>726.89</ele>
        <time>2014-08-23T09:36:53Z</time>
      </trkpt>
      <trkpt lat="43.79075" lon="3.23157">
        <ele>726.41</ele>
        <time>2014-08-23T09:36:54Z</time>
      </trkpt>
      <trkpt lat="43.79079" lon="3.23152">
        <ele>725.45</ele>
        <time>2014-08-23T09:36:55Z</time>
      </trkpt>
      <trkpt lat="43.79083" lon="3.23148">
        <ele>724.49</ele>
        <time>2014-08-23T09:36:56Z</time>
      </trkpt>
      <trkpt lat="43.79088" lon="3.23146">
        <ele>724.01</ele>
        <time>2014-08-23T09:36:57Z</time>
      </trkpt>
      <trkpt lat="43.79093" lon="3.23145">
        <ele>723.53</ele>
        <time>2014-08-23T09:36:58Z</time>
      </trkpt>
      <trkpt lat="43.79098" lon="3.23144">
        <ele>723.53</ele>
        <time>2014-08-23T09:36:59Z</time>
      </trkpt>
      <trkpt lat="43.79103" lon="3.23144">
        <ele>723.05</ele>
        <time>2014-08-23T09:37:00Z</time>
      </trkpt>
      <trkpt lat="43.79108" lon="3.23141">
        <ele>723.05</ele>
        <time>2014-08-23T09:37:01Z</time>
      </trkpt>
      <trkpt lat="43.79112" lon="3.23137">
        <ele>723.05</ele>
        <time>2014-08-23T09:37:02Z</time>
      </trkpt>
      <trkpt lat="43.79114" lon="3.23132">
        <ele>722.57</ele>
        <time>2014-08-23T09:37:03Z</time>
      </trkpt>
      <trkpt lat="43.79116" lon="3.23127">
        <ele>723.05</ele>
        <time>2014-08-23T09:37:04Z</time>
      </trkpt>
      <trkpt lat="43.79117" lon="3.23121">
        <ele>723.05</ele>
        <time>2014-08-23T09:37:05Z</time>
      </trkpt>
      <trkpt lat="43.79118" lon="3.23115">
        <ele>723.05</ele>
        <time>2014-08-23T09:37:06Z</time>
      </trkpt>
      <trkpt lat="43.79124" lon="3.23098">
        <ele>722.57</ele>
        <time>2014-08-23T09:37:09Z</time>
      </trkpt>
      <trkpt lat="43.79134" lon="3.23083">
        <ele>721.13</ele>
        <time>2014-08-23T09:37:12Z</time>
      </trkpt>
      <trkpt lat="43.79138" lon="3.23079">
        <ele>720.16</ele>
        <time>2014-08-23T09:37:13Z</time>
      </trkpt>
      <trkpt lat="43.79143" lon="3.23077">
        <ele>719.2</ele>
        <time>2014-08-23T09:37:14Z</time>
      </trkpt>
      <trkpt lat="43.79148" lon="3.23075">
        <ele>719.2</ele>
        <time>2014-08-23T09:37:15Z</time>
      </trkpt>
      <trkpt lat="43.79153" lon="3.23077">
        <ele>718.24</ele>
        <time>2014-08-23T09:37:16Z</time>
      </trkpt>
      <trkpt lat="43.79157" lon="3.23079">
        <ele>718.24</ele>
        <time>2014-08-23T09:37:17Z</time>
      </trkpt>
      <trkpt lat="43.79162" lon="3.23081">
        <ele>717.28</ele>
        <time>2014-08-23T09:37:18Z</time>
      </trkpt>
      <trkpt lat="43.79168" lon="3.23081">
        <ele>716.8</ele>
        <time>2014-08-23T09:37:19Z</time>
      </trkpt>
      <trkpt lat="43.79173" lon="3.23078">
        <ele>715.36</ele>
        <time>2014-08-23T09:37:20Z</time>
      </trkpt>
      <trkpt lat="43.79179" lon="3.23073">
        <ele>714.4</ele>
        <time>2014-08-23T09:37:21Z</time>
      </trkpt>
      <trkpt lat="43.79185" lon="3.23068">
        <ele>712.95</ele>
        <time>2014-08-23T09:37:22Z</time>
      </trkpt>
      <trkpt lat="43.79192" lon="3.23063">
        <ele>711.03</ele>
        <time>2014-08-23T09:37:23Z</time>
      </trkpt>
      <trkpt lat="43.79199" lon="3.23058">
        <ele>711.03</ele>
        <time>2014-08-23T09:37:24Z</time>
      </trkpt>
      <trkpt lat="43.79205" lon="3.23054">
        <ele>711.03</ele>
        <time>2014-08-23T09:37:25Z</time>
      </trkpt>
      <trkpt lat="43.7921" lon="3.23051">
        <ele>710.07</ele>
        <time>2014-08-23T09:37:26Z</time>
      </trkpt>
      <trkpt lat="43.79216" lon="3.23051">
        <ele>710.07</ele>
        <time>2014-08-23T09:37:27Z</time>
      </trkpt>
      <trkpt lat="43.79222" lon="3.23052">
        <ele>709.59</ele>
        <time>2014-08-23T09:37:28Z</time>
      </trkpt>
      <trkpt lat="43.79228" lon="3.23054">
        <ele>709.59</ele>
        <time>2014-08-23T09:37:29Z</time>
      </trkpt>
      <trkpt lat="43.79233" lon="3.23054">
        <ele>708.15</ele>
        <time>2014-08-23T09:37:30Z</time>
      </trkpt>
      <trkpt lat="43.79238" lon="3.23051">
        <ele>707.19</ele>
        <time>2014-08-23T09:37:31Z</time>
      </trkpt>
      <trkpt lat="43.79243" lon="3.23046">
        <ele>706.23</ele>
        <time>2014-08-23T09:37:32Z</time>
      </trkpt>
      <trkpt lat="43.79246" lon="3.23039">
        <ele>705.75</ele>
        <time>2014-08-23T09:37:33Z</time>
      </trkpt>
      <trkpt lat="43.7925" lon="3.2303">
        <ele>704.78</ele>
        <time>2014-08-23T09:37:34Z</time>
      </trkpt>
      <trkpt lat="43.79264" lon="3.23">
        <ele>700.94</ele>
        <time>2014-08-23T09:37:38Z</time>
      </trkpt>
      <trkpt lat="43.79268" lon="3.22994">
        <ele>699.98</ele>
        <time>2014-08-23T09:37:39Z</time>
      </trkpt>
      <trkpt lat="43.79273" lon="3.22989">
        <ele>699.02</ele>
        <time>2014-08-23T09:37:40Z</time>
      </trkpt>
      <trkpt lat="43.79278" lon="3.22985">
        <ele>698.05</ele>
        <time>2014-08-23T09:37:41Z</time>
      </trkpt>
      <trkpt lat="43.79283" lon="3.22982">
        <ele>697.09</ele>
        <time>2014-08-23T09:37:42Z</time>
      </trkpt>
      <trkpt lat="43.79289" lon="3.22979">
        <ele>696.13</ele>
        <time>2014-08-23T09:37:43Z</time>
      </trkpt>
      <trkpt lat="43.79324" lon="3.22961">
        <ele>693.73</ele>
        <time>2014-08-23T09:37:48Z</time>
      </trkpt>
      <trkpt lat="43.79353" lon="3.22942">
        <ele>691.81</ele>
        <time>2014-08-23T09:37:52Z</time>
      </trkpt>
      <trkpt lat="43.79366" lon="3.22927">
        <ele>687.96</ele>
        <time>2014-08-23T09:37:54Z</time>
      </trkpt>
      <trkpt lat="43.79371" lon="3.22917">
        <ele>687.48</ele>
        <time>2014-08-23T09:37:55Z</time>
      </trkpt>
      <trkpt lat="43.79375" lon="3.22906">
        <ele>686.04</ele>
        <time>2014-08-23T09:37:56Z</time>
      </trkpt>
      <trkpt lat="43.79377" lon="3.22894">
        <ele>684.6</ele>
        <time>2014-08-23T09:37:57Z</time>
      </trkpt>
      <trkpt lat="43.79379" lon="3.22881">
        <ele>683.63</ele>
        <time>2014-08-23T09:37:58Z</time>
      </trkpt>
      <trkpt lat="43.79381" lon="3.22868">
        <ele>682.19</ele>
        <time>2014-08-23T09:37:59Z</time>
      </trkpt>
      <trkpt lat="43.79381" lon="3.22831">
        <ele>680.27</ele>
        <time>2014-08-23T09:38:03Z</time>
      </trkpt>
      <trkpt lat="43.79381" lon="3.22808">
        <ele>676.91</ele>
        <time>2014-08-23T09:38:06Z</time>
      </trkpt>
      <trkpt lat="43.79382" lon="3.22795">
        <ele>675.46</ele>
        <time>2014-08-23T09:38:08Z</time>
      </trkpt>
      <trkpt lat="43.79381" lon="3.22789">
        <ele>675.46</ele>
        <time>2014-08-23T09:38:09Z</time>
      </trkpt>
      <trkpt lat="43.79379" lon="3.22783">
        <ele>674.5</ele>
        <time>2014-08-23T09:38:10Z</time>
      </trkpt>
      <trkpt lat="43.79376" lon="3.22779">
        <ele>673.54</ele>
        <time>2014-08-23T09:38:11Z</time>
      </trkpt>
      <trkpt lat="43.79372" lon="3.22775">
        <ele>672.1</ele>
        <time>2014-08-23T09:38:12Z</time>
      </trkpt>
      <trkpt lat="43.79367" lon="3.22772">
        <ele>671.14</ele>
        <time>2014-08-23T09:38:13Z</time>
      </trkpt>
      <trkpt lat="43.79359" lon="3.22758">
        <ele>668.73</ele>
        <time>2014-08-23T09:38:17Z</time>
      </trkpt>
      <trkpt lat="43.79358" lon="3.22752">
        <ele>667.77</ele>
        <time>2014-08-23T09:38:18Z</time>
      </trkpt>
      <trkpt lat="43.79359" lon="3.22746">
        <ele>667.29</ele>
        <time>2014-08-23T09:38:19Z</time>
      </trkpt>
      <trkpt lat="43.7936" lon="3.22738">
        <ele>666.33</ele>
        <time>2014-08-23T09:38:20Z</time>
      </trkpt>
      <trkpt lat="43.79361" lon="3.22729">
        <ele>664.89</ele>
        <time>2014-08-23T09:38:21Z</time>
      </trkpt>
      <trkpt lat="43.79361" lon="3.22719">
        <ele>663.45</ele>
        <time>2014-08-23T09:38:22Z</time>
      </trkpt>
      <trkpt lat="43.79361" lon="3.22708">
        <ele>662.49</ele>
        <time>2014-08-23T09:38:23Z</time>
      </trkpt>
      <trkpt lat="43.7936" lon="3.22696">
        <ele>661.04</ele>
        <time>2014-08-23T09:38:24Z</time>
      </trkpt>
      <trkpt lat="43.79359" lon="3.22683">
        <ele>659.6</ele>
        <time>2014-08-23T09:38:25Z</time>
      </trkpt>
      <trkpt lat="43.79358" lon="3.22671">
        <ele>658.16</ele>
        <time>2014-08-23T09:38:26Z</time>
      </trkpt>
      <trkpt lat="43.79358" lon="3.22659">
        <ele>658.16</ele>
        <time>2014-08-23T09:38:27Z</time>
      </trkpt>
      <trkpt lat="43.79359" lon="3.22648">
        <ele>658.16</ele>
        <time>2014-08-23T09:38:28Z</time>
      </trkpt>
      <trkpt lat="43.79361" lon="3.2263">
        <ele>658.16</ele>
        <time>2014-08-23T09:38:30Z</time>
      </trkpt>
      <trkpt lat="43.79362" lon="3.22603">
        <ele>659.6</ele>
        <time>2014-08-23T09:38:34Z</time>
      </trkpt>
      <trkpt lat="43.7937" lon="3.22573">
        <ele>657.2</ele>
        <time>2014-08-23T09:38:39Z</time>
      </trkpt>
      <trkpt lat="43.79371" lon="3.22567">
        <ele>657.68</ele>
        <time>2014-08-23T09:38:40Z</time>
      </trkpt>
      <trkpt lat="43.79371" lon="3.2256">
        <ele>657.2</ele>
        <time>2014-08-23T09:38:41Z</time>
      </trkpt>
      <trkpt lat="43.79372" lon="3.22546">
        <ele>655.76</ele>
        <time>2014-08-23T09:38:43Z</time>
      </trkpt>
      <trkpt lat="43.79373" lon="3.2253">
        <ele>653.83</ele>
        <time>2014-08-23T09:38:45Z</time>
      </trkpt>
      <trkpt lat="43.79374" lon="3.22511">
        <ele>651.91</ele>
        <time>2014-08-23T09:38:47Z</time>
      </trkpt>
      <trkpt lat="43.79376" lon="3.22473">
        <ele>649.99</ele>
        <time>2014-08-23T09:38:51Z</time>
      </trkpt>
      <trkpt lat="43.79378" lon="3.22467">
        <ele>649.51</ele>
        <time>2014-08-23T09:38:52Z</time>
      </trkpt>
      <trkpt lat="43.79379" lon="3.22462">
        <ele>649.03</ele>
        <time>2014-08-23T09:38:53Z</time>
      </trkpt>
      <trkpt lat="43.7938" lon="3.22457">
        <ele>649.03</ele>
        <time>2014-08-23T09:38:54Z</time>
      </trkpt>
      <trkpt lat="43.7938" lon="3.22454">
        <ele>649.03</ele>
        <time>2014-08-23T09:38:55Z</time>
      </trkpt>
      <trkpt lat="43.79379" lon="3.22447">
        <ele>649.03</ele>
        <time>2014-08-23T09:38:59Z</time>
      </trkpt>
      <trkpt lat="43.79378" lon="3.22442">
        <ele>650.47</ele>
        <time>2014-08-23T09:39:02Z</time>
      </trkpt>
      <trkpt lat="43.79377" lon="3.22441">
        <ele>650.47</ele>
        <time>2014-08-23T09:39:03Z</time>
      </trkpt>
      <trkpt lat="43.79375" lon="3.22434">
        <ele>651.43</ele>
        <time>2014-08-23T09:39:07Z</time>
      </trkpt>
      <trkpt lat="43.79375" lon="3.22432">
        <ele>651.43</ele>
        <time>2014-08-23T09:39:08Z</time>
      </trkpt>
      <trkpt lat="43.79374" lon="3.2243">
        <ele>651.91</ele>
        <time>2014-08-23T09:39:09Z</time>
      </trkpt>
      <trkpt lat="43.79375" lon="3.22426">
        <ele>652.39</ele>
        <time>2014-08-23T09:39:11Z</time>
      </trkpt>
      <trkpt lat="43.79375" lon="3.22425">
        <ele>652.39</ele>
        <time>2014-08-23T09:39:12Z</time>
      </trkpt>
      <trkpt lat="43.79375" lon="3.22423">
        <ele>652.39</ele>
        <time>2014-08-23T09:39:13Z</time>
      </trkpt>
      <trkpt lat="43.79375" lon="3.22422">
        <ele>652.87</ele>
        <time>2014-08-23T09:39:14Z</time>
      </trkpt>
      <trkpt lat="43.79374" lon="3.22416">
        <ele>652.87</ele>
        <time>2014-08-23T09:39:18Z</time>
      </trkpt>
      <trkpt lat="43.79374" lon="3.22414">
        <ele>652.87</ele>
        <time>2014-08-23T09:39:19Z</time>
      </trkpt>
      <trkpt lat="43.79374" lon="3.22412">
        <ele>652.87</ele>
        <time>2014-08-23T09:39:20Z</time>
      </trkpt>
      <trkpt lat="43.79376" lon="3.22408">
        <ele>652.87</ele>
        <time>2014-08-23T09:39:23Z</time>
      </trkpt>
      <trkpt lat="43.79375" lon="3.22407">
        <ele>653.35</ele>
        <time>2014-08-23T09:39:24Z</time>
      </trkpt>
      <trkpt lat="43.79375" lon="3.22405">
        <ele>653.35</ele>
        <time>2014-08-23T09:39:25Z</time>
      </trkpt>
      <trkpt lat="43.79375" lon="3.22403">
        <ele>653.35</ele>
        <time>2014-08-23T09:39:26Z</time>
      </trkpt>
      <trkpt lat="43.79374" lon="3.22389">
        <ele>653.35</ele>
        <time>2014-08-23T09:39:33Z</time>
      </trkpt>
      <trkpt lat="43.79374" lon="3.22383">
        <ele>653.35</ele>
        <time>2014-08-23T09:39:38Z</time>
      </trkpt>
      <trkpt lat="43.79368" lon="3.22369">
        <ele>653.35</ele>
        <time>2014-08-23T09:39:46Z</time>
      </trkpt>
      <trkpt lat="43.79366" lon="3.22364">
        <ele>653.83</ele>
        <time>2014-08-23T09:39:49Z</time>
      </trkpt>
      <trkpt lat="43.79365" lon="3.22362">
        <ele>654.31</ele>
        <time>2014-08-23T09:39:50Z</time>
      </trkpt>
      <trkpt lat="43.79364" lon="3.22361">
        <ele>654.31</ele>
        <time>2014-08-23T09:39:51Z</time>
      </trkpt>
      <trkpt lat="43.79363" lon="3.2236">
        <ele>654.31</ele>
        <time>2014-08-23T09:39:52Z</time>
      </trkpt>
      <trkpt lat="43.79362" lon="3.22359">
        <ele>654.8</ele>
        <time>2014-08-23T09:39:53Z</time>
      </trkpt>
      <trkpt lat="43.79361" lon="3.22358">
        <ele>654.8</ele>
        <time>2014-08-23T09:39:54Z</time>
      </trkpt>
      <trkpt lat="43.7936" lon="3.22357">
        <ele>654.8</ele>
        <time>2014-08-23T09:39:55Z</time>
      </trkpt>
      <trkpt lat="43.79359" lon="3.22356">
        <ele>655.28</ele>
        <time>2014-08-23T09:39:56Z</time>
      </trkpt>
      <trkpt lat="43.79352" lon="3.22346">
        <ele>655.28</ele>
        <time>2014-08-23T09:40:03Z</time>
      </trkpt>
      <trkpt lat="43.79351" lon="3.22345">
        <ele>655.28</ele>
        <time>2014-08-23T09:40:04Z</time>
      </trkpt>
      <trkpt lat="43.79349" lon="3.22343">
        <ele>655.28</ele>
        <time>2014-08-23T09:40:05Z</time>
      </trkpt>
      <trkpt lat="43.79345" lon="3.2234">
        <ele>653.83</ele>
        <time>2014-08-23T09:40:07Z</time>
      </trkpt>
      <trkpt lat="43.79332" lon="3.22332">
        <ele>653.83</ele>
        <time>2014-08-23T09:40:13Z</time>
      </trkpt>
      <trkpt lat="43.79332" lon="3.22331">
        <ele>653.83</ele>
        <time>2014-08-23T09:40:14Z</time>
      </trkpt>
      <trkpt lat="43.79332" lon="3.22329">
        <ele>653.83</ele>
        <time>2014-08-23T09:40:15Z</time>
      </trkpt>
      <trkpt lat="43.79332" lon="3.22327">
        <ele>654.8</ele>
        <time>2014-08-23T09:40:16Z</time>
      </trkpt>
      <trkpt lat="43.79331" lon="3.22325">
        <ele>654.8</ele>
        <time>2014-08-23T09:40:17Z</time>
      </trkpt>
      <trkpt lat="43.79331" lon="3.22323">
        <ele>654.8</ele>
        <time>2014-08-23T09:40:18Z</time>
      </trkpt>
      <trkpt lat="43.79329" lon="3.22317">
        <ele>654.8</ele>
        <time>2014-08-23T09:40:21Z</time>
      </trkpt>
      <trkpt lat="43.79328" lon="3.22315">
        <ele>655.28</ele>
        <time>2014-08-23T09:40:22Z</time>
      </trkpt>
      <trkpt lat="43.79327" lon="3.22313">
        <ele>655.28</ele>
        <time>2014-08-23T09:40:23Z</time>
      </trkpt>
      <trkpt lat="43.79326" lon="3.22311">
        <ele>655.28</ele>
        <time>2014-08-23T09:40:24Z</time>
      </trkpt>
      <trkpt lat="43.79325" lon="3.22308">
        <ele>655.28</ele>
        <time>2014-08-23T09:40:25Z</time>
      </trkpt>
      <trkpt lat="43.79325" lon="3.22306">
        <ele>654.8</ele>
        <time>2014-08-23T09:40:26Z</time>
      </trkpt>
      <trkpt lat="43.79315" lon="3.22299">
        <ele>655.28</ele>
        <time>2014-08-23T09:40:31Z</time>
      </trkpt>
      <trkpt lat="43.79308" lon="3.22293">
        <ele>657.2</ele>
        <time>2014-08-23T09:40:34Z</time>
      </trkpt>
      <trkpt lat="43.79308" lon="3.2229">
        <ele>657.2</ele>
        <time>2014-08-23T09:40:35Z</time>
      </trkpt>
      <trkpt lat="43.79308" lon="3.22286">
        <ele>657.68</ele>
        <time>2014-08-23T09:40:36Z</time>
      </trkpt>
      <trkpt lat="43.79309" lon="3.22283">
        <ele>657.68</ele>
        <time>2014-08-23T09:40:37Z</time>
      </trkpt>
      <trkpt lat="43.79309" lon="3.22279">
        <ele>657.68</ele>
        <time>2014-08-23T09:40:38Z</time>
      </trkpt>
      <trkpt lat="43.79311" lon="3.22275">
        <ele>657.68</ele>
        <time>2014-08-23T09:40:39Z</time>
      </trkpt>
      <trkpt lat="43.79312" lon="3.2227">
        <ele>657.68</ele>
        <time>2014-08-23T09:40:40Z</time>
      </trkpt>
      <trkpt lat="43.79313" lon="3.22266">
        <ele>657.68</ele>
        <time>2014-08-23T09:40:41Z</time>
      </trkpt>
      <trkpt lat="43.79321" lon="3.22252">
        <ele>657.68</ele>
        <time>2014-08-23T09:40:46Z</time>
      </trkpt>
      <trkpt lat="43.79331" lon="3.22234">
        <ele>658.16</ele>
        <time>2014-08-23T09:40:53Z</time>
      </trkpt>
      <trkpt lat="43.79332" lon="3.22229">
        <ele>656.72</ele>
        <time>2014-08-23T09:40:55Z</time>
      </trkpt>
      <trkpt lat="43.79333" lon="3.22226">
        <ele>656.24</ele>
        <time>2014-08-23T09:40:56Z</time>
      </trkpt>
      <trkpt lat="43.79334" lon="3.22223">
        <ele>656.24</ele>
        <time>2014-08-23T09:40:57Z</time>
      </trkpt>
      <trkpt lat="43.79334" lon="3.2222">
        <ele>655.76</ele>
        <time>2014-08-23T09:40:58Z</time>
      </trkpt>
      <trkpt lat="43.79334" lon="3.22217">
        <ele>655.76</ele>
        <time>2014-08-23T09:40:59Z</time>
      </trkpt>
      <trkpt lat="43.79334" lon="3.22214">
        <ele>655.28</ele>
        <time>2014-08-23T09:41:00Z</time>
      </trkpt>
      <trkpt lat="43.79334" lon="3.22211">
        <ele>655.28</ele>
        <time>2014-08-23T09:41:01Z</time>
      </trkpt>
      <trkpt lat="43.79334" lon="3.22209">
        <ele>654.8</ele>
        <time>2014-08-23T09:41:02Z</time>
      </trkpt>
      <trkpt lat="43.79331" lon="3.22193">
        <ele>651.91</ele>
        <time>2014-08-23T09:41:08Z</time>
      </trkpt>
      <trkpt lat="43.79326" lon="3.22175">
        <ele>648.07</ele>
        <time>2014-08-23T09:41:13Z</time>
      </trkpt>
      <trkpt lat="43.79325" lon="3.22171">
        <ele>648.07</ele>
        <time>2014-08-23T09:41:14Z</time>
      </trkpt>
      <trkpt lat="43.79319" lon="3.22159">
        <ele>647.1</ele>
        <time>2014-08-23T09:41:17Z</time>
      </trkpt>
      <trkpt lat="43.79316" lon="3.22154">
        <ele>646.62</ele>
        <time>2014-08-23T09:41:18Z</time>
      </trkpt>
      <trkpt lat="43.79312" lon="3.22148">
        <ele>645.66</ele>
        <time>2014-08-23T09:41:19Z</time>
      </trkpt>
      <trkpt lat="43.79309" lon="3.22141">
        <ele>644.7</ele>
        <time>2014-08-23T09:41:20Z</time>
      </trkpt>
      <trkpt lat="43.79304" lon="3.22134">
        <ele>643.74</ele>
        <time>2014-08-23T09:41:21Z</time>
      </trkpt>
      <trkpt lat="43.793" lon="3.22129">
        <ele>643.74</ele>
        <time>2014-08-23T09:41:22Z</time>
      </trkpt>
      <trkpt lat="43.7929" lon="3.22112">
        <ele>647.1</ele>
        <time>2014-08-23T09:41:26Z</time>
      </trkpt>
      <trkpt lat="43.79288" lon="3.22108">
        <ele>647.1</ele>
        <time>2014-08-23T09:41:27Z</time>
      </trkpt>
      <trkpt lat="43.79279" lon="3.22084">
        <ele>648.07</ele>
        <time>2014-08-23T09:41:33Z</time>
      </trkpt>
      <trkpt lat="43.79277" lon="3.2208">
        <ele>648.55</ele>
        <time>2014-08-23T09:41:34Z</time>
      </trkpt>
      <trkpt lat="43.79274" lon="3.22077">
        <ele>648.55</ele>
        <time>2014-08-23T09:41:35Z</time>
      </trkpt>
      <trkpt lat="43.79262" lon="3.2206">
        <ele>648.07</ele>
        <time>2014-08-23T09:41:42Z</time>
      </trkpt>
      <trkpt lat="43.79253" lon="3.22042">
        <ele>651.43</ele>
        <time>2014-08-23T09:41:51Z</time>
      </trkpt>
      <trkpt lat="43.79249" lon="3.22027">
        <ele>652.87</ele>
        <time>2014-08-23T09:41:58Z</time>
      </trkpt>
      <trkpt lat="43.79248" lon="3.22025">
        <ele>653.35</ele>
        <time>2014-08-23T09:41:59Z</time>
      </trkpt>
      <trkpt lat="43.79247" lon="3.22023">
        <ele>653.35</ele>
        <time>2014-08-23T09:42:00Z</time>
      </trkpt>
      <trkpt lat="43.79246" lon="3.22021">
        <ele>653.83</ele>
        <time>2014-08-23T09:42:01Z</time>
      </trkpt>
      <trkpt lat="43.79237" lon="3.2201">
        <ele>655.28</ele>
        <time>2014-08-23T09:42:08Z</time>
      </trkpt>
      <trkpt lat="43.79228" lon="3.21997">
        <ele>656.72</ele>
        <time>2014-08-23T09:42:17Z</time>
      </trkpt>
      <trkpt lat="43.79224" lon="3.21992">
        <ele>657.2</ele>
        <time>2014-08-23T09:42:20Z</time>
      </trkpt>
      <trkpt lat="43.79223" lon="3.21991">
        <ele>657.2</ele>
        <time>2014-08-23T09:42:21Z</time>
      </trkpt>
      <trkpt lat="43.79218" lon="3.21979">
        <ele>657.2</ele>
        <time>2014-08-23T09:42:26Z</time>
      </trkpt>
      <trkpt lat="43.79217" lon="3.21976">
        <ele>657.2</ele>
        <time>2014-08-23T09:42:27Z</time>
      </trkpt>
      <trkpt lat="43.79216" lon="3.21973">
        <ele>657.2</ele>
        <time>2014-08-23T09:42:28Z</time>
      </trkpt>
      <trkpt lat="43.79216" lon="3.2197">
        <ele>657.2</ele>
        <time>2014-08-23T09:42:29Z</time>
      </trkpt>
      <trkpt lat="43.79215" lon="3.21967">
        <ele>657.2</ele>
        <time>2014-08-23T09:42:30Z</time>
      </trkpt>
      <trkpt lat="43.79214" lon="3.21964">
        <ele>657.68</ele>
        <time>2014-08-23T09:42:31Z</time>
      </trkpt>
      <trkpt lat="43.79214" lon="3.21962">
        <ele>657.68</ele>
        <time>2014-08-23T09:42:32Z</time>
      </trkpt>
      <trkpt lat="43.79213" lon="3.21961">
        <ele>657.68</ele>
        <time>2014-08-23T09:42:33Z</time>
      </trkpt>
      <trkpt lat="43.79211" lon="3.21959">
        <ele>657.68</ele>
        <time>2014-08-23T09:42:34Z</time>
      </trkpt>
      <trkpt lat="43.79211" lon="3.21958">
        <ele>657.68</ele>
        <time>2014-08-23T09:42:35Z</time>
      </trkpt>
      <trkpt lat="43.79204" lon="3.21942">
        <ele>656.24</ele>
        <time>2014-08-23T09:42:40Z</time>
      </trkpt>
      <trkpt lat="43.79196" lon="3.21923">
        <ele>654.31</ele>
        <time>2014-08-23T09:42:45Z</time>
      </trkpt>
      <trkpt lat="43.79185" lon="3.21902">
        <ele>651.43</ele>
        <time>2014-08-23T09:42:49Z</time>
      </trkpt>
      <trkpt lat="43.79169" lon="3.21874">
        <ele>649.03</ele>
        <time>2014-08-23T09:42:53Z</time>
      </trkpt>
      <trkpt lat="43.79162" lon="3.21863">
        <ele>648.55</ele>
        <time>2014-08-23T09:42:55Z</time>
      </trkpt>
      <trkpt lat="43.79157" lon="3.21855">
        <ele>648.07</ele>
        <time>2014-08-23T09:42:56Z</time>
      </trkpt>
      <trkpt lat="43.79157" lon="3.21847">
        <ele>649.51</ele>
        <time>2014-08-23T09:42:57Z</time>
      </trkpt>
      <trkpt lat="43.79156" lon="3.2184">
        <ele>650.47</ele>
        <time>2014-08-23T09:42:58Z</time>
      </trkpt>
      <trkpt lat="43.79157" lon="3.21833">
        <ele>650.95</ele>
        <time>2014-08-23T09:42:59Z</time>
      </trkpt>
      <trkpt lat="43.79157" lon="3.21828">
        <ele>650.95</ele>
        <time>2014-08-23T09:43:00Z</time>
      </trkpt>
      <trkpt lat="43.79153" lon="3.218">
        <ele>651.43</ele>
        <time>2014-08-23T09:43:06Z</time>
      </trkpt>
      <trkpt lat="43.79146" lon="3.21774">
        <ele>651.43</ele>
        <time>2014-08-23T09:43:12Z</time>
      </trkpt>
      <trkpt lat="43.79135" lon="3.21746">
        <ele>651.91</ele>
        <time>2014-08-23T09:43:20Z</time>
      </trkpt>
      <trkpt lat="43.79124" lon="3.21724">
        <ele>651.91</ele>
        <time>2014-08-23T09:43:26Z</time>
      </trkpt>
      <trkpt lat="43.79114" lon="3.21709">
        <ele>651.91</ele>
        <time>2014-08-23T09:43:32Z</time>
      </trkpt>
      <trkpt lat="43.79105" lon="3.21693">
        <ele>652.39</ele>
        <time>2014-08-23T09:43:37Z</time>
      </trkpt>
      <trkpt lat="43.79092" lon="3.21675">
        <ele>652.39</ele>
        <time>2014-08-23T09:43:42Z</time>
      </trkpt>
      <trkpt lat="43.79088" lon="3.21671">
        <ele>652.39</ele>
        <time>2014-08-23T09:43:43Z</time>
      </trkpt>
      <trkpt lat="43.79085" lon="3.21667">
        <ele>652.39</ele>
        <time>2014-08-23T09:43:44Z</time>
      </trkpt>
      <trkpt lat="43.7908" lon="3.21657">
        <ele>652.39</ele>
        <time>2014-08-23T09:43:46Z</time>
      </trkpt>
      <trkpt lat="43.79077" lon="3.21652">
        <ele>652.39</ele>
        <time>2014-08-23T09:43:47Z</time>
      </trkpt>
      <trkpt lat="43.79075" lon="3.21648">
        <ele>652.39</ele>
        <time>2014-08-23T09:43:48Z</time>
      </trkpt>
      <trkpt lat="43.79061" lon="3.21628">
        <ele>653.35</ele>
        <time>2014-08-23T09:43:54Z</time>
      </trkpt>
      <trkpt lat="43.79048" lon="3.21612">
        <ele>654.8</ele>
        <time>2014-08-23T09:44:01Z</time>
      </trkpt>
      <trkpt lat="43.79042" lon="3.21597">
        <ele>656.72</ele>
        <time>2014-08-23T09:44:06Z</time>
      </trkpt>
      <trkpt lat="43.79041" lon="3.21592">
        <ele>657.2</ele>
        <time>2014-08-23T09:44:08Z</time>
      </trkpt>
      <trkpt lat="43.79041" lon="3.21589">
        <ele>657.68</ele>
        <time>2014-08-23T09:44:09Z</time>
      </trkpt>
      <trkpt lat="43.79042" lon="3.21587">
        <ele>657.68</ele>
        <time>2014-08-23T09:44:10Z</time>
      </trkpt>
      <trkpt lat="43.79041" lon="3.21584">
        <ele>658.16</ele>
        <time>2014-08-23T09:44:11Z</time>
      </trkpt>
      <trkpt lat="43.7904" lon="3.21582">
        <ele>658.64</ele>
        <time>2014-08-23T09:44:12Z</time>
      </trkpt>
      <trkpt lat="43.79039" lon="3.2158">
        <ele>658.64</ele>
        <time>2014-08-23T09:44:13Z</time>
      </trkpt>
      <trkpt lat="43.79039" lon="3.21578">
        <ele>659.6</ele>
        <time>2014-08-23T09:44:14Z</time>
      </trkpt>
      <trkpt lat="43.79038" lon="3.21576">
        <ele>659.6</ele>
        <time>2014-08-23T09:44:15Z</time>
      </trkpt>
      <trkpt lat="43.79037" lon="3.21574">
        <ele>660.56</ele>
        <time>2014-08-23T09:44:16Z</time>
      </trkpt>
      <trkpt lat="43.79035" lon="3.21572">
        <ele>661.04</ele>
        <time>2014-08-23T09:44:17Z</time>
      </trkpt>
      <trkpt lat="43.79033" lon="3.21568">
        <ele>661.04</ele>
        <time>2014-08-23T09:44:19Z</time>
      </trkpt>
      <trkpt lat="43.79033" lon="3.21566">
        <ele>662.01</ele>
        <time>2014-08-23T09:44:20Z</time>
      </trkpt>
      <trkpt lat="43.79027" lon="3.21552">
        <ele>662.97</ele>
        <time>2014-08-23T09:44:27Z</time>
      </trkpt>
      <trkpt lat="43.79027" lon="3.21549">
        <ele>662.97</ele>
        <time>2014-08-23T09:44:28Z</time>
      </trkpt>
      <trkpt lat="43.79028" lon="3.21539">
        <ele>662.49</ele>
        <time>2014-08-23T09:44:32Z</time>
      </trkpt>
      <trkpt lat="43.79027" lon="3.21537">
        <ele>662.97</ele>
        <time>2014-08-23T09:44:33Z</time>
      </trkpt>
      <trkpt lat="43.79028" lon="3.21528">
        <ele>662.97</ele>
        <time>2014-08-23T09:44:37Z</time>
      </trkpt>
      <trkpt lat="43.79028" lon="3.21525">
        <ele>662.97</ele>
        <time>2014-08-23T09:44:38Z</time>
      </trkpt>
      <trkpt lat="43.79027" lon="3.21523">
        <ele>663.45</ele>
        <time>2014-08-23T09:44:39Z</time>
      </trkpt>
      <trkpt lat="43.79026" lon="3.21522">
        <ele>663.45</ele>
        <time>2014-08-23T09:44:40Z</time>
      </trkpt>
      <trkpt lat="43.79026" lon="3.2152">
        <ele>663.93</ele>
        <time>2014-08-23T09:44:41Z</time>
      </trkpt>
      <trkpt lat="43.79025" lon="3.21504">
        <ele>665.37</ele>
        <time>2014-08-23T09:44:47Z</time>
      </trkpt>
      <trkpt lat="43.7902" lon="3.2149">
        <ele>666.81</ele>
        <time>2014-08-23T09:44:54Z</time>
      </trkpt>
      <trkpt lat="43.79015" lon="3.21479">
        <ele>667.77</ele>
        <time>2014-08-23T09:45:01Z</time>
      </trkpt>
      <trkpt lat="43.79009" lon="3.21471">
        <ele>669.22</ele>
        <time>2014-08-23T09:45:07Z</time>
      </trkpt>
      <trkpt lat="43.79003" lon="3.21462">
        <ele>670.18</ele>
        <time>2014-08-23T09:45:15Z</time>
      </trkpt>
      <trkpt lat="43.79002" lon="3.21459">
        <ele>671.14</ele>
        <time>2014-08-23T09:45:17Z</time>
      </trkpt>
      <trkpt lat="43.78994" lon="3.21444">
        <ele>672.58</ele>
        <time>2014-08-23T09:45:26Z</time>
      </trkpt>
      <trkpt lat="43.78992" lon="3.21435">
        <ele>673.06</ele>
        <time>2014-08-23T09:45:31Z</time>
      </trkpt>
      <trkpt lat="43.78992" lon="3.21433">
        <ele>673.54</ele>
        <time>2014-08-23T09:45:32Z</time>
      </trkpt>
      <trkpt lat="43.78987" lon="3.21422">
        <ele>674.5</ele>
        <time>2014-08-23T09:45:37Z</time>
      </trkpt>
      <trkpt lat="43.78978" lon="3.21406">
        <ele>674.5</ele>
        <time>2014-08-23T09:45:45Z</time>
      </trkpt>
      <trkpt lat="43.78977" lon="3.21405">
        <ele>674.5</ele>
        <time>2014-08-23T09:45:46Z</time>
      </trkpt>
      <trkpt lat="43.78965" lon="3.21394">
        <ele>676.91</ele>
        <time>2014-08-23T09:45:54Z</time>
      </trkpt>
      <trkpt lat="43.78959" lon="3.21389">
        <ele>678.83</ele>
        <time>2014-08-23T09:45:59Z</time>
      </trkpt>
      <trkpt lat="43.78958" lon="3.21387">
        <ele>678.83</ele>
        <time>2014-08-23T09:46:00Z</time>
      </trkpt>
      <trkpt lat="43.78957" lon="3.21386">
        <ele>678.83</ele>
        <time>2014-08-23T09:46:01Z</time>
      </trkpt>
      <trkpt lat="43.78956" lon="3.21384">
        <ele>678.83</ele>
        <time>2014-08-23T09:46:02Z</time>
      </trkpt>
      <trkpt lat="43.78955" lon="3.21382">
        <ele>678.83</ele>
        <time>2014-08-23T09:46:03Z</time>
      </trkpt>
      <trkpt lat="43.78954" lon="3.21381">
        <ele>679.31</ele>
        <time>2014-08-23T09:46:04Z</time>
      </trkpt>
      <trkpt lat="43.78952" lon="3.21378">
        <ele>679.31</ele>
        <time>2014-08-23T09:46:06Z</time>
      </trkpt>
      <trkpt lat="43.78951" lon="3.21377">
        <ele>679.31</ele>
        <time>2014-08-23T09:46:07Z</time>
      </trkpt>
      <trkpt lat="43.7895" lon="3.21377">
        <ele>679.79</ele>
        <time>2014-08-23T09:46:08Z</time>
      </trkpt>
      <trkpt lat="43.78939" lon="3.21371">
        <ele>682.19</ele>
        <time>2014-08-23T09:46:17Z</time>
      </trkpt>
      <trkpt lat="43.78931" lon="3.21362">
        <ele>683.63</ele>
        <time>2014-08-23T09:46:25Z</time>
      </trkpt>
      <trkpt lat="43.7893" lon="3.21359">
        <ele>684.12</ele>
        <time>2014-08-23T09:46:27Z</time>
      </trkpt>
      <trkpt lat="43.78925" lon="3.21354">
        <ele>684.6</ele>
        <time>2014-08-23T09:46:32Z</time>
      </trkpt>
      <trkpt lat="43.78923" lon="3.21353">
        <ele>684.6</ele>
        <time>2014-08-23T09:46:33Z</time>
      </trkpt>
      <trkpt lat="43.78922" lon="3.21353">
        <ele>684.6</ele>
        <time>2014-08-23T09:46:34Z</time>
      </trkpt>
      <trkpt lat="43.78921" lon="3.21352">
        <ele>684.6</ele>
        <time>2014-08-23T09:46:35Z</time>
      </trkpt>
      <trkpt lat="43.78919" lon="3.21352">
        <ele>684.6</ele>
        <time>2014-08-23T09:46:36Z</time>
      </trkpt>
      <trkpt lat="43.78918" lon="3.21351">
        <ele>684.6</ele>
        <time>2014-08-23T09:46:37Z</time>
      </trkpt>
      <trkpt lat="43.78917" lon="3.21351">
        <ele>684.6</ele>
        <time>2014-08-23T09:46:38Z</time>
      </trkpt>
      <trkpt lat="43.78905" lon="3.21339">
        <ele>685.08</ele>
        <time>2014-08-23T09:46:47Z</time>
      </trkpt>
      <trkpt lat="43.78895" lon="3.21329">
        <ele>686.52</ele>
        <time>2014-08-23T09:46:54Z</time>
      </trkpt>
      <trkpt lat="43.78888" lon="3.21317">
        <ele>686.52</ele>
        <time>2014-08-23T09:47:00Z</time>
      </trkpt>
      <trkpt lat="43.78882" lon="3.21297">
        <ele>688.44</ele>
        <time>2014-08-23T09:47:08Z</time>
      </trkpt>
      <trkpt lat="43.7887" lon="3.21284">
        <ele>689.88</ele>
        <time>2014-08-23T09:47:16Z</time>
      </trkpt>
      <trkpt lat="43.78861" lon="3.21275">
        <ele>693.25</ele>
        <time>2014-08-23T09:47:23Z</time>
      </trkpt>
      <trkpt lat="43.7886" lon="3.21273">
        <ele>693.25</ele>
        <time>2014-08-23T09:47:24Z</time>
      </trkpt>
      <trkpt lat="43.78859" lon="3.21272">
        <ele>693.25</ele>
        <time>2014-08-23T09:47:25Z</time>
      </trkpt>
      <trkpt lat="43.78859" lon="3.2127">
        <ele>693.25</ele>
        <time>2014-08-23T09:47:26Z</time>
      </trkpt>
      <trkpt lat="43.78859" lon="3.21267">
        <ele>693.25</ele>
        <time>2014-08-23T09:47:27Z</time>
      </trkpt>
      <trkpt lat="43.7886" lon="3.21265">
        <ele>693.25</ele>
        <time>2014-08-23T09:47:28Z</time>
      </trkpt>
      <trkpt lat="43.78861" lon="3.21262">
        <ele>693.25</ele>
        <time>2014-08-23T09:47:29Z</time>
      </trkpt>
      <trkpt lat="43.78862" lon="3.21259">
        <ele>693.25</ele>
        <time>2014-08-23T09:47:30Z</time>
      </trkpt>
      <trkpt lat="43.78864" lon="3.21257">
        <ele>693.25</ele>
        <time>2014-08-23T09:47:31Z</time>
      </trkpt>
      <trkpt lat="43.78865" lon="3.21255">
        <ele>693.73</ele>
        <time>2014-08-23T09:47:32Z</time>
      </trkpt>
      <trkpt lat="43.78872" lon="3.21234">
        <ele>694.21</ele>
        <time>2014-08-23T09:47:39Z</time>
      </trkpt>
      <trkpt lat="43.78881" lon="3.21207">
        <ele>692.77</ele>
        <time>2014-08-23T09:47:46Z</time>
      </trkpt>
      <trkpt lat="43.78894" lon="3.21171">
        <ele>691.81</ele>
        <time>2014-08-23T09:47:54Z</time>
      </trkpt>
      <trkpt lat="43.789" lon="3.21152">
        <ele>691.81</ele>
        <time>2014-08-23T09:47:59Z</time>
      </trkpt>
      <trkpt lat="43.78901" lon="3.21153">
        <ele>691.81</ele>
        <time>2014-08-23T09:48:07Z</time>
      </trkpt>
      <trkpt lat="43.789" lon="3.21153">
        <ele>691.81</ele>
        <time>2014-08-23T09:48:17Z</time>
      </trkpt>
      <trkpt lat="43.78899" lon="3.21153">
        <ele>691.81</ele>
        <time>2014-08-23T09:48:30Z</time>
      </trkpt>
      <trkpt lat="43.789" lon="3.2115">
        <ele>691.81</ele>
        <time>2014-08-23T09:48:35Z</time>
      </trkpt>
      <trkpt lat="43.789" lon="3.21141">
        <ele>691.81</ele>
        <time>2014-08-23T09:48:45Z</time>
      </trkpt>
      <trkpt lat="43.78899" lon="3.21123">
        <ele>691.33</ele>
        <time>2014-08-23T09:48:51Z</time>
      </trkpt>
      <trkpt lat="43.78892" lon="3.21103">
        <ele>690.36</ele>
        <time>2014-08-23T09:48:56Z</time>
      </trkpt>
      <trkpt lat="43.78888" lon="3.21087">
        <ele>689.88</ele>
        <time>2014-08-23T09:48:59Z</time>
      </trkpt>
      <trkpt lat="43.78886" lon="3.21075">
        <ele>688.44</ele>
        <time>2014-08-23T09:49:01Z</time>
      </trkpt>
      <trkpt lat="43.78888" lon="3.21044">
        <ele>687</ele>
        <time>2014-08-23T09:49:06Z</time>
      </trkpt>
      <trkpt lat="43.7889" lon="3.21037">
        <ele>687</ele>
        <time>2014-08-23T09:49:07Z</time>
      </trkpt>
      <trkpt lat="43.78901" lon="3.20994">
        <ele>685.08</ele>
        <time>2014-08-23T09:49:14Z</time>
      </trkpt>
      <trkpt lat="43.78905" lon="3.20982">
        <ele>685.08</ele>
        <time>2014-08-23T09:49:16Z</time>
      </trkpt>
      <trkpt lat="43.78907" lon="3.20976">
        <ele>685.08</ele>
        <time>2014-08-23T09:49:17Z</time>
      </trkpt>
      <trkpt lat="43.7891" lon="3.20971">
        <ele>684.6</ele>
        <time>2014-08-23T09:49:18Z</time>
      </trkpt>
      <trkpt lat="43.78914" lon="3.20966">
        <ele>684.6</ele>
        <time>2014-08-23T09:49:19Z</time>
      </trkpt>
      <trkpt lat="43.78916" lon="3.2096">
        <ele>684.12</ele>
        <time>2014-08-23T09:49:20Z</time>
      </trkpt>
      <trkpt lat="43.78918" lon="3.20953">
        <ele>683.15</ele>
        <time>2014-08-23T09:49:21Z</time>
      </trkpt>
      <trkpt lat="43.78917" lon="3.20946">
        <ele>683.15</ele>
        <time>2014-08-23T09:49:22Z</time>
      </trkpt>
      <trkpt lat="43.78916" lon="3.20939">
        <ele>682.19</ele>
        <time>2014-08-23T09:49:23Z</time>
      </trkpt>
      <trkpt lat="43.78913" lon="3.20933">
        <ele>682.19</ele>
        <time>2014-08-23T09:49:24Z</time>
      </trkpt>
      <trkpt lat="43.7891" lon="3.20927">
        <ele>682.19</ele>
        <time>2014-08-23T09:49:25Z</time>
      </trkpt>
      <trkpt lat="43.78906" lon="3.20922">
        <ele>682.19</ele>
        <time>2014-08-23T09:49:26Z</time>
      </trkpt>
      <trkpt lat="43.78894" lon="3.209">
        <ele>682.67</ele>
        <time>2014-08-23T09:49:30Z</time>
      </trkpt>
      <trkpt lat="43.78892" lon="3.20895">
        <ele>682.67</ele>
        <time>2014-08-23T09:49:31Z</time>
      </trkpt>
      <trkpt lat="43.78878" lon="3.20864">
        <ele>682.67</ele>
        <time>2014-08-23T09:49:37Z</time>
      </trkpt>
      <trkpt lat="43.78876" lon="3.20858">
        <ele>681.71</ele>
        <time>2014-08-23T09:49:38Z</time>
      </trkpt>
      <trkpt lat="43.78873" lon="3.20852">
        <ele>681.71</ele>
        <time>2014-08-23T09:49:39Z</time>
      </trkpt>
      <trkpt lat="43.78871" lon="3.20846">
        <ele>681.23</ele>
        <time>2014-08-23T09:49:40Z</time>
      </trkpt>
      <trkpt lat="43.78868" lon="3.2084">
        <ele>680.27</ele>
        <time>2014-08-23T09:49:41Z</time>
      </trkpt>
      <trkpt lat="43.78866" lon="3.20833">
        <ele>679.31</ele>
        <time>2014-08-23T09:49:42Z</time>
      </trkpt>
      <trkpt lat="43.78865" lon="3.20826">
        <ele>678.83</ele>
        <time>2014-08-23T09:49:43Z</time>
      </trkpt>
      <trkpt lat="43.78856" lon="3.20792">
        <ele>674.98</ele>
        <time>2014-08-23T09:49:48Z</time>
      </trkpt>
      <trkpt lat="43.78854" lon="3.20784">
        <ele>674.98</ele>
        <time>2014-08-23T09:49:49Z</time>
      </trkpt>
      <trkpt lat="43.7885" lon="3.20768">
        <ele>673.06</ele>
        <time>2014-08-23T09:49:51Z</time>
      </trkpt>
      <trkpt lat="43.78848" lon="3.2076">
        <ele>672.1</ele>
        <time>2014-08-23T09:49:52Z</time>
      </trkpt>
      <trkpt lat="43.78845" lon="3.20753">
        <ele>670.66</ele>
        <time>2014-08-23T09:49:53Z</time>
      </trkpt>
      <trkpt lat="43.78842" lon="3.20745">
        <ele>669.7</ele>
        <time>2014-08-23T09:49:54Z</time>
      </trkpt>
      <trkpt lat="43.78834" lon="3.20716">
        <ele>665.37</ele>
        <time>2014-08-23T09:49:57Z</time>
      </trkpt>
      <trkpt lat="43.78831" lon="3.20705">
        <ele>665.37</ele>
        <time>2014-08-23T09:49:58Z</time>
      </trkpt>
      <trkpt lat="43.78826" lon="3.20683">
        <ele>663.93</ele>
        <time>2014-08-23T09:50:00Z</time>
      </trkpt>
      <trkpt lat="43.78824" lon="3.20673">
        <ele>662.49</ele>
        <time>2014-08-23T09:50:01Z</time>
      </trkpt>
      <trkpt lat="43.78821" lon="3.20663">
        <ele>662.49</ele>
        <time>2014-08-23T09:50:02Z</time>
      </trkpt>
      <trkpt lat="43.78812" lon="3.20609">
        <ele>658.64</ele>
        <time>2014-08-23T09:50:07Z</time>
      </trkpt>
      <trkpt lat="43.78805" lon="3.20574">
        <ele>654.8</ele>
        <time>2014-08-23T09:50:10Z</time>
      </trkpt>
      <trkpt lat="43.78796" lon="3.20535">
        <ele>652.87</ele>
        <time>2014-08-23T09:50:13Z</time>
      </trkpt>
      <trkpt lat="43.78791" lon="3.20524">
        <ele>652.39</ele>
        <time>2014-08-23T09:50:14Z</time>
      </trkpt>
      <trkpt lat="43.78775" lon="3.20493">
        <ele>650.47</ele>
        <time>2014-08-23T09:50:17Z</time>
      </trkpt>
      <trkpt lat="43.78746" lon="3.20438">
        <ele>650.47</ele>
        <time>2014-08-23T09:50:23Z</time>
      </trkpt>
      <trkpt lat="43.78742" lon="3.20429">
        <ele>649.99</ele>
        <time>2014-08-23T09:50:24Z</time>
      </trkpt>
      <trkpt lat="43.78722" lon="3.20375">
        <ele>649.51</ele>
        <time>2014-08-23T09:50:30Z</time>
      </trkpt>
      <trkpt lat="43.78719" lon="3.20366">
        <ele>649.03</ele>
        <time>2014-08-23T09:50:31Z</time>
      </trkpt>
      <trkpt lat="43.78705" lon="3.20328">
        <ele>646.62</ele>
        <time>2014-08-23T09:50:35Z</time>
      </trkpt>
      <trkpt lat="43.78674" lon="3.2026">
        <ele>645.18</ele>
        <time>2014-08-23T09:50:43Z</time>
      </trkpt>
      <trkpt lat="43.78664" lon="3.20238">
        <ele>645.18</ele>
        <time>2014-08-23T09:50:46Z</time>
      </trkpt>
      <trkpt lat="43.78661" lon="3.20231">
        <ele>644.7</ele>
        <time>2014-08-23T09:50:47Z</time>
      </trkpt>
      <trkpt lat="43.78652" lon="3.20209">
        <ele>644.22</ele>
        <time>2014-08-23T09:50:50Z</time>
      </trkpt>
      <trkpt lat="43.78637" lon="3.20178">
        <ele>640.86</ele>
        <time>2014-08-23T09:50:54Z</time>
      </trkpt>
      <trkpt lat="43.78632" lon="3.2017">
        <ele>640.86</ele>
        <time>2014-08-23T09:50:55Z</time>
      </trkpt>
      <trkpt lat="43.78602" lon="3.20126">
        <ele>637.49</ele>
        <time>2014-08-23T09:51:00Z</time>
      </trkpt>
      <trkpt lat="43.78585" lon="3.20101">
        <ele>634.13</ele>
        <time>2014-08-23T09:51:03Z</time>
      </trkpt>
      <trkpt lat="43.78566" lon="3.20076">
        <ele>630.76</ele>
        <time>2014-08-23T09:51:06Z</time>
      </trkpt>
      <trkpt lat="43.78538" lon="3.2004">
        <ele>627.4</ele>
        <time>2014-08-23T09:51:10Z</time>
      </trkpt>
      <trkpt lat="43.78515" lon="3.20007">
        <ele>623.07</ele>
        <time>2014-08-23T09:51:13Z</time>
      </trkpt>
      <trkpt lat="43.7849" lon="3.19971">
        <ele>619.23</ele>
        <time>2014-08-23T09:51:16Z</time>
      </trkpt>
      <trkpt lat="43.78467" lon="3.19932">
        <ele>615.38</ele>
        <time>2014-08-23T09:51:19Z</time>
      </trkpt>
      <trkpt lat="43.78451" lon="3.19906">
        <ele>613.46</ele>
        <time>2014-08-23T09:51:21Z</time>
      </trkpt>
      <trkpt lat="43.7843" lon="3.19867">
        <ele>609.61</ele>
        <time>2014-08-23T09:51:24Z</time>
      </trkpt>
      <trkpt lat="43.78416" lon="3.1984">
        <ele>607.69</ele>
        <time>2014-08-23T09:51:26Z</time>
      </trkpt>
      <trkpt lat="43.78406" lon="3.19815">
        <ele>605.29</ele>
        <time>2014-08-23T09:51:28Z</time>
      </trkpt>
      <trkpt lat="43.78401" lon="3.19804">
        <ele>604.33</ele>
        <time>2014-08-23T09:51:29Z</time>
      </trkpt>
      <trkpt lat="43.78395" lon="3.19795">
        <ele>603.85</ele>
        <time>2014-08-23T09:51:30Z</time>
      </trkpt>
      <trkpt lat="43.78388" lon="3.19789">
        <ele>602.4</ele>
        <time>2014-08-23T09:51:31Z</time>
      </trkpt>
      <trkpt lat="43.7838" lon="3.19788">
        <ele>601.44</ele>
        <time>2014-08-23T09:51:32Z</time>
      </trkpt>
      <trkpt lat="43.78371" lon="3.19788">
        <ele>600.96</ele>
        <time>2014-08-23T09:51:33Z</time>
      </trkpt>
      <trkpt lat="43.78362" lon="3.19789">
        <ele>600.96</ele>
        <time>2014-08-23T09:51:34Z</time>
      </trkpt>
      <trkpt lat="43.78354" lon="3.19787">
        <ele>600.96</ele>
        <time>2014-08-23T09:51:35Z</time>
      </trkpt>
      <trkpt lat="43.78347" lon="3.19784">
        <ele>600.96</ele>
        <time>2014-08-23T09:51:36Z</time>
      </trkpt>
      <trkpt lat="43.7834" lon="3.1978">
        <ele>601.92</ele>
        <time>2014-08-23T09:51:37Z</time>
      </trkpt>
      <trkpt lat="43.78333" lon="3.19777">
        <ele>601.92</ele>
        <time>2014-08-23T09:51:38Z</time>
      </trkpt>
      <trkpt lat="43.78327" lon="3.19774">
        <ele>601.92</ele>
        <time>2014-08-23T09:51:39Z</time>
      </trkpt>
      <trkpt lat="43.7832" lon="3.19772">
        <ele>601.92</ele>
        <time>2014-08-23T09:51:40Z</time>
      </trkpt>
      <trkpt lat="43.78313" lon="3.19771">
        <ele>601.92</ele>
        <time>2014-08-23T09:51:41Z</time>
      </trkpt>
      <trkpt lat="43.78306" lon="3.19772">
        <ele>600.48</ele>
        <time>2014-08-23T09:51:42Z</time>
      </trkpt>
      <trkpt lat="43.78299" lon="3.19773">
        <ele>599.04</ele>
        <time>2014-08-23T09:51:43Z</time>
      </trkpt>
      <trkpt lat="43.78291" lon="3.19775">
        <ele>598.08</ele>
        <time>2014-08-23T09:51:44Z</time>
      </trkpt>
      <trkpt lat="43.78284" lon="3.19778">
        <ele>597.6</ele>
        <time>2014-08-23T09:51:45Z</time>
      </trkpt>
      <trkpt lat="43.78277" lon="3.19779">
        <ele>597.6</ele>
        <time>2014-08-23T09:51:46Z</time>
      </trkpt>
      <trkpt lat="43.78264" lon="3.19781">
        <ele>596.64</ele>
        <time>2014-08-23T09:51:48Z</time>
      </trkpt>
      <trkpt lat="43.78257" lon="3.1978">
        <ele>596.15</ele>
        <time>2014-08-23T09:51:49Z</time>
      </trkpt>
      <trkpt lat="43.78252" lon="3.19777">
        <ele>595.67</ele>
        <time>2014-08-23T09:51:50Z</time>
      </trkpt>
      <trkpt lat="43.78247" lon="3.19772">
        <ele>594.71</ele>
        <time>2014-08-23T09:51:51Z</time>
      </trkpt>
      <trkpt lat="43.78243" lon="3.19767">
        <ele>594.71</ele>
        <time>2014-08-23T09:51:52Z</time>
      </trkpt>
      <trkpt lat="43.78239" lon="3.19761">
        <ele>595.19</ele>
        <time>2014-08-23T09:51:53Z</time>
      </trkpt>
      <trkpt lat="43.78232" lon="3.19749">
        <ele>594.71</ele>
        <time>2014-08-23T09:51:55Z</time>
      </trkpt>
      <trkpt lat="43.78228" lon="3.19743">
        <ele>593.75</ele>
        <time>2014-08-23T09:51:56Z</time>
      </trkpt>
      <trkpt lat="43.78225" lon="3.19736">
        <ele>593.27</ele>
        <time>2014-08-23T09:51:57Z</time>
      </trkpt>
      <trkpt lat="43.78221" lon="3.19729">
        <ele>592.31</ele>
        <time>2014-08-23T09:51:58Z</time>
      </trkpt>
      <trkpt lat="43.78218" lon="3.19721">
        <ele>591.83</ele>
        <time>2014-08-23T09:51:59Z</time>
      </trkpt>
      <trkpt lat="43.78214" lon="3.19713">
        <ele>591.83</ele>
        <time>2014-08-23T09:52:00Z</time>
      </trkpt>
      <trkpt lat="43.78211" lon="3.19704">
        <ele>591.35</ele>
        <time>2014-08-23T09:52:01Z</time>
      </trkpt>
      <trkpt lat="43.78208" lon="3.19695">
        <ele>589.91</ele>
        <time>2014-08-23T09:52:02Z</time>
      </trkpt>
      <trkpt lat="43.78204" lon="3.19686">
        <ele>588.46</ele>
        <time>2014-08-23T09:52:03Z</time>
      </trkpt>
      <trkpt lat="43.78198" lon="3.19678">
        <ele>587.98</ele>
        <time>2014-08-23T09:52:04Z</time>
      </trkpt>
      <trkpt lat="43.78192" lon="3.19671">
        <ele>587.02</ele>
        <time>2014-08-23T09:52:05Z</time>
      </trkpt>
      <trkpt lat="43.78185" lon="3.19663">
        <ele>586.54</ele>
        <time>2014-08-23T09:52:06Z</time>
      </trkpt>
      <trkpt lat="43.78179" lon="3.19655">
        <ele>586.54</ele>
        <time>2014-08-23T09:52:07Z</time>
      </trkpt>
      <trkpt lat="43.78172" lon="3.1965">
        <ele>586.54</ele>
        <time>2014-08-23T09:52:08Z</time>
      </trkpt>
      <trkpt lat="43.78167" lon="3.19647">
        <ele>587.02</ele>
        <time>2014-08-23T09:52:09Z</time>
      </trkpt>
      <trkpt lat="43.78163" lon="3.19649">
        <ele>586.54</ele>
        <time>2014-08-23T09:52:10Z</time>
      </trkpt>
      <trkpt lat="43.78161" lon="3.19656">
        <ele>586.06</ele>
        <time>2014-08-23T09:52:11Z</time>
      </trkpt>
      <trkpt lat="43.7816" lon="3.19663">
        <ele>586.06</ele>
        <time>2014-08-23T09:52:12Z</time>
      </trkpt>
      <trkpt lat="43.78161" lon="3.19672">
        <ele>585.1</ele>
        <time>2014-08-23T09:52:13Z</time>
      </trkpt>
      <trkpt lat="43.78163" lon="3.19681">
        <ele>584.14</ele>
        <time>2014-08-23T09:52:14Z</time>
      </trkpt>
      <trkpt lat="43.78164" lon="3.1969">
        <ele>583.66</ele>
        <time>2014-08-23T09:52:15Z</time>
      </trkpt>
      <trkpt lat="43.78165" lon="3.19701">
        <ele>582.7</ele>
        <time>2014-08-23T09:52:16Z</time>
      </trkpt>
      <trkpt lat="43.78165" lon="3.1971">
        <ele>582.7</ele>
        <time>2014-08-23T09:52:17Z</time>
      </trkpt>
      <trkpt lat="43.78164" lon="3.19718">
        <ele>582.7</ele>
        <time>2014-08-23T09:52:18Z</time>
      </trkpt>
      <trkpt lat="43.78163" lon="3.19724">
        <ele>582.22</ele>
        <time>2014-08-23T09:52:19Z</time>
      </trkpt>
      <trkpt lat="43.78162" lon="3.19727">
        <ele>580.29</ele>
        <time>2014-08-23T09:52:20Z</time>
      </trkpt>
      <trkpt lat="43.78159" lon="3.19723">
        <ele>578.85</ele>
        <time>2014-08-23T09:52:21Z</time>
      </trkpt>
      <trkpt lat="43.78159" lon="3.19718">
        <ele>577.89</ele>
        <time>2014-08-23T09:52:22Z</time>
      </trkpt>
      <trkpt lat="43.78155" lon="3.19706">
        <ele>576.93</ele>
        <time>2014-08-23T09:52:23Z</time>
      </trkpt>
      <trkpt lat="43.7815" lon="3.19692">
        <ele>575.49</ele>
        <time>2014-08-23T09:52:24Z</time>
      </trkpt>
      <trkpt lat="43.78144" lon="3.19678">
        <ele>575.01</ele>
        <time>2014-08-23T09:52:25Z</time>
      </trkpt>
      <trkpt lat="43.78127" lon="3.19641">
        <ele>573.56</ele>
        <time>2014-08-23T09:52:28Z</time>
      </trkpt>
      <trkpt lat="43.78115" lon="3.19619">
        <ele>571.64</ele>
        <time>2014-08-23T09:52:30Z</time>
      </trkpt>
      <trkpt lat="43.78094" lon="3.19589">
        <ele>568.28</ele>
        <time>2014-08-23T09:52:33Z</time>
      </trkpt>
      <trkpt lat="43.78079" lon="3.19572">
        <ele>566.83</ele>
        <time>2014-08-23T09:52:35Z</time>
      </trkpt>
      <trkpt lat="43.7807" lon="3.19568">
        <ele>566.35</ele>
        <time>2014-08-23T09:52:36Z</time>
      </trkpt>
      <trkpt lat="43.78061" lon="3.19568">
        <ele>564.91</ele>
        <time>2014-08-23T09:52:37Z</time>
      </trkpt>
      <trkpt lat="43.7804" lon="3.19567">
        <ele>564.43</ele>
        <time>2014-08-23T09:52:39Z</time>
      </trkpt>
      <trkpt lat="43.77972" lon="3.1957">
        <ele>562.03</ele>
        <time>2014-08-23T09:52:46Z</time>
      </trkpt>
      <trkpt lat="43.77963" lon="3.19574">
        <ele>562.03</ele>
        <time>2014-08-23T09:52:47Z</time>
      </trkpt>
      <trkpt lat="43.77955" lon="3.19579">
        <ele>562.03</ele>
        <time>2014-08-23T09:52:48Z</time>
      </trkpt>
      <trkpt lat="43.77949" lon="3.19586">
        <ele>562.03</ele>
        <time>2014-08-23T09:52:49Z</time>
      </trkpt>
      <trkpt lat="43.77943" lon="3.19591">
        <ele>562.03</ele>
        <time>2014-08-23T09:52:50Z</time>
      </trkpt>
      <trkpt lat="43.77938" lon="3.19596">
        <ele>562.03</ele>
        <time>2014-08-23T09:52:51Z</time>
      </trkpt>
      <trkpt lat="43.77932" lon="3.19601">
        <ele>562.03</ele>
        <time>2014-08-23T09:52:52Z</time>
      </trkpt>
      <trkpt lat="43.77926" lon="3.19603">
        <ele>562.03</ele>
        <time>2014-08-23T09:52:53Z</time>
      </trkpt>
      <trkpt lat="43.77921" lon="3.19602">
        <ele>561.07</ele>
        <time>2014-08-23T09:52:54Z</time>
      </trkpt>
      <trkpt lat="43.77915" lon="3.19599">
        <ele>560.59</ele>
        <time>2014-08-23T09:52:55Z</time>
      </trkpt>
      <trkpt lat="43.77911" lon="3.19596">
        <ele>560.59</ele>
        <time>2014-08-23T09:52:56Z</time>
      </trkpt>
      <trkpt lat="43.77872" lon="3.19566">
        <ele>559.62</ele>
        <time>2014-08-23T09:53:04Z</time>
      </trkpt>
      <trkpt lat="43.77868" lon="3.1956">
        <ele>559.62</ele>
        <time>2014-08-23T09:53:05Z</time>
      </trkpt>
      <trkpt lat="43.77848" lon="3.19529">
        <ele>559.62</ele>
        <time>2014-08-23T09:53:10Z</time>
      </trkpt>
      <trkpt lat="43.77843" lon="3.19526">
        <ele>559.62</ele>
        <time>2014-08-23T09:53:11Z</time>
      </trkpt>
      <trkpt lat="43.77837" lon="3.19526">
        <ele>559.62</ele>
        <time>2014-08-23T09:53:12Z</time>
      </trkpt>
      <trkpt lat="43.77831" lon="3.19528">
        <ele>559.62</ele>
        <time>2014-08-23T09:53:13Z</time>
      </trkpt>
      <trkpt lat="43.77828" lon="3.19531">
        <ele>559.62</ele>
        <time>2014-08-23T09:53:14Z</time>
      </trkpt>
      <trkpt lat="43.77824" lon="3.19534">
        <ele>559.62</ele>
        <time>2014-08-23T09:53:15Z</time>
      </trkpt>
      <trkpt lat="43.77811" lon="3.19552">
        <ele>559.62</ele>
        <time>2014-08-23T09:53:21Z</time>
      </trkpt>
      <trkpt lat="43.7781" lon="3.19556">
        <ele>559.14</ele>
        <time>2014-08-23T09:53:26Z</time>
      </trkpt>
      <trkpt lat="43.77809" lon="3.19557">
        <ele>559.14</ele>
        <time>2014-08-23T09:53:38Z</time>
      </trkpt>
      <trkpt lat="43.77808" lon="3.19563">
        <ele>559.14</ele>
        <time>2014-08-23T09:53:46Z</time>
      </trkpt>
      <trkpt lat="43.77806" lon="3.19581">
        <ele>559.14</ele>
        <time>2014-08-23T09:53:54Z</time>
      </trkpt>
      <trkpt lat="43.77808" lon="3.19607">
        <ele>558.66</ele>
        <time>2014-08-23T09:54:00Z</time>
      </trkpt>
      <trkpt lat="43.77812" lon="3.19638">
        <ele>557.7</ele>
        <time>2014-08-23T09:54:07Z</time>
      </trkpt>
      <trkpt lat="43.77815" lon="3.19668">
        <ele>557.22</ele>
        <time>2014-08-23T09:54:14Z</time>
      </trkpt>
      <trkpt lat="43.77817" lon="3.19692">
        <ele>556.74</ele>
        <time>2014-08-23T09:54:19Z</time>
      </trkpt>
      <trkpt lat="43.77817" lon="3.19715">
        <ele>556.74</ele>
        <time>2014-08-23T09:54:25Z</time>
      </trkpt>
      <trkpt lat="43.77817" lon="3.19721">
        <ele>556.26</ele>
        <time>2014-08-23T09:54:27Z</time>
      </trkpt>
      <trkpt lat="43.77818" lon="3.19724">
        <ele>556.26</ele>
        <time>2014-08-23T09:54:28Z</time>
      </trkpt>
      <trkpt lat="43.77818" lon="3.19727">
        <ele>556.26</ele>
        <time>2014-08-23T09:54:29Z</time>
      </trkpt>
      <trkpt lat="43.77818" lon="3.19729">
        <ele>556.26</ele>
        <time>2014-08-23T09:54:30Z</time>
      </trkpt>
      <trkpt lat="43.77818" lon="3.19731">
        <ele>556.26</ele>
        <time>2014-08-23T09:54:31Z</time>
      </trkpt>
      <trkpt lat="43.77818" lon="3.19734">
        <ele>556.26</ele>
        <time>2014-08-23T09:54:32Z</time>
      </trkpt>
      <trkpt lat="43.7782" lon="3.1975">
        <ele>555.78</ele>
        <time>2014-08-23T09:54:39Z</time>
      </trkpt>
      <trkpt lat="43.7782" lon="3.19759">
        <ele>555.3</ele>
        <time>2014-08-23T09:54:42Z</time>
      </trkpt>
      <trkpt lat="43.7782" lon="3.19762">
        <ele>555.3</ele>
        <time>2014-08-23T09:54:43Z</time>
      </trkpt>
      <trkpt lat="43.7782" lon="3.19766">
        <ele>555.3</ele>
        <time>2014-08-23T09:54:44Z</time>
      </trkpt>
      <trkpt lat="43.7782" lon="3.19771">
        <ele>554.82</ele>
        <time>2014-08-23T09:54:45Z</time>
      </trkpt>
      <trkpt lat="43.77819" lon="3.19808">
        <ele>553.86</ele>
        <time>2014-08-23T09:54:52Z</time>
      </trkpt>
      <trkpt lat="43.77819" lon="3.19828">
        <ele>553.38</ele>
        <time>2014-08-23T09:54:56Z</time>
      </trkpt>
      <trkpt lat="43.77819" lon="3.1983">
        <ele>553.38</ele>
        <time>2014-08-23T09:54:57Z</time>
      </trkpt>
      <trkpt lat="43.77819" lon="3.19845">
        <ele>552.9</ele>
        <time>2014-08-23T09:55:02Z</time>
      </trkpt>
      <trkpt lat="43.77818" lon="3.19848">
        <ele>552.9</ele>
        <time>2014-08-23T09:55:03Z</time>
      </trkpt>
      <trkpt lat="43.77817" lon="3.1985">
        <ele>552.41</ele>
        <time>2014-08-23T09:55:04Z</time>
      </trkpt>
      <trkpt lat="43.77817" lon="3.19853">
        <ele>552.41</ele>
        <time>2014-08-23T09:55:05Z</time>
      </trkpt>
      <trkpt lat="43.77811" lon="3.19874">
        <ele>551.45</ele>
        <time>2014-08-23T09:55:11Z</time>
      </trkpt>
      <trkpt lat="43.77798" lon="3.19894">
        <ele>548.57</ele>
        <time>2014-08-23T09:55:17Z</time>
      </trkpt>
      <trkpt lat="43.77793" lon="3.19893">
        <ele>548.09</ele>
        <time>2014-08-23T09:55:18Z</time>
      </trkpt>
      <trkpt lat="43.77788" lon="3.1989">
        <ele>548.09</ele>
        <time>2014-08-23T09:55:19Z</time>
      </trkpt>
      <trkpt lat="43.77785" lon="3.19884">
        <ele>548.09</ele>
        <time>2014-08-23T09:55:20Z</time>
      </trkpt>
      <trkpt lat="43.77783" lon="3.19878">
        <ele>547.61</ele>
        <time>2014-08-23T09:55:21Z</time>
      </trkpt>
      <trkpt lat="43.77781" lon="3.19873">
        <ele>547.61</ele>
        <time>2014-08-23T09:55:22Z</time>
      </trkpt>
      <trkpt lat="43.77779" lon="3.19869">
        <ele>547.61</ele>
        <time>2014-08-23T09:55:23Z</time>
      </trkpt>
      <trkpt lat="43.77777" lon="3.19867">
        <ele>547.61</ele>
        <time>2014-08-23T09:55:24Z</time>
      </trkpt>
      <trkpt lat="43.77776" lon="3.19867">
        <ele>547.61</ele>
        <time>2014-08-23T09:55:29Z</time>
      </trkpt>
      <trkpt lat="43.77773" lon="3.19867">
        <ele>547.61</ele>
        <time>2014-08-23T09:55:43Z</time>
      </trkpt>
      <trkpt lat="43.77774" lon="3.19866">
        <ele>546.65</ele>
        <time>2014-08-23T09:55:54Z</time>
      </trkpt>
      <trkpt lat="43.77774" lon="3.19865">
        <ele>548.09</ele>
        <time>2014-08-23T09:56:09Z</time>
      </trkpt>
      <trkpt lat="43.77776" lon="3.19863">
        <ele>548.09</ele>
        <time>2014-08-23T09:56:17Z</time>
      </trkpt>
      <trkpt lat="43.77772" lon="3.19851">
        <ele>548.09</ele>
        <time>2014-08-23T09:56:23Z</time>
      </trkpt>
      <trkpt lat="43.77766" lon="3.19831">
        <ele>547.61</ele>
        <time>2014-08-23T09:56:29Z</time>
      </trkpt>
      <trkpt lat="43.77762" lon="3.19822">
        <ele>547.61</ele>
        <time>2014-08-23T09:56:32Z</time>
      </trkpt>
      <trkpt lat="43.77762" lon="3.19819">
        <ele>547.61</ele>
        <time>2014-08-23T09:56:33Z</time>
      </trkpt>
      <trkpt lat="43.7776" lon="3.19799">
        <ele>547.61</ele>
        <time>2014-08-23T09:56:40Z</time>
      </trkpt>
      <trkpt lat="43.77761" lon="3.19801">
        <ele>547.61</ele>
        <time>2014-08-23T09:56:44Z</time>
      </trkpt>
      <trkpt lat="43.77761" lon="3.19803">
        <ele>547.61</ele>
        <time>2014-08-23T09:56:45Z</time>
      </trkpt>
      <trkpt lat="43.77762" lon="3.19823">
        <ele>547.61</ele>
        <time>2014-08-23T09:56:52Z</time>
      </trkpt>
      <trkpt lat="43.77764" lon="3.19827">
        <ele>547.61</ele>
        <time>2014-08-23T09:56:56Z</time>
      </trkpt>
      <trkpt lat="43.77765" lon="3.19827">
        <ele>547.61</ele>
        <time>2014-08-23T09:57:04Z</time>
      </trkpt>
      <trkpt lat="43.77765" lon="3.19827">
        <ele>546.65</ele>
        <time>2014-08-23T09:57:15Z</time>
      </trkpt>
      <trkpt lat="43.77767" lon="3.19827">
        <ele>546.65</ele>
        <time>2014-08-23T09:57:28Z</time>
      </trkpt>
      <trkpt lat="43.77767" lon="3.19827">
        <ele>546.65</ele>
        <time>2014-08-23T09:57:38Z</time>
      </trkpt>
      <trkpt lat="43.77768" lon="3.19827">
        <ele>546.65</ele>
        <time>2014-08-23T09:57:49Z</time>
      </trkpt>
      <trkpt lat="43.77769" lon="3.19827">
        <ele>546.65</ele>
        <time>2014-08-23T09:58:01Z</time>
      </trkpt>
      <trkpt lat="43.77769" lon="3.19826">
        <ele>546.65</ele>
        <time>2014-08-23T09:58:13Z</time>
      </trkpt>
      <trkpt lat="43.77767" lon="3.19826">
        <ele>546.65</ele>
        <time>2014-08-23T09:58:28Z</time>
      </trkpt>
      <trkpt lat="43.77766" lon="3.19827">
        <ele>546.65</ele>
        <time>2014-08-23T09:58:35Z</time>
      </trkpt>
      <trkpt lat="43.77763" lon="3.19823">
        <ele>546.65</ele>
        <time>2014-08-23T09:58:44Z</time>
      </trkpt>
      <trkpt lat="43.77759" lon="3.19821">
        <ele>546.65</ele>
        <time>2014-08-23T09:58:54Z</time>
      </trkpt>
      <trkpt lat="43.77758" lon="3.19821">
        <ele>547.61</ele>
        <time>2014-08-23T09:59:04Z</time>
      </trkpt>
      <trkpt lat="43.77758" lon="3.19824">
        <ele>547.61</ele>
        <time>2014-08-23T09:59:19Z</time>
      </trkpt>
      <trkpt lat="43.77758" lon="3.19824">
        <ele>547.61</ele>
        <time>2014-08-23T09:59:31Z</time>
      </trkpt>
      <trkpt lat="43.77757" lon="3.19825">
        <ele>547.61</ele>
        <time>2014-08-23T09:59:48Z</time>
      </trkpt>
      <trkpt lat="43.77759" lon="3.19824">
        <ele>547.61</ele>
        <time>2014-08-23T09:59:59Z</time>
      </trkpt>
      <trkpt lat="43.77756" lon="3.19823">
        <ele>547.61</ele>
        <time>2014-08-23T10:00:12Z</time>
      </trkpt>
      <trkpt lat="43.77758" lon="3.19823">
        <ele>547.61</ele>
        <time>2014-08-23T10:00:28Z</time>
      </trkpt>
      <trkpt lat="43.77759" lon="3.19821">
        <ele>547.61</ele>
        <time>2014-08-23T10:00:35Z</time>
      </trkpt>
      <trkpt lat="43.77767" lon="3.19819">
        <ele>547.61</ele>
        <time>2014-08-23T10:00:51Z</time>
      </trkpt>
      <trkpt lat="43.77763" lon="3.19821">
        <ele>547.61</ele>
        <time>2014-08-23T10:01:00Z</time>
      </trkpt>
      <trkpt lat="43.77761" lon="3.19818">
        <ele>547.61</ele>
        <time>2014-08-23T10:01:10Z</time>
      </trkpt>
      <trkpt lat="43.7776" lon="3.19815">
        <ele>547.61</ele>
        <time>2014-08-23T10:01:12Z</time>
      </trkpt>
      <trkpt lat="43.77762" lon="3.19808">
        <ele>547.61</ele>
        <time>2014-08-23T10:01:15Z</time>
      </trkpt>
      <trkpt lat="43.77763" lon="3.198">
        <ele>546.17</ele>
        <time>2014-08-23T10:01:17Z</time>
      </trkpt>
      <trkpt lat="43.77761" lon="3.19783">
        <ele>546.17</ele>
        <time>2014-08-23T10:01:21Z</time>
      </trkpt>
      <trkpt lat="43.77746" lon="3.19767">
        <ele>546.17</ele>
        <time>2014-08-23T10:01:27Z</time>
      </trkpt>
      <trkpt lat="43.77744" lon="3.19764">
        <ele>546.17</ele>
        <time>2014-08-23T10:01:28Z</time>
      </trkpt>
      <trkpt lat="43.77743" lon="3.1976">
        <ele>547.61</ele>
        <time>2014-08-23T10:01:29Z</time>
      </trkpt>
      <trkpt lat="43.77742" lon="3.19757">
        <ele>547.61</ele>
        <time>2014-08-23T10:01:30Z</time>
      </trkpt>
      <trkpt lat="43.77742" lon="3.19753">
        <ele>547.61</ele>
        <time>2014-08-23T10:01:31Z</time>
      </trkpt>
      <trkpt lat="43.77742" lon="3.19749">
        <ele>548.09</ele>
        <time>2014-08-23T10:01:32Z</time>
      </trkpt>
      <trkpt lat="43.77742" lon="3.19746">
        <ele>548.09</ele>
        <time>2014-08-23T10:01:33Z</time>
      </trkpt>
      <trkpt lat="43.77742" lon="3.19742">
        <ele>548.09</ele>
        <time>2014-08-23T10:01:34Z</time>
      </trkpt>
      <trkpt lat="43.77742" lon="3.19739">
        <ele>548.57</ele>
        <time>2014-08-23T10:01:35Z</time>
      </trkpt>
      <trkpt lat="43.77742" lon="3.19736">
        <ele>548.57</ele>
        <time>2014-08-23T10:01:36Z</time>
      </trkpt>
      <trkpt lat="43.77742" lon="3.19734">
        <ele>548.57</ele>
        <time>2014-08-23T10:01:37Z</time>
      </trkpt>
      <trkpt lat="43.77739" lon="3.19728">
        <ele>548.57</ele>
        <time>2014-08-23T10:01:42Z</time>
      </trkpt>
      <trkpt lat="43.77739" lon="3.19727">
        <ele>548.57</ele>
        <time>2014-08-23T10:01:43Z</time>
      </trkpt>
      <trkpt lat="43.77738" lon="3.19725">
        <ele>548.57</ele>
        <time>2014-08-23T10:01:44Z</time>
      </trkpt>
      <trkpt lat="43.77738" lon="3.19722">
        <ele>548.57</ele>
        <time>2014-08-23T10:01:45Z</time>
      </trkpt>
      <trkpt lat="43.77735" lon="3.197">
        <ele>550.49</ele>
        <time>2014-08-23T10:01:52Z</time>
      </trkpt>
      <trkpt lat="43.77733" lon="3.19676">
        <ele>551.45</ele>
        <time>2014-08-23T10:01:59Z</time>
      </trkpt>
      <trkpt lat="43.77729" lon="3.19656">
        <ele>552.9</ele>
        <time>2014-08-23T10:02:06Z</time>
      </trkpt>
      <trkpt lat="43.77725" lon="3.19639">
        <ele>553.86</ele>
        <time>2014-08-23T10:02:13Z</time>
      </trkpt>
      <trkpt lat="43.7772" lon="3.1962">
        <ele>555.3</ele>
        <time>2014-08-23T10:02:21Z</time>
      </trkpt>
      <trkpt lat="43.77715" lon="3.19603">
        <ele>556.74</ele>
        <time>2014-08-23T10:02:28Z</time>
      </trkpt>
      <trkpt lat="43.77712" lon="3.19596">
        <ele>557.7</ele>
        <time>2014-08-23T10:02:31Z</time>
      </trkpt>
      <trkpt lat="43.77712" lon="3.19594">
        <ele>558.18</ele>
        <time>2014-08-23T10:02:32Z</time>
      </trkpt>
      <trkpt lat="43.77711" lon="3.1958">
        <ele>559.14</ele>
        <time>2014-08-23T10:02:40Z</time>
      </trkpt>
      <trkpt lat="43.77705" lon="3.19565">
        <ele>561.55</ele>
        <time>2014-08-23T10:02:48Z</time>
      </trkpt>
      <trkpt lat="43.77696" lon="3.19553">
        <ele>562.99</ele>
        <time>2014-08-23T10:02:56Z</time>
      </trkpt>
      <trkpt lat="43.77683" lon="3.19539">
        <ele>565.39</ele>
        <time>2014-08-23T10:03:06Z</time>
      </trkpt>
      <trkpt lat="43.77673" lon="3.19535">
        <ele>566.35</ele>
        <time>2014-08-23T10:03:12Z</time>
      </trkpt>
      <trkpt lat="43.77671" lon="3.19533">
        <ele>566.83</ele>
        <time>2014-08-23T10:03:14Z</time>
      </trkpt>
      <trkpt lat="43.77664" lon="3.19529">
        <ele>567.32</ele>
        <time>2014-08-23T10:03:19Z</time>
      </trkpt>
      <trkpt lat="43.77662" lon="3.19528">
        <ele>568.28</ele>
        <time>2014-08-23T10:03:20Z</time>
      </trkpt>
      <trkpt lat="43.77651" lon="3.19523">
        <ele>569.24</ele>
        <time>2014-08-23T10:03:27Z</time>
      </trkpt>
      <trkpt lat="43.77642" lon="3.19519">
        <ele>570.68</ele>
        <time>2014-08-23T10:03:33Z</time>
      </trkpt>
      <trkpt lat="43.77633" lon="3.19514">
        <ele>571.64</ele>
        <time>2014-08-23T10:03:39Z</time>
      </trkpt>
      <trkpt lat="43.77632" lon="3.19514">
        <ele>571.64</ele>
        <time>2014-08-23T10:03:40Z</time>
      </trkpt>
      <trkpt lat="43.77631" lon="3.19513">
        <ele>571.64</ele>
        <time>2014-08-23T10:03:41Z</time>
      </trkpt>
      <trkpt lat="43.7763" lon="3.19513">
        <ele>572.12</ele>
        <time>2014-08-23T10:03:42Z</time>
      </trkpt>
      <trkpt lat="43.77628" lon="3.19512">
        <ele>572.12</ele>
        <time>2014-08-23T10:03:43Z</time>
      </trkpt>
      <trkpt lat="43.77627" lon="3.19511">
        <ele>572.12</ele>
        <time>2014-08-23T10:03:44Z</time>
      </trkpt>
      <trkpt lat="43.77625" lon="3.1951">
        <ele>572.6</ele>
        <time>2014-08-23T10:03:45Z</time>
      </trkpt>
      <trkpt lat="43.77616" lon="3.19505">
        <ele>573.56</ele>
        <time>2014-08-23T10:03:52Z</time>
      </trkpt>
      <trkpt lat="43.77612" lon="3.19503">
        <ele>574.53</ele>
        <time>2014-08-23T10:03:55Z</time>
      </trkpt>
      <trkpt lat="43.7761" lon="3.19502">
        <ele>575.01</ele>
        <time>2014-08-23T10:03:56Z</time>
      </trkpt>
      <trkpt lat="43.776" lon="3.19501">
        <ele>576.93</ele>
        <time>2014-08-23T10:04:03Z</time>
      </trkpt>
      <trkpt lat="43.77586" lon="3.19503">
        <ele>578.37</ele>
        <time>2014-08-23T10:04:11Z</time>
      </trkpt>
      <trkpt lat="43.77585" lon="3.19503">
        <ele>578.37</ele>
        <time>2014-08-23T10:04:12Z</time>
      </trkpt>
      <trkpt lat="43.77584" lon="3.19504">
        <ele>578.37</ele>
        <time>2014-08-23T10:04:13Z</time>
      </trkpt>
      <trkpt lat="43.77583" lon="3.19505">
        <ele>578.37</ele>
        <time>2014-08-23T10:04:14Z</time>
      </trkpt>
      <trkpt lat="43.77573" lon="3.19513">
        <ele>579.81</ele>
        <time>2014-08-23T10:04:22Z</time>
      </trkpt>
      <trkpt lat="43.77563" lon="3.1952">
        <ele>581.25</ele>
        <time>2014-08-23T10:04:30Z</time>
      </trkpt>
      <trkpt lat="43.77547" lon="3.1953">
        <ele>583.18</ele>
        <time>2014-08-23T10:04:40Z</time>
      </trkpt>
      <trkpt lat="43.77537" lon="3.19536">
        <ele>584.14</ele>
        <time>2014-08-23T10:04:46Z</time>
      </trkpt>
      <trkpt lat="43.77525" lon="3.19545">
        <ele>585.1</ele>
        <time>2014-08-23T10:04:54Z</time>
      </trkpt>
      <trkpt lat="43.77516" lon="3.19551">
        <ele>586.54</ele>
        <time>2014-08-23T10:05:00Z</time>
      </trkpt>
      <trkpt lat="43.77508" lon="3.19557">
        <ele>587.5</ele>
        <time>2014-08-23T10:05:06Z</time>
      </trkpt>
      <trkpt lat="43.77497" lon="3.19563">
        <ele>589.43</ele>
        <time>2014-08-23T10:05:15Z</time>
      </trkpt>
      <trkpt lat="43.77495" lon="3.19563">
        <ele>589.43</ele>
        <time>2014-08-23T10:05:16Z</time>
      </trkpt>
      <trkpt lat="43.77494" lon="3.19563">
        <ele>589.91</ele>
        <time>2014-08-23T10:05:17Z</time>
      </trkpt>
      <trkpt lat="43.77492" lon="3.19562">
        <ele>589.91</ele>
        <time>2014-08-23T10:05:18Z</time>
      </trkpt>
      <trkpt lat="43.77491" lon="3.19562">
        <ele>590.39</ele>
        <time>2014-08-23T10:05:19Z</time>
      </trkpt>
      <trkpt lat="43.77474" lon="3.19556">
        <ele>592.31</ele>
        <time>2014-08-23T10:05:26Z</time>
      </trkpt>
      <trkpt lat="43.77461" lon="3.19548">
        <ele>593.75</ele>
        <time>2014-08-23T10:05:33Z</time>
      </trkpt>
      <trkpt lat="43.77445" lon="3.19539">
        <ele>595.19</ele>
        <time>2014-08-23T10:05:39Z</time>
      </trkpt>
      <trkpt lat="43.77423" lon="3.19525">
        <ele>595.67</ele>
        <time>2014-08-23T10:05:46Z</time>
      </trkpt>
      <trkpt lat="43.77406" lon="3.19507">
        <ele>596.64</ele>
        <time>2014-08-23T10:05:54Z</time>
      </trkpt>
      <trkpt lat="43.77388" lon="3.19481">
        <ele>597.6</ele>
        <time>2014-08-23T10:06:04Z</time>
      </trkpt>
      <trkpt lat="43.77375" lon="3.19458">
        <ele>599.52</ele>
        <time>2014-08-23T10:06:11Z</time>
      </trkpt>
      <trkpt lat="43.77354" lon="3.19434">
        <ele>600</ele>
        <time>2014-08-23T10:06:20Z</time>
      </trkpt>
      <trkpt lat="43.77334" lon="3.19433">
        <ele>600.48</ele>
        <time>2014-08-23T10:06:26Z</time>
      </trkpt>
      <trkpt lat="43.77315" lon="3.19454">
        <ele>600.48</ele>
        <time>2014-08-23T10:06:33Z</time>
      </trkpt>
      <trkpt lat="43.77295" lon="3.19484">
        <ele>600.48</ele>
        <time>2014-08-23T10:06:42Z</time>
      </trkpt>
      <trkpt lat="43.77276" lon="3.19509">
        <ele>601.92</ele>
        <time>2014-08-23T10:06:51Z</time>
      </trkpt>
      <trkpt lat="43.77258" lon="3.19522">
        <ele>602.88</ele>
        <time>2014-08-23T10:06:59Z</time>
      </trkpt>
      <trkpt lat="43.77242" lon="3.19531">
        <ele>604.81</ele>
        <time>2014-08-23T10:07:07Z</time>
      </trkpt>
      <trkpt lat="43.77226" lon="3.1954">
        <ele>607.21</ele>
        <time>2014-08-23T10:07:16Z</time>
      </trkpt>
      <trkpt lat="43.77214" lon="3.19547">
        <ele>609.13</ele>
        <time>2014-08-23T10:07:24Z</time>
      </trkpt>
      <trkpt lat="43.77204" lon="3.19554">
        <ele>611.06</ele>
        <time>2014-08-23T10:07:31Z</time>
      </trkpt>
      <trkpt lat="43.77191" lon="3.19561">
        <ele>612.5</ele>
        <time>2014-08-23T10:07:39Z</time>
      </trkpt>
      <trkpt lat="43.7718" lon="3.19569">
        <ele>614.9</ele>
        <time>2014-08-23T10:07:47Z</time>
      </trkpt>
      <trkpt lat="43.77165" lon="3.1958">
        <ele>616.82</ele>
        <time>2014-08-23T10:07:57Z</time>
      </trkpt>
      <trkpt lat="43.77154" lon="3.19589">
        <ele>618.26</ele>
        <time>2014-08-23T10:08:05Z</time>
      </trkpt>
      <trkpt lat="43.77144" lon="3.19597">
        <ele>618.75</ele>
        <time>2014-08-23T10:08:12Z</time>
      </trkpt>
      <trkpt lat="43.7713" lon="3.19611">
        <ele>619.71</ele>
        <time>2014-08-23T10:08:20Z</time>
      </trkpt>
      <trkpt lat="43.77118" lon="3.19626">
        <ele>620.19</ele>
        <time>2014-08-23T10:08:27Z</time>
      </trkpt>
      <trkpt lat="43.77115" lon="3.19628">
        <ele>620.19</ele>
        <time>2014-08-23T10:08:28Z</time>
      </trkpt>
      <trkpt lat="43.77101" lon="3.19643">
        <ele>622.11</ele>
        <time>2014-08-23T10:08:35Z</time>
      </trkpt>
      <trkpt lat="43.77087" lon="3.19659">
        <ele>622.11</ele>
        <time>2014-08-23T10:08:42Z</time>
      </trkpt>
      <trkpt lat="43.77072" lon="3.19675">
        <ele>622.11</ele>
        <time>2014-08-23T10:08:50Z</time>
      </trkpt>
      <trkpt lat="43.77067" lon="3.19681">
        <ele>620.67</ele>
        <time>2014-08-23T10:08:54Z</time>
      </trkpt>
      <trkpt lat="43.77059" lon="3.19692">
        <ele>620.19</ele>
        <time>2014-08-23T10:09:00Z</time>
      </trkpt>
      <trkpt lat="43.77045" lon="3.19714">
        <ele>618.75</ele>
        <time>2014-08-23T10:09:07Z</time>
      </trkpt>
      <trkpt lat="43.77034" lon="3.19742">
        <ele>615.86</ele>
        <time>2014-08-23T10:09:12Z</time>
      </trkpt>
      <trkpt lat="43.77025" lon="3.19773">
        <ele>614.42</ele>
        <time>2014-08-23T10:09:16Z</time>
      </trkpt>
      <trkpt lat="43.77023" lon="3.19789">
        <ele>613.94</ele>
        <time>2014-08-23T10:09:18Z</time>
      </trkpt>
      <trkpt lat="43.77022" lon="3.19799">
        <ele>612.98</ele>
        <time>2014-08-23T10:09:19Z</time>
      </trkpt>
      <trkpt lat="43.77013" lon="3.19857">
        <ele>609.61</ele>
        <time>2014-08-23T10:09:25Z</time>
      </trkpt>
      <trkpt lat="43.77005" lon="3.19875">
        <ele>608.17</ele>
        <time>2014-08-23T10:09:27Z</time>
      </trkpt>
      <trkpt lat="43.76993" lon="3.19899">
        <ele>605.29</ele>
        <time>2014-08-23T10:09:30Z</time>
      </trkpt>
      <trkpt lat="43.76989" lon="3.19904">
        <ele>605.29</ele>
        <time>2014-08-23T10:09:31Z</time>
      </trkpt>
      <trkpt lat="43.76976" lon="3.19916">
        <ele>604.33</ele>
        <time>2014-08-23T10:09:35Z</time>
      </trkpt>
      <trkpt lat="43.76958" lon="3.19931">
        <ele>602.88</ele>
        <time>2014-08-23T10:09:41Z</time>
      </trkpt>
      <trkpt lat="43.7695" lon="3.19938">
        <ele>602.4</ele>
        <time>2014-08-23T10:09:43Z</time>
      </trkpt>
      <trkpt lat="43.76946" lon="3.19941">
        <ele>601.92</ele>
        <time>2014-08-23T10:09:44Z</time>
      </trkpt>
      <trkpt lat="43.76909" lon="3.19966">
        <ele>598.08</ele>
        <time>2014-08-23T10:09:51Z</time>
      </trkpt>
      <trkpt lat="43.76883" lon="3.19985">
        <ele>594.71</ele>
        <time>2014-08-23T10:09:56Z</time>
      </trkpt>
      <trkpt lat="43.76861" lon="3.19998">
        <ele>591.35</ele>
        <time>2014-08-23T10:10:00Z</time>
      </trkpt>
      <trkpt lat="43.7684" lon="3.20007">
        <ele>589.43</ele>
        <time>2014-08-23T10:10:04Z</time>
      </trkpt>
      <trkpt lat="43.76834" lon="3.20008">
        <ele>588.46</ele>
        <time>2014-08-23T10:10:05Z</time>
      </trkpt>
      <trkpt lat="43.76796" lon="3.20023">
        <ele>586.06</ele>
        <time>2014-08-23T10:10:11Z</time>
      </trkpt>
      <trkpt lat="43.76778" lon="3.2003">
        <ele>585.1</ele>
        <time>2014-08-23T10:10:16Z</time>
      </trkpt>
      <trkpt lat="43.76764" lon="3.20048">
        <ele>584.62</ele>
        <time>2014-08-23T10:10:22Z</time>
      </trkpt>
      <trkpt lat="43.76762" lon="3.20059">
        <ele>584.62</ele>
        <time>2014-08-23T10:10:25Z</time>
      </trkpt>
      <trkpt lat="43.76753" lon="3.20066">
        <ele>583.66</ele>
        <time>2014-08-23T10:10:31Z</time>
      </trkpt>
      <trkpt lat="43.7675" lon="3.20066">
        <ele>583.66</ele>
        <time>2014-08-23T10:10:35Z</time>
      </trkpt>
      <trkpt lat="43.7675" lon="3.20065">
        <ele>583.18</ele>
        <time>2014-08-23T10:10:43Z</time>
      </trkpt>
      <trkpt lat="43.7675" lon="3.20066">
        <ele>583.18</ele>
        <time>2014-08-23T10:10:52Z</time>
      </trkpt>
      <trkpt lat="43.76747" lon="3.20066">
        <ele>582.7</ele>
        <time>2014-08-23T10:10:58Z</time>
      </trkpt>
      <trkpt lat="43.76746" lon="3.20066">
        <ele>581.73</ele>
        <time>2014-08-23T10:11:18Z</time>
      </trkpt>
      <trkpt lat="43.76746" lon="3.20066">
        <ele>581.73</ele>
        <time>2014-08-23T10:11:19Z</time>
      </trkpt>
      <trkpt lat="43.76747" lon="3.20066">
        <ele>582.22</ele>
        <time>2014-08-23T10:11:32Z</time>
      </trkpt>
      <trkpt lat="43.76747" lon="3.20066">
        <ele>582.7</ele>
        <time>2014-08-23T10:11:52Z</time>
      </trkpt>
      <trkpt lat="43.76749" lon="3.20065">
        <ele>583.18</ele>
        <time>2014-08-23T10:12:03Z</time>
      </trkpt>
      <trkpt lat="43.76752" lon="3.20064">
        <ele>583.18</ele>
        <time>2014-08-23T10:12:10Z</time>
      </trkpt>
      <trkpt lat="43.76752" lon="3.20063">
        <ele>583.18</ele>
        <time>2014-08-23T10:12:14Z</time>
      </trkpt>
      <trkpt lat="43.76749" lon="3.20063">
        <ele>583.18</ele>
        <time>2014-08-23T10:12:23Z</time>
      </trkpt>
      <trkpt lat="43.76749" lon="3.20062">
        <ele>583.18</ele>
        <time>2014-08-23T10:12:32Z</time>
      </trkpt>
      <trkpt lat="43.76753" lon="3.20062">
        <ele>583.18</ele>
        <time>2014-08-23T10:12:38Z</time>
      </trkpt>
      <trkpt lat="43.76752" lon="3.20059">
        <ele>581.73</ele>
        <time>2014-08-23T10:12:47Z</time>
      </trkpt>
      <trkpt lat="43.76743" lon="3.20056">
        <ele>580.29</ele>
        <time>2014-08-23T10:12:56Z</time>
      </trkpt>
      <trkpt lat="43.7674" lon="3.20052">
        <ele>580.29</ele>
        <time>2014-08-23T10:12:59Z</time>
      </trkpt>
      <trkpt lat="43.76734" lon="3.20052">
        <ele>579.81</ele>
        <time>2014-08-23T10:13:07Z</time>
      </trkpt>
      <trkpt lat="43.76729" lon="3.20047">
        <ele>579.81</ele>
        <time>2014-08-23T10:13:24Z</time>
      </trkpt>
      <trkpt lat="43.7673" lon="3.20047">
        <ele>578.85</ele>
        <time>2014-08-23T10:13:39Z</time>
      </trkpt>
      <trkpt lat="43.76728" lon="3.20046">
        <ele>579.33</ele>
        <time>2014-08-23T10:13:58Z</time>
      </trkpt>
      <trkpt lat="43.76729" lon="3.20046">
        <ele>580.29</ele>
        <time>2014-08-23T10:14:11Z</time>
      </trkpt>
      <trkpt lat="43.7673" lon="3.20045">
        <ele>580.29</ele>
        <time>2014-08-23T10:14:30Z</time>
      </trkpt>
      <trkpt lat="43.7673" lon="3.20045">
        <ele>580.29</ele>
        <time>2014-08-23T10:14:42Z</time>
      </trkpt>
      <trkpt lat="43.7673" lon="3.20046">
        <ele>580.29</ele>
        <time>2014-08-23T10:14:53Z</time>
      </trkpt>
      <trkpt lat="43.7673" lon="3.20046">
        <ele>580.29</ele>
        <time>2014-08-23T10:15:12Z</time>
      </trkpt>
      <trkpt lat="43.7673" lon="3.20047">
        <ele>579.33</ele>
        <time>2014-08-23T10:15:27Z</time>
      </trkpt>
      <trkpt lat="43.76736" lon="3.20046">
        <ele>579.33</ele>
        <time>2014-08-23T10:15:49Z</time>
      </trkpt>
      <trkpt lat="43.76736" lon="3.20046">
        <ele>579.33</ele>
        <time>2014-08-23T10:16:05Z</time>
      </trkpt>
      <trkpt lat="43.76736" lon="3.20047">
        <ele>579.81</ele>
        <time>2014-08-23T10:16:21Z</time>
      </trkpt>
      <trkpt lat="43.76736" lon="3.20047">
        <ele>579.81</ele>
        <time>2014-08-23T10:16:40Z</time>
      </trkpt>
      <trkpt lat="43.76735" lon="3.20047">
        <ele>579.81</ele>
        <time>2014-08-23T10:17:01Z</time>
      </trkpt>
      <trkpt lat="43.76734" lon="3.20047">
        <ele>579.81</ele>
        <time>2014-08-23T10:17:20Z</time>
      </trkpt>
      <trkpt lat="43.76733" lon="3.20047">
        <ele>581.25</ele>
        <time>2014-08-23T10:17:25Z</time>
      </trkpt>
      <trkpt lat="43.76735" lon="3.20048">
        <ele>581.25</ele>
        <time>2014-08-23T10:17:45Z</time>
      </trkpt>
      <trkpt lat="43.76736" lon="3.20048">
        <ele>579.81</ele>
        <time>2014-08-23T10:18:04Z</time>
      </trkpt>
      <trkpt lat="43.76736" lon="3.20048">
        <ele>579.81</ele>
        <time>2014-08-23T10:18:23Z</time>
      </trkpt>
      <trkpt lat="43.76737" lon="3.20047">
        <ele>579.81</ele>
        <time>2014-08-23T10:18:43Z</time>
      </trkpt>
      <trkpt lat="43.76736" lon="3.20046">
        <ele>579.81</ele>
        <time>2014-08-23T10:18:58Z</time>
      </trkpt>
      <trkpt lat="43.76734" lon="3.20045">
        <ele>580.29</ele>
        <time>2014-08-23T10:19:20Z</time>
      </trkpt>
      <trkpt lat="43.76734" lon="3.20044">
        <ele>580.77</ele>
        <time>2014-08-23T10:19:35Z</time>
      </trkpt>
      <trkpt lat="43.76734" lon="3.20044">
        <ele>581.25</ele>
        <time>2014-08-23T10:19:52Z</time>
      </trkpt>
      <trkpt lat="43.76733" lon="3.20045">
        <ele>582.22</ele>
        <time>2014-08-23T10:20:07Z</time>
      </trkpt>
      <trkpt lat="43.76732" lon="3.20045">
        <ele>581.25</ele>
        <time>2014-08-23T10:20:23Z</time>
      </trkpt>
      <trkpt lat="43.76733" lon="3.20045">
        <ele>581.25</ele>
        <time>2014-08-23T10:20:24Z</time>
      </trkpt>
      <trkpt lat="43.76733" lon="3.20047">
        <ele>581.25</ele>
        <time>2014-08-23T10:20:37Z</time>
      </trkpt>
      <trkpt lat="43.76734" lon="3.20047">
        <ele>581.25</ele>
        <time>2014-08-23T10:20:50Z</time>
      </trkpt>
      <trkpt lat="43.76732" lon="3.20049">
        <ele>581.73</ele>
        <time>2014-08-23T10:21:06Z</time>
      </trkpt>
      <trkpt lat="43.76731" lon="3.20049">
        <ele>582.22</ele>
        <time>2014-08-23T10:21:25Z</time>
      </trkpt>
      <trkpt lat="43.7673" lon="3.20051">
        <ele>582.22</ele>
        <time>2014-08-23T10:21:48Z</time>
      </trkpt>
      <trkpt lat="43.76728" lon="3.20051">
        <ele>581.25</ele>
        <time>2014-08-23T10:22:12Z</time>
      </trkpt>
      <trkpt lat="43.76727" lon="3.2005">
        <ele>581.25</ele>
        <time>2014-08-23T10:22:32Z</time>
      </trkpt>
      <trkpt lat="43.76728" lon="3.2005">
        <ele>581.25</ele>
        <time>2014-08-23T10:22:50Z</time>
      </trkpt>
      <trkpt lat="43.76728" lon="3.2005">
        <ele>580.77</ele>
        <time>2014-08-23T10:23:09Z</time>
      </trkpt>
      <trkpt lat="43.76726" lon="3.20051">
        <ele>580.77</ele>
        <time>2014-08-23T10:23:26Z</time>
      </trkpt>
      <trkpt lat="43.76723" lon="3.20051">
        <ele>580.77</ele>
        <time>2014-08-23T10:23:45Z</time>
      </trkpt>
      <trkpt lat="43.76724" lon="3.2005">
        <ele>580.77</ele>
        <time>2014-08-23T10:23:57Z</time>
      </trkpt>
      <trkpt lat="43.76726" lon="3.20049">
        <ele>580.77</ele>
        <time>2014-08-23T10:24:10Z</time>
      </trkpt>
      <trkpt lat="43.76727" lon="3.20051">
        <ele>580.77</ele>
        <time>2014-08-23T10:24:31Z</time>
      </trkpt>
      <trkpt lat="43.7673" lon="3.2005">
        <ele>580.77</ele>
        <time>2014-08-23T10:24:49Z</time>
      </trkpt>
      <trkpt lat="43.76732" lon="3.20049">
        <ele>580.77</ele>
        <time>2014-08-23T10:25:03Z</time>
      </trkpt>
      <trkpt lat="43.76734" lon="3.20048">
        <ele>580.77</ele>
        <time>2014-08-23T10:25:23Z</time>
      </trkpt>
      <trkpt lat="43.76735" lon="3.20049">
        <ele>580.29</ele>
        <time>2014-08-23T10:25:40Z</time>
      </trkpt>
      <trkpt lat="43.76735" lon="3.20049">
        <ele>581.73</ele>
        <time>2014-08-23T10:25:55Z</time>
      </trkpt>
      <trkpt lat="43.76735" lon="3.20049">
        <ele>583.66</ele>
        <time>2014-08-23T10:25:58Z</time>
      </trkpt>
      <trkpt lat="43.76735" lon="3.2005">
        <ele>582.22</ele>
        <time>2014-08-23T10:26:18Z</time>
      </trkpt>
      <trkpt lat="43.76732" lon="3.20051">
        <ele>582.7</ele>
        <time>2014-08-23T10:26:43Z</time>
      </trkpt>
      <trkpt lat="43.76731" lon="3.2005">
        <ele>582.7</ele>
        <time>2014-08-23T10:27:05Z</time>
      </trkpt>
      <trkpt lat="43.76731" lon="3.20051">
        <ele>584.14</ele>
        <time>2014-08-23T10:27:20Z</time>
      </trkpt>
      <trkpt lat="43.76731" lon="3.20051">
        <ele>582.7</ele>
        <time>2014-08-23T10:27:26Z</time>
      </trkpt>
      <trkpt lat="43.7673" lon="3.20052">
        <ele>582.7</ele>
        <time>2014-08-23T10:27:41Z</time>
      </trkpt>
      <trkpt lat="43.76729" lon="3.2005">
        <ele>582.7</ele>
        <time>2014-08-23T10:27:48Z</time>
      </trkpt>
      <trkpt lat="43.7673" lon="3.20051">
        <ele>582.7</ele>
        <time>2014-08-23T10:27:56Z</time>
      </trkpt>
      <trkpt lat="43.76732" lon="3.20051">
        <ele>582.7</ele>
        <time>2014-08-23T10:28:10Z</time>
      </trkpt>
      <trkpt lat="43.76732" lon="3.20051">
        <ele>582.7</ele>
        <time>2014-08-23T10:28:12Z</time>
      </trkpt>
      <trkpt lat="43.76733" lon="3.20047">
        <ele>582.7</ele>
        <time>2014-08-23T10:28:19Z</time>
      </trkpt>
      <trkpt lat="43.76733" lon="3.20047">
        <ele>582.7</ele>
        <time>2014-08-23T10:28:27Z</time>
      </trkpt>
      <trkpt lat="43.7673" lon="3.20045">
        <ele>582.7</ele>
        <time>2014-08-23T10:28:30Z</time>
      </trkpt>
      <trkpt lat="43.76725" lon="3.20043">
        <ele>581.73</ele>
        <time>2014-08-23T10:28:37Z</time>
      </trkpt>
      <trkpt lat="43.76725" lon="3.20029">
        <ele>581.25</ele>
        <time>2014-08-23T10:28:43Z</time>
      </trkpt>
      <trkpt lat="43.76726" lon="3.20027">
        <ele>581.25</ele>
        <time>2014-08-23T10:28:44Z</time>
      </trkpt>
      <trkpt lat="43.76726" lon="3.20025">
        <ele>580.77</ele>
        <time>2014-08-23T10:28:45Z</time>
      </trkpt>
      <trkpt lat="43.76724" lon="3.20024">
        <ele>580.29</ele>
        <time>2014-08-23T10:28:46Z</time>
      </trkpt>
      <trkpt lat="43.76723" lon="3.20022">
        <ele>580.29</ele>
        <time>2014-08-23T10:28:47Z</time>
      </trkpt>
      <trkpt lat="43.76721" lon="3.20022">
        <ele>579.33</ele>
        <time>2014-08-23T10:28:48Z</time>
      </trkpt>
      <trkpt lat="43.76718" lon="3.20021">
        <ele>579.33</ele>
        <time>2014-08-23T10:28:49Z</time>
      </trkpt>
      <trkpt lat="43.76716" lon="3.2002">
        <ele>578.85</ele>
        <time>2014-08-23T10:28:50Z</time>
      </trkpt>
      <trkpt lat="43.76712" lon="3.20019">
        <ele>578.37</ele>
        <time>2014-08-23T10:28:51Z</time>
      </trkpt>
      <trkpt lat="43.76709" lon="3.20018">
        <ele>577.89</ele>
        <time>2014-08-23T10:28:52Z</time>
      </trkpt>
      <trkpt lat="43.76705" lon="3.20018">
        <ele>577.89</ele>
        <time>2014-08-23T10:28:53Z</time>
      </trkpt>
      <trkpt lat="43.7669" lon="3.20018">
        <ele>576.93</ele>
        <time>2014-08-23T10:28:56Z</time>
      </trkpt>
      <trkpt lat="43.76685" lon="3.20018">
        <ele>576.93</ele>
        <time>2014-08-23T10:28:57Z</time>
      </trkpt>
      <trkpt lat="43.7668" lon="3.20019">
        <ele>576.93</ele>
        <time>2014-08-23T10:28:58Z</time>
      </trkpt>
      <trkpt lat="43.76675" lon="3.20019">
        <ele>575.97</ele>
        <time>2014-08-23T10:28:59Z</time>
      </trkpt>
      <trkpt lat="43.7667" lon="3.2002">
        <ele>575.97</ele>
        <time>2014-08-23T10:29:00Z</time>
      </trkpt>
      <trkpt lat="43.76651" lon="3.20029">
        <ele>575.97</ele>
        <time>2014-08-23T10:29:05Z</time>
      </trkpt>
      <trkpt lat="43.7665" lon="3.20035">
        <ele>575.97</ele>
        <time>2014-08-23T10:29:06Z</time>
      </trkpt>
      <trkpt lat="43.76651" lon="3.2004">
        <ele>575.97</ele>
        <time>2014-08-23T10:29:07Z</time>
      </trkpt>
      <trkpt lat="43.76653" lon="3.20045">
        <ele>575.97</ele>
        <time>2014-08-23T10:29:08Z</time>
      </trkpt>
      <trkpt lat="43.76656" lon="3.20048">
        <ele>575.49</ele>
        <time>2014-08-23T10:29:09Z</time>
      </trkpt>
      <trkpt lat="43.76659" lon="3.20051">
        <ele>575.49</ele>
        <time>2014-08-23T10:29:10Z</time>
      </trkpt>
      <trkpt lat="43.76662" lon="3.20054">
        <ele>574.53</ele>
        <time>2014-08-23T10:29:11Z</time>
      </trkpt>
      <trkpt lat="43.76666" lon="3.20056">
        <ele>574.53</ele>
        <time>2014-08-23T10:29:12Z</time>
      </trkpt>
      <trkpt lat="43.76669" lon="3.20059">
        <ele>574.53</ele>
        <time>2014-08-23T10:29:13Z</time>
      </trkpt>
      <trkpt lat="43.76701" lon="3.2008">
        <ele>574.53</ele>
        <time>2014-08-23T10:29:22Z</time>
      </trkpt>
      <trkpt lat="43.76705" lon="3.20082">
        <ele>574.04</ele>
        <time>2014-08-23T10:29:23Z</time>
      </trkpt>
      <trkpt lat="43.76709" lon="3.20084">
        <ele>574.04</ele>
        <time>2014-08-23T10:29:24Z</time>
      </trkpt>
      <trkpt lat="43.76728" lon="3.20096">
        <ele>572.6</ele>
        <time>2014-08-23T10:29:30Z</time>
      </trkpt>
      <trkpt lat="43.76744" lon="3.20105">
        <ele>572.6</ele>
        <time>2014-08-23T10:29:35Z</time>
      </trkpt>
      <trkpt lat="43.76771" lon="3.20124">
        <ele>572.6</ele>
        <time>2014-08-23T10:29:42Z</time>
      </trkpt>
      <trkpt lat="43.76793" lon="3.20146">
        <ele>572.12</ele>
        <time>2014-08-23T10:29:49Z</time>
      </trkpt>
      <trkpt lat="43.76815" lon="3.20163">
        <ele>572.12</ele>
        <time>2014-08-23T10:29:56Z</time>
      </trkpt>
      <trkpt lat="43.76825" lon="3.20166">
        <ele>572.12</ele>
        <time>2014-08-23T10:30:02Z</time>
      </trkpt>
      <trkpt lat="43.76827" lon="3.20166">
        <ele>572.12</ele>
        <time>2014-08-23T10:30:09Z</time>
      </trkpt>
      <trkpt lat="43.76828" lon="3.20167">
        <ele>572.12</ele>
        <time>2014-08-23T10:30:12Z</time>
      </trkpt>
      <trkpt lat="43.76838" lon="3.20173">
        <ele>572.12</ele>
        <time>2014-08-23T10:30:18Z</time>
      </trkpt>
      <trkpt lat="43.76862" lon="3.20183">
        <ele>571.64</ele>
        <time>2014-08-23T10:30:25Z</time>
      </trkpt>
      <trkpt lat="43.76905" lon="3.20201">
        <ele>571.64</ele>
        <time>2014-08-23T10:30:36Z</time>
      </trkpt>
      <trkpt lat="43.76909" lon="3.20203">
        <ele>570.68</ele>
        <time>2014-08-23T10:30:37Z</time>
      </trkpt>
      <trkpt lat="43.76917" lon="3.20207">
        <ele>570.2</ele>
        <time>2014-08-23T10:30:39Z</time>
      </trkpt>
      <trkpt lat="43.76921" lon="3.20209">
        <ele>570.2</ele>
        <time>2014-08-23T10:30:40Z</time>
      </trkpt>
      <trkpt lat="43.76951" lon="3.20228">
        <ele>569.24</ele>
        <time>2014-08-23T10:30:48Z</time>
      </trkpt>
      <trkpt lat="43.76978" lon="3.20251">
        <ele>568.28</ele>
        <time>2014-08-23T10:30:56Z</time>
      </trkpt>
      <trkpt lat="43.76997" lon="3.20275">
        <ele>567.32</ele>
        <time>2014-08-23T10:31:03Z</time>
      </trkpt>
      <trkpt lat="43.77014" lon="3.20296">
        <ele>567.32</ele>
        <time>2014-08-23T10:31:09Z</time>
      </trkpt>
      <trkpt lat="43.77035" lon="3.20317">
        <ele>566.83</ele>
        <time>2014-08-23T10:31:16Z</time>
      </trkpt>
      <trkpt lat="43.7705" lon="3.20345">
        <ele>566.35</ele>
        <time>2014-08-23T10:31:22Z</time>
      </trkpt>
      <trkpt lat="43.7707" lon="3.20397">
        <ele>564.43</ele>
        <time>2014-08-23T10:31:31Z</time>
      </trkpt>
      <trkpt lat="43.77074" lon="3.20414">
        <ele>564.43</ele>
        <time>2014-08-23T10:31:34Z</time>
      </trkpt>
      <trkpt lat="43.77079" lon="3.20457">
        <ele>564.43</ele>
        <time>2014-08-23T10:31:41Z</time>
      </trkpt>
      <trkpt lat="43.7708" lon="3.20463">
        <ele>564.43</ele>
        <time>2014-08-23T10:31:42Z</time>
      </trkpt>
      <trkpt lat="43.77082" lon="3.20522">
        <ele>563.95</ele>
        <time>2014-08-23T10:31:52Z</time>
      </trkpt>
      <trkpt lat="43.77083" lon="3.20572">
        <ele>563.95</ele>
        <time>2014-08-23T10:32:01Z</time>
      </trkpt>
      <trkpt lat="43.77073" lon="3.20625">
        <ele>562.99</ele>
        <time>2014-08-23T10:32:10Z</time>
      </trkpt>
      <trkpt lat="43.7707" lon="3.20637">
        <ele>562.51</ele>
        <time>2014-08-23T10:32:12Z</time>
      </trkpt>
      <trkpt lat="43.77067" lon="3.20643">
        <ele>562.51</ele>
        <time>2014-08-23T10:32:13Z</time>
      </trkpt>
      <trkpt lat="43.77063" lon="3.20647">
        <ele>561.55</ele>
        <time>2014-08-23T10:32:14Z</time>
      </trkpt>
      <trkpt lat="43.77058" lon="3.2065">
        <ele>561.55</ele>
        <time>2014-08-23T10:32:15Z</time>
      </trkpt>
      <trkpt lat="43.77053" lon="3.20651">
        <ele>561.55</ele>
        <time>2014-08-23T10:32:16Z</time>
      </trkpt>
      <trkpt lat="43.77048" lon="3.20651">
        <ele>561.55</ele>
        <time>2014-08-23T10:32:17Z</time>
      </trkpt>
      <trkpt lat="43.77044" lon="3.20649">
        <ele>561.55</ele>
        <time>2014-08-23T10:32:18Z</time>
      </trkpt>
      <trkpt lat="43.77039" lon="3.20646">
        <ele>561.55</ele>
        <time>2014-08-23T10:32:19Z</time>
      </trkpt>
      <trkpt lat="43.77035" lon="3.20643">
        <ele>561.55</ele>
        <time>2014-08-23T10:32:20Z</time>
      </trkpt>
      <trkpt lat="43.77021" lon="3.20636">
        <ele>561.55</ele>
        <time>2014-08-23T10:32:23Z</time>
      </trkpt>
      <trkpt lat="43.77011" lon="3.20633">
        <ele>561.55</ele>
        <time>2014-08-23T10:32:25Z</time>
      </trkpt>
      <trkpt lat="43.76991" lon="3.20626">
        <ele>560.59</ele>
        <time>2014-08-23T10:32:29Z</time>
      </trkpt>
      <trkpt lat="43.76953" lon="3.20607">
        <ele>559.62</ele>
        <time>2014-08-23T10:32:36Z</time>
      </trkpt>
      <trkpt lat="43.76947" lon="3.20606">
        <ele>559.14</ele>
        <time>2014-08-23T10:32:37Z</time>
      </trkpt>
      <trkpt lat="43.76941" lon="3.20605">
        <ele>559.14</ele>
        <time>2014-08-23T10:32:38Z</time>
      </trkpt>
      <trkpt lat="43.76935" lon="3.20606">
        <ele>558.66</ele>
        <time>2014-08-23T10:32:39Z</time>
      </trkpt>
      <trkpt lat="43.76929" lon="3.20608">
        <ele>558.18</ele>
        <time>2014-08-23T10:32:40Z</time>
      </trkpt>
      <trkpt lat="43.76922" lon="3.20611">
        <ele>558.18</ele>
        <time>2014-08-23T10:32:41Z</time>
      </trkpt>
      <trkpt lat="43.76916" lon="3.20614">
        <ele>558.18</ele>
        <time>2014-08-23T10:32:42Z</time>
      </trkpt>
      <trkpt lat="43.76852" lon="3.20648">
        <ele>557.22</ele>
        <time>2014-08-23T10:32:53Z</time>
      </trkpt>
      <trkpt lat="43.76821" lon="3.20657">
        <ele>555.3</ele>
        <time>2014-08-23T10:32:58Z</time>
      </trkpt>
      <trkpt lat="43.76815" lon="3.20658">
        <ele>555.3</ele>
        <time>2014-08-23T10:32:59Z</time>
      </trkpt>
      <trkpt lat="43.76793" lon="3.20661">
        <ele>555.3</ele>
        <time>2014-08-23T10:33:04Z</time>
      </trkpt>
      <trkpt lat="43.7679" lon="3.20661">
        <ele>555.3</ele>
        <time>2014-08-23T10:33:09Z</time>
      </trkpt>
      <trkpt lat="43.76791" lon="3.2066">
        <ele>555.3</ele>
        <time>2014-08-23T10:33:17Z</time>
      </trkpt>
      <trkpt lat="43.76792" lon="3.20661">
        <ele>555.3</ele>
        <time>2014-08-23T10:33:32Z</time>
      </trkpt>
      <trkpt lat="43.76792" lon="3.20662">
        <ele>555.3</ele>
        <time>2014-08-23T10:33:47Z</time>
      </trkpt>
      <trkpt lat="43.76792" lon="3.20663">
        <ele>556.74</ele>
        <time>2014-08-23T10:33:54Z</time>
      </trkpt>
      <trkpt lat="43.76792" lon="3.20663">
        <ele>556.74</ele>
        <time>2014-08-23T10:34:01Z</time>
      </trkpt>
      <trkpt lat="43.76792" lon="3.20662">
        <ele>556.74</ele>
        <time>2014-08-23T10:34:14Z</time>
      </trkpt>
      <trkpt lat="43.76791" lon="3.20662">
        <ele>556.74</ele>
        <time>2014-08-23T10:34:27Z</time>
      </trkpt>
      <trkpt lat="43.76788" lon="3.20661">
        <ele>556.74</ele>
        <time>2014-08-23T10:34:29Z</time>
      </trkpt>
      <trkpt lat="43.76787" lon="3.20661">
        <ele>556.74</ele>
        <time>2014-08-23T10:34:30Z</time>
      </trkpt>
      <trkpt lat="43.76774" lon="3.20661">
        <ele>554.82</ele>
        <time>2014-08-23T10:34:35Z</time>
      </trkpt>
      <trkpt lat="43.76749" lon="3.20663">
        <ele>554.82</ele>
        <time>2014-08-23T10:34:43Z</time>
      </trkpt>
      <trkpt lat="43.76721" lon="3.20673">
        <ele>553.86</ele>
        <time>2014-08-23T10:34:51Z</time>
      </trkpt>
      <trkpt lat="43.76688" lon="3.20676">
        <ele>553.86</ele>
        <time>2014-08-23T10:34:59Z</time>
      </trkpt>
      <trkpt lat="43.7668" lon="3.20676">
        <ele>553.86</ele>
        <time>2014-08-23T10:35:01Z</time>
      </trkpt>
      <trkpt lat="43.76676" lon="3.20678">
        <ele>553.86</ele>
        <time>2014-08-23T10:35:02Z</time>
      </trkpt>
      <trkpt lat="43.76673" lon="3.20681">
        <ele>553.86</ele>
        <time>2014-08-23T10:35:03Z</time>
      </trkpt>
      <trkpt lat="43.76671" lon="3.20686">
        <ele>553.86</ele>
        <time>2014-08-23T10:35:04Z</time>
      </trkpt>
      <trkpt lat="43.76671" lon="3.20691">
        <ele>553.86</ele>
        <time>2014-08-23T10:35:05Z</time>
      </trkpt>
      <trkpt lat="43.76672" lon="3.20696">
        <ele>553.86</ele>
        <time>2014-08-23T10:35:06Z</time>
      </trkpt>
      <trkpt lat="43.76674" lon="3.207">
        <ele>553.38</ele>
        <time>2014-08-23T10:35:07Z</time>
      </trkpt>
      <trkpt lat="43.76677" lon="3.20704">
        <ele>553.38</ele>
        <time>2014-08-23T10:35:08Z</time>
      </trkpt>
      <trkpt lat="43.76702" lon="3.20731">
        <ele>553.86</ele>
        <time>2014-08-23T10:35:16Z</time>
      </trkpt>
      <trkpt lat="43.76712" lon="3.20741">
        <ele>553.86</ele>
        <time>2014-08-23T10:35:19Z</time>
      </trkpt>
      <trkpt lat="43.76715" lon="3.20744">
        <ele>553.86</ele>
        <time>2014-08-23T10:35:20Z</time>
      </trkpt>
      <trkpt lat="43.76718" lon="3.20748">
        <ele>553.86</ele>
        <time>2014-08-23T10:35:21Z</time>
      </trkpt>
      <trkpt lat="43.76734" lon="3.20767">
        <ele>553.38</ele>
        <time>2014-08-23T10:35:26Z</time>
      </trkpt>
      <trkpt lat="43.7675" lon="3.20786">
        <ele>553.38</ele>
        <time>2014-08-23T10:35:31Z</time>
      </trkpt>
      <trkpt lat="43.76784" lon="3.20833">
        <ele>553.38</ele>
        <time>2014-08-23T10:35:42Z</time>
      </trkpt>
      <trkpt lat="43.76803" lon="3.2087">
        <ele>553.38</ele>
        <time>2014-08-23T10:35:50Z</time>
      </trkpt>
      <trkpt lat="43.76805" lon="3.20875">
        <ele>553.38</ele>
        <time>2014-08-23T10:35:51Z</time>
      </trkpt>
      <trkpt lat="43.76805" lon="3.20881">
        <ele>552.9</ele>
        <time>2014-08-23T10:35:52Z</time>
      </trkpt>
      <trkpt lat="43.76804" lon="3.20886">
        <ele>552.9</ele>
        <time>2014-08-23T10:35:53Z</time>
      </trkpt>
      <trkpt lat="43.76802" lon="3.20891">
        <ele>552.9</ele>
        <time>2014-08-23T10:35:54Z</time>
      </trkpt>
      <trkpt lat="43.76799" lon="3.20895">
        <ele>552.9</ele>
        <time>2014-08-23T10:35:55Z</time>
      </trkpt>
      <trkpt lat="43.76796" lon="3.20899">
        <ele>552.9</ele>
        <time>2014-08-23T10:35:56Z</time>
      </trkpt>
      <trkpt lat="43.76792" lon="3.20902">
        <ele>552.9</ele>
        <time>2014-08-23T10:35:57Z</time>
      </trkpt>
      <trkpt lat="43.76758" lon="3.20943">
        <ele>552.41</ele>
        <time>2014-08-23T10:36:07Z</time>
      </trkpt>
      <trkpt lat="43.76729" lon="3.20986">
        <ele>552.41</ele>
        <time>2014-08-23T10:36:16Z</time>
      </trkpt>
      <trkpt lat="43.76727" lon="3.2099">
        <ele>552.41</ele>
        <time>2014-08-23T10:36:17Z</time>
      </trkpt>
      <trkpt lat="43.76721" lon="3.21001">
        <ele>552.41</ele>
        <time>2014-08-23T10:36:19Z</time>
      </trkpt>
      <trkpt lat="43.76716" lon="3.21018">
        <ele>553.38</ele>
        <time>2014-08-23T10:36:22Z</time>
      </trkpt>
      <trkpt lat="43.76715" lon="3.21024">
        <ele>553.38</ele>
        <time>2014-08-23T10:36:23Z</time>
      </trkpt>
      <trkpt lat="43.76714" lon="3.21073">
        <ele>553.38</ele>
        <time>2014-08-23T10:36:31Z</time>
      </trkpt>
      <trkpt lat="43.7672" lon="3.21129">
        <ele>553.86</ele>
        <time>2014-08-23T10:36:40Z</time>
      </trkpt>
      <trkpt lat="43.76728" lon="3.21176">
        <ele>553.86</ele>
        <time>2014-08-23T10:36:48Z</time>
      </trkpt>
      <trkpt lat="43.76743" lon="3.21231">
        <ele>554.34</ele>
        <time>2014-08-23T10:36:57Z</time>
      </trkpt>
      <trkpt lat="43.76763" lon="3.21272">
        <ele>554.34</ele>
        <time>2014-08-23T10:37:05Z</time>
      </trkpt>
      <trkpt lat="43.76781" lon="3.21302">
        <ele>554.34</ele>
        <time>2014-08-23T10:37:12Z</time>
      </trkpt>
      <trkpt lat="43.768" lon="3.21341">
        <ele>554.34</ele>
        <time>2014-08-23T10:37:20Z</time>
      </trkpt>
      <trkpt lat="43.76803" lon="3.21379">
        <ele>554.34</ele>
        <time>2014-08-23T10:37:27Z</time>
      </trkpt>
      <trkpt lat="43.76797" lon="3.2142">
        <ele>554.82</ele>
        <time>2014-08-23T10:37:35Z</time>
      </trkpt>
      <trkpt lat="43.76799" lon="3.21462">
        <ele>554.82</ele>
        <time>2014-08-23T10:37:43Z</time>
      </trkpt>
      <trkpt lat="43.76795" lon="3.21493">
        <ele>555.3</ele>
        <time>2014-08-23T10:37:49Z</time>
      </trkpt>
      <trkpt lat="43.76778" lon="3.21528">
        <ele>555.3</ele>
        <time>2014-08-23T10:37:57Z</time>
      </trkpt>
      <trkpt lat="43.76777" lon="3.21533">
        <ele>555.3</ele>
        <time>2014-08-23T10:37:58Z</time>
      </trkpt>
      <trkpt lat="43.76776" lon="3.21539">
        <ele>555.78</ele>
        <time>2014-08-23T10:37:59Z</time>
      </trkpt>
      <trkpt lat="43.76772" lon="3.21582">
        <ele>555.78</ele>
        <time>2014-08-23T10:38:07Z</time>
      </trkpt>
      <trkpt lat="43.76777" lon="3.21626">
        <ele>556.26</ele>
        <time>2014-08-23T10:38:15Z</time>
      </trkpt>
      <trkpt lat="43.76783" lon="3.21654">
        <ele>556.26</ele>
        <time>2014-08-23T10:38:20Z</time>
      </trkpt>
      <trkpt lat="43.76803" lon="3.21705">
        <ele>556.26</ele>
        <time>2014-08-23T10:38:30Z</time>
      </trkpt>
      <trkpt lat="43.76824" lon="3.21747">
        <ele>556.26</ele>
        <time>2014-08-23T10:38:39Z</time>
      </trkpt>
      <trkpt lat="43.7684" lon="3.21788">
        <ele>556.26</ele>
        <time>2014-08-23T10:38:48Z</time>
      </trkpt>
      <trkpt lat="43.76844" lon="3.21819">
        <ele>556.74</ele>
        <time>2014-08-23T10:38:55Z</time>
      </trkpt>
      <trkpt lat="43.76833" lon="3.21833">
        <ele>556.74</ele>
        <time>2014-08-23T10:38:59Z</time>
      </trkpt>
      <trkpt lat="43.768" lon="3.21854">
        <ele>557.22</ele>
        <time>2014-08-23T10:39:09Z</time>
      </trkpt>
      <trkpt lat="43.76785" lon="3.21864">
        <ele>557.7</ele>
        <time>2014-08-23T10:39:13Z</time>
      </trkpt>
      <trkpt lat="43.7676" lon="3.21875">
        <ele>557.7</ele>
        <time>2014-08-23T10:39:19Z</time>
      </trkpt>
      <trkpt lat="43.76738" lon="3.21885">
        <ele>557.7</ele>
        <time>2014-08-23T10:39:24Z</time>
      </trkpt>
      <trkpt lat="43.76734" lon="3.21888">
        <ele>557.7</ele>
        <time>2014-08-23T10:39:25Z</time>
      </trkpt>
      <trkpt lat="43.76731" lon="3.21893">
        <ele>557.7</ele>
        <time>2014-08-23T10:39:26Z</time>
      </trkpt>
      <trkpt lat="43.76728" lon="3.21899">
        <ele>557.7</ele>
        <time>2014-08-23T10:39:27Z</time>
      </trkpt>
      <trkpt lat="43.76727" lon="3.21905">
        <ele>557.7</ele>
        <time>2014-08-23T10:39:28Z</time>
      </trkpt>
      <trkpt lat="43.76726" lon="3.21912">
        <ele>557.7</ele>
        <time>2014-08-23T10:39:29Z</time>
      </trkpt>
      <trkpt lat="43.76727" lon="3.2195">
        <ele>558.18</ele>
        <time>2014-08-23T10:39:36Z</time>
      </trkpt>
      <trkpt lat="43.76734" lon="3.21994">
        <ele>558.66</ele>
        <time>2014-08-23T10:39:45Z</time>
      </trkpt>
      <trkpt lat="43.76746" lon="3.22021">
        <ele>558.66</ele>
        <time>2014-08-23T10:39:52Z</time>
      </trkpt>
      <trkpt lat="43.76764" lon="3.22043">
        <ele>559.14</ele>
        <time>2014-08-23T10:39:59Z</time>
      </trkpt>
      <trkpt lat="43.76779" lon="3.2208">
        <ele>559.62</ele>
        <time>2014-08-23T10:40:08Z</time>
      </trkpt>
      <trkpt lat="43.7679" lon="3.2212">
        <ele>559.14</ele>
        <time>2014-08-23T10:40:17Z</time>
      </trkpt>
      <trkpt lat="43.76805" lon="3.22139">
        <ele>559.14</ele>
        <time>2014-08-23T10:40:23Z</time>
      </trkpt>
      <trkpt lat="43.76807" lon="3.22152">
        <ele>559.14</ele>
        <time>2014-08-23T10:40:26Z</time>
      </trkpt>
      <trkpt lat="43.76796" lon="3.22169">
        <ele>559.14</ele>
        <time>2014-08-23T10:40:31Z</time>
      </trkpt>
      <trkpt lat="43.7677" lon="3.22196">
        <ele>559.14</ele>
        <time>2014-08-23T10:40:39Z</time>
      </trkpt>
      <trkpt lat="43.76764" lon="3.22205">
        <ele>559.14</ele>
        <time>2014-08-23T10:40:41Z</time>
      </trkpt>
      <trkpt lat="43.76759" lon="3.22215">
        <ele>559.14</ele>
        <time>2014-08-23T10:40:43Z</time>
      </trkpt>
      <trkpt lat="43.76757" lon="3.22226">
        <ele>559.14</ele>
        <time>2014-08-23T10:40:45Z</time>
      </trkpt>
      <trkpt lat="43.76757" lon="3.22238">
        <ele>559.14</ele>
        <time>2014-08-23T10:40:47Z</time>
      </trkpt>
      <trkpt lat="43.76758" lon="3.22249">
        <ele>559.14</ele>
        <time>2014-08-23T10:40:49Z</time>
      </trkpt>
      <trkpt lat="43.76759" lon="3.22255">
        <ele>559.14</ele>
        <time>2014-08-23T10:40:50Z</time>
      </trkpt>
      <trkpt lat="43.76761" lon="3.2226">
        <ele>559.14</ele>
        <time>2014-08-23T10:40:51Z</time>
      </trkpt>
      <trkpt lat="43.76767" lon="3.22275">
        <ele>558.18</ele>
        <time>2014-08-23T10:40:54Z</time>
      </trkpt>
      <trkpt lat="43.76783" lon="3.22311">
        <ele>556.74</ele>
        <time>2014-08-23T10:41:01Z</time>
      </trkpt>
      <trkpt lat="43.76791" lon="3.2233">
        <ele>556.26</ele>
        <time>2014-08-23T10:41:05Z</time>
      </trkpt>
      <trkpt lat="43.76803" lon="3.22369">
        <ele>555.3</ele>
        <time>2014-08-23T10:41:12Z</time>
      </trkpt>
      <trkpt lat="43.76819" lon="3.22413">
        <ele>554.82</ele>
        <time>2014-08-23T10:41:20Z</time>
      </trkpt>
      <trkpt lat="43.76819" lon="3.22419">
        <ele>554.82</ele>
        <time>2014-08-23T10:41:21Z</time>
      </trkpt>
      <trkpt lat="43.76819" lon="3.22426">
        <ele>554.82</ele>
        <time>2014-08-23T10:41:22Z</time>
      </trkpt>
      <trkpt lat="43.76817" lon="3.22431">
        <ele>554.34</ele>
        <time>2014-08-23T10:41:23Z</time>
      </trkpt>
      <trkpt lat="43.76814" lon="3.22435">
        <ele>554.34</ele>
        <time>2014-08-23T10:41:24Z</time>
      </trkpt>
      <trkpt lat="43.76799" lon="3.22444">
        <ele>554.34</ele>
        <time>2014-08-23T10:41:29Z</time>
      </trkpt>
      <trkpt lat="43.76781" lon="3.22446">
        <ele>553.38</ele>
        <time>2014-08-23T10:41:35Z</time>
      </trkpt>
      <trkpt lat="43.76759" lon="3.22451">
        <ele>553.38</ele>
        <time>2014-08-23T10:41:40Z</time>
      </trkpt>
      <trkpt lat="43.76755" lon="3.22455">
        <ele>553.38</ele>
        <time>2014-08-23T10:41:41Z</time>
      </trkpt>
      <trkpt lat="43.76752" lon="3.2246">
        <ele>553.38</ele>
        <time>2014-08-23T10:41:42Z</time>
      </trkpt>
      <trkpt lat="43.7675" lon="3.22466">
        <ele>553.38</ele>
        <time>2014-08-23T10:41:43Z</time>
      </trkpt>
      <trkpt lat="43.76749" lon="3.22472">
        <ele>552.41</ele>
        <time>2014-08-23T10:41:44Z</time>
      </trkpt>
      <trkpt lat="43.76748" lon="3.22485">
        <ele>551.93</ele>
        <time>2014-08-23T10:41:46Z</time>
      </trkpt>
      <trkpt lat="43.76747" lon="3.22533">
        <ele>551.45</ele>
        <time>2014-08-23T10:41:54Z</time>
      </trkpt>
      <trkpt lat="43.76743" lon="3.22588">
        <ele>550.97</ele>
        <time>2014-08-23T10:42:02Z</time>
      </trkpt>
      <trkpt lat="43.76739" lon="3.22641">
        <ele>550.01</ele>
        <time>2014-08-23T10:42:09Z</time>
      </trkpt>
      <trkpt lat="43.7674" lon="3.22715">
        <ele>548.09</ele>
        <time>2014-08-23T10:42:19Z</time>
      </trkpt>
      <trkpt lat="43.76745" lon="3.22744">
        <ele>547.61</ele>
        <time>2014-08-23T10:42:23Z</time>
      </trkpt>
      <trkpt lat="43.76763" lon="3.22799">
        <ele>546.17</ele>
        <time>2014-08-23T10:42:31Z</time>
      </trkpt>
      <trkpt lat="43.76771" lon="3.22815">
        <ele>545.69</ele>
        <time>2014-08-23T10:42:34Z</time>
      </trkpt>
      <trkpt lat="43.76771" lon="3.22834">
        <ele>544.24</ele>
        <time>2014-08-23T10:42:38Z</time>
      </trkpt>
      <trkpt lat="43.7676" lon="3.22841">
        <ele>544.24</ele>
        <time>2014-08-23T10:42:42Z</time>
      </trkpt>
      <trkpt lat="43.76748" lon="3.22838">
        <ele>545.2</ele>
        <time>2014-08-23T10:42:47Z</time>
      </trkpt>
      <trkpt lat="43.76735" lon="3.22834">
        <ele>546.17</ele>
        <time>2014-08-23T10:42:53Z</time>
      </trkpt>
      <trkpt lat="43.76734" lon="3.22832">
        <ele>546.17</ele>
        <time>2014-08-23T10:43:03Z</time>
      </trkpt>
      <trkpt lat="43.76729" lon="3.2283">
        <ele>546.17</ele>
        <time>2014-08-23T10:43:13Z</time>
      </trkpt>
      <trkpt lat="43.76722" lon="3.22831">
        <ele>546.17</ele>
        <time>2014-08-23T10:43:16Z</time>
      </trkpt>
      <trkpt lat="43.7671" lon="3.22838">
        <ele>547.61</ele>
        <time>2014-08-23T10:43:22Z</time>
      </trkpt>
      <trkpt lat="43.767" lon="3.22849">
        <ele>548.09</ele>
        <time>2014-08-23T10:43:29Z</time>
      </trkpt>
      <trkpt lat="43.76686" lon="3.22866">
        <ele>550.01</ele>
        <time>2014-08-23T10:43:39Z</time>
      </trkpt>
      <trkpt lat="43.76678" lon="3.22876">
        <ele>550.97</ele>
        <time>2014-08-23T10:43:45Z</time>
      </trkpt>
      <trkpt lat="43.76676" lon="3.22878">
        <ele>550.97</ele>
        <time>2014-08-23T10:43:46Z</time>
      </trkpt>
      <trkpt lat="43.76673" lon="3.22881">
        <ele>550.97</ele>
        <time>2014-08-23T10:43:50Z</time>
      </trkpt>
      <trkpt lat="43.76669" lon="3.22881">
        <ele>550.97</ele>
        <time>2014-08-23T10:43:52Z</time>
      </trkpt>
      <trkpt lat="43.76661" lon="3.22878">
        <ele>550.97</ele>
        <time>2014-08-23T10:43:55Z</time>
      </trkpt>
      <trkpt lat="43.76659" lon="3.22876">
        <ele>550.97</ele>
        <time>2014-08-23T10:43:56Z</time>
      </trkpt>
      <trkpt lat="43.7666" lon="3.22858">
        <ele>551.45</ele>
        <time>2014-08-23T10:44:03Z</time>
      </trkpt>
      <trkpt lat="43.76662" lon="3.22846">
        <ele>551.45</ele>
        <time>2014-08-23T10:44:06Z</time>
      </trkpt>
      <trkpt lat="43.76663" lon="3.22842">
        <ele>551.45</ele>
        <time>2014-08-23T10:44:07Z</time>
      </trkpt>
      <trkpt lat="43.76664" lon="3.22813">
        <ele>551.45</ele>
        <time>2014-08-23T10:44:13Z</time>
      </trkpt>
      <trkpt lat="43.76664" lon="3.22808">
        <ele>550.49</ele>
        <time>2014-08-23T10:44:14Z</time>
      </trkpt>
      <trkpt lat="43.76661" lon="3.22784">
        <ele>550.01</ele>
        <time>2014-08-23T10:44:18Z</time>
      </trkpt>
      <trkpt lat="43.7666" lon="3.22778">
        <ele>550.01</ele>
        <time>2014-08-23T10:44:19Z</time>
      </trkpt>
      <trkpt lat="43.76651" lon="3.22757">
        <ele>550.49</ele>
        <time>2014-08-23T10:44:23Z</time>
      </trkpt>
      <trkpt lat="43.76634" lon="3.2272">
        <ele>550.49</ele>
        <time>2014-08-23T10:44:31Z</time>
      </trkpt>
      <trkpt lat="43.76615" lon="3.2268">
        <ele>550.49</ele>
        <time>2014-08-23T10:44:40Z</time>
      </trkpt>
      <trkpt lat="43.76607" lon="3.22666">
        <ele>550.49</ele>
        <time>2014-08-23T10:44:43Z</time>
      </trkpt>
      <trkpt lat="43.76596" lon="3.22628">
        <ele>550.49</ele>
        <time>2014-08-23T10:44:51Z</time>
      </trkpt>
      <trkpt lat="43.76593" lon="3.22623">
        <ele>550.49</ele>
        <time>2014-08-23T10:44:52Z</time>
      </trkpt>
      <trkpt lat="43.7659" lon="3.22619">
        <ele>551.93</ele>
        <time>2014-08-23T10:44:53Z</time>
      </trkpt>
      <trkpt lat="43.76587" lon="3.22617">
        <ele>551.93</ele>
        <time>2014-08-23T10:44:54Z</time>
      </trkpt>
      <trkpt lat="43.76564" lon="3.22604">
        <ele>551.93</ele>
        <time>2014-08-23T10:45:00Z</time>
      </trkpt>
      <trkpt lat="43.76562" lon="3.22601">
        <ele>551.93</ele>
        <time>2014-08-23T10:45:01Z</time>
      </trkpt>
      <trkpt lat="43.76559" lon="3.22597">
        <ele>551.93</ele>
        <time>2014-08-23T10:45:02Z</time>
      </trkpt>
      <trkpt lat="43.76556" lon="3.22592">
        <ele>550.49</ele>
        <time>2014-08-23T10:45:03Z</time>
      </trkpt>
      <trkpt lat="43.76556" lon="3.22586">
        <ele>550.49</ele>
        <time>2014-08-23T10:45:04Z</time>
      </trkpt>
      <trkpt lat="43.76557" lon="3.2258">
        <ele>550.49</ele>
        <time>2014-08-23T10:45:05Z</time>
      </trkpt>
      <trkpt lat="43.7656" lon="3.22563">
        <ele>549.05</ele>
        <time>2014-08-23T10:45:08Z</time>
      </trkpt>
      <trkpt lat="43.76564" lon="3.22544">
        <ele>549.05</ele>
        <time>2014-08-23T10:45:11Z</time>
      </trkpt>
      <trkpt lat="43.76566" lon="3.22529">
        <ele>549.05</ele>
        <time>2014-08-23T10:45:13Z</time>
      </trkpt>
      <trkpt lat="43.76565" lon="3.22523">
        <ele>549.05</ele>
        <time>2014-08-23T10:45:14Z</time>
      </trkpt>
      <trkpt lat="43.76562" lon="3.2251">
        <ele>549.05</ele>
        <time>2014-08-23T10:45:16Z</time>
      </trkpt>
      <trkpt lat="43.76558" lon="3.22498">
        <ele>549.05</ele>
        <time>2014-08-23T10:45:18Z</time>
      </trkpt>
      <trkpt lat="43.76553" lon="3.22488">
        <ele>549.05</ele>
        <time>2014-08-23T10:45:20Z</time>
      </trkpt>
      <trkpt lat="43.7655" lon="3.22484">
        <ele>549.05</ele>
        <time>2014-08-23T10:45:21Z</time>
      </trkpt>
      <trkpt lat="43.76543" lon="3.22478">
        <ele>549.05</ele>
        <time>2014-08-23T10:45:23Z</time>
      </trkpt>
      <trkpt lat="43.76533" lon="3.22472">
        <ele>548.57</ele>
        <time>2014-08-23T10:45:26Z</time>
      </trkpt>
      <trkpt lat="43.76516" lon="3.22465">
        <ele>548.57</ele>
        <time>2014-08-23T10:45:30Z</time>
      </trkpt>
      <trkpt lat="43.76512" lon="3.22461">
        <ele>548.57</ele>
        <time>2014-08-23T10:45:31Z</time>
      </trkpt>
      <trkpt lat="43.76509" lon="3.22457">
        <ele>548.57</ele>
        <time>2014-08-23T10:45:32Z</time>
      </trkpt>
      <trkpt lat="43.76507" lon="3.2245">
        <ele>548.09</ele>
        <time>2014-08-23T10:45:33Z</time>
      </trkpt>
      <trkpt lat="43.76507" lon="3.22444">
        <ele>548.09</ele>
        <time>2014-08-23T10:45:34Z</time>
      </trkpt>
      <trkpt lat="43.76509" lon="3.22439">
        <ele>548.09</ele>
        <time>2014-08-23T10:45:35Z</time>
      </trkpt>
      <trkpt lat="43.76512" lon="3.22434">
        <ele>548.09</ele>
        <time>2014-08-23T10:45:36Z</time>
      </trkpt>
      <trkpt lat="43.76529" lon="3.22404">
        <ele>548.09</ele>
        <time>2014-08-23T10:45:43Z</time>
      </trkpt>
      <trkpt lat="43.76534" lon="3.22388">
        <ele>546.65</ele>
        <time>2014-08-23T10:45:46Z</time>
      </trkpt>
      <trkpt lat="43.76535" lon="3.22382">
        <ele>546.17</ele>
        <time>2014-08-23T10:45:47Z</time>
      </trkpt>
      <trkpt lat="43.76534" lon="3.22375">
        <ele>545.69</ele>
        <time>2014-08-23T10:45:48Z</time>
      </trkpt>
      <trkpt lat="43.76533" lon="3.22363">
        <ele>545.2</ele>
        <time>2014-08-23T10:45:50Z</time>
      </trkpt>
      <trkpt lat="43.76531" lon="3.22352">
        <ele>546.65</ele>
        <time>2014-08-23T10:45:52Z</time>
      </trkpt>
      <trkpt lat="43.76516" lon="3.22299">
        <ele>548.57</ele>
        <time>2014-08-23T10:46:02Z</time>
      </trkpt>
      <trkpt lat="43.76512" lon="3.22287">
        <ele>547.13</ele>
        <time>2014-08-23T10:46:04Z</time>
      </trkpt>
      <trkpt lat="43.76506" lon="3.22271">
        <ele>546.65</ele>
        <time>2014-08-23T10:46:07Z</time>
      </trkpt>
      <trkpt lat="43.765" lon="3.22254">
        <ele>549.53</ele>
        <time>2014-08-23T10:46:11Z</time>
      </trkpt>
      <trkpt lat="43.76491" lon="3.22231">
        <ele>547.61</ele>
        <time>2014-08-23T10:46:15Z</time>
      </trkpt>
      <trkpt lat="43.76489" lon="3.22226">
        <ele>547.13</ele>
        <time>2014-08-23T10:46:16Z</time>
      </trkpt>
      <trkpt lat="43.76473" lon="3.22181">
        <ele>546.17</ele>
        <time>2014-08-23T10:46:25Z</time>
      </trkpt>
      <trkpt lat="43.76465" lon="3.22158">
        <ele>546.17</ele>
        <time>2014-08-23T10:46:30Z</time>
      </trkpt>
      <trkpt lat="43.76449" lon="3.22142">
        <ele>548.57</ele>
        <time>2014-08-23T10:46:36Z</time>
      </trkpt>
      <trkpt lat="43.76445" lon="3.22141">
        <ele>545.2</ele>
        <time>2014-08-23T10:46:37Z</time>
      </trkpt>
      <trkpt lat="43.76413" lon="3.22139">
        <ele>542.32</ele>
        <time>2014-08-23T10:46:46Z</time>
      </trkpt>
      <trkpt lat="43.76403" lon="3.22141">
        <ele>543.28</ele>
        <time>2014-08-23T10:46:49Z</time>
      </trkpt>
      <trkpt lat="43.76371" lon="3.22149">
        <ele>544.24</ele>
        <time>2014-08-23T10:46:58Z</time>
      </trkpt>
      <trkpt lat="43.76349" lon="3.2216">
        <ele>544.24</ele>
        <time>2014-08-23T10:47:05Z</time>
      </trkpt>
      <trkpt lat="43.7633" lon="3.22166">
        <ele>545.2</ele>
        <time>2014-08-23T10:47:12Z</time>
      </trkpt>
      <trkpt lat="43.76308" lon="3.22153">
        <ele>547.61</ele>
        <time>2014-08-23T10:47:19Z</time>
      </trkpt>
      <trkpt lat="43.76295" lon="3.22144">
        <ele>548.09</ele>
        <time>2014-08-23T10:47:23Z</time>
      </trkpt>
      <trkpt lat="43.76285" lon="3.22127">
        <ele>548.09</ele>
        <time>2014-08-23T10:47:28Z</time>
      </trkpt>
      <trkpt lat="43.76301" lon="3.22092">
        <ele>545.69</ele>
        <time>2014-08-23T10:47:34Z</time>
      </trkpt>
      <trkpt lat="43.76317" lon="3.22058">
        <ele>545.2</ele>
        <time>2014-08-23T10:47:41Z</time>
      </trkpt>
      <trkpt lat="43.76328" lon="3.22031">
        <ele>544.72</ele>
        <time>2014-08-23T10:47:45Z</time>
      </trkpt>
      <trkpt lat="43.76337" lon="3.21997">
        <ele>543.76</ele>
        <time>2014-08-23T10:47:50Z</time>
      </trkpt>
      <trkpt lat="43.76353" lon="3.21955">
        <ele>543.28</ele>
        <time>2014-08-23T10:47:56Z</time>
      </trkpt>
      <trkpt lat="43.76355" lon="3.21948">
        <ele>542.32</ele>
        <time>2014-08-23T10:47:57Z</time>
      </trkpt>
      <trkpt lat="43.76367" lon="3.21902">
        <ele>541.84</ele>
        <time>2014-08-23T10:48:03Z</time>
      </trkpt>
      <trkpt lat="43.76368" lon="3.21896">
        <ele>542.32</ele>
        <time>2014-08-23T10:48:04Z</time>
      </trkpt>
      <trkpt lat="43.76381" lon="3.21853">
        <ele>541.84</ele>
        <time>2014-08-23T10:48:10Z</time>
      </trkpt>
      <trkpt lat="43.76384" lon="3.21837">
        <ele>539.92</ele>
        <time>2014-08-23T10:48:12Z</time>
      </trkpt>
      <trkpt lat="43.76387" lon="3.21798">
        <ele>539.92</ele>
        <time>2014-08-23T10:48:17Z</time>
      </trkpt>
      <trkpt lat="43.76386" lon="3.2177">
        <ele>540.88</ele>
        <time>2014-08-23T10:48:21Z</time>
      </trkpt>
      <trkpt lat="43.76384" lon="3.21745">
        <ele>540.88</ele>
        <time>2014-08-23T10:48:25Z</time>
      </trkpt>
      <trkpt lat="43.76383" lon="3.21739">
        <ele>540.88</ele>
        <time>2014-08-23T10:48:26Z</time>
      </trkpt>
      <trkpt lat="43.76381" lon="3.21734">
        <ele>540.88</ele>
        <time>2014-08-23T10:48:27Z</time>
      </trkpt>
      <trkpt lat="43.76378" lon="3.21729">
        <ele>540.88</ele>
        <time>2014-08-23T10:48:28Z</time>
      </trkpt>
      <trkpt lat="43.76375" lon="3.21725">
        <ele>539.92</ele>
        <time>2014-08-23T10:48:29Z</time>
      </trkpt>
      <trkpt lat="43.76372" lon="3.21721">
        <ele>539.92</ele>
        <time>2014-08-23T10:48:30Z</time>
      </trkpt>
      <trkpt lat="43.76369" lon="3.21718">
        <ele>539.92</ele>
        <time>2014-08-23T10:48:31Z</time>
      </trkpt>
      <trkpt lat="43.76342" lon="3.21704">
        <ele>541.36</ele>
        <time>2014-08-23T10:48:38Z</time>
      </trkpt>
      <trkpt lat="43.76333" lon="3.217">
        <ele>541.36</ele>
        <time>2014-08-23T10:48:40Z</time>
      </trkpt>
      <trkpt lat="43.76329" lon="3.21696">
        <ele>541.36</ele>
        <time>2014-08-23T10:48:41Z</time>
      </trkpt>
      <trkpt lat="43.76325" lon="3.21691">
        <ele>541.84</ele>
        <time>2014-08-23T10:48:42Z</time>
      </trkpt>
      <trkpt lat="43.76323" lon="3.21686">
        <ele>541.36</ele>
        <time>2014-08-23T10:48:43Z</time>
      </trkpt>
      <trkpt lat="43.76324" lon="3.2168">
        <ele>541.84</ele>
        <time>2014-08-23T10:48:44Z</time>
      </trkpt>
      <trkpt lat="43.76335" lon="3.21655">
        <ele>543.28</ele>
        <time>2014-08-23T10:48:50Z</time>
      </trkpt>
      <trkpt lat="43.76348" lon="3.21623">
        <ele>543.76</ele>
        <time>2014-08-23T10:48:57Z</time>
      </trkpt>
      <trkpt lat="43.76368" lon="3.21587">
        <ele>543.76</ele>
        <time>2014-08-23T10:49:04Z</time>
      </trkpt>
      <trkpt lat="43.76376" lon="3.21571">
        <ele>542.8</ele>
        <time>2014-08-23T10:49:07Z</time>
      </trkpt>
      <trkpt lat="43.76381" lon="3.21561">
        <ele>542.8</ele>
        <time>2014-08-23T10:49:09Z</time>
      </trkpt>
      <trkpt lat="43.76383" lon="3.21555">
        <ele>542.8</ele>
        <time>2014-08-23T10:49:10Z</time>
      </trkpt>
      <trkpt lat="43.76385" lon="3.21549">
        <ele>543.76</ele>
        <time>2014-08-23T10:49:11Z</time>
      </trkpt>
      <trkpt lat="43.76386" lon="3.21542">
        <ele>544.24</ele>
        <time>2014-08-23T10:49:12Z</time>
      </trkpt>
      <trkpt lat="43.76388" lon="3.2153">
        <ele>545.69</ele>
        <time>2014-08-23T10:49:14Z</time>
      </trkpt>
      <trkpt lat="43.76388" lon="3.21518">
        <ele>545.69</ele>
        <time>2014-08-23T10:49:16Z</time>
      </trkpt>
      <trkpt lat="43.76385" lon="3.21477">
        <ele>548.57</ele>
        <time>2014-08-23T10:49:23Z</time>
      </trkpt>
      <trkpt lat="43.7638" lon="3.21456">
        <ele>544.72</ele>
        <time>2014-08-23T10:49:27Z</time>
      </trkpt>
      <trkpt lat="43.76373" lon="3.21412">
        <ele>543.76</ele>
        <time>2014-08-23T10:49:35Z</time>
      </trkpt>
      <trkpt lat="43.76369" lon="3.21386">
        <ele>545.2</ele>
        <time>2014-08-23T10:49:40Z</time>
      </trkpt>
      <trkpt lat="43.76365" lon="3.21362">
        <ele>549.53</ele>
        <time>2014-08-23T10:49:45Z</time>
      </trkpt>
      <trkpt lat="43.76363" lon="3.21354">
        <ele>544.72</ele>
        <time>2014-08-23T10:49:47Z</time>
      </trkpt>
      <trkpt lat="43.76363" lon="3.21351">
        <ele>544.24</ele>
        <time>2014-08-23T10:49:48Z</time>
      </trkpt>
      <trkpt lat="43.76361" lon="3.2134">
        <ele>540.88</ele>
        <time>2014-08-23T10:49:52Z</time>
      </trkpt>
      <trkpt lat="43.7636" lon="3.21338">
        <ele>542.32</ele>
        <time>2014-08-23T10:49:53Z</time>
      </trkpt>
      <trkpt lat="43.76359" lon="3.21333">
        <ele>542.32</ele>
        <time>2014-08-23T10:49:55Z</time>
      </trkpt>
      <trkpt lat="43.76357" lon="3.21331">
        <ele>540.88</ele>
        <time>2014-08-23T10:49:56Z</time>
      </trkpt>
      <trkpt lat="43.76354" lon="3.21325">
        <ele>538.48</ele>
        <time>2014-08-23T10:49:59Z</time>
      </trkpt>
      <trkpt lat="43.76348" lon="3.21321">
        <ele>540.88</ele>
        <time>2014-08-23T10:50:02Z</time>
      </trkpt>
      <trkpt lat="43.76334" lon="3.21312">
        <ele>542.32</ele>
        <time>2014-08-23T10:50:10Z</time>
      </trkpt>
      <trkpt lat="43.76332" lon="3.21311">
        <ele>542.8</ele>
        <time>2014-08-23T10:50:11Z</time>
      </trkpt>
      <trkpt lat="43.76329" lon="3.21311">
        <ele>542.8</ele>
        <time>2014-08-23T10:50:12Z</time>
      </trkpt>
      <trkpt lat="43.76316" lon="3.21308">
        <ele>542.8</ele>
        <time>2014-08-23T10:50:18Z</time>
      </trkpt>
      <trkpt lat="43.76315" lon="3.21308">
        <ele>543.28</ele>
        <time>2014-08-23T10:50:19Z</time>
      </trkpt>
      <trkpt lat="43.76314" lon="3.21308">
        <ele>543.28</ele>
        <time>2014-08-23T10:50:20Z</time>
      </trkpt>
      <trkpt lat="43.76305" lon="3.21307">
        <ele>543.76</ele>
        <time>2014-08-23T10:50:27Z</time>
      </trkpt>
      <trkpt lat="43.76291" lon="3.21307">
        <ele>543.76</ele>
        <time>2014-08-23T10:50:34Z</time>
      </trkpt>
      <trkpt lat="43.76272" lon="3.21308">
        <ele>543.76</ele>
        <time>2014-08-23T10:50:41Z</time>
      </trkpt>
      <trkpt lat="43.76242" lon="3.2131">
        <ele>544.24</ele>
        <time>2014-08-23T10:50:50Z</time>
      </trkpt>
      <trkpt lat="43.76206" lon="3.21313">
        <ele>544.24</ele>
        <time>2014-08-23T10:50:59Z</time>
      </trkpt>
      <trkpt lat="43.76167" lon="3.21317">
        <ele>544.72</ele>
        <time>2014-08-23T10:51:08Z</time>
      </trkpt>
      <trkpt lat="43.76163" lon="3.21318">
        <ele>544.72</ele>
        <time>2014-08-23T10:51:09Z</time>
      </trkpt>
      <trkpt lat="43.76154" lon="3.21319">
        <ele>545.2</ele>
        <time>2014-08-23T10:51:11Z</time>
      </trkpt>
      <trkpt lat="43.7615" lon="3.21318">
        <ele>545.2</ele>
        <time>2014-08-23T10:51:12Z</time>
      </trkpt>
      <trkpt lat="43.76146" lon="3.21316">
        <ele>545.2</ele>
        <time>2014-08-23T10:51:13Z</time>
      </trkpt>
      <trkpt lat="43.76143" lon="3.21311">
        <ele>545.2</ele>
        <time>2014-08-23T10:51:14Z</time>
      </trkpt>
      <trkpt lat="43.76142" lon="3.21306">
        <ele>545.2</ele>
        <time>2014-08-23T10:51:15Z</time>
      </trkpt>
      <trkpt lat="43.76142" lon="3.213">
        <ele>545.2</ele>
        <time>2014-08-23T10:51:16Z</time>
      </trkpt>
      <trkpt lat="43.76146" lon="3.21262">
        <ele>544.72</ele>
        <time>2014-08-23T10:51:22Z</time>
      </trkpt>
      <trkpt lat="43.76154" lon="3.21221">
        <ele>545.69</ele>
        <time>2014-08-23T10:51:29Z</time>
      </trkpt>
      <trkpt lat="43.76156" lon="3.21216">
        <ele>545.69</ele>
        <time>2014-08-23T10:51:30Z</time>
      </trkpt>
      <trkpt lat="43.76162" lon="3.21174">
        <ele>546.17</ele>
        <time>2014-08-23T10:51:36Z</time>
      </trkpt>
      <trkpt lat="43.76163" lon="3.21167">
        <ele>547.13</ele>
        <time>2014-08-23T10:51:37Z</time>
      </trkpt>
      <trkpt lat="43.76163" lon="3.21148">
        <ele>547.61</ele>
        <time>2014-08-23T10:51:40Z</time>
      </trkpt>
      <trkpt lat="43.76165" lon="3.21142">
        <ele>547.61</ele>
        <time>2014-08-23T10:51:41Z</time>
      </trkpt>
      <trkpt lat="43.76167" lon="3.21137">
        <ele>547.61</ele>
        <time>2014-08-23T10:51:42Z</time>
      </trkpt>
      <trkpt lat="43.7619" lon="3.21099">
        <ele>548.09</ele>
        <time>2014-08-23T10:51:50Z</time>
      </trkpt>
      <trkpt lat="43.76199" lon="3.21082">
        <ele>548.09</ele>
        <time>2014-08-23T10:51:53Z</time>
      </trkpt>
      <trkpt lat="43.76226" lon="3.21024">
        <ele>550.01</ele>
        <time>2014-08-23T10:52:03Z</time>
      </trkpt>
      <trkpt lat="43.76231" lon="3.20993">
        <ele>550.49</ele>
        <time>2014-08-23T10:52:09Z</time>
      </trkpt>
      <trkpt lat="43.76225" lon="3.20969">
        <ele>549.05</ele>
        <time>2014-08-23T10:52:15Z</time>
      </trkpt>
      <trkpt lat="43.76219" lon="3.20957">
        <ele>546.17</ele>
        <time>2014-08-23T10:52:19Z</time>
      </trkpt>
      <trkpt lat="43.76215" lon="3.20949">
        <ele>548.57</ele>
        <time>2014-08-23T10:52:22Z</time>
      </trkpt>
      <trkpt lat="43.76202" lon="3.20932">
        <ele>549.05</ele>
        <time>2014-08-23T10:52:30Z</time>
      </trkpt>
      <trkpt lat="43.76191" lon="3.2092">
        <ele>551.93</ele>
        <time>2014-08-23T10:52:36Z</time>
      </trkpt>
      <trkpt lat="43.76174" lon="3.20903">
        <ele>554.82</ele>
        <time>2014-08-23T10:52:45Z</time>
      </trkpt>
      <trkpt lat="43.76161" lon="3.20886">
        <ele>556.26</ele>
        <time>2014-08-23T10:52:52Z</time>
      </trkpt>
      <trkpt lat="43.76154" lon="3.20863">
        <ele>557.22</ele>
        <time>2014-08-23T10:53:00Z</time>
      </trkpt>
      <trkpt lat="43.76156" lon="3.20839">
        <ele>557.7</ele>
        <time>2014-08-23T10:53:08Z</time>
      </trkpt>
      <trkpt lat="43.76157" lon="3.20836">
        <ele>557.7</ele>
        <time>2014-08-23T10:53:09Z</time>
      </trkpt>
      <trkpt lat="43.76158" lon="3.20832">
        <ele>557.7</ele>
        <time>2014-08-23T10:53:10Z</time>
      </trkpt>
      <trkpt lat="43.76165" lon="3.20807">
        <ele>560.59</ele>
        <time>2014-08-23T10:53:18Z</time>
      </trkpt>
      <trkpt lat="43.76166" lon="3.20804">
        <ele>560.59</ele>
        <time>2014-08-23T10:53:19Z</time>
      </trkpt>
      <trkpt lat="43.76174" lon="3.20782">
        <ele>561.07</ele>
        <time>2014-08-23T10:53:26Z</time>
      </trkpt>
      <trkpt lat="43.76182" lon="3.20759">
        <ele>561.07</ele>
        <time>2014-08-23T10:53:33Z</time>
      </trkpt>
      <trkpt lat="43.76182" lon="3.20731">
        <ele>562.03</ele>
        <time>2014-08-23T10:53:41Z</time>
      </trkpt>
      <trkpt lat="43.76179" lon="3.20701">
        <ele>563.47</ele>
        <time>2014-08-23T10:53:50Z</time>
      </trkpt>
      <trkpt lat="43.76176" lon="3.20677">
        <ele>564.43</ele>
        <time>2014-08-23T10:53:57Z</time>
      </trkpt>
      <trkpt lat="43.7617" lon="3.2065">
        <ele>566.35</ele>
        <time>2014-08-23T10:54:06Z</time>
      </trkpt>
      <trkpt lat="43.76163" lon="3.20631">
        <ele>566.83</ele>
        <time>2014-08-23T10:54:13Z</time>
      </trkpt>
      <trkpt lat="43.76151" lon="3.20612">
        <ele>567.8</ele>
        <time>2014-08-23T10:54:21Z</time>
      </trkpt>
      <trkpt lat="43.76137" lon="3.20599">
        <ele>569.24</ele>
        <time>2014-08-23T10:54:29Z</time>
      </trkpt>
      <trkpt lat="43.76122" lon="3.20587">
        <ele>571.16</ele>
        <time>2014-08-23T10:54:38Z</time>
      </trkpt>
      <trkpt lat="43.76102" lon="3.20572">
        <ele>572.6</ele>
        <time>2014-08-23T10:54:48Z</time>
      </trkpt>
      <trkpt lat="43.7609" lon="3.20559">
        <ele>573.08</ele>
        <time>2014-08-23T10:54:55Z</time>
      </trkpt>
      <trkpt lat="43.76075" lon="3.20547">
        <ele>575.01</ele>
        <time>2014-08-23T10:55:03Z</time>
      </trkpt>
      <trkpt lat="43.76058" lon="3.2055">
        <ele>575.49</ele>
        <time>2014-08-23T10:55:10Z</time>
      </trkpt>
      <trkpt lat="43.76043" lon="3.20562">
        <ele>576.93</ele>
        <time>2014-08-23T10:55:18Z</time>
      </trkpt>
      <trkpt lat="43.76027" lon="3.20575">
        <ele>577.89</ele>
        <time>2014-08-23T10:55:27Z</time>
      </trkpt>
      <trkpt lat="43.76013" lon="3.20587">
        <ele>578.85</ele>
        <time>2014-08-23T10:55:35Z</time>
      </trkpt>
      <trkpt lat="43.75999" lon="3.20601">
        <ele>580.29</ele>
        <time>2014-08-23T10:55:43Z</time>
      </trkpt>
      <trkpt lat="43.75986" lon="3.20611">
        <ele>580.77</ele>
        <time>2014-08-23T10:55:50Z</time>
      </trkpt>
      <trkpt lat="43.75973" lon="3.20618">
        <ele>581.73</ele>
        <time>2014-08-23T10:55:57Z</time>
      </trkpt>
      <trkpt lat="43.75957" lon="3.20626">
        <ele>583.18</ele>
        <time>2014-08-23T10:56:05Z</time>
      </trkpt>
      <trkpt lat="43.75938" lon="3.20638">
        <ele>584.62</ele>
        <time>2014-08-23T10:56:15Z</time>
      </trkpt>
      <trkpt lat="43.75922" lon="3.20649">
        <ele>586.06</ele>
        <time>2014-08-23T10:56:23Z</time>
      </trkpt>
      <trkpt lat="43.75903" lon="3.20664">
        <ele>587.98</ele>
        <time>2014-08-23T10:56:33Z</time>
      </trkpt>
      <trkpt lat="43.7589" lon="3.20674">
        <ele>589.91</ele>
        <time>2014-08-23T10:56:41Z</time>
      </trkpt>
      <trkpt lat="43.75884" lon="3.20678">
        <ele>590.87</ele>
        <time>2014-08-23T10:56:44Z</time>
      </trkpt>
      <trkpt lat="43.75882" lon="3.20679">
        <ele>590.87</ele>
        <time>2014-08-23T10:56:45Z</time>
      </trkpt>
      <trkpt lat="43.7588" lon="3.2068">
        <ele>590.87</ele>
        <time>2014-08-23T10:56:46Z</time>
      </trkpt>
      <trkpt lat="43.75873" lon="3.20683">
        <ele>591.83</ele>
        <time>2014-08-23T10:56:50Z</time>
      </trkpt>
      <trkpt lat="43.75859" lon="3.20674">
        <ele>592.31</ele>
        <time>2014-08-23T10:56:57Z</time>
      </trkpt>
      <trkpt lat="43.75857" lon="3.2067">
        <ele>592.79</ele>
        <time>2014-08-23T10:56:59Z</time>
      </trkpt>
      <trkpt lat="43.75851" lon="3.20647">
        <ele>593.75</ele>
        <time>2014-08-23T10:57:08Z</time>
      </trkpt>
      <trkpt lat="43.75846" lon="3.20626">
        <ele>594.71</ele>
        <time>2014-08-23T10:57:16Z</time>
      </trkpt>
      <trkpt lat="43.75841" lon="3.20595">
        <ele>596.64</ele>
        <time>2014-08-23T10:57:26Z</time>
      </trkpt>
      <trkpt lat="43.75839" lon="3.20569">
        <ele>597.6</ele>
        <time>2014-08-23T10:57:35Z</time>
      </trkpt>
      <trkpt lat="43.75837" lon="3.20546">
        <ele>598.08</ele>
        <time>2014-08-23T10:57:43Z</time>
      </trkpt>
      <trkpt lat="43.75835" lon="3.20523">
        <ele>599.04</ele>
        <time>2014-08-23T10:57:50Z</time>
      </trkpt>
      <trkpt lat="43.75824" lon="3.205">
        <ele>600</ele>
        <time>2014-08-23T10:57:59Z</time>
      </trkpt>
      <trkpt lat="43.7581" lon="3.20483">
        <ele>601.44</ele>
        <time>2014-08-23T10:58:08Z</time>
      </trkpt>
      <trkpt lat="43.75797" lon="3.20466">
        <ele>602.88</ele>
        <time>2014-08-23T10:58:16Z</time>
      </trkpt>
      <trkpt lat="43.75786" lon="3.20447">
        <ele>604.33</ele>
        <time>2014-08-23T10:58:24Z</time>
      </trkpt>
      <trkpt lat="43.75781" lon="3.20427">
        <ele>605.29</ele>
        <time>2014-08-23T10:58:31Z</time>
      </trkpt>
      <trkpt lat="43.75779" lon="3.20404">
        <ele>606.25</ele>
        <time>2014-08-23T10:58:39Z</time>
      </trkpt>
      <trkpt lat="43.75782" lon="3.2038">
        <ele>608.17</ele>
        <time>2014-08-23T10:58:47Z</time>
      </trkpt>
      <trkpt lat="43.75775" lon="3.2036">
        <ele>609.61</ele>
        <time>2014-08-23T10:58:56Z</time>
      </trkpt>
      <trkpt lat="43.75773" lon="3.2034">
        <ele>610.57</ele>
        <time>2014-08-23T10:59:03Z</time>
      </trkpt>
      <trkpt lat="43.75767" lon="3.20323">
        <ele>612.02</ele>
        <time>2014-08-23T10:59:10Z</time>
      </trkpt>
      <trkpt lat="43.75757" lon="3.20307">
        <ele>612.98</ele>
        <time>2014-08-23T10:59:17Z</time>
      </trkpt>
      <trkpt lat="43.75743" lon="3.20291">
        <ele>614.42</ele>
        <time>2014-08-23T10:59:25Z</time>
      </trkpt>
      <trkpt lat="43.75727" lon="3.20275">
        <ele>615.86</ele>
        <time>2014-08-23T10:59:33Z</time>
      </trkpt>
      <trkpt lat="43.75712" lon="3.20255">
        <ele>617.3</ele>
        <time>2014-08-23T10:59:43Z</time>
      </trkpt>
      <trkpt lat="43.75696" lon="3.20236">
        <ele>618.26</ele>
        <time>2014-08-23T10:59:53Z</time>
      </trkpt>
      <trkpt lat="43.75679" lon="3.20227">
        <ele>619.71</ele>
        <time>2014-08-23T11:00:01Z</time>
      </trkpt>
      <trkpt lat="43.75662" lon="3.20226">
        <ele>620.19</ele>
        <time>2014-08-23T11:00:08Z</time>
      </trkpt>
      <trkpt lat="43.75644" lon="3.2023">
        <ele>621.15</ele>
        <time>2014-08-23T11:00:17Z</time>
      </trkpt>
      <trkpt lat="43.75642" lon="3.2023">
        <ele>621.63</ele>
        <time>2014-08-23T11:00:18Z</time>
      </trkpt>
      <trkpt lat="43.75621" lon="3.20231">
        <ele>623.07</ele>
        <time>2014-08-23T11:00:28Z</time>
      </trkpt>
      <trkpt lat="43.75603" lon="3.20228">
        <ele>624.99</ele>
        <time>2014-08-23T11:00:37Z</time>
      </trkpt>
      <trkpt lat="43.75585" lon="3.20221">
        <ele>626.44</ele>
        <time>2014-08-23T11:00:46Z</time>
      </trkpt>
      <trkpt lat="43.75571" lon="3.20214">
        <ele>626.92</ele>
        <time>2014-08-23T11:00:53Z</time>
      </trkpt>
      <trkpt lat="43.75553" lon="3.20203">
        <ele>628.36</ele>
        <time>2014-08-23T11:01:02Z</time>
      </trkpt>
      <trkpt lat="43.75539" lon="3.20188">
        <ele>629.8</ele>
        <time>2014-08-23T11:01:10Z</time>
      </trkpt>
      <trkpt lat="43.75526" lon="3.20175">
        <ele>630.76</ele>
        <time>2014-08-23T11:01:18Z</time>
      </trkpt>
      <trkpt lat="43.75514" lon="3.20168">
        <ele>631.24</ele>
        <time>2014-08-23T11:01:24Z</time>
      </trkpt>
      <trkpt lat="43.75494" lon="3.20164">
        <ele>633.17</ele>
        <time>2014-08-23T11:01:33Z</time>
      </trkpt>
      <trkpt lat="43.75474" lon="3.20164">
        <ele>634.61</ele>
        <time>2014-08-23T11:01:43Z</time>
      </trkpt>
      <trkpt lat="43.75456" lon="3.20164">
        <ele>635.57</ele>
        <time>2014-08-23T11:01:52Z</time>
      </trkpt>
      <trkpt lat="43.75441" lon="3.20164">
        <ele>637.49</ele>
        <time>2014-08-23T11:02:00Z</time>
      </trkpt>
      <trkpt lat="43.75426" lon="3.20161">
        <ele>637.97</ele>
        <time>2014-08-23T11:02:08Z</time>
      </trkpt>
      <trkpt lat="43.75411" lon="3.20159">
        <ele>638.45</ele>
        <time>2014-08-23T11:02:16Z</time>
      </trkpt>
      <trkpt lat="43.75407" lon="3.20158">
        <ele>638.93</ele>
        <time>2014-08-23T11:02:18Z</time>
      </trkpt>
      <trkpt lat="43.75405" lon="3.20158">
        <ele>638.93</ele>
        <time>2014-08-23T11:02:19Z</time>
      </trkpt>
      <trkpt lat="43.75403" lon="3.20158">
        <ele>638.93</ele>
        <time>2014-08-23T11:02:20Z</time>
      </trkpt>
      <trkpt lat="43.75394" lon="3.20158">
        <ele>639.41</ele>
        <time>2014-08-23T11:02:24Z</time>
      </trkpt>
      <trkpt lat="43.75388" lon="3.20156">
        <ele>639.89</ele>
        <time>2014-08-23T11:02:27Z</time>
      </trkpt>
      <trkpt lat="43.75386" lon="3.20155">
        <ele>639.89</ele>
        <time>2014-08-23T11:02:28Z</time>
      </trkpt>
      <trkpt lat="43.75382" lon="3.20154">
        <ele>639.89</ele>
        <time>2014-08-23T11:02:30Z</time>
      </trkpt>
      <trkpt lat="43.7538" lon="3.20154">
        <ele>639.89</ele>
        <time>2014-08-23T11:02:31Z</time>
      </trkpt>
      <trkpt lat="43.75378" lon="3.20154">
        <ele>639.89</ele>
        <time>2014-08-23T11:02:32Z</time>
      </trkpt>
      <trkpt lat="43.75376" lon="3.20153">
        <ele>639.89</ele>
        <time>2014-08-23T11:02:33Z</time>
      </trkpt>
      <trkpt lat="43.75374" lon="3.20153">
        <ele>640.38</ele>
        <time>2014-08-23T11:02:34Z</time>
      </trkpt>
      <trkpt lat="43.75372" lon="3.20153">
        <ele>640.38</ele>
        <time>2014-08-23T11:02:35Z</time>
      </trkpt>
      <trkpt lat="43.7537" lon="3.20153">
        <ele>640.38</ele>
        <time>2014-08-23T11:02:36Z</time>
      </trkpt>
      <trkpt lat="43.75368" lon="3.20153">
        <ele>640.38</ele>
        <time>2014-08-23T11:02:37Z</time>
      </trkpt>
      <trkpt lat="43.75366" lon="3.20153">
        <ele>640.38</ele>
        <time>2014-08-23T11:02:38Z</time>
      </trkpt>
      <trkpt lat="43.75363" lon="3.20152">
        <ele>640.38</ele>
        <time>2014-08-23T11:02:39Z</time>
      </trkpt>
      <trkpt lat="43.75361" lon="3.20152">
        <ele>640.86</ele>
        <time>2014-08-23T11:02:40Z</time>
      </trkpt>
      <trkpt lat="43.75345" lon="3.20148">
        <ele>641.34</ele>
        <time>2014-08-23T11:02:48Z</time>
      </trkpt>
      <trkpt lat="43.75344" lon="3.2015">
        <ele>642.3</ele>
        <time>2014-08-23T11:02:49Z</time>
      </trkpt>
      <trkpt lat="43.75343" lon="3.20152">
        <ele>642.3</ele>
        <time>2014-08-23T11:02:50Z</time>
      </trkpt>
      <trkpt lat="43.75342" lon="3.20155">
        <ele>642.3</ele>
        <time>2014-08-23T11:02:51Z</time>
      </trkpt>
      <trkpt lat="43.75343" lon="3.20157">
        <ele>642.78</ele>
        <time>2014-08-23T11:02:52Z</time>
      </trkpt>
      <trkpt lat="43.75344" lon="3.2016">
        <ele>642.78</ele>
        <time>2014-08-23T11:02:53Z</time>
      </trkpt>
      <trkpt lat="43.75346" lon="3.20162">
        <ele>643.26</ele>
        <time>2014-08-23T11:02:54Z</time>
      </trkpt>
      <trkpt lat="43.75357" lon="3.20164">
        <ele>644.7</ele>
        <time>2014-08-23T11:03:00Z</time>
      </trkpt>
      <trkpt lat="43.75373" lon="3.20168">
        <ele>645.66</ele>
        <time>2014-08-23T11:03:09Z</time>
      </trkpt>
      <trkpt lat="43.75385" lon="3.20174">
        <ele>646.62</ele>
        <time>2014-08-23T11:03:16Z</time>
      </trkpt>
      <trkpt lat="43.75396" lon="3.20179">
        <ele>646.62</ele>
        <time>2014-08-23T11:03:22Z</time>
      </trkpt>
      <trkpt lat="43.75412" lon="3.20185">
        <ele>647.1</ele>
        <time>2014-08-23T11:03:29Z</time>
      </trkpt>
      <trkpt lat="43.75432" lon="3.20195">
        <ele>649.03</ele>
        <time>2014-08-23T11:03:39Z</time>
      </trkpt>
      <trkpt lat="43.75452" lon="3.20202">
        <ele>649.51</ele>
        <time>2014-08-23T11:03:48Z</time>
      </trkpt>
      <trkpt lat="43.75473" lon="3.20211">
        <ele>651.43</ele>
        <time>2014-08-23T11:03:58Z</time>
      </trkpt>
      <trkpt lat="43.75493" lon="3.20228">
        <ele>652.39</ele>
        <time>2014-08-23T11:04:08Z</time>
      </trkpt>
      <trkpt lat="43.7551" lon="3.20246">
        <ele>653.83</ele>
        <time>2014-08-23T11:04:17Z</time>
      </trkpt>
      <trkpt lat="43.75525" lon="3.20263">
        <ele>654.8</ele>
        <time>2014-08-23T11:04:26Z</time>
      </trkpt>
      <trkpt lat="43.75543" lon="3.20284">
        <ele>656.24</ele>
        <time>2014-08-23T11:04:36Z</time>
      </trkpt>
      <trkpt lat="43.75562" lon="3.20301">
        <ele>657.68</ele>
        <time>2014-08-23T11:04:46Z</time>
      </trkpt>
      <trkpt lat="43.75576" lon="3.20316">
        <ele>658.16</ele>
        <time>2014-08-23T11:04:54Z</time>
      </trkpt>
      <trkpt lat="43.75595" lon="3.20329">
        <ele>658.64</ele>
        <time>2014-08-23T11:05:03Z</time>
      </trkpt>
      <trkpt lat="43.75614" lon="3.20348">
        <ele>660.08</ele>
        <time>2014-08-23T11:05:13Z</time>
      </trkpt>
      <trkpt lat="43.75629" lon="3.20367">
        <ele>661.04</ele>
        <time>2014-08-23T11:05:21Z</time>
      </trkpt>
      <trkpt lat="43.75637" lon="3.20393">
        <ele>661.04</ele>
        <time>2014-08-23T11:05:30Z</time>
      </trkpt>
      <trkpt lat="43.7564" lon="3.20415">
        <ele>662.01</ele>
        <time>2014-08-23T11:05:37Z</time>
      </trkpt>
      <trkpt lat="43.75641" lon="3.20429">
        <ele>662.97</ele>
        <time>2014-08-23T11:05:42Z</time>
      </trkpt>
      <trkpt lat="43.75641" lon="3.20432">
        <ele>662.97</ele>
        <time>2014-08-23T11:05:43Z</time>
      </trkpt>
      <trkpt lat="43.75641" lon="3.20436">
        <ele>663.45</ele>
        <time>2014-08-23T11:05:44Z</time>
      </trkpt>
      <trkpt lat="43.75642" lon="3.20439">
        <ele>663.45</ele>
        <time>2014-08-23T11:05:45Z</time>
      </trkpt>
      <trkpt lat="43.75642" lon="3.20442">
        <ele>663.45</ele>
        <time>2014-08-23T11:05:46Z</time>
      </trkpt>
      <trkpt lat="43.75642" lon="3.20446">
        <ele>663.45</ele>
        <time>2014-08-23T11:05:47Z</time>
      </trkpt>
      <trkpt lat="43.75642" lon="3.20449">
        <ele>663.45</ele>
        <time>2014-08-23T11:05:48Z</time>
      </trkpt>
      <trkpt lat="43.75642" lon="3.20452">
        <ele>663.93</ele>
        <time>2014-08-23T11:05:49Z</time>
      </trkpt>
      <trkpt lat="43.75642" lon="3.20456">
        <ele>663.93</ele>
        <time>2014-08-23T11:05:50Z</time>
      </trkpt>
      <trkpt lat="43.75642" lon="3.20459">
        <ele>663.93</ele>
        <time>2014-08-23T11:05:51Z</time>
      </trkpt>
      <trkpt lat="43.75644" lon="3.20484">
        <ele>665.37</ele>
        <time>2014-08-23T11:05:59Z</time>
      </trkpt>
      <trkpt lat="43.75647" lon="3.20504">
        <ele>666.81</ele>
        <time>2014-08-23T11:06:06Z</time>
      </trkpt>
      <trkpt lat="43.75651" lon="3.20525">
        <ele>668.73</ele>
        <time>2014-08-23T11:06:13Z</time>
      </trkpt>
      <trkpt lat="43.7566" lon="3.2055">
        <ele>669.7</ele>
        <time>2014-08-23T11:06:22Z</time>
      </trkpt>
      <trkpt lat="43.75665" lon="3.20576">
        <ele>671.14</ele>
        <time>2014-08-23T11:06:30Z</time>
      </trkpt>
      <trkpt lat="43.75665" lon="3.20587">
        <ele>671.14</ele>
        <time>2014-08-23T11:06:34Z</time>
      </trkpt>
      <trkpt lat="43.75666" lon="3.20589">
        <ele>671.62</ele>
        <time>2014-08-23T11:06:35Z</time>
      </trkpt>
      <trkpt lat="43.75667" lon="3.20592">
        <ele>672.1</ele>
        <time>2014-08-23T11:06:36Z</time>
      </trkpt>
      <trkpt lat="43.75668" lon="3.20618">
        <ele>673.54</ele>
        <time>2014-08-23T11:06:43Z</time>
      </trkpt>
      <trkpt lat="43.75668" lon="3.20652">
        <ele>674.02</ele>
        <time>2014-08-23T11:06:53Z</time>
      </trkpt>
      <trkpt lat="43.75669" lon="3.20679">
        <ele>674.98</ele>
        <time>2014-08-23T11:07:01Z</time>
      </trkpt>
      <trkpt lat="43.7567" lon="3.20711">
        <ele>675.94</ele>
        <time>2014-08-23T11:07:11Z</time>
      </trkpt>
      <trkpt lat="43.75671" lon="3.20742">
        <ele>675.94</ele>
        <time>2014-08-23T11:07:20Z</time>
      </trkpt>
      <trkpt lat="43.75671" lon="3.20761">
        <ele>675.94</ele>
        <time>2014-08-23T11:07:26Z</time>
      </trkpt>
      <trkpt lat="43.7567" lon="3.20784">
        <ele>675.94</ele>
        <time>2014-08-23T11:07:32Z</time>
      </trkpt>
      <trkpt lat="43.7567" lon="3.20811">
        <ele>676.91</ele>
        <time>2014-08-23T11:07:38Z</time>
      </trkpt>
      <trkpt lat="43.7567" lon="3.20853">
        <ele>676.91</ele>
        <time>2014-08-23T11:07:46Z</time>
      </trkpt>
      <trkpt lat="43.75667" lon="3.20886">
        <ele>678.83</ele>
        <time>2014-08-23T11:07:53Z</time>
      </trkpt>
      <trkpt lat="43.75666" lon="3.20914">
        <ele>679.31</ele>
        <time>2014-08-23T11:08:00Z</time>
      </trkpt>
      <trkpt lat="43.7567" lon="3.20939">
        <ele>679.79</ele>
        <time>2014-08-23T11:08:06Z</time>
      </trkpt>
      <trkpt lat="43.75677" lon="3.20964">
        <ele>680.27</ele>
        <time>2014-08-23T11:08:13Z</time>
      </trkpt>
      <trkpt lat="43.75681" lon="3.2099">
        <ele>681.23</ele>
        <time>2014-08-23T11:08:20Z</time>
      </trkpt>
      <trkpt lat="43.75688" lon="3.21021">
        <ele>681.71</ele>
        <time>2014-08-23T11:08:28Z</time>
      </trkpt>
      <trkpt lat="43.75696" lon="3.21049">
        <ele>682.67</ele>
        <time>2014-08-23T11:08:36Z</time>
      </trkpt>
      <trkpt lat="43.75707" lon="3.21078">
        <ele>684.12</ele>
        <time>2014-08-23T11:08:45Z</time>
      </trkpt>
      <trkpt lat="43.75714" lon="3.21104">
        <ele>684.12</ele>
        <time>2014-08-23T11:08:52Z</time>
      </trkpt>
      <trkpt lat="43.75717" lon="3.21132">
        <ele>684.12</ele>
        <time>2014-08-23T11:08:58Z</time>
      </trkpt>
      <trkpt lat="43.75724" lon="3.21167">
        <ele>684.12</ele>
        <time>2014-08-23T11:09:06Z</time>
      </trkpt>
      <trkpt lat="43.75723" lon="3.21195">
        <ele>685.56</ele>
        <time>2014-08-23T11:09:13Z</time>
      </trkpt>
      <trkpt lat="43.75709" lon="3.21218">
        <ele>686.04</ele>
        <time>2014-08-23T11:09:20Z</time>
      </trkpt>
      <trkpt lat="43.75692" lon="3.21235">
        <ele>686.52</ele>
        <time>2014-08-23T11:09:26Z</time>
      </trkpt>
      <trkpt lat="43.75673" lon="3.21249">
        <ele>687</ele>
        <time>2014-08-23T11:09:33Z</time>
      </trkpt>
      <trkpt lat="43.75658" lon="3.21261">
        <ele>687</ele>
        <time>2014-08-23T11:09:40Z</time>
      </trkpt>
      <trkpt lat="43.75646" lon="3.21272">
        <ele>688.92</ele>
        <time>2014-08-23T11:09:46Z</time>
      </trkpt>
      <trkpt lat="43.75636" lon="3.21275">
        <ele>691.81</ele>
        <time>2014-08-23T11:09:51Z</time>
      </trkpt>
      <trkpt lat="43.75631" lon="3.21275">
        <ele>692.29</ele>
        <time>2014-08-23T11:09:57Z</time>
      </trkpt>
      <trkpt lat="43.75632" lon="3.21275">
        <ele>690.36</ele>
        <time>2014-08-23T11:10:07Z</time>
      </trkpt>
      <trkpt lat="43.75632" lon="3.21272">
        <ele>688.92</ele>
        <time>2014-08-23T11:10:22Z</time>
      </trkpt>
      <trkpt lat="43.75632" lon="3.21271">
        <ele>688.92</ele>
        <time>2014-08-23T11:10:38Z</time>
      </trkpt>
      <trkpt lat="43.75636" lon="3.21269">
        <ele>688.92</ele>
        <time>2014-08-23T11:10:51Z</time>
      </trkpt>
      <trkpt lat="43.75639" lon="3.21267">
        <ele>688.92</ele>
        <time>2014-08-23T11:11:04Z</time>
      </trkpt>
      <trkpt lat="43.75639" lon="3.2127">
        <ele>688.92</ele>
        <time>2014-08-23T11:11:21Z</time>
      </trkpt>
      <trkpt lat="43.75632" lon="3.21275">
        <ele>688.92</ele>
        <time>2014-08-23T11:11:32Z</time>
      </trkpt>
      <trkpt lat="43.75631" lon="3.21272">
        <ele>688.92</ele>
        <time>2014-08-23T11:11:36Z</time>
      </trkpt>
      <trkpt lat="43.75627" lon="3.21268">
        <ele>688.92</ele>
        <time>2014-08-23T11:11:42Z</time>
      </trkpt>
      <trkpt lat="43.75622" lon="3.21261">
        <ele>688.44</ele>
        <time>2014-08-23T11:11:49Z</time>
      </trkpt>
      <trkpt lat="43.75614" lon="3.21245">
        <ele>687.96</ele>
        <time>2014-08-23T11:11:54Z</time>
      </trkpt>
      <trkpt lat="43.75606" lon="3.21226">
        <ele>686.52</ele>
        <time>2014-08-23T11:12:00Z</time>
      </trkpt>
      <trkpt lat="43.75602" lon="3.21214">
        <ele>686.04</ele>
        <time>2014-08-23T11:12:04Z</time>
      </trkpt>
      <trkpt lat="43.75592" lon="3.2119">
        <ele>683.63</ele>
        <time>2014-08-23T11:12:11Z</time>
      </trkpt>
      <trkpt lat="43.75575" lon="3.21166">
        <ele>681.71</ele>
        <time>2014-08-23T11:12:16Z</time>
      </trkpt>
      <trkpt lat="43.75567" lon="3.21152">
        <ele>681.71</ele>
        <time>2014-08-23T11:12:19Z</time>
      </trkpt>
      <trkpt lat="43.75562" lon="3.21141">
        <ele>680.75</ele>
        <time>2014-08-23T11:12:21Z</time>
      </trkpt>
      <trkpt lat="43.7556" lon="3.21136">
        <ele>680.27</ele>
        <time>2014-08-23T11:12:22Z</time>
      </trkpt>
      <trkpt lat="43.75557" lon="3.21131">
        <ele>680.27</ele>
        <time>2014-08-23T11:12:23Z</time>
      </trkpt>
      <trkpt lat="43.75534" lon="3.21096">
        <ele>678.83</ele>
        <time>2014-08-23T11:12:30Z</time>
      </trkpt>
      <trkpt lat="43.7553" lon="3.2109">
        <ele>678.83</ele>
        <time>2014-08-23T11:12:31Z</time>
      </trkpt>
      <trkpt lat="43.75524" lon="3.21076">
        <ele>678.83</ele>
        <time>2014-08-23T11:12:32Z</time>
      </trkpt>
      <trkpt lat="43.7552" lon="3.21071">
        <ele>678.83</ele>
        <time>2014-08-23T11:12:33Z</time>
      </trkpt>
      <trkpt lat="43.75515" lon="3.21066">
        <ele>678.83</ele>
        <time>2014-08-23T11:12:34Z</time>
      </trkpt>
      <trkpt lat="43.75498" lon="3.21046">
        <ele>677.87</ele>
        <time>2014-08-23T11:12:38Z</time>
      </trkpt>
      <trkpt lat="43.75479" lon="3.21011">
        <ele>676.42</ele>
        <time>2014-08-23T11:12:43Z</time>
      </trkpt>
      <trkpt lat="43.75454" lon="3.20956">
        <ele>674.02</ele>
        <time>2014-08-23T11:12:51Z</time>
      </trkpt>
      <trkpt lat="43.75446" lon="3.20943">
        <ele>673.06</ele>
        <time>2014-08-23T11:12:53Z</time>
      </trkpt>
      <trkpt lat="43.75441" lon="3.20938">
        <ele>673.06</ele>
        <time>2014-08-23T11:12:54Z</time>
      </trkpt>
      <trkpt lat="43.75435" lon="3.20934">
        <ele>672.58</ele>
        <time>2014-08-23T11:12:55Z</time>
      </trkpt>
      <trkpt lat="43.7543" lon="3.2093">
        <ele>671.62</ele>
        <time>2014-08-23T11:12:56Z</time>
      </trkpt>
      <trkpt lat="43.75426" lon="3.20928">
        <ele>671.14</ele>
        <time>2014-08-23T11:12:57Z</time>
      </trkpt>
      <trkpt lat="43.75417" lon="3.20932">
        <ele>671.14</ele>
        <time>2014-08-23T11:12:58Z</time>
      </trkpt>
      <trkpt lat="43.7541" lon="3.20935">
        <ele>670.66</ele>
        <time>2014-08-23T11:12:59Z</time>
      </trkpt>
      <trkpt lat="43.75396" lon="3.20943">
        <ele>669.7</ele>
        <time>2014-08-23T11:13:01Z</time>
      </trkpt>
      <trkpt lat="43.75384" lon="3.20953">
        <ele>669.7</ele>
        <time>2014-08-23T11:13:03Z</time>
      </trkpt>
      <trkpt lat="43.75379" lon="3.20957">
        <ele>669.22</ele>
        <time>2014-08-23T11:13:04Z</time>
      </trkpt>
      <trkpt lat="43.75374" lon="3.20961">
        <ele>669.22</ele>
        <time>2014-08-23T11:13:05Z</time>
      </trkpt>
      <trkpt lat="43.7534" lon="3.2099">
        <ele>667.29</ele>
        <time>2014-08-23T11:13:11Z</time>
      </trkpt>
      <trkpt lat="43.75334" lon="3.20994">
        <ele>666.81</ele>
        <time>2014-08-23T11:13:12Z</time>
      </trkpt>
      <trkpt lat="43.75327" lon="3.20997">
        <ele>666.33</ele>
        <time>2014-08-23T11:13:13Z</time>
      </trkpt>
      <trkpt lat="43.7532" lon="3.20999">
        <ele>665.85</ele>
        <time>2014-08-23T11:13:14Z</time>
      </trkpt>
      <trkpt lat="43.75313" lon="3.20999">
        <ele>665.85</ele>
        <time>2014-08-23T11:13:15Z</time>
      </trkpt>
      <trkpt lat="43.75307" lon="3.20997">
        <ele>665.37</ele>
        <time>2014-08-23T11:13:16Z</time>
      </trkpt>
      <trkpt lat="43.75283" lon="3.20984">
        <ele>666.81</ele>
        <time>2014-08-23T11:13:20Z</time>
      </trkpt>
      <trkpt lat="43.7528" lon="3.2098">
        <ele>666.81</ele>
        <time>2014-08-23T11:13:21Z</time>
      </trkpt>
      <trkpt lat="43.75269" lon="3.20966">
        <ele>666.81</ele>
        <time>2014-08-23T11:13:24Z</time>
      </trkpt>
      <trkpt lat="43.75264" lon="3.20962">
        <ele>665.37</ele>
        <time>2014-08-23T11:13:25Z</time>
      </trkpt>
      <trkpt lat="43.75243" lon="3.20942">
        <ele>662.49</ele>
        <time>2014-08-23T11:13:29Z</time>
      </trkpt>
      <trkpt lat="43.75225" lon="3.20922">
        <ele>660.08</ele>
        <time>2014-08-23T11:13:32Z</time>
      </trkpt>
      <trkpt lat="43.75207" lon="3.20895">
        <ele>658.16</ele>
        <time>2014-08-23T11:13:35Z</time>
      </trkpt>
      <trkpt lat="43.75191" lon="3.20869">
        <ele>654.8</ele>
        <time>2014-08-23T11:13:38Z</time>
      </trkpt>
      <trkpt lat="43.75185" lon="3.2086">
        <ele>653.83</ele>
        <time>2014-08-23T11:13:39Z</time>
      </trkpt>
      <trkpt lat="43.75179" lon="3.20853">
        <ele>653.83</ele>
        <time>2014-08-23T11:13:40Z</time>
      </trkpt>
      <trkpt lat="43.75172" lon="3.20846">
        <ele>653.83</ele>
        <time>2014-08-23T11:13:41Z</time>
      </trkpt>
      <trkpt lat="43.75165" lon="3.20843">
        <ele>654.31</ele>
        <time>2014-08-23T11:13:42Z</time>
      </trkpt>
      <trkpt lat="43.75158" lon="3.20841">
        <ele>653.35</ele>
        <time>2014-08-23T11:13:43Z</time>
      </trkpt>
      <trkpt lat="43.75151" lon="3.20842">
        <ele>652.39</ele>
        <time>2014-08-23T11:13:44Z</time>
      </trkpt>
      <trkpt lat="43.75143" lon="3.20845">
        <ele>651.43</ele>
        <time>2014-08-23T11:13:45Z</time>
      </trkpt>
      <trkpt lat="43.75136" lon="3.20849">
        <ele>651.43</ele>
        <time>2014-08-23T11:13:46Z</time>
      </trkpt>
      <trkpt lat="43.75122" lon="3.20862">
        <ele>649.99</ele>
        <time>2014-08-23T11:13:48Z</time>
      </trkpt>
      <trkpt lat="43.75115" lon="3.20869">
        <ele>649.51</ele>
        <time>2014-08-23T11:13:49Z</time>
      </trkpt>
      <trkpt lat="43.751" lon="3.20882">
        <ele>647.1</ele>
        <time>2014-08-23T11:13:51Z</time>
      </trkpt>
      <trkpt lat="43.75092" lon="3.20887">
        <ele>646.14</ele>
        <time>2014-08-23T11:13:52Z</time>
      </trkpt>
      <trkpt lat="43.75082" lon="3.2089">
        <ele>645.18</ele>
        <time>2014-08-23T11:13:53Z</time>
      </trkpt>
      <trkpt lat="43.75064" lon="3.20896">
        <ele>643.26</ele>
        <time>2014-08-23T11:13:55Z</time>
      </trkpt>
      <trkpt lat="43.75054" lon="3.20897">
        <ele>642.3</ele>
        <time>2014-08-23T11:13:56Z</time>
      </trkpt>
      <trkpt lat="43.75025" lon="3.20896">
        <ele>638.93</ele>
        <time>2014-08-23T11:13:59Z</time>
      </trkpt>
      <trkpt lat="43.75007" lon="3.20893">
        <ele>637.97</ele>
        <time>2014-08-23T11:14:01Z</time>
      </trkpt>
      <trkpt lat="43.7498" lon="3.20881">
        <ele>635.57</ele>
        <time>2014-08-23T11:14:04Z</time>
      </trkpt>
      <trkpt lat="43.74947" lon="3.20862">
        <ele>632.68</ele>
        <time>2014-08-23T11:14:08Z</time>
      </trkpt>
      <trkpt lat="43.74911" lon="3.20829">
        <ele>629.32</ele>
        <time>2014-08-23T11:14:13Z</time>
      </trkpt>
      <trkpt lat="43.74892" lon="3.2081">
        <ele>626.44</ele>
        <time>2014-08-23T11:14:16Z</time>
      </trkpt>
      <trkpt lat="43.74865" lon="3.20786">
        <ele>623.55</ele>
        <time>2014-08-23T11:14:19Z</time>
      </trkpt>
      <trkpt lat="43.7483" lon="3.20764">
        <ele>619.71</ele>
        <time>2014-08-23T11:14:23Z</time>
      </trkpt>
      <trkpt lat="43.74821" lon="3.2076">
        <ele>619.71</ele>
        <time>2014-08-23T11:14:24Z</time>
      </trkpt>
      <trkpt lat="43.74783" lon="3.20743">
        <ele>614.9</ele>
        <time>2014-08-23T11:14:28Z</time>
      </trkpt>
      <trkpt lat="43.74744" lon="3.20731">
        <ele>611.54</ele>
        <time>2014-08-23T11:14:32Z</time>
      </trkpt>
      <trkpt lat="43.74736" lon="3.20728">
        <ele>611.54</ele>
        <time>2014-08-23T11:14:33Z</time>
      </trkpt>
      <trkpt lat="43.74709" lon="3.20718">
        <ele>609.13</ele>
        <time>2014-08-23T11:14:36Z</time>
      </trkpt>
      <trkpt lat="43.74688" lon="3.20705">
        <ele>606.73</ele>
        <time>2014-08-23T11:14:38Z</time>
      </trkpt>
      <trkpt lat="43.7467" lon="3.20691">
        <ele>602.88</ele>
        <time>2014-08-23T11:14:40Z</time>
      </trkpt>
      <trkpt lat="43.74662" lon="3.20683">
        <ele>601.44</ele>
        <time>2014-08-23T11:14:41Z</time>
      </trkpt>
      <trkpt lat="43.74637" lon="3.20655">
        <ele>598.56</ele>
        <time>2014-08-23T11:14:44Z</time>
      </trkpt>
      <trkpt lat="43.74627" lon="3.20642">
        <ele>596.64</ele>
        <time>2014-08-23T11:14:45Z</time>
      </trkpt>
      <trkpt lat="43.74597" lon="3.20598">
        <ele>594.23</ele>
        <time>2014-08-23T11:14:50Z</time>
      </trkpt>
      <trkpt lat="43.74589" lon="3.20592">
        <ele>594.23</ele>
        <time>2014-08-23T11:14:51Z</time>
      </trkpt>
      <trkpt lat="43.74572" lon="3.20585">
        <ele>592.79</ele>
        <time>2014-08-23T11:14:53Z</time>
      </trkpt>
      <trkpt lat="43.74533" lon="3.20584">
        <ele>589.43</ele>
        <time>2014-08-23T11:14:57Z</time>
      </trkpt>
      <trkpt lat="43.74523" lon="3.20585">
        <ele>587.5</ele>
        <time>2014-08-23T11:14:58Z</time>
      </trkpt>
      <trkpt lat="43.74488" lon="3.20588">
        <ele>584.14</ele>
        <time>2014-08-23T11:15:02Z</time>
      </trkpt>
      <trkpt lat="43.74482" lon="3.20587">
        <ele>584.62</ele>
        <time>2014-08-23T11:15:03Z</time>
      </trkpt>
      <trkpt lat="43.74455" lon="3.20581">
        <ele>582.7</ele>
        <time>2014-08-23T11:15:07Z</time>
      </trkpt>
      <trkpt lat="43.74406" lon="3.20581">
        <ele>578.37</ele>
        <time>2014-08-23T11:15:12Z</time>
      </trkpt>
      <trkpt lat="43.74384" lon="3.20576">
        <ele>575.49</ele>
        <time>2014-08-23T11:15:14Z</time>
      </trkpt>
      <trkpt lat="43.74347" lon="3.20568">
        <ele>572.12</ele>
        <time>2014-08-23T11:15:18Z</time>
      </trkpt>
      <trkpt lat="43.74337" lon="3.20566">
        <ele>571.16</ele>
        <time>2014-08-23T11:15:19Z</time>
      </trkpt>
      <trkpt lat="43.74317" lon="3.20556">
        <ele>568.76</ele>
        <time>2014-08-23T11:15:21Z</time>
      </trkpt>
      <trkpt lat="43.74307" lon="3.2055">
        <ele>566.83</ele>
        <time>2014-08-23T11:15:22Z</time>
      </trkpt>
      <trkpt lat="43.74298" lon="3.20543">
        <ele>565.87</ele>
        <time>2014-08-23T11:15:23Z</time>
      </trkpt>
      <trkpt lat="43.7429" lon="3.20535">
        <ele>565.39</ele>
        <time>2014-08-23T11:15:24Z</time>
      </trkpt>
      <trkpt lat="43.74282" lon="3.20525">
        <ele>564.91</ele>
        <time>2014-08-23T11:15:25Z</time>
      </trkpt>
      <trkpt lat="43.74267" lon="3.20504">
        <ele>562.99</ele>
        <time>2014-08-23T11:15:27Z</time>
      </trkpt>
      <trkpt lat="43.74245" lon="3.2047">
        <ele>559.62</ele>
        <time>2014-08-23T11:15:30Z</time>
      </trkpt>
      <trkpt lat="43.74229" lon="3.20449">
        <ele>558.66</ele>
        <time>2014-08-23T11:15:32Z</time>
      </trkpt>
      <trkpt lat="43.74196" lon="3.20407">
        <ele>554.82</ele>
        <time>2014-08-23T11:15:36Z</time>
      </trkpt>
      <trkpt lat="43.74155" lon="3.20356">
        <ele>551.45</ele>
        <time>2014-08-23T11:15:41Z</time>
      </trkpt>
      <trkpt lat="43.74147" lon="3.20348">
        <ele>551.45</ele>
        <time>2014-08-23T11:15:42Z</time>
      </trkpt>
      <trkpt lat="43.7414" lon="3.20343">
        <ele>551.45</ele>
        <time>2014-08-23T11:15:43Z</time>
      </trkpt>
      <trkpt lat="43.74132" lon="3.20339">
        <ele>550.49</ele>
        <time>2014-08-23T11:15:44Z</time>
      </trkpt>
      <trkpt lat="43.74124" lon="3.20336">
        <ele>550.97</ele>
        <time>2014-08-23T11:15:45Z</time>
      </trkpt>
      <trkpt lat="43.74116" lon="3.20335">
        <ele>549.53</ele>
        <time>2014-08-23T11:15:46Z</time>
      </trkpt>
      <trkpt lat="43.74077" lon="3.20335">
        <ele>546.17</ele>
        <time>2014-08-23T11:15:51Z</time>
      </trkpt>
      <trkpt lat="43.74035" lon="3.20326">
        <ele>542.32</ele>
        <time>2014-08-23T11:15:56Z</time>
      </trkpt>
      <trkpt lat="43.74006" lon="3.20321">
        <ele>539.44</ele>
        <time>2014-08-23T11:15:59Z</time>
      </trkpt>
      <trkpt lat="43.73957" lon="3.20323">
        <ele>536.07</ele>
        <time>2014-08-23T11:16:04Z</time>
      </trkpt>
      <trkpt lat="43.73947" lon="3.20324">
        <ele>535.59</ele>
        <time>2014-08-23T11:16:05Z</time>
      </trkpt>
      <trkpt lat="43.73917" lon="3.20329">
        <ele>532.23</ele>
        <time>2014-08-23T11:16:08Z</time>
      </trkpt>
      <trkpt lat="43.73876" lon="3.2034">
        <ele>529.82</ele>
        <time>2014-08-23T11:16:12Z</time>
      </trkpt>
      <trkpt lat="43.73839" lon="3.20361">
        <ele>525.5</ele>
        <time>2014-08-23T11:16:16Z</time>
      </trkpt>
      <trkpt lat="43.73805" lon="3.20391">
        <ele>522.13</ele>
        <time>2014-08-23T11:16:20Z</time>
      </trkpt>
      <trkpt lat="43.73795" lon="3.20402">
        <ele>520.69</ele>
        <time>2014-08-23T11:16:21Z</time>
      </trkpt>
      <trkpt lat="43.73789" lon="3.20411">
        <ele>520.21</ele>
        <time>2014-08-23T11:16:22Z</time>
      </trkpt>
      <trkpt lat="43.73784" lon="3.20421">
        <ele>519.73</ele>
        <time>2014-08-23T11:16:23Z</time>
      </trkpt>
      <trkpt lat="43.73778" lon="3.20439">
        <ele>518.77</ele>
        <time>2014-08-23T11:16:25Z</time>
      </trkpt>
      <trkpt lat="43.73777" lon="3.20447">
        <ele>518.29</ele>
        <time>2014-08-23T11:16:26Z</time>
      </trkpt>
      <trkpt lat="43.73779" lon="3.20475">
        <ele>516.85</ele>
        <time>2014-08-23T11:16:31Z</time>
      </trkpt>
      <trkpt lat="43.73781" lon="3.2048">
        <ele>516.85</ele>
        <time>2014-08-23T11:16:32Z</time>
      </trkpt>
      <trkpt lat="43.73782" lon="3.20486">
        <ele>515.88</ele>
        <time>2014-08-23T11:16:33Z</time>
      </trkpt>
      <trkpt lat="43.73783" lon="3.205">
        <ele>515.4</ele>
        <time>2014-08-23T11:16:35Z</time>
      </trkpt>
      <trkpt lat="43.73784" lon="3.20508">
        <ele>514.92</ele>
        <time>2014-08-23T11:16:36Z</time>
      </trkpt>
      <trkpt lat="43.73785" lon="3.20517">
        <ele>513.96</ele>
        <time>2014-08-23T11:16:37Z</time>
      </trkpt>
      <trkpt lat="43.73788" lon="3.20554">
        <ele>512.52</ele>
        <time>2014-08-23T11:16:41Z</time>
      </trkpt>
      <trkpt lat="43.73789" lon="3.20564">
        <ele>511.08</ele>
        <time>2014-08-23T11:16:42Z</time>
      </trkpt>
      <trkpt lat="43.73791" lon="3.20574">
        <ele>509.64</ele>
        <time>2014-08-23T11:16:43Z</time>
      </trkpt>
      <trkpt lat="43.73793" lon="3.20584">
        <ele>509.64</ele>
        <time>2014-08-23T11:16:44Z</time>
      </trkpt>
      <trkpt lat="43.73807" lon="3.20657">
        <ele>506.75</ele>
        <time>2014-08-23T11:16:51Z</time>
      </trkpt>
      <trkpt lat="43.73817" lon="3.20706">
        <ele>503.87</ele>
        <time>2014-08-23T11:16:56Z</time>
      </trkpt>
      <trkpt lat="43.73824" lon="3.2072">
        <ele>502.43</ele>
        <time>2014-08-23T11:16:58Z</time>
      </trkpt>
      <trkpt lat="43.73829" lon="3.20725">
        <ele>502.43</ele>
        <time>2014-08-23T11:16:59Z</time>
      </trkpt>
      <trkpt lat="43.73836" lon="3.20728">
        <ele>500.5</ele>
        <time>2014-08-23T11:17:00Z</time>
      </trkpt>
      <trkpt lat="43.73841" lon="3.20732">
        <ele>500.5</ele>
        <time>2014-08-23T11:17:01Z</time>
      </trkpt>
      <trkpt lat="43.73863" lon="3.20743">
        <ele>498.58</ele>
        <time>2014-08-23T11:17:04Z</time>
      </trkpt>
      <trkpt lat="43.7387" lon="3.20746">
        <ele>498.58</ele>
        <time>2014-08-23T11:17:05Z</time>
      </trkpt>
      <trkpt lat="43.73884" lon="3.20754">
        <ele>496.66</ele>
        <time>2014-08-23T11:17:07Z</time>
      </trkpt>
      <trkpt lat="43.73913" lon="3.20768">
        <ele>493.29</ele>
        <time>2014-08-23T11:17:11Z</time>
      </trkpt>
      <trkpt lat="43.73926" lon="3.20772">
        <ele>491.85</ele>
        <time>2014-08-23T11:17:12Z</time>
      </trkpt>
      <trkpt lat="43.73952" lon="3.20784">
        <ele>489.45</ele>
        <time>2014-08-23T11:17:15Z</time>
      </trkpt>
      <trkpt lat="43.73958" lon="3.20792">
        <ele>488.97</ele>
        <time>2014-08-23T11:17:16Z</time>
      </trkpt>
      <trkpt lat="43.73964" lon="3.208">
        <ele>488.97</ele>
        <time>2014-08-23T11:17:17Z</time>
      </trkpt>
      <trkpt lat="43.73976" lon="3.20831">
        <ele>487.53</ele>
        <time>2014-08-23T11:17:20Z</time>
      </trkpt>
      <trkpt lat="43.73982" lon="3.2084">
        <ele>486.08</ele>
        <time>2014-08-23T11:17:21Z</time>
      </trkpt>
      <trkpt lat="43.73988" lon="3.20848">
        <ele>486.08</ele>
        <time>2014-08-23T11:17:22Z</time>
      </trkpt>
      <trkpt lat="43.73995" lon="3.20855">
        <ele>485.12</ele>
        <time>2014-08-23T11:17:23Z</time>
      </trkpt>
      <trkpt lat="43.74027" lon="3.2088">
        <ele>480.8</ele>
        <time>2014-08-23T11:17:27Z</time>
      </trkpt>
      <trkpt lat="43.74036" lon="3.20886">
        <ele>479.84</ele>
        <time>2014-08-23T11:17:28Z</time>
      </trkpt>
      <trkpt lat="43.74074" lon="3.20906">
        <ele>476.47</ele>
        <time>2014-08-23T11:17:32Z</time>
      </trkpt>
      <trkpt lat="43.74092" lon="3.20919">
        <ele>474.55</ele>
        <time>2014-08-23T11:17:34Z</time>
      </trkpt>
      <trkpt lat="43.74126" lon="3.20942">
        <ele>471.66</ele>
        <time>2014-08-23T11:17:38Z</time>
      </trkpt>
      <trkpt lat="43.74151" lon="3.20944">
        <ele>469.74</ele>
        <time>2014-08-23T11:17:41Z</time>
      </trkpt>
      <trkpt lat="43.7416" lon="3.20942">
        <ele>468.78</ele>
        <time>2014-08-23T11:17:42Z</time>
      </trkpt>
      <trkpt lat="43.74168" lon="3.20942">
        <ele>468.3</ele>
        <time>2014-08-23T11:17:43Z</time>
      </trkpt>
      <trkpt lat="43.74176" lon="3.20945">
        <ele>467.34</ele>
        <time>2014-08-23T11:17:44Z</time>
      </trkpt>
      <trkpt lat="43.74185" lon="3.20948">
        <ele>465.9</ele>
        <time>2014-08-23T11:17:45Z</time>
      </trkpt>
      <trkpt lat="43.74192" lon="3.20954">
        <ele>464.93</ele>
        <time>2014-08-23T11:17:46Z</time>
      </trkpt>
      <trkpt lat="43.74199" lon="3.20961">
        <ele>463.49</ele>
        <time>2014-08-23T11:17:47Z</time>
      </trkpt>
      <trkpt lat="43.74205" lon="3.2097">
        <ele>463.49</ele>
        <time>2014-08-23T11:17:48Z</time>
      </trkpt>
      <trkpt lat="43.7422" lon="3.21003">
        <ele>460.61</ele>
        <time>2014-08-23T11:17:51Z</time>
      </trkpt>
      <trkpt lat="43.74229" lon="3.21025">
        <ele>459.65</ele>
        <time>2014-08-23T11:17:53Z</time>
      </trkpt>
      <trkpt lat="43.7424" lon="3.21042">
        <ele>458.69</ele>
        <time>2014-08-23T11:17:55Z</time>
      </trkpt>
      <trkpt lat="43.74276" lon="3.2104">
        <ele>457.24</ele>
        <time>2014-08-23T11:17:57Z</time>
      </trkpt>
      <trkpt lat="43.74307" lon="3.21054">
        <ele>453.4</ele>
        <time>2014-08-23T11:18:01Z</time>
      </trkpt>
      <trkpt lat="43.74328" lon="3.21077">
        <ele>450.52</ele>
        <time>2014-08-23T11:18:04Z</time>
      </trkpt>
      <trkpt lat="43.74336" lon="3.21083">
        <ele>450.03</ele>
        <time>2014-08-23T11:18:05Z</time>
      </trkpt>
      <trkpt lat="43.74344" lon="3.21088">
        <ele>450.03</ele>
        <time>2014-08-23T11:18:06Z</time>
      </trkpt>
      <trkpt lat="43.74384" lon="3.21096">
        <ele>447.63</ele>
        <time>2014-08-23T11:18:11Z</time>
      </trkpt>
      <trkpt lat="43.74391" lon="3.21091">
        <ele>447.63</ele>
        <time>2014-08-23T11:18:12Z</time>
      </trkpt>
      <trkpt lat="43.74397" lon="3.21089">
        <ele>447.63</ele>
        <time>2014-08-23T11:18:13Z</time>
      </trkpt>
      <trkpt lat="43.74403" lon="3.21091">
        <ele>447.15</ele>
        <time>2014-08-23T11:18:14Z</time>
      </trkpt>
      <trkpt lat="43.74409" lon="3.21095">
        <ele>447.15</ele>
        <time>2014-08-23T11:18:15Z</time>
      </trkpt>
      <trkpt lat="43.74413" lon="3.21098">
        <ele>447.15</ele>
        <time>2014-08-23T11:18:16Z</time>
      </trkpt>
      <trkpt lat="43.74416" lon="3.21099">
        <ele>447.15</ele>
        <time>2014-08-23T11:18:17Z</time>
      </trkpt>
      <trkpt lat="43.74416" lon="3.21098">
        <ele>447.15</ele>
        <time>2014-08-23T11:18:22Z</time>
      </trkpt>
      <trkpt lat="43.74415" lon="3.21096">
        <ele>447.15</ele>
        <time>2014-08-23T11:18:33Z</time>
      </trkpt>
      <trkpt lat="43.74417" lon="3.21098">
        <ele>447.15</ele>
        <time>2014-08-23T11:18:45Z</time>
      </trkpt>
      <trkpt lat="43.74422" lon="3.21107">
        <ele>447.15</ele>
        <time>2014-08-23T11:18:50Z</time>
      </trkpt>
      <trkpt lat="43.74422" lon="3.2111">
        <ele>447.15</ele>
        <time>2014-08-23T11:18:51Z</time>
      </trkpt>
      <trkpt lat="43.74423" lon="3.21113">
        <ele>447.15</ele>
        <time>2014-08-23T11:18:52Z</time>
      </trkpt>
      <trkpt lat="43.74424" lon="3.21117">
        <ele>447.15</ele>
        <time>2014-08-23T11:18:53Z</time>
      </trkpt>
      <trkpt lat="43.74425" lon="3.21122">
        <ele>446.67</ele>
        <time>2014-08-23T11:18:54Z</time>
      </trkpt>
      <trkpt lat="43.74425" lon="3.21127">
        <ele>446.67</ele>
        <time>2014-08-23T11:18:55Z</time>
      </trkpt>
      <trkpt lat="43.74429" lon="3.21157">
        <ele>446.67</ele>
        <time>2014-08-23T11:19:02Z</time>
      </trkpt>
      <trkpt lat="43.74438" lon="3.21184">
        <ele>446.19</ele>
        <time>2014-08-23T11:19:09Z</time>
      </trkpt>
      <trkpt lat="43.74456" lon="3.21206">
        <ele>445.71</ele>
        <time>2014-08-23T11:19:16Z</time>
      </trkpt>
      <trkpt lat="43.74486" lon="3.21221">
        <ele>444.27</ele>
        <time>2014-08-23T11:19:24Z</time>
      </trkpt>
      <trkpt lat="43.74517" lon="3.21228">
        <ele>443.79</ele>
        <time>2014-08-23T11:19:32Z</time>
      </trkpt>
      <trkpt lat="43.74548" lon="3.21234">
        <ele>443.79</ele>
        <time>2014-08-23T11:19:40Z</time>
      </trkpt>
      <trkpt lat="43.74568" lon="3.21239">
        <ele>443.79</ele>
        <time>2014-08-23T11:19:45Z</time>
      </trkpt>
      <trkpt lat="43.74581" lon="3.21243">
        <ele>443.31</ele>
        <time>2014-08-23T11:19:48Z</time>
      </trkpt>
      <trkpt lat="43.74598" lon="3.21245">
        <ele>443.31</ele>
        <time>2014-08-23T11:19:52Z</time>
      </trkpt>
      <trkpt lat="43.74603" lon="3.21244">
        <ele>443.31</ele>
        <time>2014-08-23T11:19:53Z</time>
      </trkpt>
      <trkpt lat="43.74607" lon="3.21243">
        <ele>443.31</ele>
        <time>2014-08-23T11:19:54Z</time>
      </trkpt>
      <trkpt lat="43.74619" lon="3.21239">
        <ele>443.31</ele>
        <time>2014-08-23T11:19:57Z</time>
      </trkpt>
      <trkpt lat="43.74623" lon="3.21236">
        <ele>443.31</ele>
        <time>2014-08-23T11:19:58Z</time>
      </trkpt>
      <trkpt lat="43.74627" lon="3.21233">
        <ele>443.31</ele>
        <time>2014-08-23T11:19:59Z</time>
      </trkpt>
      <trkpt lat="43.74655" lon="3.21207">
        <ele>442.82</ele>
        <time>2014-08-23T11:20:07Z</time>
      </trkpt>
      <trkpt lat="43.74661" lon="3.21202">
        <ele>442.82</ele>
        <time>2014-08-23T11:20:09Z</time>
      </trkpt>
      <trkpt lat="43.74666" lon="3.21202">
        <ele>442.34</ele>
        <time>2014-08-23T11:20:10Z</time>
      </trkpt>
      <trkpt lat="43.7467" lon="3.21204">
        <ele>442.34</ele>
        <time>2014-08-23T11:20:11Z</time>
      </trkpt>
      <trkpt lat="43.74674" lon="3.21206">
        <ele>442.34</ele>
        <time>2014-08-23T11:20:12Z</time>
      </trkpt>
      <trkpt lat="43.74699" lon="3.2123">
        <ele>442.34</ele>
        <time>2014-08-23T11:20:20Z</time>
      </trkpt>
      <trkpt lat="43.74718" lon="3.21239">
        <ele>442.34</ele>
        <time>2014-08-23T11:20:25Z</time>
      </trkpt>
      <trkpt lat="43.74726" lon="3.21241">
        <ele>442.34</ele>
        <time>2014-08-23T11:20:27Z</time>
      </trkpt>
      <trkpt lat="43.7475" lon="3.21241">
        <ele>442.34</ele>
        <time>2014-08-23T11:20:33Z</time>
      </trkpt>
      <trkpt lat="43.74754" lon="3.21242">
        <ele>442.34</ele>
        <time>2014-08-23T11:20:34Z</time>
      </trkpt>
      <trkpt lat="43.74758" lon="3.21244">
        <ele>442.34</ele>
        <time>2014-08-23T11:20:35Z</time>
      </trkpt>
      <trkpt lat="43.74761" lon="3.21247">
        <ele>442.34</ele>
        <time>2014-08-23T11:20:36Z</time>
      </trkpt>
      <trkpt lat="43.74764" lon="3.21251">
        <ele>442.34</ele>
        <time>2014-08-23T11:20:37Z</time>
      </trkpt>
      <trkpt lat="43.74767" lon="3.21255">
        <ele>442.34</ele>
        <time>2014-08-23T11:20:38Z</time>
      </trkpt>
      <trkpt lat="43.74769" lon="3.2126">
        <ele>442.34</ele>
        <time>2014-08-23T11:20:39Z</time>
      </trkpt>
      <trkpt lat="43.74772" lon="3.21264">
        <ele>442.34</ele>
        <time>2014-08-23T11:20:40Z</time>
      </trkpt>
      <trkpt lat="43.74788" lon="3.21288">
        <ele>442.34</ele>
        <time>2014-08-23T11:20:46Z</time>
      </trkpt>
      <trkpt lat="43.74813" lon="3.2132">
        <ele>442.34</ele>
        <time>2014-08-23T11:20:55Z</time>
      </trkpt>
      <trkpt lat="43.7484" lon="3.21359">
        <ele>440.9</ele>
        <time>2014-08-23T11:21:05Z</time>
      </trkpt>
      <trkpt lat="43.74849" lon="3.21382">
        <ele>440.9</ele>
        <time>2014-08-23T11:21:12Z</time>
      </trkpt>
      <trkpt lat="43.74852" lon="3.21393">
        <ele>440.9</ele>
        <time>2014-08-23T11:21:16Z</time>
      </trkpt>
      <trkpt lat="43.74853" lon="3.21395">
        <ele>440.9</ele>
        <time>2014-08-23T11:21:17Z</time>
      </trkpt>
      <trkpt lat="43.74858" lon="3.21414">
        <ele>440.9</ele>
        <time>2014-08-23T11:21:23Z</time>
      </trkpt>
      <trkpt lat="43.74861" lon="3.21424">
        <ele>440.9</ele>
        <time>2014-08-23T11:21:30Z</time>
      </trkpt>
      <trkpt lat="43.74862" lon="3.21427">
        <ele>440.9</ele>
        <time>2014-08-23T11:21:44Z</time>
      </trkpt>
      <trkpt lat="43.74861" lon="3.21427">
        <ele>441.38</ele>
        <time>2014-08-23T11:21:57Z</time>
      </trkpt>
      <trkpt lat="43.7486" lon="3.21427">
        <ele>441.38</ele>
        <time>2014-08-23T11:22:11Z</time>
      </trkpt>
      <trkpt lat="43.74861" lon="3.21425">
        <ele>440.9</ele>
        <time>2014-08-23T11:22:23Z</time>
      </trkpt>
      <trkpt lat="43.74861" lon="3.21425">
        <ele>440.9</ele>
        <time>2014-08-23T11:22:36Z</time>
      </trkpt>
      <trkpt lat="43.74865" lon="3.21426">
        <ele>440.9</ele>
        <time>2014-08-23T11:22:50Z</time>
      </trkpt>
      <trkpt lat="43.74861" lon="3.21429">
        <ele>440.9</ele>
        <time>2014-08-23T11:23:06Z</time>
      </trkpt>
      <trkpt lat="43.74861" lon="3.21429">
        <ele>440.9</ele>
        <time>2014-08-23T11:23:20Z</time>
      </trkpt>
      <trkpt lat="43.74862" lon="3.21424">
        <ele>440.9</ele>
        <time>2014-08-23T11:23:33Z</time>
      </trkpt>
      <trkpt lat="43.74862" lon="3.21425">
        <ele>440.42</ele>
        <time>2014-08-23T11:23:51Z</time>
      </trkpt>
      <trkpt lat="43.74863" lon="3.21425">
        <ele>440.42</ele>
        <time>2014-08-23T11:24:02Z</time>
      </trkpt>
      <trkpt lat="43.74862" lon="3.21425">
        <ele>440.42</ele>
        <time>2014-08-23T11:24:21Z</time>
      </trkpt>
      <trkpt lat="43.74859" lon="3.21423">
        <ele>440.42</ele>
        <time>2014-08-23T11:24:43Z</time>
      </trkpt>
      <trkpt lat="43.7486" lon="3.2142">
        <ele>439.94</ele>
        <time>2014-08-23T11:25:02Z</time>
      </trkpt>
      <trkpt lat="43.74861" lon="3.21422">
        <ele>439.94</ele>
        <time>2014-08-23T11:25:15Z</time>
      </trkpt>
      <trkpt lat="43.74862" lon="3.21422">
        <ele>439.94</ele>
        <time>2014-08-23T11:25:27Z</time>
      </trkpt>
      <trkpt lat="43.74862" lon="3.21424">
        <ele>439.94</ele>
        <time>2014-08-23T11:25:41Z</time>
      </trkpt>
      <trkpt lat="43.74864" lon="3.21427">
        <ele>439.46</ele>
        <time>2014-08-23T11:25:50Z</time>
      </trkpt>
      <trkpt lat="43.74871" lon="3.21445">
        <ele>438.5</ele>
        <time>2014-08-23T11:25:57Z</time>
      </trkpt>
      <trkpt lat="43.74877" lon="3.21468">
        <ele>438.5</ele>
        <time>2014-08-23T11:26:03Z</time>
      </trkpt>
      <trkpt lat="43.74882" lon="3.21503">
        <ele>437.06</ele>
        <time>2014-08-23T11:26:11Z</time>
      </trkpt>
      <trkpt lat="43.74888" lon="3.2153">
        <ele>436.58</ele>
        <time>2014-08-23T11:26:16Z</time>
      </trkpt>
      <trkpt lat="43.74891" lon="3.21541">
        <ele>436.1</ele>
        <time>2014-08-23T11:26:18Z</time>
      </trkpt>
      <trkpt lat="43.74893" lon="3.21547">
        <ele>436.1</ele>
        <time>2014-08-23T11:26:19Z</time>
      </trkpt>
      <trkpt lat="43.749" lon="3.21577">
        <ele>434.65</ele>
        <time>2014-08-23T11:26:25Z</time>
      </trkpt>
      <trkpt lat="43.74906" lon="3.21596">
        <ele>433.69</ele>
        <time>2014-08-23T11:26:31Z</time>
      </trkpt>
      <trkpt lat="43.74918" lon="3.21626">
        <ele>432.25</ele>
        <time>2014-08-23T11:26:39Z</time>
      </trkpt>
      <trkpt lat="43.7493" lon="3.21645">
        <ele>431.77</ele>
        <time>2014-08-23T11:26:44Z</time>
      </trkpt>
      <trkpt lat="43.74935" lon="3.21655">
        <ele>431.29</ele>
        <time>2014-08-23T11:26:46Z</time>
      </trkpt>
      <trkpt lat="43.74941" lon="3.21665">
        <ele>430.33</ele>
        <time>2014-08-23T11:26:48Z</time>
      </trkpt>
      <trkpt lat="43.74947" lon="3.21674">
        <ele>429.85</ele>
        <time>2014-08-23T11:26:50Z</time>
      </trkpt>
      <trkpt lat="43.74949" lon="3.2168">
        <ele>429.85</ele>
        <time>2014-08-23T11:26:51Z</time>
      </trkpt>
      <trkpt lat="43.74952" lon="3.21686">
        <ele>428.89</ele>
        <time>2014-08-23T11:26:52Z</time>
      </trkpt>
      <trkpt lat="43.74958" lon="3.21697">
        <ele>428.4</ele>
        <time>2014-08-23T11:26:54Z</time>
      </trkpt>
      <trkpt lat="43.7496" lon="3.21702">
        <ele>427.92</ele>
        <time>2014-08-23T11:26:55Z</time>
      </trkpt>
      <trkpt lat="43.74963" lon="3.21712">
        <ele>427.92</ele>
        <time>2014-08-23T11:26:58Z</time>
      </trkpt>
      <trkpt lat="43.74964" lon="3.21721">
        <ele>427.92</ele>
        <time>2014-08-23T11:27:03Z</time>
      </trkpt>
      <trkpt lat="43.74962" lon="3.21724">
        <ele>427.92</ele>
        <time>2014-08-23T11:27:11Z</time>
      </trkpt>
      <trkpt lat="43.74964" lon="3.21726">
        <ele>428.4</ele>
        <time>2014-08-23T11:27:18Z</time>
      </trkpt>
      <trkpt lat="43.74966" lon="3.21728">
        <ele>428.4</ele>
        <time>2014-08-23T11:27:26Z</time>
      </trkpt>
      <trkpt lat="43.74965" lon="3.2173">
        <ele>428.89</ele>
        <time>2014-08-23T11:27:33Z</time>
      </trkpt>
      <trkpt lat="43.74964" lon="3.21734">
        <ele>428.89</ele>
        <time>2014-08-23T11:27:41Z</time>
      </trkpt>
      <trkpt lat="43.74965" lon="3.21736">
        <ele>429.37</ele>
        <time>2014-08-23T11:27:54Z</time>
      </trkpt>
      <trkpt lat="43.74965" lon="3.21735">
        <ele>429.85</ele>
        <time>2014-08-23T11:28:07Z</time>
      </trkpt>
      <trkpt lat="43.74965" lon="3.21737">
        <ele>432.25</ele>
        <time>2014-08-23T11:28:25Z</time>
      </trkpt>
      <trkpt lat="43.74965" lon="3.21737">
        <ele>432.25</ele>
        <time>2014-08-23T11:28:26Z</time>
      </trkpt>
      <trkpt lat="43.74964" lon="3.21736">
        <ele>432.73</ele>
        <time>2014-08-23T11:28:41Z</time>
      </trkpt>
      <trkpt lat="43.74966" lon="3.21735">
        <ele>433.21</ele>
        <time>2014-08-23T11:28:53Z</time>
      </trkpt>
      <trkpt lat="43.74968" lon="3.21732">
        <ele>433.69</ele>
        <time>2014-08-23T11:29:11Z</time>
      </trkpt>
      <trkpt lat="43.74965" lon="3.21733">
        <ele>434.17</ele>
        <time>2014-08-23T11:29:26Z</time>
      </trkpt>
      <trkpt lat="43.74968" lon="3.21732">
        <ele>434.65</ele>
        <time>2014-08-23T11:29:41Z</time>
      </trkpt>
      <trkpt lat="43.7497" lon="3.21731">
        <ele>435.13</ele>
        <time>2014-08-23T11:29:54Z</time>
      </trkpt>
      <trkpt lat="43.74967" lon="3.21727">
        <ele>435.61</ele>
        <time>2014-08-23T11:30:09Z</time>
      </trkpt>
      <trkpt lat="43.74962" lon="3.21723">
        <ele>435.61</ele>
        <time>2014-08-23T11:30:24Z</time>
      </trkpt>
      <trkpt lat="43.74964" lon="3.21719">
        <ele>436.1</ele>
        <time>2014-08-23T11:30:41Z</time>
      </trkpt>
      <trkpt lat="43.74966" lon="3.2172">
        <ele>436.58</ele>
        <time>2014-08-23T11:30:57Z</time>
      </trkpt>
      <trkpt lat="43.74965" lon="3.21734">
        <ele>437.06</ele>
        <time>2014-08-23T11:31:16Z</time>
      </trkpt>
      <trkpt lat="43.74966" lon="3.21728">
        <ele>437.06</ele>
        <time>2014-08-23T11:31:34Z</time>
      </trkpt>
      <trkpt lat="43.74964" lon="3.21734">
        <ele>437.54</ele>
        <time>2014-08-23T11:31:48Z</time>
      </trkpt>
      <trkpt lat="43.74964" lon="3.21736">
        <ele>437.54</ele>
        <time>2014-08-23T11:32:04Z</time>
      </trkpt>
      <trkpt lat="43.74966" lon="3.21733">
        <ele>437.54</ele>
        <time>2014-08-23T11:32:18Z</time>
      </trkpt>
      <trkpt lat="43.74966" lon="3.2174">
        <ele>438.02</ele>
        <time>2014-08-23T11:32:33Z</time>
      </trkpt>
      <trkpt lat="43.74967" lon="3.21739">
        <ele>438.02</ele>
        <time>2014-08-23T11:32:48Z</time>
      </trkpt>
      <trkpt lat="43.74966" lon="3.21742">
        <ele>438.5</ele>
        <time>2014-08-23T11:33:05Z</time>
      </trkpt>
      <trkpt lat="43.74966" lon="3.21748">
        <ele>437.54</ele>
        <time>2014-08-23T11:33:23Z</time>
      </trkpt>
      <trkpt lat="43.74967" lon="3.21746">
        <ele>437.06</ele>
        <time>2014-08-23T11:33:44Z</time>
      </trkpt>
      <trkpt lat="43.74966" lon="3.21741">
        <ele>437.54</ele>
        <time>2014-08-23T11:34:03Z</time>
      </trkpt>
      <trkpt lat="43.74964" lon="3.21744">
        <ele>438.98</ele>
        <time>2014-08-23T11:34:25Z</time>
      </trkpt>
      <trkpt lat="43.74965" lon="3.21749">
        <ele>439.46</ele>
        <time>2014-08-23T11:34:41Z</time>
      </trkpt>
      <trkpt lat="43.74964" lon="3.21761">
        <ele>439.94</ele>
        <time>2014-08-23T11:35:02Z</time>
      </trkpt>
      <trkpt lat="43.74966" lon="3.21751">
        <ele>440.9</ele>
        <time>2014-08-23T11:35:13Z</time>
      </trkpt>
      <trkpt lat="43.74966" lon="3.21748">
        <ele>439.46</ele>
        <time>2014-08-23T11:35:31Z</time>
      </trkpt>
      <trkpt lat="43.74967" lon="3.21744">
        <ele>439.94</ele>
        <time>2014-08-23T11:35:45Z</time>
      </trkpt>
      <trkpt lat="43.74966" lon="3.21737">
        <ele>439.94</ele>
        <time>2014-08-23T11:36:02Z</time>
      </trkpt>
      <trkpt lat="43.74964" lon="3.2174">
        <ele>440.42</ele>
        <time>2014-08-23T11:36:16Z</time>
      </trkpt>
      <trkpt lat="43.74965" lon="3.21739">
        <ele>440.42</ele>
        <time>2014-08-23T11:36:33Z</time>
      </trkpt>
      <trkpt lat="43.74967" lon="3.21736">
        <ele>440.9</ele>
        <time>2014-08-23T11:36:50Z</time>
      </trkpt>
      <trkpt lat="43.7497" lon="3.21734">
        <ele>442.34</ele>
        <time>2014-08-23T11:37:07Z</time>
      </trkpt>
      <trkpt lat="43.74972" lon="3.21737">
        <ele>442.34</ele>
        <time>2014-08-23T11:37:15Z</time>
      </trkpt>
      <trkpt lat="43.74976" lon="3.21733">
        <ele>442.34</ele>
        <time>2014-08-23T11:37:35Z</time>
      </trkpt>
      <trkpt lat="43.74973" lon="3.21729">
        <ele>442.82</ele>
        <time>2014-08-23T11:37:51Z</time>
      </trkpt>
      <trkpt lat="43.74976" lon="3.21727">
        <ele>442.82</ele>
        <time>2014-08-23T11:38:09Z</time>
      </trkpt>
      <trkpt lat="43.74976" lon="3.21724">
        <ele>443.31</ele>
        <time>2014-08-23T11:38:34Z</time>
      </trkpt>
      <trkpt lat="43.74972" lon="3.21725">
        <ele>443.31</ele>
        <time>2014-08-23T11:38:54Z</time>
      </trkpt>
      <trkpt lat="43.74972" lon="3.21722">
        <ele>443.31</ele>
        <time>2014-08-23T11:39:09Z</time>
      </trkpt>
      <trkpt lat="43.7497" lon="3.2173">
        <ele>443.31</ele>
        <time>2014-08-23T11:39:22Z</time>
      </trkpt>
      <trkpt lat="43.74972" lon="3.21726">
        <ele>443.31</ele>
        <time>2014-08-23T11:39:41Z</time>
      </trkpt>
      <trkpt lat="43.74975" lon="3.21729">
        <ele>443.79</ele>
        <time>2014-08-23T11:39:55Z</time>
      </trkpt>
      <trkpt lat="43.74975" lon="3.21733">
        <ele>443.79</ele>
        <time>2014-08-23T11:40:11Z</time>
      </trkpt>
      <trkpt lat="43.74969" lon="3.21735">
        <ele>443.79</ele>
        <time>2014-08-23T11:40:24Z</time>
      </trkpt>
      <trkpt lat="43.7497" lon="3.21729">
        <ele>443.79</ele>
        <time>2014-08-23T11:40:39Z</time>
      </trkpt>
      <trkpt lat="43.74973" lon="3.21723">
        <ele>444.27</ele>
        <time>2014-08-23T11:40:52Z</time>
      </trkpt>
      <trkpt lat="43.74976" lon="3.21724">
        <ele>444.27</ele>
        <time>2014-08-23T11:41:08Z</time>
      </trkpt>
      <trkpt lat="43.74974" lon="3.21735">
        <ele>444.27</ele>
        <time>2014-08-23T11:41:24Z</time>
      </trkpt>
      <trkpt lat="43.74973" lon="3.21731">
        <ele>444.27</ele>
        <time>2014-08-23T11:41:37Z</time>
      </trkpt>
      <trkpt lat="43.74964" lon="3.21737">
        <ele>444.27</ele>
        <time>2014-08-23T11:41:51Z</time>
      </trkpt>
      <trkpt lat="43.74965" lon="3.21735">
        <ele>444.27</ele>
        <time>2014-08-23T11:42:04Z</time>
      </trkpt>
      <trkpt lat="43.74969" lon="3.21734">
        <ele>444.27</ele>
        <time>2014-08-23T11:42:23Z</time>
      </trkpt>
      <trkpt lat="43.74971" lon="3.21741">
        <ele>444.27</ele>
        <time>2014-08-23T11:42:37Z</time>
      </trkpt>
      <trkpt lat="43.74971" lon="3.21741">
        <ele>444.27</ele>
        <time>2014-08-23T11:42:54Z</time>
      </trkpt>
      <trkpt lat="43.74965" lon="3.2176">
        <ele>442.82</ele>
        <time>2014-08-23T11:43:10Z</time>
      </trkpt>
      <trkpt lat="43.74963" lon="3.21756">
        <ele>442.82</ele>
        <time>2014-08-23T11:43:23Z</time>
      </trkpt>
      <trkpt lat="43.7496" lon="3.21754">
        <ele>442.82</ele>
        <time>2014-08-23T11:43:42Z</time>
      </trkpt>
      <trkpt lat="43.74964" lon="3.21745">
        <ele>442.82</ele>
        <time>2014-08-23T11:43:58Z</time>
      </trkpt>
      <trkpt lat="43.74967" lon="3.21741">
        <ele>442.82</ele>
        <time>2014-08-23T11:44:14Z</time>
      </trkpt>
      <trkpt lat="43.74969" lon="3.21739">
        <ele>442.82</ele>
        <time>2014-08-23T11:44:27Z</time>
      </trkpt>
      <trkpt lat="43.74967" lon="3.21747">
        <ele>442.82</ele>
        <time>2014-08-23T11:44:41Z</time>
      </trkpt>
      <trkpt lat="43.74968" lon="3.21746">
        <ele>442.82</ele>
        <time>2014-08-23T11:44:55Z</time>
      </trkpt>
      <trkpt lat="43.74967" lon="3.21747">
        <ele>444.27</ele>
        <time>2014-08-23T11:45:06Z</time>
      </trkpt>
      <trkpt lat="43.74967" lon="3.21747">
        <ele>444.27</ele>
        <time>2014-08-23T11:45:18Z</time>
      </trkpt>
      <trkpt lat="43.74969" lon="3.21746">
        <ele>444.27</ele>
        <time>2014-08-23T11:45:30Z</time>
      </trkpt>
      <trkpt lat="43.74968" lon="3.21744">
        <ele>444.27</ele>
        <time>2014-08-23T11:45:45Z</time>
      </trkpt>
      <trkpt lat="43.74969" lon="3.21742">
        <ele>444.27</ele>
        <time>2014-08-23T11:46:01Z</time>
      </trkpt>
      <trkpt lat="43.74967" lon="3.21745">
        <ele>444.27</ele>
        <time>2014-08-23T11:46:17Z</time>
      </trkpt>
      <trkpt lat="43.74969" lon="3.21734">
        <ele>444.27</ele>
        <time>2014-08-23T11:46:33Z</time>
      </trkpt>
      <trkpt lat="43.74969" lon="3.21732">
        <ele>444.27</ele>
        <time>2014-08-23T11:46:46Z</time>
      </trkpt>
      <trkpt lat="43.74973" lon="3.21726">
        <ele>444.27</ele>
        <time>2014-08-23T11:47:02Z</time>
      </trkpt>
      <trkpt lat="43.74974" lon="3.2173">
        <ele>444.75</ele>
        <time>2014-08-23T11:47:18Z</time>
      </trkpt>
      <trkpt lat="43.74974" lon="3.21729">
        <ele>444.75</ele>
        <time>2014-08-23T11:47:32Z</time>
      </trkpt>
      <trkpt lat="43.74973" lon="3.21737">
        <ele>444.75</ele>
        <time>2014-08-23T11:47:46Z</time>
      </trkpt>
      <trkpt lat="43.74973" lon="3.21736">
        <ele>444.75</ele>
        <time>2014-08-23T11:48:03Z</time>
      </trkpt>
      <trkpt lat="43.74976" lon="3.21732">
        <ele>444.75</ele>
        <time>2014-08-23T11:48:15Z</time>
      </trkpt>
      <trkpt lat="43.74978" lon="3.21732">
        <ele>443.31</ele>
        <time>2014-08-23T11:48:27Z</time>
      </trkpt>
      <trkpt lat="43.74977" lon="3.21732">
        <ele>443.31</ele>
        <time>2014-08-23T11:48:40Z</time>
      </trkpt>
      <trkpt lat="43.74973" lon="3.21738">
        <ele>443.31</ele>
        <time>2014-08-23T11:48:55Z</time>
      </trkpt>
      <trkpt lat="43.74971" lon="3.21739">
        <ele>442.82</ele>
        <time>2014-08-23T11:49:11Z</time>
      </trkpt>
      <trkpt lat="43.74971" lon="3.21741">
        <ele>442.82</ele>
        <time>2014-08-23T11:49:26Z</time>
      </trkpt>
      <trkpt lat="43.74971" lon="3.21738">
        <ele>442.82</ele>
        <time>2014-08-23T11:49:38Z</time>
      </trkpt>
      <trkpt lat="43.7497" lon="3.21737">
        <ele>442.82</ele>
        <time>2014-08-23T11:49:51Z</time>
      </trkpt>
      <trkpt lat="43.74971" lon="3.21733">
        <ele>444.27</ele>
        <time>2014-08-23T11:50:03Z</time>
      </trkpt>
      <trkpt lat="43.74973" lon="3.21736">
        <ele>442.82</ele>
        <time>2014-08-23T11:50:15Z</time>
      </trkpt>
      <trkpt lat="43.74973" lon="3.21736">
        <ele>442.34</ele>
        <time>2014-08-23T11:50:30Z</time>
      </trkpt>
      <trkpt lat="43.74974" lon="3.21732">
        <ele>442.34</ele>
        <time>2014-08-23T11:50:43Z</time>
      </trkpt>
      <trkpt lat="43.74974" lon="3.21734">
        <ele>442.34</ele>
        <time>2014-08-23T11:51:01Z</time>
      </trkpt>
      <trkpt lat="43.74974" lon="3.21735">
        <ele>442.34</ele>
        <time>2014-08-23T11:51:17Z</time>
      </trkpt>
      <trkpt lat="43.74973" lon="3.21734">
        <ele>442.34</ele>
        <time>2014-08-23T11:51:32Z</time>
      </trkpt>
      <trkpt lat="43.74971" lon="3.2174">
        <ele>442.34</ele>
        <time>2014-08-23T11:51:50Z</time>
      </trkpt>
      <trkpt lat="43.74967" lon="3.21744">
        <ele>442.34</ele>
        <time>2014-08-23T11:52:07Z</time>
      </trkpt>
      <trkpt lat="43.74979" lon="3.21719">
        <ele>442.34</ele>
        <time>2014-08-23T11:52:25Z</time>
      </trkpt>
      <trkpt lat="43.74984" lon="3.21713">
        <ele>442.34</ele>
        <time>2014-08-23T11:52:47Z</time>
      </trkpt>
      <trkpt lat="43.74983" lon="3.21704">
        <ele>442.34</ele>
        <time>2014-08-23T11:53:02Z</time>
      </trkpt>
      <trkpt lat="43.74985" lon="3.21702">
        <ele>442.34</ele>
        <time>2014-08-23T11:53:19Z</time>
      </trkpt>
      <trkpt lat="43.74979" lon="3.21708">
        <ele>442.34</ele>
        <time>2014-08-23T11:53:35Z</time>
      </trkpt>
      <trkpt lat="43.74976" lon="3.21713">
        <ele>442.34</ele>
        <time>2014-08-23T11:53:50Z</time>
      </trkpt>
      <trkpt lat="43.74979" lon="3.21719">
        <ele>442.34</ele>
        <time>2014-08-23T11:54:01Z</time>
      </trkpt>
      <trkpt lat="43.74976" lon="3.21721">
        <ele>442.34</ele>
        <time>2014-08-23T11:54:15Z</time>
      </trkpt>
      <trkpt lat="43.74971" lon="3.21727">
        <ele>441.86</ele>
        <time>2014-08-23T11:54:33Z</time>
      </trkpt>
      <trkpt lat="43.74967" lon="3.21733">
        <ele>441.86</ele>
        <time>2014-08-23T11:54:48Z</time>
      </trkpt>
      <trkpt lat="43.74964" lon="3.21736">
        <ele>442.34</ele>
        <time>2014-08-23T11:55:03Z</time>
      </trkpt>
      <trkpt lat="43.74962" lon="3.2174">
        <ele>443.31</ele>
        <time>2014-08-23T11:55:19Z</time>
      </trkpt>
      <trkpt lat="43.74964" lon="3.21739">
        <ele>443.31</ele>
        <time>2014-08-23T11:55:37Z</time>
      </trkpt>
      <trkpt lat="43.74962" lon="3.21742">
        <ele>442.34</ele>
        <time>2014-08-23T11:55:53Z</time>
      </trkpt>
      <trkpt lat="43.74961" lon="3.21741">
        <ele>442.34</ele>
        <time>2014-08-23T11:56:11Z</time>
      </trkpt>
      <trkpt lat="43.74963" lon="3.21741">
        <ele>442.34</ele>
        <time>2014-08-23T11:56:26Z</time>
      </trkpt>
      <trkpt lat="43.74962" lon="3.21741">
        <ele>442.34</ele>
        <time>2014-08-23T11:56:37Z</time>
      </trkpt>
      <trkpt lat="43.74964" lon="3.21744">
        <ele>441.86</ele>
        <time>2014-08-23T11:56:57Z</time>
      </trkpt>
      <trkpt lat="43.74963" lon="3.21735">
        <ele>441.86</ele>
        <time>2014-08-23T11:57:19Z</time>
      </trkpt>
      <trkpt lat="43.74962" lon="3.21727">
        <ele>441.86</ele>
        <time>2014-08-23T11:57:36Z</time>
      </trkpt>
      <trkpt lat="43.74966" lon="3.21728">
        <ele>441.86</ele>
        <time>2014-08-23T11:57:56Z</time>
      </trkpt>
      <trkpt lat="43.74965" lon="3.21727">
        <ele>441.86</ele>
        <time>2014-08-23T11:58:15Z</time>
      </trkpt>
      <trkpt lat="43.74965" lon="3.21727">
        <ele>441.38</ele>
        <time>2014-08-23T11:58:33Z</time>
      </trkpt>
      <trkpt lat="43.74966" lon="3.2173">
        <ele>441.38</ele>
        <time>2014-08-23T11:58:49Z</time>
      </trkpt>
      <trkpt lat="43.74967" lon="3.2173">
        <ele>442.82</ele>
        <time>2014-08-23T11:59:09Z</time>
      </trkpt>
      <trkpt lat="43.74971" lon="3.21732">
        <ele>443.31</ele>
        <time>2014-08-23T11:59:24Z</time>
      </trkpt>
      <trkpt lat="43.74969" lon="3.21731">
        <ele>443.31</ele>
        <time>2014-08-23T11:59:38Z</time>
      </trkpt>
      <trkpt lat="43.74966" lon="3.21728">
        <ele>443.31</ele>
        <time>2014-08-23T11:59:58Z</time>
      </trkpt>
      <trkpt lat="43.74967" lon="3.21721">
        <ele>443.31</ele>
        <time>2014-08-23T12:00:17Z</time>
      </trkpt>
      <trkpt lat="43.74969" lon="3.21725">
        <ele>443.31</ele>
        <time>2014-08-23T12:00:31Z</time>
      </trkpt>
      <trkpt lat="43.74969" lon="3.21728">
        <ele>443.31</ele>
        <time>2014-08-23T12:00:48Z</time>
      </trkpt>
      <trkpt lat="43.74971" lon="3.21732">
        <ele>443.31</ele>
        <time>2014-08-23T12:01:03Z</time>
      </trkpt>
      <trkpt lat="43.74972" lon="3.21737">
        <ele>443.31</ele>
        <time>2014-08-23T12:01:19Z</time>
      </trkpt>
      <trkpt lat="43.74968" lon="3.21738">
        <ele>443.31</ele>
        <time>2014-08-23T12:01:33Z</time>
      </trkpt>
      <trkpt lat="43.74965" lon="3.21743">
        <ele>443.31</ele>
        <time>2014-08-23T12:01:47Z</time>
      </trkpt>
      <trkpt lat="43.7496" lon="3.21749">
        <ele>443.31</ele>
        <time>2014-08-23T12:02:02Z</time>
      </trkpt>
      <trkpt lat="43.74965" lon="3.21738">
        <ele>443.79</ele>
        <time>2014-08-23T12:02:22Z</time>
      </trkpt>
      <trkpt lat="43.74963" lon="3.21736">
        <ele>443.79</ele>
        <time>2014-08-23T12:02:38Z</time>
      </trkpt>
      <trkpt lat="43.74961" lon="3.21744">
        <ele>443.79</ele>
        <time>2014-08-23T12:03:00Z</time>
      </trkpt>
      <trkpt lat="43.74954" lon="3.21752">
        <ele>442.82</ele>
        <time>2014-08-23T12:03:22Z</time>
      </trkpt>
      <trkpt lat="43.74949" lon="3.21757">
        <ele>442.34</ele>
        <time>2014-08-23T12:03:40Z</time>
      </trkpt>
      <trkpt lat="43.74957" lon="3.2175">
        <ele>442.34</ele>
        <time>2014-08-23T12:03:58Z</time>
      </trkpt>
      <trkpt lat="43.74968" lon="3.21756">
        <ele>442.34</ele>
        <time>2014-08-23T12:04:18Z</time>
      </trkpt>
      <trkpt lat="43.74965" lon="3.21737">
        <ele>442.34</ele>
        <time>2014-08-23T12:04:36Z</time>
      </trkpt>
      <trkpt lat="43.74962" lon="3.21732">
        <ele>442.34</ele>
        <time>2014-08-23T12:04:58Z</time>
      </trkpt>
      <trkpt lat="43.74963" lon="3.21732">
        <ele>442.34</ele>
        <time>2014-08-23T12:05:20Z</time>
      </trkpt>
      <trkpt lat="43.74964" lon="3.21733">
        <ele>442.34</ele>
        <time>2014-08-23T12:05:35Z</time>
      </trkpt>
      <trkpt lat="43.74964" lon="3.21731">
        <ele>442.34</ele>
        <time>2014-08-23T12:05:50Z</time>
      </trkpt>
      <trkpt lat="43.74965" lon="3.21734">
        <ele>441.86</ele>
        <time>2014-08-23T12:06:11Z</time>
      </trkpt>
      <trkpt lat="43.74965" lon="3.21735">
        <ele>441.86</ele>
        <time>2014-08-23T12:06:26Z</time>
      </trkpt>
      <trkpt lat="43.74965" lon="3.21737">
        <ele>441.86</ele>
        <time>2014-08-23T12:06:44Z</time>
      </trkpt>
      <trkpt lat="43.74965" lon="3.21738">
        <ele>441.86</ele>
        <time>2014-08-23T12:06:58Z</time>
      </trkpt>
      <trkpt lat="43.74966" lon="3.21736">
        <ele>441.86</ele>
        <time>2014-08-23T12:07:12Z</time>
      </trkpt>
      <trkpt lat="43.74968" lon="3.21735">
        <ele>441.86</ele>
        <time>2014-08-23T12:07:27Z</time>
      </trkpt>
      <trkpt lat="43.74968" lon="3.21735">
        <ele>443.31</ele>
        <time>2014-08-23T12:07:32Z</time>
      </trkpt>
      <trkpt lat="43.74969" lon="3.21733">
        <ele>443.79</ele>
        <time>2014-08-23T12:07:49Z</time>
      </trkpt>
      <trkpt lat="43.74974" lon="3.21743">
        <ele>443.79</ele>
        <time>2014-08-23T12:08:09Z</time>
      </trkpt>
      <trkpt lat="43.74972" lon="3.21738">
        <ele>443.79</ele>
        <time>2014-08-23T12:08:26Z</time>
      </trkpt>
      <trkpt lat="43.7497" lon="3.21736">
        <ele>443.79</ele>
        <time>2014-08-23T12:08:36Z</time>
      </trkpt>
      <trkpt lat="43.74969" lon="3.21737">
        <ele>443.79</ele>
        <time>2014-08-23T12:08:37Z</time>
      </trkpt>
      <trkpt lat="43.74969" lon="3.21735">
        <ele>443.79</ele>
        <time>2014-08-23T12:08:42Z</time>
      </trkpt>
      <trkpt lat="43.74968" lon="3.2173">
        <ele>443.79</ele>
        <time>2014-08-23T12:08:52Z</time>
      </trkpt>
      <trkpt lat="43.74968" lon="3.21732">
        <ele>443.79</ele>
        <time>2014-08-23T12:09:06Z</time>
      </trkpt>
      <trkpt lat="43.74964" lon="3.21725">
        <ele>443.79</ele>
        <time>2014-08-23T12:09:19Z</time>
      </trkpt>
      <trkpt lat="43.74961" lon="3.21726">
        <ele>443.79</ele>
        <time>2014-08-23T12:09:31Z</time>
      </trkpt>
      <trkpt lat="43.74961" lon="3.21727">
        <ele>443.79</ele>
        <time>2014-08-23T12:09:42Z</time>
      </trkpt>
      <trkpt lat="43.74959" lon="3.21725">
        <ele>443.79</ele>
        <time>2014-08-23T12:09:55Z</time>
      </trkpt>
      <trkpt lat="43.74957" lon="3.21728">
        <ele>443.79</ele>
        <time>2014-08-23T12:10:07Z</time>
      </trkpt>
      <trkpt lat="43.74957" lon="3.21727">
        <ele>443.79</ele>
        <time>2014-08-23T12:10:18Z</time>
      </trkpt>
      <trkpt lat="43.74957" lon="3.21728">
        <ele>443.79</ele>
        <time>2014-08-23T12:10:27Z</time>
      </trkpt>
      <trkpt lat="43.74955" lon="3.2173">
        <ele>443.79</ele>
        <time>2014-08-23T12:10:38Z</time>
      </trkpt>
      <trkpt lat="43.74951" lon="3.21732">
        <ele>443.79</ele>
        <time>2014-08-23T12:10:52Z</time>
      </trkpt>
      <trkpt lat="43.74952" lon="3.21732">
        <ele>443.79</ele>
        <time>2014-08-23T12:11:02Z</time>
      </trkpt>
      <trkpt lat="43.74953" lon="3.21736">
        <ele>443.79</ele>
        <time>2014-08-23T12:11:08Z</time>
      </trkpt>
      <trkpt lat="43.74953" lon="3.21738">
        <ele>443.79</ele>
        <time>2014-08-23T12:11:10Z</time>
      </trkpt>
      <trkpt lat="43.7495" lon="3.21744">
        <ele>443.79</ele>
        <time>2014-08-23T12:11:16Z</time>
      </trkpt>
      <trkpt lat="43.74944" lon="3.21748">
        <ele>444.75</ele>
        <time>2014-08-23T12:11:24Z</time>
      </trkpt>
      <trkpt lat="43.74941" lon="3.21748">
        <ele>444.75</ele>
        <time>2014-08-23T12:11:26Z</time>
      </trkpt>
      <trkpt lat="43.74937" lon="3.21747">
        <ele>445.23</ele>
        <time>2014-08-23T12:11:29Z</time>
      </trkpt>
      <trkpt lat="43.74925" lon="3.21743">
        <ele>446.19</ele>
        <time>2014-08-23T12:11:37Z</time>
      </trkpt>
      <trkpt lat="43.74917" lon="3.21741">
        <ele>447.15</ele>
        <time>2014-08-23T12:11:42Z</time>
      </trkpt>
      <trkpt lat="43.74907" lon="3.21738">
        <ele>447.63</ele>
        <time>2014-08-23T12:11:50Z</time>
      </trkpt>
      <trkpt lat="43.74899" lon="3.21738">
        <ele>448.11</ele>
        <time>2014-08-23T12:11:55Z</time>
      </trkpt>
      <trkpt lat="43.74887" lon="3.21735">
        <ele>449.07</ele>
        <time>2014-08-23T12:12:04Z</time>
      </trkpt>
      <trkpt lat="43.74875" lon="3.2173">
        <ele>449.07</ele>
        <time>2014-08-23T12:12:12Z</time>
      </trkpt>
      <trkpt lat="43.74864" lon="3.21723">
        <ele>448.11</ele>
        <time>2014-08-23T12:12:17Z</time>
      </trkpt>
      <trkpt lat="43.7485" lon="3.21696">
        <ele>447.15</ele>
        <time>2014-08-23T12:12:24Z</time>
      </trkpt>
      <trkpt lat="43.74833" lon="3.21653">
        <ele>445.23</ele>
        <time>2014-08-23T12:12:31Z</time>
      </trkpt>
      <trkpt lat="43.74828" lon="3.21641">
        <ele>444.75</ele>
        <time>2014-08-23T12:12:33Z</time>
      </trkpt>
      <trkpt lat="43.7481" lon="3.21588">
        <ele>443.31</ele>
        <time>2014-08-23T12:12:41Z</time>
      </trkpt>
      <trkpt lat="43.74798" lon="3.21557">
        <ele>442.34</ele>
        <time>2014-08-23T12:12:46Z</time>
      </trkpt>
      <trkpt lat="43.74788" lon="3.21545">
        <ele>442.34</ele>
        <time>2014-08-23T12:12:49Z</time>
      </trkpt>
      <trkpt lat="43.74777" lon="3.21534">
        <ele>441.86</ele>
        <time>2014-08-23T12:12:52Z</time>
      </trkpt>
      <trkpt lat="43.74743" lon="3.2151">
        <ele>440.9</ele>
        <time>2014-08-23T12:13:01Z</time>
      </trkpt>
      <trkpt lat="43.74717" lon="3.2149">
        <ele>440.9</ele>
        <time>2014-08-23T12:13:10Z</time>
      </trkpt>
      <trkpt lat="43.74691" lon="3.21477">
        <ele>440.42</ele>
        <time>2014-08-23T12:13:17Z</time>
      </trkpt>
      <trkpt lat="43.74658" lon="3.21472">
        <ele>438.02</ele>
        <time>2014-08-23T12:13:25Z</time>
      </trkpt>
      <trkpt lat="43.74638" lon="3.21474">
        <ele>437.54</ele>
        <time>2014-08-23T12:13:29Z</time>
      </trkpt>
      <trkpt lat="43.74632" lon="3.21472">
        <ele>436.58</ele>
        <time>2014-08-23T12:13:30Z</time>
      </trkpt>
      <trkpt lat="43.74608" lon="3.21463">
        <ele>435.61</ele>
        <time>2014-08-23T12:13:35Z</time>
      </trkpt>
      <trkpt lat="43.74584" lon="3.21459">
        <ele>434.17</ele>
        <time>2014-08-23T12:13:39Z</time>
      </trkpt>
      <trkpt lat="43.74578" lon="3.21458">
        <ele>434.17</ele>
        <time>2014-08-23T12:13:40Z</time>
      </trkpt>
      <trkpt lat="43.74553" lon="3.21452">
        <ele>430.33</ele>
        <time>2014-08-23T12:13:44Z</time>
      </trkpt>
      <trkpt lat="43.74547" lon="3.2145">
        <ele>430.33</ele>
        <time>2014-08-23T12:13:45Z</time>
      </trkpt>
      <trkpt lat="43.74522" lon="3.21443">
        <ele>428.89</ele>
        <time>2014-08-23T12:13:49Z</time>
      </trkpt>
      <trkpt lat="43.74486" lon="3.21431">
        <ele>427.92</ele>
        <time>2014-08-23T12:13:55Z</time>
      </trkpt>
      <trkpt lat="43.74465" lon="3.21429">
        <ele>424.56</ele>
        <time>2014-08-23T12:13:58Z</time>
      </trkpt>
      <trkpt lat="43.74453" lon="3.21428">
        <ele>423.6</ele>
        <time>2014-08-23T12:14:00Z</time>
      </trkpt>
      <trkpt lat="43.74429" lon="3.21421">
        <ele>420.23</ele>
        <time>2014-08-23T12:14:03Z</time>
      </trkpt>
      <trkpt lat="43.74414" lon="3.21416">
        <ele>419.27</ele>
        <time>2014-08-23T12:14:05Z</time>
      </trkpt>
      <trkpt lat="43.74406" lon="3.21417">
        <ele>418.31</ele>
        <time>2014-08-23T12:14:06Z</time>
      </trkpt>
      <trkpt lat="43.74391" lon="3.21419">
        <ele>416.87</ele>
        <time>2014-08-23T12:14:08Z</time>
      </trkpt>
      <trkpt lat="43.74385" lon="3.21419">
        <ele>417.35</ele>
        <time>2014-08-23T12:14:09Z</time>
      </trkpt>
      <trkpt lat="43.74367" lon="3.21418">
        <ele>417.35</ele>
        <time>2014-08-23T12:14:12Z</time>
      </trkpt>
      <trkpt lat="43.74363" lon="3.21417">
        <ele>417.35</ele>
        <time>2014-08-23T12:14:13Z</time>
      </trkpt>
      <trkpt lat="43.74358" lon="3.21416">
        <ele>417.35</ele>
        <time>2014-08-23T12:14:14Z</time>
      </trkpt>
      <trkpt lat="43.74339" lon="3.21407">
        <ele>418.79</ele>
        <time>2014-08-23T12:14:20Z</time>
      </trkpt>
      <trkpt lat="43.74337" lon="3.21406">
        <ele>418.79</ele>
        <time>2014-08-23T12:14:21Z</time>
      </trkpt>
      <trkpt lat="43.74325" lon="3.21395">
        <ele>419.75</ele>
        <time>2014-08-23T12:14:28Z</time>
      </trkpt>
      <trkpt lat="43.74315" lon="3.21387">
        <ele>420.71</ele>
        <time>2014-08-23T12:14:34Z</time>
      </trkpt>
      <trkpt lat="43.74301" lon="3.21376">
        <ele>421.19</ele>
        <time>2014-08-23T12:14:42Z</time>
      </trkpt>
      <trkpt lat="43.74282" lon="3.21365">
        <ele>421.68</ele>
        <time>2014-08-23T12:14:51Z</time>
      </trkpt>
      <trkpt lat="43.74269" lon="3.21355">
        <ele>421.68</ele>
        <time>2014-08-23T12:14:58Z</time>
      </trkpt>
      <trkpt lat="43.74253" lon="3.21342">
        <ele>423.12</ele>
        <time>2014-08-23T12:15:07Z</time>
      </trkpt>
      <trkpt lat="43.74239" lon="3.21328">
        <ele>423.6</ele>
        <time>2014-08-23T12:15:15Z</time>
      </trkpt>
      <trkpt lat="43.74225" lon="3.21318">
        <ele>424.56</ele>
        <time>2014-08-23T12:15:23Z</time>
      </trkpt>
      <trkpt lat="43.74209" lon="3.21307">
        <ele>425.52</ele>
        <time>2014-08-23T12:15:32Z</time>
      </trkpt>
      <trkpt lat="43.74195" lon="3.21298">
        <ele>426.96</ele>
        <time>2014-08-23T12:15:39Z</time>
      </trkpt>
      <trkpt lat="43.74177" lon="3.21292">
        <ele>428.89</ele>
        <time>2014-08-23T12:15:49Z</time>
      </trkpt>
      <trkpt lat="43.74164" lon="3.21289">
        <ele>429.85</ele>
        <time>2014-08-23T12:15:55Z</time>
      </trkpt>
      <trkpt lat="43.74153" lon="3.21286">
        <ele>430.81</ele>
        <time>2014-08-23T12:16:00Z</time>
      </trkpt>
      <trkpt lat="43.74141" lon="3.21283">
        <ele>431.77</ele>
        <time>2014-08-23T12:16:07Z</time>
      </trkpt>
      <trkpt lat="43.74131" lon="3.21279">
        <ele>432.73</ele>
        <time>2014-08-23T12:16:14Z</time>
      </trkpt>
      <trkpt lat="43.74119" lon="3.21276">
        <ele>433.69</ele>
        <time>2014-08-23T12:16:21Z</time>
      </trkpt>
      <trkpt lat="43.74107" lon="3.21274">
        <ele>434.65</ele>
        <time>2014-08-23T12:16:28Z</time>
      </trkpt>
      <trkpt lat="43.7409" lon="3.21271">
        <ele>435.61</ele>
        <time>2014-08-23T12:16:37Z</time>
      </trkpt>
      <trkpt lat="43.7408" lon="3.2127">
        <ele>436.1</ele>
        <time>2014-08-23T12:16:44Z</time>
      </trkpt>
      <trkpt lat="43.74075" lon="3.21269">
        <ele>436.1</ele>
        <time>2014-08-23T12:16:46Z</time>
      </trkpt>
      <trkpt lat="43.74061" lon="3.21268">
        <ele>437.06</ele>
        <time>2014-08-23T12:16:54Z</time>
      </trkpt>
      <trkpt lat="43.74055" lon="3.21268">
        <ele>438.02</ele>
        <time>2014-08-23T12:16:57Z</time>
      </trkpt>
      <trkpt lat="43.74041" lon="3.21264">
        <ele>438.5</ele>
        <time>2014-08-23T12:17:05Z</time>
      </trkpt>
      <trkpt lat="43.74034" lon="3.21264">
        <ele>438.98</ele>
        <time>2014-08-23T12:17:09Z</time>
      </trkpt>
      <trkpt lat="43.74022" lon="3.21262">
        <ele>439.46</ele>
        <time>2014-08-23T12:17:16Z</time>
      </trkpt>
      <trkpt lat="43.74014" lon="3.21264">
        <ele>439.94</ele>
        <time>2014-08-23T12:17:21Z</time>
      </trkpt>
      <trkpt lat="43.74004" lon="3.21262">
        <ele>440.42</ele>
        <time>2014-08-23T12:17:27Z</time>
      </trkpt>
      <trkpt lat="43.73994" lon="3.2126">
        <ele>440.42</ele>
        <time>2014-08-23T12:17:33Z</time>
      </trkpt>
      <trkpt lat="43.73967" lon="3.21247">
        <ele>441.38</ele>
        <time>2014-08-23T12:17:43Z</time>
      </trkpt>
      <trkpt lat="43.7395" lon="3.21243">
        <ele>442.82</ele>
        <time>2014-08-23T12:17:51Z</time>
      </trkpt>
      <trkpt lat="43.73934" lon="3.21239">
        <ele>443.79</ele>
        <time>2014-08-23T12:17:59Z</time>
      </trkpt>
      <trkpt lat="43.73918" lon="3.21237">
        <ele>445.23</ele>
        <time>2014-08-23T12:18:07Z</time>
      </trkpt>
      <trkpt lat="43.73905" lon="3.21234">
        <ele>446.19</ele>
        <time>2014-08-23T12:18:14Z</time>
      </trkpt>
      <trkpt lat="43.73888" lon="3.21236">
        <ele>447.15</ele>
        <time>2014-08-23T12:18:22Z</time>
      </trkpt>
      <trkpt lat="43.73874" lon="3.21238">
        <ele>448.59</ele>
        <time>2014-08-23T12:18:29Z</time>
      </trkpt>
      <trkpt lat="43.7386" lon="3.21243">
        <ele>449.07</ele>
        <time>2014-08-23T12:18:36Z</time>
      </trkpt>
      <trkpt lat="43.73845" lon="3.2124">
        <ele>451</ele>
        <time>2014-08-23T12:18:41Z</time>
      </trkpt>
      <trkpt lat="43.73844" lon="3.21242">
        <ele>451</ele>
        <time>2014-08-23T12:18:42Z</time>
      </trkpt>
      <trkpt lat="43.73843" lon="3.21243">
        <ele>451</ele>
        <time>2014-08-23T12:18:43Z</time>
      </trkpt>
      <trkpt lat="43.73841" lon="3.21245">
        <ele>451</ele>
        <time>2014-08-23T12:18:44Z</time>
      </trkpt>
      <trkpt lat="43.7384" lon="3.21246">
        <ele>451</ele>
        <time>2014-08-23T12:18:45Z</time>
      </trkpt>
      <trkpt lat="43.73828" lon="3.21255">
        <ele>451.48</ele>
        <time>2014-08-23T12:18:51Z</time>
      </trkpt>
      <trkpt lat="43.7382" lon="3.21272">
        <ele>451.48</ele>
        <time>2014-08-23T12:18:58Z</time>
      </trkpt>
      <trkpt lat="43.73819" lon="3.21274">
        <ele>451.48</ele>
        <time>2014-08-23T12:18:59Z</time>
      </trkpt>
      <trkpt lat="43.73818" lon="3.21277">
        <ele>451.96</ele>
        <time>2014-08-23T12:19:00Z</time>
      </trkpt>
      <trkpt lat="43.73816" lon="3.21279">
        <ele>451.96</ele>
        <time>2014-08-23T12:19:01Z</time>
      </trkpt>
      <trkpt lat="43.73814" lon="3.21281">
        <ele>452.44</ele>
        <time>2014-08-23T12:19:02Z</time>
      </trkpt>
      <trkpt lat="43.73812" lon="3.21282">
        <ele>452.44</ele>
        <time>2014-08-23T12:19:03Z</time>
      </trkpt>
      <trkpt lat="43.7381" lon="3.21284">
        <ele>452.92</ele>
        <time>2014-08-23T12:19:04Z</time>
      </trkpt>
      <trkpt lat="43.73809" lon="3.21286">
        <ele>452.92</ele>
        <time>2014-08-23T12:19:05Z</time>
      </trkpt>
      <trkpt lat="43.73807" lon="3.21289">
        <ele>453.88</ele>
        <time>2014-08-23T12:19:06Z</time>
      </trkpt>
      <trkpt lat="43.73806" lon="3.21291">
        <ele>453.88</ele>
        <time>2014-08-23T12:19:07Z</time>
      </trkpt>
      <trkpt lat="43.73804" lon="3.21292">
        <ele>453.88</ele>
        <time>2014-08-23T12:19:08Z</time>
      </trkpt>
      <trkpt lat="43.73803" lon="3.21294">
        <ele>453.88</ele>
        <time>2014-08-23T12:19:09Z</time>
      </trkpt>
      <trkpt lat="43.73801" lon="3.21295">
        <ele>453.88</ele>
        <time>2014-08-23T12:19:10Z</time>
      </trkpt>
      <trkpt lat="43.738" lon="3.21296">
        <ele>453.88</ele>
        <time>2014-08-23T12:19:11Z</time>
      </trkpt>
      <trkpt lat="43.73786" lon="3.21308">
        <ele>455.32</ele>
        <time>2014-08-23T12:19:18Z</time>
      </trkpt>
      <trkpt lat="43.73772" lon="3.21314">
        <ele>455.32</ele>
        <time>2014-08-23T12:19:25Z</time>
      </trkpt>
      <trkpt lat="43.73764" lon="3.21324">
        <ele>455.8</ele>
        <time>2014-08-23T12:19:30Z</time>
      </trkpt>
      <trkpt lat="43.73763" lon="3.21326">
        <ele>455.8</ele>
        <time>2014-08-23T12:19:31Z</time>
      </trkpt>
      <trkpt lat="43.73762" lon="3.21328">
        <ele>455.8</ele>
        <time>2014-08-23T12:19:32Z</time>
      </trkpt>
      <trkpt lat="43.73752" lon="3.21343">
        <ele>455.8</ele>
        <time>2014-08-23T12:19:40Z</time>
      </trkpt>
      <trkpt lat="43.73752" lon="3.21347">
        <ele>455.8</ele>
        <time>2014-08-23T12:19:41Z</time>
      </trkpt>
      <trkpt lat="43.73752" lon="3.2135">
        <ele>455.8</ele>
        <time>2014-08-23T12:19:42Z</time>
      </trkpt>
      <trkpt lat="43.73754" lon="3.21357">
        <ele>454.36</ele>
        <time>2014-08-23T12:19:45Z</time>
      </trkpt>
      <trkpt lat="43.73756" lon="3.21359">
        <ele>454.36</ele>
        <time>2014-08-23T12:19:46Z</time>
      </trkpt>
      <trkpt lat="43.73756" lon="3.21362">
        <ele>453.88</ele>
        <time>2014-08-23T12:19:47Z</time>
      </trkpt>
      <trkpt lat="43.73757" lon="3.21365">
        <ele>453.88</ele>
        <time>2014-08-23T12:19:48Z</time>
      </trkpt>
      <trkpt lat="43.73758" lon="3.21367">
        <ele>453.88</ele>
        <time>2014-08-23T12:19:49Z</time>
      </trkpt>
      <trkpt lat="43.73759" lon="3.2137">
        <ele>453.4</ele>
        <time>2014-08-23T12:19:50Z</time>
      </trkpt>
      <trkpt lat="43.73769" lon="3.2139">
        <ele>453.4</ele>
        <time>2014-08-23T12:19:56Z</time>
      </trkpt>
      <trkpt lat="43.73772" lon="3.21394">
        <ele>452.92</ele>
        <time>2014-08-23T12:19:57Z</time>
      </trkpt>
      <trkpt lat="43.73786" lon="3.21425">
        <ele>451</ele>
        <time>2014-08-23T12:20:03Z</time>
      </trkpt>
      <trkpt lat="43.7379" lon="3.21436">
        <ele>450.52</ele>
        <time>2014-08-23T12:20:05Z</time>
      </trkpt>
      <trkpt lat="43.738" lon="3.21459">
        <ele>449.07</ele>
        <time>2014-08-23T12:20:09Z</time>
      </trkpt>
      <trkpt lat="43.73802" lon="3.21465">
        <ele>448.59</ele>
        <time>2014-08-23T12:20:10Z</time>
      </trkpt>
      <trkpt lat="43.73814" lon="3.21491">
        <ele>447.15</ele>
        <time>2014-08-23T12:20:14Z</time>
      </trkpt>
      <trkpt lat="43.73824" lon="3.21511">
        <ele>445.71</ele>
        <time>2014-08-23T12:20:17Z</time>
      </trkpt>
      <trkpt lat="43.73843" lon="3.21549">
        <ele>442.34</ele>
        <time>2014-08-23T12:20:22Z</time>
      </trkpt>
      <trkpt lat="43.73867" lon="3.21594">
        <ele>440.42</ele>
        <time>2014-08-23T12:20:28Z</time>
      </trkpt>
      <trkpt lat="43.73879" lon="3.21618">
        <ele>438.02</ele>
        <time>2014-08-23T12:20:31Z</time>
      </trkpt>
      <trkpt lat="43.73905" lon="3.21667">
        <ele>436.1</ele>
        <time>2014-08-23T12:20:37Z</time>
      </trkpt>
      <trkpt lat="43.7391" lon="3.21676">
        <ele>435.13</ele>
        <time>2014-08-23T12:20:38Z</time>
      </trkpt>
      <trkpt lat="43.73923" lon="3.21706">
        <ele>431.77</ele>
        <time>2014-08-23T12:20:41Z</time>
      </trkpt>
      <trkpt lat="43.73925" lon="3.21716">
        <ele>431.29</ele>
        <time>2014-08-23T12:20:42Z</time>
      </trkpt>
      <trkpt lat="43.73938" lon="3.21775">
        <ele>427.92</ele>
        <time>2014-08-23T12:20:47Z</time>
      </trkpt>
      <trkpt lat="43.73944" lon="3.21798">
        <ele>426.48</ele>
        <time>2014-08-23T12:20:49Z</time>
      </trkpt>
      <trkpt lat="43.73946" lon="3.2181">
        <ele>424.56</ele>
        <time>2014-08-23T12:20:50Z</time>
      </trkpt>
      <trkpt lat="43.73948" lon="3.21822">
        <ele>423.6</ele>
        <time>2014-08-23T12:20:51Z</time>
      </trkpt>
      <trkpt lat="43.73949" lon="3.21834">
        <ele>422.16</ele>
        <time>2014-08-23T12:20:52Z</time>
      </trkpt>
      <trkpt lat="43.73953" lon="3.21893">
        <ele>419.27</ele>
        <time>2014-08-23T12:20:57Z</time>
      </trkpt>
      <trkpt lat="43.7396" lon="3.21929">
        <ele>418.31</ele>
        <time>2014-08-23T12:21:02Z</time>
      </trkpt>
      <trkpt lat="43.73961" lon="3.21955">
        <ele>416.39</ele>
        <time>2014-08-23T12:21:07Z</time>
      </trkpt>
      <trkpt lat="43.73962" lon="3.21958">
        <ele>416.87</ele>
        <time>2014-08-23T12:21:08Z</time>
      </trkpt>
      <trkpt lat="43.73963" lon="3.21958">
        <ele>416.87</ele>
        <time>2014-08-23T12:21:09Z</time>
      </trkpt>
      <trkpt lat="43.73964" lon="3.21956">
        <ele>418.31</ele>
        <time>2014-08-23T12:21:11Z</time>
      </trkpt>
      <trkpt lat="43.73963" lon="3.21954">
        <ele>418.31</ele>
        <time>2014-08-23T12:21:12Z</time>
      </trkpt>
      <trkpt lat="43.73962" lon="3.21953">
        <ele>418.31</ele>
        <time>2014-08-23T12:21:13Z</time>
      </trkpt>
      <trkpt lat="43.73961" lon="3.21952">
        <ele>418.31</ele>
        <time>2014-08-23T12:21:14Z</time>
      </trkpt>
      <trkpt lat="43.7396" lon="3.21951">
        <ele>418.31</ele>
        <time>2014-08-23T12:21:15Z</time>
      </trkpt>
      <trkpt lat="43.73959" lon="3.21948">
        <ele>418.31</ele>
        <time>2014-08-23T12:21:16Z</time>
      </trkpt>
      <trkpt lat="43.73958" lon="3.21945">
        <ele>416.87</ele>
        <time>2014-08-23T12:21:17Z</time>
      </trkpt>
      <trkpt lat="43.73957" lon="3.21941">
        <ele>416.87</ele>
        <time>2014-08-23T12:21:18Z</time>
      </trkpt>
      <trkpt lat="43.7395" lon="3.21911">
        <ele>416.39</ele>
        <time>2014-08-23T12:21:25Z</time>
      </trkpt>
      <trkpt lat="43.73949" lon="3.21905">
        <ele>415.43</ele>
        <time>2014-08-23T12:21:26Z</time>
      </trkpt>
      <trkpt lat="43.73948" lon="3.21899">
        <ele>414.95</ele>
        <time>2014-08-23T12:21:27Z</time>
      </trkpt>
      <trkpt lat="43.73946" lon="3.21892">
        <ele>414.47</ele>
        <time>2014-08-23T12:21:28Z</time>
      </trkpt>
      <trkpt lat="43.73945" lon="3.21885">
        <ele>414.47</ele>
        <time>2014-08-23T12:21:29Z</time>
      </trkpt>
      <trkpt lat="43.73937" lon="3.21849">
        <ele>410.62</ele>
        <time>2014-08-23T12:21:33Z</time>
      </trkpt>
      <trkpt lat="43.73927" lon="3.21821">
        <ele>407.26</ele>
        <time>2014-08-23T12:21:36Z</time>
      </trkpt>
      <trkpt lat="43.73919" lon="3.21802">
        <ele>405.81</ele>
        <time>2014-08-23T12:21:38Z</time>
      </trkpt>
      <trkpt lat="43.73888" lon="3.21752">
        <ele>403.89</ele>
        <time>2014-08-23T12:21:44Z</time>
      </trkpt>
      <trkpt lat="43.73879" lon="3.21739">
        <ele>402.45</ele>
        <time>2014-08-23T12:21:46Z</time>
      </trkpt>
      <trkpt lat="43.73868" lon="3.2172">
        <ele>402.45</ele>
        <time>2014-08-23T12:21:49Z</time>
      </trkpt>
      <trkpt lat="43.73862" lon="3.2171">
        <ele>401.49</ele>
        <time>2014-08-23T12:21:51Z</time>
      </trkpt>
      <trkpt lat="43.73844" lon="3.21683">
        <ele>401.97</ele>
        <time>2014-08-23T12:21:58Z</time>
      </trkpt>
      <trkpt lat="43.73835" lon="3.21669">
        <ele>401.97</ele>
        <time>2014-08-23T12:22:04Z</time>
      </trkpt>
      <trkpt lat="43.7383" lon="3.21655">
        <ele>401.97</ele>
        <time>2014-08-23T12:22:10Z</time>
      </trkpt>
      <trkpt lat="43.7383" lon="3.21652">
        <ele>401.49</ele>
        <time>2014-08-23T12:22:12Z</time>
      </trkpt>
      <trkpt lat="43.73826" lon="3.21638">
        <ele>400.53</ele>
        <time>2014-08-23T12:22:19Z</time>
      </trkpt>
      <trkpt lat="43.73822" lon="3.21632">
        <ele>400.53</ele>
        <time>2014-08-23T12:22:20Z</time>
      </trkpt>
      <trkpt lat="43.738" lon="3.21602">
        <ele>401.01</ele>
        <time>2014-08-23T12:22:24Z</time>
      </trkpt>
      <trkpt lat="43.73788" lon="3.21587">
        <ele>401.01</ele>
        <time>2014-08-23T12:22:25Z</time>
      </trkpt>
      <trkpt lat="43.73769" lon="3.2156">
        <ele>400.05</ele>
        <time>2014-08-23T12:22:29Z</time>
      </trkpt>
      <trkpt lat="43.7374" lon="3.21517">
        <ele>399.57</ele>
        <time>2014-08-23T12:22:36Z</time>
      </trkpt>
      <trkpt lat="43.73722" lon="3.215">
        <ele>399.57</ele>
        <time>2014-08-23T12:22:40Z</time>
      </trkpt>
      <trkpt lat="43.7371" lon="3.21496">
        <ele>399.57</ele>
        <time>2014-08-23T12:22:42Z</time>
      </trkpt>
      <trkpt lat="43.73694" lon="3.21491">
        <ele>399.57</ele>
        <time>2014-08-23T12:22:45Z</time>
      </trkpt>
      <trkpt lat="43.73647" lon="3.21472">
        <ele>397.64</ele>
        <time>2014-08-23T12:22:53Z</time>
      </trkpt>
      <trkpt lat="43.7363" lon="3.21466">
        <ele>397.16</ele>
        <time>2014-08-23T12:22:56Z</time>
      </trkpt>
      <trkpt lat="43.73618" lon="3.21464">
        <ele>397.16</ele>
        <time>2014-08-23T12:22:58Z</time>
      </trkpt>
      <trkpt lat="43.73572" lon="3.2145">
        <ele>395.24</ele>
        <time>2014-08-23T12:23:06Z</time>
      </trkpt>
      <trkpt lat="43.73549" lon="3.21443">
        <ele>394.76</ele>
        <time>2014-08-23T12:23:10Z</time>
      </trkpt>
      <trkpt lat="43.73502" lon="3.21433">
        <ele>393.32</ele>
        <time>2014-08-23T12:23:18Z</time>
      </trkpt>
      <trkpt lat="43.73452" lon="3.21422">
        <ele>390.91</ele>
        <time>2014-08-23T12:23:26Z</time>
      </trkpt>
      <trkpt lat="43.73439" lon="3.21421">
        <ele>390.43</ele>
        <time>2014-08-23T12:23:28Z</time>
      </trkpt>
      <trkpt lat="43.73397" lon="3.21427">
        <ele>388.03</ele>
        <time>2014-08-23T12:23:34Z</time>
      </trkpt>
      <trkpt lat="43.73333" lon="3.2142">
        <ele>385.15</ele>
        <time>2014-08-23T12:23:43Z</time>
      </trkpt>
      <trkpt lat="43.73292" lon="3.21412">
        <ele>384.18</ele>
        <time>2014-08-23T12:23:49Z</time>
      </trkpt>
      <trkpt lat="43.73279" lon="3.21407">
        <ele>384.18</ele>
        <time>2014-08-23T12:23:51Z</time>
      </trkpt>
      <trkpt lat="43.73252" lon="3.21392">
        <ele>382.26</ele>
        <time>2014-08-23T12:23:55Z</time>
      </trkpt>
      <trkpt lat="43.73244" lon="3.2139">
        <ele>382.26</ele>
        <time>2014-08-23T12:23:56Z</time>
      </trkpt>
      <trkpt lat="43.73169" lon="3.21365">
        <ele>378.42</ele>
        <time>2014-08-23T12:24:06Z</time>
      </trkpt>
      <trkpt lat="43.73105" lon="3.21333">
        <ele>376.97</ele>
        <time>2014-08-23T12:24:15Z</time>
      </trkpt>
      <trkpt lat="43.73094" lon="3.2133">
        <ele>376.01</ele>
        <time>2014-08-23T12:24:17Z</time>
      </trkpt>
      <trkpt lat="43.7308" lon="3.21327">
        <ele>375.05</ele>
        <time>2014-08-23T12:24:19Z</time>
      </trkpt>
      <trkpt lat="43.73031" lon="3.21317">
        <ele>375.05</ele>
        <time>2014-08-23T12:24:26Z</time>
      </trkpt>
      <trkpt lat="43.73018" lon="3.21313">
        <ele>374.09</ele>
        <time>2014-08-23T12:24:28Z</time>
      </trkpt>
      <trkpt lat="43.72959" lon="3.21289">
        <ele>373.61</ele>
        <time>2014-08-23T12:24:37Z</time>
      </trkpt>
      <trkpt lat="43.72939" lon="3.21279">
        <ele>373.61</ele>
        <time>2014-08-23T12:24:40Z</time>
      </trkpt>
      <trkpt lat="43.72895" lon="3.21252">
        <ele>373.13</ele>
        <time>2014-08-23T12:24:48Z</time>
      </trkpt>
      <trkpt lat="43.7285" lon="3.21234">
        <ele>372.17</ele>
        <time>2014-08-23T12:24:56Z</time>
      </trkpt>
      <trkpt lat="43.72827" lon="3.21223">
        <ele>372.17</ele>
        <time>2014-08-23T12:25:00Z</time>
      </trkpt>
      <trkpt lat="43.72781" lon="3.21191">
        <ele>371.69</ele>
        <time>2014-08-23T12:25:09Z</time>
      </trkpt>
      <trkpt lat="43.72742" lon="3.21177">
        <ele>368.32</ele>
        <time>2014-08-23T12:25:15Z</time>
      </trkpt>
      <trkpt lat="43.72706" lon="3.21158">
        <ele>364.96</ele>
        <time>2014-08-23T12:25:20Z</time>
      </trkpt>
      <trkpt lat="43.72669" lon="3.21139">
        <ele>363.04</ele>
        <time>2014-08-23T12:25:24Z</time>
      </trkpt>
      <trkpt lat="43.72625" lon="3.21114">
        <ele>359.67</ele>
        <time>2014-08-23T12:25:29Z</time>
      </trkpt>
      <trkpt lat="43.72619" lon="3.21111">
        <ele>359.67</ele>
        <time>2014-08-23T12:25:30Z</time>
      </trkpt>
      <trkpt lat="43.72564" lon="3.21076">
        <ele>356.31</ele>
        <time>2014-08-23T12:25:36Z</time>
      </trkpt>
      <trkpt lat="43.72558" lon="3.21068">
        <ele>356.31</ele>
        <time>2014-08-23T12:25:37Z</time>
      </trkpt>
      <trkpt lat="43.72517" lon="3.21009">
        <ele>355.34</ele>
        <time>2014-08-23T12:25:44Z</time>
      </trkpt>
      <trkpt lat="43.72511" lon="3.21002">
        <ele>354.86</ele>
        <time>2014-08-23T12:25:45Z</time>
      </trkpt>
      <trkpt lat="43.72474" lon="3.20947">
        <ele>353.42</ele>
        <time>2014-08-23T12:25:52Z</time>
      </trkpt>
      <trkpt lat="43.7246" lon="3.20919">
        <ele>352.94</ele>
        <time>2014-08-23T12:25:56Z</time>
      </trkpt>
      <trkpt lat="43.72455" lon="3.20914">
        <ele>354.86</ele>
        <time>2014-08-23T12:25:57Z</time>
      </trkpt>
      <trkpt lat="43.72451" lon="3.20908">
        <ele>354.86</ele>
        <time>2014-08-23T12:25:58Z</time>
      </trkpt>
      <trkpt lat="43.72443" lon="3.20896">
        <ele>356.31</ele>
        <time>2014-08-23T12:26:00Z</time>
      </trkpt>
      <trkpt lat="43.7243" lon="3.20876">
        <ele>356.79</ele>
        <time>2014-08-23T12:26:03Z</time>
      </trkpt>
      <trkpt lat="43.72406" lon="3.20848">
        <ele>355.83</ele>
        <time>2014-08-23T12:26:08Z</time>
      </trkpt>
      <trkpt lat="43.72402" lon="3.20842">
        <ele>355.83</ele>
        <time>2014-08-23T12:26:09Z</time>
      </trkpt>
      <trkpt lat="43.72398" lon="3.20835">
        <ele>354.86</ele>
        <time>2014-08-23T12:26:10Z</time>
      </trkpt>
      <trkpt lat="43.7239" lon="3.20821">
        <ele>354.38</ele>
        <time>2014-08-23T12:26:12Z</time>
      </trkpt>
      <trkpt lat="43.72377" lon="3.20801">
        <ele>353.42</ele>
        <time>2014-08-23T12:26:15Z</time>
      </trkpt>
      <trkpt lat="43.72372" lon="3.20795">
        <ele>353.42</ele>
        <time>2014-08-23T12:26:16Z</time>
      </trkpt>
      <trkpt lat="43.72356" lon="3.20767">
        <ele>353.42</ele>
        <time>2014-08-23T12:26:20Z</time>
      </trkpt>
      <trkpt lat="43.72342" lon="3.20737">
        <ele>354.86</ele>
        <time>2014-08-23T12:26:24Z</time>
      </trkpt>
      <trkpt lat="43.72334" lon="3.20724">
        <ele>352.94</ele>
        <time>2014-08-23T12:26:26Z</time>
      </trkpt>
      <trkpt lat="43.72308" lon="3.20671">
        <ele>352.46</ele>
        <time>2014-08-23T12:26:33Z</time>
      </trkpt>
      <trkpt lat="43.72283" lon="3.2061">
        <ele>354.86</ele>
        <time>2014-08-23T12:26:41Z</time>
      </trkpt>
      <trkpt lat="43.72272" lon="3.2059">
        <ele>353.9</ele>
        <time>2014-08-23T12:26:44Z</time>
      </trkpt>
      <trkpt lat="43.72256" lon="3.2055">
        <ele>354.38</ele>
        <time>2014-08-23T12:26:49Z</time>
      </trkpt>
      <trkpt lat="43.72244" lon="3.20519">
        <ele>351.5</ele>
        <time>2014-08-23T12:26:53Z</time>
      </trkpt>
      <trkpt lat="43.72232" lon="3.20502">
        <ele>348.62</ele>
        <time>2014-08-23T12:26:55Z</time>
      </trkpt>
      <trkpt lat="43.72223" lon="3.20485">
        <ele>348.13</ele>
        <time>2014-08-23T12:26:57Z</time>
      </trkpt>
      <trkpt lat="43.72214" lon="3.20466">
        <ele>346.69</ele>
        <time>2014-08-23T12:26:59Z</time>
      </trkpt>
      <trkpt lat="43.7221" lon="3.20456">
        <ele>345.25</ele>
        <time>2014-08-23T12:27:00Z</time>
      </trkpt>
      <trkpt lat="43.72205" lon="3.20446">
        <ele>344.29</ele>
        <time>2014-08-23T12:27:01Z</time>
      </trkpt>
      <trkpt lat="43.72193" lon="3.20416">
        <ele>342.37</ele>
        <time>2014-08-23T12:27:04Z</time>
      </trkpt>
      <trkpt lat="43.7218" lon="3.20387">
        <ele>340.44</ele>
        <time>2014-08-23T12:27:07Z</time>
      </trkpt>
      <trkpt lat="43.72174" lon="3.20366">
        <ele>339.48</ele>
        <time>2014-08-23T12:27:09Z</time>
      </trkpt>
      <trkpt lat="43.72172" lon="3.20355">
        <ele>338.52</ele>
        <time>2014-08-23T12:27:10Z</time>
      </trkpt>
      <trkpt lat="43.72168" lon="3.20321">
        <ele>335.64</ele>
        <time>2014-08-23T12:27:13Z</time>
      </trkpt>
      <trkpt lat="43.72168" lon="3.2031">
        <ele>334.2</ele>
        <time>2014-08-23T12:27:14Z</time>
      </trkpt>
      <trkpt lat="43.72168" lon="3.203">
        <ele>333.71</ele>
        <time>2014-08-23T12:27:15Z</time>
      </trkpt>
      <trkpt lat="43.72167" lon="3.20291">
        <ele>333.71</ele>
        <time>2014-08-23T12:27:16Z</time>
      </trkpt>
      <trkpt lat="43.72164" lon="3.20285">
        <ele>332.75</ele>
        <time>2014-08-23T12:27:19Z</time>
      </trkpt>
      <trkpt lat="43.72164" lon="3.20291">
        <ele>331.79</ele>
        <time>2014-08-23T12:27:20Z</time>
      </trkpt>
      <trkpt lat="43.7216" lon="3.20309">
        <ele>329.39</ele>
        <time>2014-08-23T12:27:22Z</time>
      </trkpt>
      <trkpt lat="43.72157" lon="3.20317">
        <ele>327.95</ele>
        <time>2014-08-23T12:27:23Z</time>
      </trkpt>
      <trkpt lat="43.72152" lon="3.20323">
        <ele>326.99</ele>
        <time>2014-08-23T12:27:24Z</time>
      </trkpt>
      <trkpt lat="43.72145" lon="3.20327">
        <ele>326.5</ele>
        <time>2014-08-23T12:27:25Z</time>
      </trkpt>
      <trkpt lat="43.72138" lon="3.20328">
        <ele>326.5</ele>
        <time>2014-08-23T12:27:26Z</time>
      </trkpt>
      <trkpt lat="43.72132" lon="3.20327">
        <ele>326.5</ele>
        <time>2014-08-23T12:27:27Z</time>
      </trkpt>
      <trkpt lat="43.72126" lon="3.20326">
        <ele>326.5</ele>
        <time>2014-08-23T12:27:28Z</time>
      </trkpt>
      <trkpt lat="43.72121" lon="3.20324">
        <ele>326.5</ele>
        <time>2014-08-23T12:27:29Z</time>
      </trkpt>
      <trkpt lat="43.72117" lon="3.2032">
        <ele>327.95</ele>
        <time>2014-08-23T12:27:30Z</time>
      </trkpt>
      <trkpt lat="43.72115" lon="3.20314">
        <ele>327.95</ele>
        <time>2014-08-23T12:27:31Z</time>
      </trkpt>
      <trkpt lat="43.72113" lon="3.20308">
        <ele>327.95</ele>
        <time>2014-08-23T12:27:32Z</time>
      </trkpt>
      <trkpt lat="43.72113" lon="3.20302">
        <ele>327.95</ele>
        <time>2014-08-23T12:27:33Z</time>
      </trkpt>
      <trkpt lat="43.72113" lon="3.20296">
        <ele>327.95</ele>
        <time>2014-08-23T12:27:34Z</time>
      </trkpt>
      <trkpt lat="43.72113" lon="3.20284">
        <ele>326.5</ele>
        <time>2014-08-23T12:27:36Z</time>
      </trkpt>
      <trkpt lat="43.72113" lon="3.20278">
        <ele>326.5</ele>
        <time>2014-08-23T12:27:37Z</time>
      </trkpt>
      <trkpt lat="43.72113" lon="3.20272">
        <ele>326.5</ele>
        <time>2014-08-23T12:27:38Z</time>
      </trkpt>
      <trkpt lat="43.72114" lon="3.20265">
        <ele>326.5</ele>
        <time>2014-08-23T12:27:39Z</time>
      </trkpt>
      <trkpt lat="43.72115" lon="3.20258">
        <ele>326.5</ele>
        <time>2014-08-23T12:27:40Z</time>
      </trkpt>
      <trkpt lat="43.72116" lon="3.20252">
        <ele>325.54</ele>
        <time>2014-08-23T12:27:41Z</time>
      </trkpt>
      <trkpt lat="43.72117" lon="3.20245">
        <ele>325.54</ele>
        <time>2014-08-23T12:27:42Z</time>
      </trkpt>
      <trkpt lat="43.7212" lon="3.20211">
        <ele>326.02</ele>
        <time>2014-08-23T12:27:47Z</time>
      </trkpt>
      <trkpt lat="43.72119" lon="3.20199">
        <ele>326.99</ele>
        <time>2014-08-23T12:27:49Z</time>
      </trkpt>
      <trkpt lat="43.72119" lon="3.20194">
        <ele>326.99</ele>
        <time>2014-08-23T12:27:50Z</time>
      </trkpt>
      <trkpt lat="43.72109" lon="3.20164">
        <ele>328.43</ele>
        <time>2014-08-23T12:27:57Z</time>
      </trkpt>
      <trkpt lat="43.72098" lon="3.20147">
        <ele>329.39</ele>
        <time>2014-08-23T12:28:03Z</time>
      </trkpt>
      <trkpt lat="43.72082" lon="3.20126">
        <ele>330.35</ele>
        <time>2014-08-23T12:28:10Z</time>
      </trkpt>
      <trkpt lat="43.72059" lon="3.20111">
        <ele>331.31</ele>
        <time>2014-08-23T12:28:18Z</time>
      </trkpt>
      <trkpt lat="43.72034" lon="3.20101">
        <ele>331.31</ele>
        <time>2014-08-23T12:28:26Z</time>
      </trkpt>
      <trkpt lat="43.72009" lon="3.20096">
        <ele>329.87</ele>
        <time>2014-08-23T12:28:32Z</time>
      </trkpt>
      <trkpt lat="43.71988" lon="3.20097">
        <ele>327.47</ele>
        <time>2014-08-23T12:28:36Z</time>
      </trkpt>
      <trkpt lat="43.71951" lon="3.20105">
        <ele>326.5</ele>
        <time>2014-08-23T12:28:42Z</time>
      </trkpt>
      <trkpt lat="43.71945" lon="3.20108">
        <ele>326.5</ele>
        <time>2014-08-23T12:28:43Z</time>
      </trkpt>
      <trkpt lat="43.71904" lon="3.20132">
        <ele>326.5</ele>
        <time>2014-08-23T12:28:51Z</time>
      </trkpt>
      <trkpt lat="43.71901" lon="3.20134">
        <ele>326.5</ele>
        <time>2014-08-23T12:28:52Z</time>
      </trkpt>
      <trkpt lat="43.71896" lon="3.20136">
        <ele>326.5</ele>
        <time>2014-08-23T12:28:53Z</time>
      </trkpt>
      <trkpt lat="43.71888" lon="3.20141">
        <ele>326.02</ele>
        <time>2014-08-23T12:28:55Z</time>
      </trkpt>
      <trkpt lat="43.71847" lon="3.2015">
        <ele>325.54</ele>
        <time>2014-08-23T12:29:04Z</time>
      </trkpt>
      <trkpt lat="43.71843" lon="3.20149">
        <ele>325.54</ele>
        <time>2014-08-23T12:29:05Z</time>
      </trkpt>
      <trkpt lat="43.7182" lon="3.2014">
        <ele>325.54</ele>
        <time>2014-08-23T12:29:10Z</time>
      </trkpt>
      <trkpt lat="43.71817" lon="3.20137">
        <ele>325.54</ele>
        <time>2014-08-23T12:29:11Z</time>
      </trkpt>
      <trkpt lat="43.71813" lon="3.20133">
        <ele>325.54</ele>
        <time>2014-08-23T12:29:12Z</time>
      </trkpt>
      <trkpt lat="43.7181" lon="3.20128">
        <ele>325.54</ele>
        <time>2014-08-23T12:29:13Z</time>
      </trkpt>
      <trkpt lat="43.71807" lon="3.20123">
        <ele>325.54</ele>
        <time>2014-08-23T12:29:14Z</time>
      </trkpt>
      <trkpt lat="43.71804" lon="3.20118">
        <ele>325.54</ele>
        <time>2014-08-23T12:29:15Z</time>
      </trkpt>
      <trkpt lat="43.71794" lon="3.20093">
        <ele>325.54</ele>
        <time>2014-08-23T12:29:19Z</time>
      </trkpt>
      <trkpt lat="43.71792" lon="3.20078">
        <ele>325.06</ele>
        <time>2014-08-23T12:29:21Z</time>
      </trkpt>
      <trkpt lat="43.71791" lon="3.20071">
        <ele>324.58</ele>
        <time>2014-08-23T12:29:22Z</time>
      </trkpt>
      <trkpt lat="43.71792" lon="3.20063">
        <ele>323.62</ele>
        <time>2014-08-23T12:29:23Z</time>
      </trkpt>
      <trkpt lat="43.71793" lon="3.2002">
        <ele>320.26</ele>
        <time>2014-08-23T12:29:28Z</time>
      </trkpt>
      <trkpt lat="43.71793" lon="3.20001">
        <ele>318.81</ele>
        <time>2014-08-23T12:29:31Z</time>
      </trkpt>
      <trkpt lat="43.71794" lon="3.19976">
        <ele>317.85</ele>
        <time>2014-08-23T12:29:36Z</time>
      </trkpt>
      <trkpt lat="43.71783" lon="3.19941">
        <ele>317.85</ele>
        <time>2014-08-23T12:29:43Z</time>
      </trkpt>
      <trkpt lat="43.71772" lon="3.19924">
        <ele>317.85</ele>
        <time>2014-08-23T12:29:47Z</time>
      </trkpt>
      <trkpt lat="43.71768" lon="3.1992">
        <ele>317.85</ele>
        <time>2014-08-23T12:29:48Z</time>
      </trkpt>
      <trkpt lat="43.71765" lon="3.19917">
        <ele>317.85</ele>
        <time>2014-08-23T12:29:49Z</time>
      </trkpt>
      <trkpt lat="43.71761" lon="3.19914">
        <ele>317.85</ele>
        <time>2014-08-23T12:29:50Z</time>
      </trkpt>
      <trkpt lat="43.71757" lon="3.19911">
        <ele>317.85</ele>
        <time>2014-08-23T12:29:51Z</time>
      </trkpt>
      <trkpt lat="43.71753" lon="3.19909">
        <ele>317.85</ele>
        <time>2014-08-23T12:29:52Z</time>
      </trkpt>
      <trkpt lat="43.71744" lon="3.19906">
        <ele>317.37</ele>
        <time>2014-08-23T12:29:54Z</time>
      </trkpt>
      <trkpt lat="43.71739" lon="3.19905">
        <ele>317.37</ele>
        <time>2014-08-23T12:29:55Z</time>
      </trkpt>
      <trkpt lat="43.71734" lon="3.19904">
        <ele>317.37</ele>
        <time>2014-08-23T12:29:56Z</time>
      </trkpt>
      <trkpt lat="43.71729" lon="3.19904">
        <ele>316.89</ele>
        <time>2014-08-23T12:29:57Z</time>
      </trkpt>
      <trkpt lat="43.71724" lon="3.19905">
        <ele>316.41</ele>
        <time>2014-08-23T12:29:58Z</time>
      </trkpt>
      <trkpt lat="43.71718" lon="3.19906">
        <ele>315.45</ele>
        <time>2014-08-23T12:29:59Z</time>
      </trkpt>
      <trkpt lat="43.71712" lon="3.19907">
        <ele>315.45</ele>
        <time>2014-08-23T12:30:00Z</time>
      </trkpt>
      <trkpt lat="43.71706" lon="3.1991">
        <ele>315.45</ele>
        <time>2014-08-23T12:30:01Z</time>
      </trkpt>
      <trkpt lat="43.71701" lon="3.19914">
        <ele>314.97</ele>
        <time>2014-08-23T12:30:02Z</time>
      </trkpt>
      <trkpt lat="43.71695" lon="3.19919">
        <ele>314.97</ele>
        <time>2014-08-23T12:30:03Z</time>
      </trkpt>
      <trkpt lat="43.71689" lon="3.19925">
        <ele>314.01</ele>
        <time>2014-08-23T12:30:04Z</time>
      </trkpt>
      <trkpt lat="43.71684" lon="3.19931">
        <ele>314.01</ele>
        <time>2014-08-23T12:30:05Z</time>
      </trkpt>
      <trkpt lat="43.71678" lon="3.19938">
        <ele>313.53</ele>
        <time>2014-08-23T12:30:06Z</time>
      </trkpt>
      <trkpt lat="43.71634" lon="3.19995">
        <ele>312.57</ele>
        <time>2014-08-23T12:30:15Z</time>
      </trkpt>
      <trkpt lat="43.71628" lon="3.19999">
        <ele>312.57</ele>
        <time>2014-08-23T12:30:16Z</time>
      </trkpt>
      <trkpt lat="43.71622" lon="3.20003">
        <ele>312.57</ele>
        <time>2014-08-23T12:30:17Z</time>
      </trkpt>
      <trkpt lat="43.71616" lon="3.20006">
        <ele>312.09</ele>
        <time>2014-08-23T12:30:18Z</time>
      </trkpt>
      <trkpt lat="43.7161" lon="3.20009">
        <ele>312.09</ele>
        <time>2014-08-23T12:30:19Z</time>
      </trkpt>
      <trkpt lat="43.71598" lon="3.20013">
        <ele>312.09</ele>
        <time>2014-08-23T12:30:21Z</time>
      </trkpt>
      <trkpt lat="43.71592" lon="3.20013">
        <ele>311.6</ele>
        <time>2014-08-23T12:30:22Z</time>
      </trkpt>
      <trkpt lat="43.71564" lon="3.20015">
        <ele>311.12</ele>
        <time>2014-08-23T12:30:26Z</time>
      </trkpt>
      <trkpt lat="43.71533" lon="3.2001">
        <ele>308.24</ele>
        <time>2014-08-23T12:30:30Z</time>
      </trkpt>
      <trkpt lat="43.71525" lon="3.20007">
        <ele>308.24</ele>
        <time>2014-08-23T12:30:31Z</time>
      </trkpt>
      <trkpt lat="43.71517" lon="3.20002">
        <ele>307.76</ele>
        <time>2014-08-23T12:30:32Z</time>
      </trkpt>
      <trkpt lat="43.71474" lon="3.19966">
        <ele>307.28</ele>
        <time>2014-08-23T12:30:38Z</time>
      </trkpt>
      <trkpt lat="43.71446" lon="3.19946">
        <ele>306.8</ele>
        <time>2014-08-23T12:30:42Z</time>
      </trkpt>
      <trkpt lat="43.71393" lon="3.19918">
        <ele>306.32</ele>
        <time>2014-08-23T12:30:50Z</time>
      </trkpt>
      <trkpt lat="43.71346" lon="3.19886">
        <ele>304.88</ele>
        <time>2014-08-23T12:30:58Z</time>
      </trkpt>
      <trkpt lat="43.71326" lon="3.19868">
        <ele>305.36</ele>
        <time>2014-08-23T12:31:02Z</time>
      </trkpt>
      <trkpt lat="43.71321" lon="3.19865">
        <ele>305.36</ele>
        <time>2014-08-23T12:31:03Z</time>
      </trkpt>
      <trkpt lat="43.71278" lon="3.19831">
        <ele>304.88</ele>
        <time>2014-08-23T12:31:12Z</time>
      </trkpt>
      <trkpt lat="43.71274" lon="3.19827">
        <ele>304.88</ele>
        <time>2014-08-23T12:31:13Z</time>
      </trkpt>
      <trkpt lat="43.7127" lon="3.19821">
        <ele>304.88</ele>
        <time>2014-08-23T12:31:14Z</time>
      </trkpt>
      <trkpt lat="43.71267" lon="3.19816">
        <ele>304.88</ele>
        <time>2014-08-23T12:31:15Z</time>
      </trkpt>
      <trkpt lat="43.71264" lon="3.19811">
        <ele>304.88</ele>
        <time>2014-08-23T12:31:16Z</time>
      </trkpt>
      <trkpt lat="43.71253" lon="3.1978">
        <ele>306.32</ele>
        <time>2014-08-23T12:31:21Z</time>
      </trkpt>
      <trkpt lat="43.71243" lon="3.19744">
        <ele>304.88</ele>
        <time>2014-08-23T12:31:26Z</time>
      </trkpt>
      <trkpt lat="43.71233" lon="3.19682">
        <ele>304.39</ele>
        <time>2014-08-23T12:31:34Z</time>
      </trkpt>
      <trkpt lat="43.7123" lon="3.19668">
        <ele>304.39</ele>
        <time>2014-08-23T12:31:36Z</time>
      </trkpt>
      <trkpt lat="43.71227" lon="3.19661">
        <ele>304.39</ele>
        <time>2014-08-23T12:31:37Z</time>
      </trkpt>
      <trkpt lat="43.71224" lon="3.19654">
        <ele>304.39</ele>
        <time>2014-08-23T12:31:38Z</time>
      </trkpt>
      <trkpt lat="43.71221" lon="3.19648">
        <ele>304.39</ele>
        <time>2014-08-23T12:31:39Z</time>
      </trkpt>
      <trkpt lat="43.71217" lon="3.19643">
        <ele>304.39</ele>
        <time>2014-08-23T12:31:40Z</time>
      </trkpt>
      <trkpt lat="43.71206" lon="3.19628">
        <ele>304.39</ele>
        <time>2014-08-23T12:31:43Z</time>
      </trkpt>
      <trkpt lat="43.71188" lon="3.19613">
        <ele>305.36</ele>
        <time>2014-08-23T12:31:47Z</time>
      </trkpt>
      <trkpt lat="43.71183" lon="3.19611">
        <ele>305.84</ele>
        <time>2014-08-23T12:31:48Z</time>
      </trkpt>
      <trkpt lat="43.71154" lon="3.19596">
        <ele>306.8</ele>
        <time>2014-08-23T12:31:55Z</time>
      </trkpt>
      <trkpt lat="43.7115" lon="3.19594">
        <ele>306.8</ele>
        <time>2014-08-23T12:31:56Z</time>
      </trkpt>
      <trkpt lat="43.71111" lon="3.1958">
        <ele>307.76</ele>
        <time>2014-08-23T12:32:06Z</time>
      </trkpt>
      <trkpt lat="43.71085" lon="3.19572">
        <ele>308.72</ele>
        <time>2014-08-23T12:32:14Z</time>
      </trkpt>
      <trkpt lat="43.71062" lon="3.19569">
        <ele>309.68</ele>
        <time>2014-08-23T12:32:23Z</time>
      </trkpt>
      <trkpt lat="43.71055" lon="3.19575">
        <ele>309.68</ele>
        <time>2014-08-23T12:32:27Z</time>
      </trkpt>
      <trkpt lat="43.71054" lon="3.19576">
        <ele>309.68</ele>
        <time>2014-08-23T12:32:28Z</time>
      </trkpt>
      <trkpt lat="43.71042" lon="3.19581">
        <ele>309.68</ele>
        <time>2014-08-23T12:32:34Z</time>
      </trkpt>
      <trkpt lat="43.71035" lon="3.19582">
        <ele>308.72</ele>
        <time>2014-08-23T12:32:36Z</time>
      </trkpt>
      <trkpt lat="43.7102" lon="3.19584">
        <ele>307.76</ele>
        <time>2014-08-23T12:32:40Z</time>
      </trkpt>
      <trkpt lat="43.70987" lon="3.19587">
        <ele>305.36</ele>
        <time>2014-08-23T12:32:46Z</time>
      </trkpt>
      <trkpt lat="43.70961" lon="3.19592">
        <ele>303.43</ele>
        <time>2014-08-23T12:32:50Z</time>
      </trkpt>
      <trkpt lat="43.70908" lon="3.19603">
        <ele>300.07</ele>
        <time>2014-08-23T12:32:58Z</time>
      </trkpt>
      <trkpt lat="43.70885" lon="3.19603">
        <ele>299.59</ele>
        <time>2014-08-23T12:33:03Z</time>
      </trkpt>
      <trkpt lat="43.70881" lon="3.19604">
        <ele>299.59</ele>
        <time>2014-08-23T12:33:05Z</time>
      </trkpt>
      <trkpt lat="43.70878" lon="3.19606">
        <ele>299.59</ele>
        <time>2014-08-23T12:33:06Z</time>
      </trkpt>
      <trkpt lat="43.70857" lon="3.1961">
        <ele>297.67</ele>
        <time>2014-08-23T12:33:12Z</time>
      </trkpt>
      <trkpt lat="43.7083" lon="3.19613">
        <ele>296.22</ele>
        <time>2014-08-23T12:33:19Z</time>
      </trkpt>
      <trkpt lat="43.70828" lon="3.19612">
        <ele>295.74</ele>
        <time>2014-08-23T12:33:20Z</time>
      </trkpt>
      <trkpt lat="43.70826" lon="3.1961">
        <ele>294.78</ele>
        <time>2014-08-23T12:33:21Z</time>
      </trkpt>
      <trkpt lat="43.70824" lon="3.19607">
        <ele>294.78</ele>
        <time>2014-08-23T12:33:22Z</time>
      </trkpt>
      <trkpt lat="43.70822" lon="3.19603">
        <ele>294.78</ele>
        <time>2014-08-23T12:33:23Z</time>
      </trkpt>
      <trkpt lat="43.70819" lon="3.19599">
        <ele>294.78</ele>
        <time>2014-08-23T12:33:24Z</time>
      </trkpt>
      <trkpt lat="43.70815" lon="3.19596">
        <ele>293.82</ele>
        <time>2014-08-23T12:33:25Z</time>
      </trkpt>
      <trkpt lat="43.70811" lon="3.19593">
        <ele>293.82</ele>
        <time>2014-08-23T12:33:26Z</time>
      </trkpt>
      <trkpt lat="43.70804" lon="3.19588">
        <ele>295.26</ele>
        <time>2014-08-23T12:33:28Z</time>
      </trkpt>
      <trkpt lat="43.70801" lon="3.19585">
        <ele>295.74</ele>
        <time>2014-08-23T12:33:34Z</time>
      </trkpt>
      <trkpt lat="43.70801" lon="3.19583">
        <ele>295.74</ele>
        <time>2014-08-23T12:33:41Z</time>
      </trkpt>
      <trkpt lat="43.70798" lon="3.19585">
        <ele>296.22</ele>
        <time>2014-08-23T12:33:49Z</time>
      </trkpt>
      <trkpt lat="43.70797" lon="3.19587">
        <ele>296.22</ele>
        <time>2014-08-23T12:33:59Z</time>
      </trkpt>
      <trkpt lat="43.70799" lon="3.19592">
        <ele>295.74</ele>
        <time>2014-08-23T12:34:15Z</time>
      </trkpt>
      <trkpt lat="43.70803" lon="3.19592">
        <ele>295.74</ele>
        <time>2014-08-23T12:34:36Z</time>
      </trkpt>
      <trkpt lat="43.70802" lon="3.19592">
        <ele>293.82</ele>
        <time>2014-08-23T12:34:50Z</time>
      </trkpt>
      <trkpt lat="43.70801" lon="3.19591">
        <ele>295.74</ele>
        <time>2014-08-23T12:34:55Z</time>
      </trkpt>
      <trkpt lat="43.70797" lon="3.19591">
        <ele>294.3</ele>
        <time>2014-08-23T12:35:10Z</time>
      </trkpt>
      <trkpt lat="43.70796" lon="3.19591">
        <ele>293.82</ele>
        <time>2014-08-23T12:35:24Z</time>
      </trkpt>
      <trkpt lat="43.70798" lon="3.19593">
        <ele>293.82</ele>
        <time>2014-08-23T12:35:44Z</time>
      </trkpt>
      <trkpt lat="43.70798" lon="3.19591">
        <ele>293.82</ele>
        <time>2014-08-23T12:35:53Z</time>
      </trkpt>
      <trkpt lat="43.70799" lon="3.1959">
        <ele>293.34</ele>
        <time>2014-08-23T12:36:08Z</time>
      </trkpt>
      <trkpt lat="43.70798" lon="3.1959">
        <ele>293.34</ele>
        <time>2014-08-23T12:36:19Z</time>
      </trkpt>
      <trkpt lat="43.70796" lon="3.1959">
        <ele>293.34</ele>
        <time>2014-08-23T12:36:26Z</time>
      </trkpt>
      <trkpt lat="43.70795" lon="3.1959">
        <ele>293.34</ele>
        <time>2014-08-23T12:36:30Z</time>
      </trkpt>
      <trkpt lat="43.70794" lon="3.19588">
        <ele>293.34</ele>
        <time>2014-08-23T12:36:31Z</time>
      </trkpt>
      <trkpt lat="43.70794" lon="3.19587">
        <ele>293.34</ele>
        <time>2014-08-23T12:36:32Z</time>
      </trkpt>
      <trkpt lat="43.70793" lon="3.19585">
        <ele>293.34</ele>
        <time>2014-08-23T12:36:33Z</time>
      </trkpt>
      <trkpt lat="43.70792" lon="3.19583">
        <ele>293.34</ele>
        <time>2014-08-23T12:36:34Z</time>
      </trkpt>
      <trkpt lat="43.70791" lon="3.19581">
        <ele>293.34</ele>
        <time>2014-08-23T12:36:35Z</time>
      </trkpt>
      <trkpt lat="43.70791" lon="3.19579">
        <ele>292.86</ele>
        <time>2014-08-23T12:36:36Z</time>
      </trkpt>
      <trkpt lat="43.70784" lon="3.19568">
        <ele>292.38</ele>
        <time>2014-08-23T12:36:41Z</time>
      </trkpt>
      <trkpt lat="43.70768" lon="3.19551">
        <ele>290.94</ele>
        <time>2014-08-23T12:36:48Z</time>
      </trkpt>
      <trkpt lat="43.70751" lon="3.19528">
        <ele>290.94</ele>
        <time>2014-08-23T12:36:55Z</time>
      </trkpt>
      <trkpt lat="43.70737" lon="3.19502">
        <ele>290.94</ele>
        <time>2014-08-23T12:37:02Z</time>
      </trkpt>
      <trkpt lat="43.70728" lon="3.19489">
        <ele>292.38</ele>
        <time>2014-08-23T12:37:07Z</time>
      </trkpt>
      <trkpt lat="43.70715" lon="3.19482">
        <ele>294.3</ele>
        <time>2014-08-23T12:37:14Z</time>
      </trkpt>
      <trkpt lat="43.70714" lon="3.1948">
        <ele>294.3</ele>
        <time>2014-08-23T12:37:15Z</time>
      </trkpt>
      <trkpt lat="43.70702" lon="3.19455">
        <ele>293.34</ele>
        <time>2014-08-23T12:37:23Z</time>
      </trkpt>
      <trkpt lat="43.70698" lon="3.19451">
        <ele>293.34</ele>
        <time>2014-08-23T12:37:25Z</time>
      </trkpt>
      <trkpt lat="43.70697" lon="3.19452">
        <ele>293.34</ele>
        <time>2014-08-23T12:37:27Z</time>
      </trkpt>
      <trkpt lat="43.70696" lon="3.19453">
        <ele>292.86</ele>
        <time>2014-08-23T12:37:28Z</time>
      </trkpt>
      <trkpt lat="43.70688" lon="3.19461">
        <ele>292.38</ele>
        <time>2014-08-23T12:37:33Z</time>
      </trkpt>
      <trkpt lat="43.70674" lon="3.19478">
        <ele>293.82</ele>
        <time>2014-08-23T12:37:41Z</time>
      </trkpt>
      <trkpt lat="43.70668" lon="3.19485">
        <ele>294.78</ele>
        <time>2014-08-23T12:37:45Z</time>
      </trkpt>
      <trkpt lat="43.70668" lon="3.19487">
        <ele>294.78</ele>
        <time>2014-08-23T12:37:46Z</time>
      </trkpt>
      <trkpt lat="43.70667" lon="3.19489">
        <ele>294.78</ele>
        <time>2014-08-23T12:37:47Z</time>
      </trkpt>
      <trkpt lat="43.70666" lon="3.19491">
        <ele>294.78</ele>
        <time>2014-08-23T12:37:48Z</time>
      </trkpt>
      <trkpt lat="43.70666" lon="3.19493">
        <ele>294.78</ele>
        <time>2014-08-23T12:37:49Z</time>
      </trkpt>
      <trkpt lat="43.70666" lon="3.19496">
        <ele>295.26</ele>
        <time>2014-08-23T12:37:50Z</time>
      </trkpt>
      <trkpt lat="43.70665" lon="3.19499">
        <ele>295.26</ele>
        <time>2014-08-23T12:37:51Z</time>
      </trkpt>
      <trkpt lat="43.70664" lon="3.19502">
        <ele>294.78</ele>
        <time>2014-08-23T12:37:52Z</time>
      </trkpt>
      <trkpt lat="43.70663" lon="3.19505">
        <ele>295.26</ele>
        <time>2014-08-23T12:37:53Z</time>
      </trkpt>
      <trkpt lat="43.70662" lon="3.19507">
        <ele>294.78</ele>
        <time>2014-08-23T12:37:54Z</time>
      </trkpt>
      <trkpt lat="43.70661" lon="3.19509">
        <ele>294.78</ele>
        <time>2014-08-23T12:37:55Z</time>
      </trkpt>
      <trkpt lat="43.7066" lon="3.19511">
        <ele>295.74</ele>
        <time>2014-08-23T12:37:56Z</time>
      </trkpt>
      <trkpt lat="43.70652" lon="3.19524">
        <ele>296.22</ele>
        <time>2014-08-23T12:38:02Z</time>
      </trkpt>
      <trkpt lat="43.70637" lon="3.19537">
        <ele>298.15</ele>
        <time>2014-08-23T12:38:10Z</time>
      </trkpt>
      <trkpt lat="43.70628" lon="3.19548">
        <ele>299.59</ele>
        <time>2014-08-23T12:38:16Z</time>
      </trkpt>
      <trkpt lat="43.70617" lon="3.19563">
        <ele>300.07</ele>
        <time>2014-08-23T12:38:24Z</time>
      </trkpt>
      <trkpt lat="43.70605" lon="3.19581">
        <ele>300.07</ele>
        <time>2014-08-23T12:38:31Z</time>
      </trkpt>
      <trkpt lat="43.70596" lon="3.19603">
        <ele>300.07</ele>
        <time>2014-08-23T12:38:37Z</time>
      </trkpt>
      <trkpt lat="43.70592" lon="3.19623">
        <ele>300.07</ele>
        <time>2014-08-23T12:38:42Z</time>
      </trkpt>
      <trkpt lat="43.70592" lon="3.1963">
        <ele>300.07</ele>
        <time>2014-08-23T12:38:44Z</time>
      </trkpt>
      <trkpt lat="43.70595" lon="3.19659">
        <ele>301.99</ele>
        <time>2014-08-23T12:38:52Z</time>
      </trkpt>
      <trkpt lat="43.70597" lon="3.19681">
        <ele>303.43</ele>
        <time>2014-08-23T12:38:58Z</time>
      </trkpt>
      <trkpt lat="43.70606" lon="3.19708">
        <ele>304.39</ele>
        <time>2014-08-23T12:39:04Z</time>
      </trkpt>
      <trkpt lat="43.70607" lon="3.19729">
        <ele>306.8</ele>
        <time>2014-08-23T12:39:11Z</time>
      </trkpt>
      <trkpt lat="43.70604" lon="3.19753">
        <ele>306.8</ele>
        <time>2014-08-23T12:39:19Z</time>
      </trkpt>
      <trkpt lat="43.70602" lon="3.19778">
        <ele>306.8</ele>
        <time>2014-08-23T12:39:27Z</time>
      </trkpt>
      <trkpt lat="43.70591" lon="3.19794">
        <ele>307.28</ele>
        <time>2014-08-23T12:39:34Z</time>
      </trkpt>
      <trkpt lat="43.70577" lon="3.19803">
        <ele>309.2</ele>
        <time>2014-08-23T12:39:42Z</time>
      </trkpt>
      <trkpt lat="43.70563" lon="3.19812">
        <ele>310.16</ele>
        <time>2014-08-23T12:39:50Z</time>
      </trkpt>
      <trkpt lat="43.7055" lon="3.19826">
        <ele>311.12</ele>
        <time>2014-08-23T12:39:58Z</time>
      </trkpt>
      <trkpt lat="43.70535" lon="3.19838">
        <ele>313.05</ele>
        <time>2014-08-23T12:40:07Z</time>
      </trkpt>
      <trkpt lat="43.70517" lon="3.19843">
        <ele>314.49</ele>
        <time>2014-08-23T12:40:16Z</time>
      </trkpt>
      <trkpt lat="43.70506" lon="3.19849">
        <ele>314.97</ele>
        <time>2014-08-23T12:40:22Z</time>
      </trkpt>
      <trkpt lat="43.70492" lon="3.19862">
        <ele>315.93</ele>
        <time>2014-08-23T12:40:30Z</time>
      </trkpt>
      <trkpt lat="43.70473" lon="3.1988">
        <ele>315.93</ele>
        <time>2014-08-23T12:40:37Z</time>
      </trkpt>
      <trkpt lat="43.7046" lon="3.19892">
        <ele>316.41</ele>
        <time>2014-08-23T12:40:43Z</time>
      </trkpt>
      <trkpt lat="43.70446" lon="3.19901">
        <ele>317.85</ele>
        <time>2014-08-23T12:40:50Z</time>
      </trkpt>
      <trkpt lat="43.70433" lon="3.19916">
        <ele>319.3</ele>
        <time>2014-08-23T12:40:58Z</time>
      </trkpt>
      <trkpt lat="43.70425" lon="3.1993">
        <ele>319.78</ele>
        <time>2014-08-23T12:41:04Z</time>
      </trkpt>
      <trkpt lat="43.70414" lon="3.19944">
        <ele>319.78</ele>
        <time>2014-08-23T12:41:12Z</time>
      </trkpt>
      <trkpt lat="43.70414" lon="3.19937">
        <ele>320.26</ele>
        <time>2014-08-23T12:41:17Z</time>
      </trkpt>
      <trkpt lat="43.70418" lon="3.19932">
        <ele>320.74</ele>
        <time>2014-08-23T12:41:20Z</time>
      </trkpt>
      <trkpt lat="43.70422" lon="3.19925">
        <ele>321.7</ele>
        <time>2014-08-23T12:41:24Z</time>
      </trkpt>
      <trkpt lat="43.70431" lon="3.19908">
        <ele>322.18</ele>
        <time>2014-08-23T12:41:32Z</time>
      </trkpt>
      <trkpt lat="43.70433" lon="3.19904">
        <ele>322.66</ele>
        <time>2014-08-23T12:41:34Z</time>
      </trkpt>
      <trkpt lat="43.70441" lon="3.19892">
        <ele>323.62</ele>
        <time>2014-08-23T12:41:41Z</time>
      </trkpt>
      <trkpt lat="43.70447" lon="3.19882">
        <ele>324.58</ele>
        <time>2014-08-23T12:41:46Z</time>
      </trkpt>
      <trkpt lat="43.7045" lon="3.1988">
        <ele>324.58</ele>
        <time>2014-08-23T12:41:48Z</time>
      </trkpt>
      <trkpt lat="43.70453" lon="3.19877">
        <ele>325.06</ele>
        <time>2014-08-23T12:41:50Z</time>
      </trkpt>
      <trkpt lat="43.70455" lon="3.19876">
        <ele>325.06</ele>
        <time>2014-08-23T12:41:51Z</time>
      </trkpt>
      <trkpt lat="43.70468" lon="3.19861">
        <ele>326.02</ele>
        <time>2014-08-23T12:42:00Z</time>
      </trkpt>
      <trkpt lat="43.70479" lon="3.19847">
        <ele>327.47</ele>
        <time>2014-08-23T12:42:08Z</time>
      </trkpt>
      <trkpt lat="43.70488" lon="3.19834">
        <ele>327.95</ele>
        <time>2014-08-23T12:42:15Z</time>
      </trkpt>
      <trkpt lat="43.70501" lon="3.19817">
        <ele>328.91</ele>
        <time>2014-08-23T12:42:24Z</time>
      </trkpt>
      <trkpt lat="43.70516" lon="3.19805">
        <ele>330.35</ele>
        <time>2014-08-23T12:42:32Z</time>
      </trkpt>
      <trkpt lat="43.70517" lon="3.19803">
        <ele>330.35</ele>
        <time>2014-08-23T12:42:33Z</time>
      </trkpt>
      <trkpt lat="43.70518" lon="3.19801">
        <ele>330.35</ele>
        <time>2014-08-23T12:42:34Z</time>
      </trkpt>
      <trkpt lat="43.70529" lon="3.19789">
        <ele>331.79</ele>
        <time>2014-08-23T12:42:42Z</time>
      </trkpt>
      <trkpt lat="43.70536" lon="3.19781">
        <ele>331.79</ele>
        <time>2014-08-23T12:42:47Z</time>
      </trkpt>
      <trkpt lat="43.70543" lon="3.19771">
        <ele>333.23</ele>
        <time>2014-08-23T12:42:53Z</time>
      </trkpt>
      <trkpt lat="43.7055" lon="3.19752">
        <ele>333.71</ele>
        <time>2014-08-23T12:43:01Z</time>
      </trkpt>
      <trkpt lat="43.70551" lon="3.19736">
        <ele>335.16</ele>
        <time>2014-08-23T12:43:08Z</time>
      </trkpt>
      <trkpt lat="43.70551" lon="3.19718">
        <ele>336.12</ele>
        <time>2014-08-23T12:43:17Z</time>
      </trkpt>
      <trkpt lat="43.7055" lon="3.19708">
        <ele>336.6</ele>
        <time>2014-08-23T12:43:21Z</time>
      </trkpt>
      <trkpt lat="43.7055" lon="3.19706">
        <ele>336.6</ele>
        <time>2014-08-23T12:43:22Z</time>
      </trkpt>
      <trkpt lat="43.70551" lon="3.19705">
        <ele>337.08</ele>
        <time>2014-08-23T12:43:23Z</time>
      </trkpt>
      <trkpt lat="43.70551" lon="3.19703">
        <ele>337.56</ele>
        <time>2014-08-23T12:43:24Z</time>
      </trkpt>
      <trkpt lat="43.70551" lon="3.19701">
        <ele>337.56</ele>
        <time>2014-08-23T12:43:25Z</time>
      </trkpt>
      <trkpt lat="43.70551" lon="3.19699">
        <ele>338.52</ele>
        <time>2014-08-23T12:43:26Z</time>
      </trkpt>
      <trkpt lat="43.70552" lon="3.19686">
        <ele>339.48</ele>
        <time>2014-08-23T12:43:32Z</time>
      </trkpt>
      <trkpt lat="43.70549" lon="3.19662">
        <ele>340.92</ele>
        <time>2014-08-23T12:43:41Z</time>
      </trkpt>
      <trkpt lat="43.70548" lon="3.19644">
        <ele>341.89</ele>
        <time>2014-08-23T12:43:49Z</time>
      </trkpt>
      <trkpt lat="43.70547" lon="3.19639">
        <ele>342.37</ele>
        <time>2014-08-23T12:43:51Z</time>
      </trkpt>
      <trkpt lat="43.70547" lon="3.19637">
        <ele>342.37</ele>
        <time>2014-08-23T12:43:52Z</time>
      </trkpt>
      <trkpt lat="43.70547" lon="3.19635">
        <ele>342.37</ele>
        <time>2014-08-23T12:43:53Z</time>
      </trkpt>
      <trkpt lat="43.70547" lon="3.19614">
        <ele>343.81</ele>
        <time>2014-08-23T12:44:02Z</time>
      </trkpt>
      <trkpt lat="43.70548" lon="3.19611">
        <ele>343.81</ele>
        <time>2014-08-23T12:44:03Z</time>
      </trkpt>
      <trkpt lat="43.70548" lon="3.19609">
        <ele>343.81</ele>
        <time>2014-08-23T12:44:04Z</time>
      </trkpt>
      <trkpt lat="43.70548" lon="3.19606">
        <ele>343.81</ele>
        <time>2014-08-23T12:44:05Z</time>
      </trkpt>
      <trkpt lat="43.70548" lon="3.19604">
        <ele>343.81</ele>
        <time>2014-08-23T12:44:06Z</time>
      </trkpt>
      <trkpt lat="43.70548" lon="3.19602">
        <ele>343.81</ele>
        <time>2014-08-23T12:44:07Z</time>
      </trkpt>
      <trkpt lat="43.70548" lon="3.196">
        <ele>343.81</ele>
        <time>2014-08-23T12:44:08Z</time>
      </trkpt>
      <trkpt lat="43.70548" lon="3.19597">
        <ele>343.81</ele>
        <time>2014-08-23T12:44:09Z</time>
      </trkpt>
      <trkpt lat="43.70549" lon="3.19595">
        <ele>343.81</ele>
        <time>2014-08-23T12:44:10Z</time>
      </trkpt>
      <trkpt lat="43.70553" lon="3.19572">
        <ele>346.21</ele>
        <time>2014-08-23T12:44:20Z</time>
      </trkpt>
      <trkpt lat="43.70556" lon="3.19556">
        <ele>347.17</ele>
        <time>2014-08-23T12:44:27Z</time>
      </trkpt>
      <trkpt lat="43.70555" lon="3.19555">
        <ele>347.17</ele>
        <time>2014-08-23T12:44:28Z</time>
      </trkpt>
      <trkpt lat="43.70553" lon="3.19554">
        <ele>347.17</ele>
        <time>2014-08-23T12:44:29Z</time>
      </trkpt>
      <trkpt lat="43.70552" lon="3.19553">
        <ele>347.17</ele>
        <time>2014-08-23T12:44:30Z</time>
      </trkpt>
      <trkpt lat="43.7055" lon="3.19553">
        <ele>347.65</ele>
        <time>2014-08-23T12:44:31Z</time>
      </trkpt>
      <trkpt lat="43.70548" lon="3.19555">
        <ele>347.65</ele>
        <time>2014-08-23T12:44:32Z</time>
      </trkpt>
      <trkpt lat="43.70547" lon="3.19557">
        <ele>347.65</ele>
        <time>2014-08-23T12:44:33Z</time>
      </trkpt>
      <trkpt lat="43.70546" lon="3.19559">
        <ele>348.13</ele>
        <time>2014-08-23T12:44:34Z</time>
      </trkpt>
      <trkpt lat="43.70546" lon="3.19561">
        <ele>348.13</ele>
        <time>2014-08-23T12:44:35Z</time>
      </trkpt>
      <trkpt lat="43.70545" lon="3.19564">
        <ele>348.13</ele>
        <time>2014-08-23T12:44:36Z</time>
      </trkpt>
      <trkpt lat="43.70542" lon="3.19583">
        <ele>350.06</ele>
        <time>2014-08-23T12:44:44Z</time>
      </trkpt>
      <trkpt lat="43.70533" lon="3.19607">
        <ele>351.5</ele>
        <time>2014-08-23T12:44:55Z</time>
      </trkpt>
      <trkpt lat="43.70528" lon="3.19621">
        <ele>351.98</ele>
        <time>2014-08-23T12:45:01Z</time>
      </trkpt>
      <trkpt lat="43.70526" lon="3.19626">
        <ele>351.98</ele>
        <time>2014-08-23T12:45:03Z</time>
      </trkpt>
      <trkpt lat="43.70525" lon="3.19628">
        <ele>351.98</ele>
        <time>2014-08-23T12:45:04Z</time>
      </trkpt>
      <trkpt lat="43.70524" lon="3.19629">
        <ele>351.98</ele>
        <time>2014-08-23T12:45:05Z</time>
      </trkpt>
      <trkpt lat="43.70523" lon="3.19631">
        <ele>351.98</ele>
        <time>2014-08-23T12:45:06Z</time>
      </trkpt>
      <trkpt lat="43.70522" lon="3.19633">
        <ele>351.98</ele>
        <time>2014-08-23T12:45:07Z</time>
      </trkpt>
      <trkpt lat="43.70517" lon="3.19652">
        <ele>352.94</ele>
        <time>2014-08-23T12:45:15Z</time>
      </trkpt>
      <trkpt lat="43.70515" lon="3.19678">
        <ele>353.9</ele>
        <time>2014-08-23T12:45:25Z</time>
      </trkpt>
      <trkpt lat="43.70512" lon="3.19699">
        <ele>355.34</ele>
        <time>2014-08-23T12:45:33Z</time>
      </trkpt>
      <trkpt lat="43.70508" lon="3.19715">
        <ele>356.31</ele>
        <time>2014-08-23T12:45:40Z</time>
      </trkpt>
      <trkpt lat="43.70499" lon="3.19735">
        <ele>357.27</ele>
        <time>2014-08-23T12:45:49Z</time>
      </trkpt>
      <trkpt lat="43.70486" lon="3.19747">
        <ele>358.71</ele>
        <time>2014-08-23T12:45:56Z</time>
      </trkpt>
      <trkpt lat="43.70473" lon="3.19758">
        <ele>359.19</ele>
        <time>2014-08-23T12:46:03Z</time>
      </trkpt>
      <trkpt lat="43.70464" lon="3.19769">
        <ele>360.15</ele>
        <time>2014-08-23T12:46:09Z</time>
      </trkpt>
      <trkpt lat="43.70451" lon="3.19779">
        <ele>362.07</ele>
        <time>2014-08-23T12:46:16Z</time>
      </trkpt>
      <trkpt lat="43.70443" lon="3.1979">
        <ele>362.07</ele>
        <time>2014-08-23T12:46:22Z</time>
      </trkpt>
      <trkpt lat="43.70429" lon="3.19801">
        <ele>363.04</ele>
        <time>2014-08-23T12:46:31Z</time>
      </trkpt>
      <trkpt lat="43.70428" lon="3.19802">
        <ele>363.04</ele>
        <time>2014-08-23T12:46:32Z</time>
      </trkpt>
      <trkpt lat="43.70424" lon="3.19808">
        <ele>364</ele>
        <time>2014-08-23T12:46:37Z</time>
      </trkpt>
      <trkpt lat="43.70422" lon="3.19809">
        <ele>364</ele>
        <time>2014-08-23T12:46:38Z</time>
      </trkpt>
      <trkpt lat="43.7041" lon="3.19822">
        <ele>364.48</ele>
        <time>2014-08-23T12:46:45Z</time>
      </trkpt>
      <trkpt lat="43.704" lon="3.19833">
        <ele>365.92</ele>
        <time>2014-08-23T12:46:52Z</time>
      </trkpt>
      <trkpt lat="43.70377" lon="3.19844">
        <ele>366.4</ele>
        <time>2014-08-23T12:46:58Z</time>
      </trkpt>
      <trkpt lat="43.70369" lon="3.19855">
        <ele>366.88</ele>
        <time>2014-08-23T12:47:03Z</time>
      </trkpt>
      <trkpt lat="43.70367" lon="3.19857">
        <ele>366.88</ele>
        <time>2014-08-23T12:47:04Z</time>
      </trkpt>
      <trkpt lat="43.70355" lon="3.19872">
        <ele>368.32</ele>
        <time>2014-08-23T12:47:12Z</time>
      </trkpt>
      <trkpt lat="43.70348" lon="3.19887">
        <ele>369.76</ele>
        <time>2014-08-23T12:47:19Z</time>
      </trkpt>
      <trkpt lat="43.70336" lon="3.199">
        <ele>370.24</ele>
        <time>2014-08-23T12:47:26Z</time>
      </trkpt>
      <trkpt lat="43.70329" lon="3.19909">
        <ele>370.73</ele>
        <time>2014-08-23T12:47:31Z</time>
      </trkpt>
      <trkpt lat="43.70328" lon="3.19911">
        <ele>370.73</ele>
        <time>2014-08-23T12:47:32Z</time>
      </trkpt>
      <trkpt lat="43.70319" lon="3.19926">
        <ele>372.17</ele>
        <time>2014-08-23T12:47:39Z</time>
      </trkpt>
      <trkpt lat="43.7031" lon="3.19943">
        <ele>372.65</ele>
        <time>2014-08-23T12:47:47Z</time>
      </trkpt>
      <trkpt lat="43.70307" lon="3.1995">
        <ele>372.65</ele>
        <time>2014-08-23T12:47:50Z</time>
      </trkpt>
      <trkpt lat="43.70306" lon="3.19952">
        <ele>372.65</ele>
        <time>2014-08-23T12:47:51Z</time>
      </trkpt>
      <trkpt lat="43.70304" lon="3.19954">
        <ele>372.65</ele>
        <time>2014-08-23T12:47:52Z</time>
      </trkpt>
      <trkpt lat="43.70299" lon="3.1997">
        <ele>374.09</ele>
        <time>2014-08-23T12:47:59Z</time>
      </trkpt>
      <trkpt lat="43.70293" lon="3.19988">
        <ele>375.05</ele>
        <time>2014-08-23T12:48:07Z</time>
      </trkpt>
      <trkpt lat="43.70285" lon="3.20007">
        <ele>375.05</ele>
        <time>2014-08-23T12:48:14Z</time>
      </trkpt>
      <trkpt lat="43.70279" lon="3.2003">
        <ele>375.53</ele>
        <time>2014-08-23T12:48:22Z</time>
      </trkpt>
      <trkpt lat="43.70269" lon="3.2006">
        <ele>376.97</ele>
        <time>2014-08-23T12:48:33Z</time>
      </trkpt>
      <trkpt lat="43.70259" lon="3.20085">
        <ele>378.42</ele>
        <time>2014-08-23T12:48:43Z</time>
      </trkpt>
      <trkpt lat="43.70248" lon="3.20105">
        <ele>379.86</ele>
        <time>2014-08-23T12:48:52Z</time>
      </trkpt>
      <trkpt lat="43.70237" lon="3.20125">
        <ele>381.3</ele>
        <time>2014-08-23T12:49:02Z</time>
      </trkpt>
      <trkpt lat="43.70227" lon="3.20142">
        <ele>383.22</ele>
        <time>2014-08-23T12:49:10Z</time>
      </trkpt>
      <trkpt lat="43.70218" lon="3.20158">
        <ele>384.66</ele>
        <time>2014-08-23T12:49:18Z</time>
      </trkpt>
      <trkpt lat="43.70207" lon="3.20172">
        <ele>385.15</ele>
        <time>2014-08-23T12:49:25Z</time>
      </trkpt>
      <trkpt lat="43.70194" lon="3.20186">
        <ele>386.59</ele>
        <time>2014-08-23T12:49:33Z</time>
      </trkpt>
      <trkpt lat="43.70181" lon="3.20197">
        <ele>387.07</ele>
        <time>2014-08-23T12:49:40Z</time>
      </trkpt>
      <trkpt lat="43.70168" lon="3.20209">
        <ele>387.55</ele>
        <time>2014-08-23T12:49:48Z</time>
      </trkpt>
      <trkpt lat="43.70146" lon="3.2022">
        <ele>389.95</ele>
        <time>2014-08-23T12:49:59Z</time>
      </trkpt>
      <trkpt lat="43.70131" lon="3.20224">
        <ele>390.91</ele>
        <time>2014-08-23T12:50:06Z</time>
      </trkpt>
      <trkpt lat="43.70113" lon="3.20228">
        <ele>392.36</ele>
        <time>2014-08-23T12:50:15Z</time>
      </trkpt>
      <trkpt lat="43.70094" lon="3.2023">
        <ele>393.32</ele>
        <time>2014-08-23T12:50:24Z</time>
      </trkpt>
      <trkpt lat="43.70074" lon="3.20231">
        <ele>394.28</ele>
        <time>2014-08-23T12:50:34Z</time>
      </trkpt>
      <trkpt lat="43.70061" lon="3.20231">
        <ele>395.24</ele>
        <time>2014-08-23T12:50:41Z</time>
      </trkpt>
      <trkpt lat="43.70042" lon="3.2023">
        <ele>396.2</ele>
        <time>2014-08-23T12:50:50Z</time>
      </trkpt>
      <trkpt lat="43.70023" lon="3.20228">
        <ele>397.16</ele>
        <time>2014-08-23T12:50:59Z</time>
      </trkpt>
      <trkpt lat="43.70007" lon="3.20228">
        <ele>397.64</ele>
        <time>2014-08-23T12:51:07Z</time>
      </trkpt>
      <trkpt lat="43.6999" lon="3.2023">
        <ele>398.12</ele>
        <time>2014-08-23T12:51:15Z</time>
      </trkpt>
      <trkpt lat="43.69971" lon="3.20231">
        <ele>400.05</ele>
        <time>2014-08-23T12:51:24Z</time>
      </trkpt>
      <trkpt lat="43.69952" lon="3.2023">
        <ele>401.49</ele>
        <time>2014-08-23T12:51:33Z</time>
      </trkpt>
      <trkpt lat="43.69938" lon="3.20225">
        <ele>402.45</ele>
        <time>2014-08-23T12:51:40Z</time>
      </trkpt>
      <trkpt lat="43.69925" lon="3.20217">
        <ele>403.89</ele>
        <time>2014-08-23T12:51:48Z</time>
      </trkpt>
      <trkpt lat="43.69912" lon="3.20203">
        <ele>405.33</ele>
        <time>2014-08-23T12:51:57Z</time>
      </trkpt>
      <trkpt lat="43.699" lon="3.20202">
        <ele>405.81</ele>
        <time>2014-08-23T12:52:04Z</time>
      </trkpt>
      <trkpt lat="43.69884" lon="3.20206">
        <ele>407.74</ele>
        <time>2014-08-23T12:52:12Z</time>
      </trkpt>
      <trkpt lat="43.69869" lon="3.20202">
        <ele>408.22</ele>
        <time>2014-08-23T12:52:19Z</time>
      </trkpt>
      <trkpt lat="43.69855" lon="3.2019">
        <ele>409.18</ele>
        <time>2014-08-23T12:52:27Z</time>
      </trkpt>
      <trkpt lat="43.69846" lon="3.20173">
        <ele>410.14</ele>
        <time>2014-08-23T12:52:35Z</time>
      </trkpt>
      <trkpt lat="43.69837" lon="3.20156">
        <ele>411.1</ele>
        <time>2014-08-23T12:52:43Z</time>
      </trkpt>
      <trkpt lat="43.69827" lon="3.20141">
        <ele>412.54</ele>
        <time>2014-08-23T12:52:51Z</time>
      </trkpt>
      <trkpt lat="43.69822" lon="3.20139">
        <ele>412.06</ele>
        <time>2014-08-23T12:52:54Z</time>
      </trkpt>
      <trkpt lat="43.6982" lon="3.20139">
        <ele>412.06</ele>
        <time>2014-08-23T12:52:55Z</time>
      </trkpt>
      <trkpt lat="43.69818" lon="3.2014">
        <ele>412.54</ele>
        <time>2014-08-23T12:52:56Z</time>
      </trkpt>
      <trkpt lat="43.69817" lon="3.20141">
        <ele>412.54</ele>
        <time>2014-08-23T12:52:57Z</time>
      </trkpt>
      <trkpt lat="43.69816" lon="3.20143">
        <ele>412.54</ele>
        <time>2014-08-23T12:52:58Z</time>
      </trkpt>
      <trkpt lat="43.69806" lon="3.20156">
        <ele>413.5</ele>
        <time>2014-08-23T12:53:06Z</time>
      </trkpt>
      <trkpt lat="43.69794" lon="3.20169">
        <ele>414.95</ele>
        <time>2014-08-23T12:53:14Z</time>
      </trkpt>
      <trkpt lat="43.69781" lon="3.20176">
        <ele>415.91</ele>
        <time>2014-08-23T12:53:21Z</time>
      </trkpt>
      <trkpt lat="43.69776" lon="3.20179">
        <ele>415.91</ele>
        <time>2014-08-23T12:53:24Z</time>
      </trkpt>
      <trkpt lat="43.69774" lon="3.20181">
        <ele>416.39</ele>
        <time>2014-08-23T12:53:25Z</time>
      </trkpt>
      <trkpt lat="43.69772" lon="3.20181">
        <ele>416.39</ele>
        <time>2014-08-23T12:53:26Z</time>
      </trkpt>
      <trkpt lat="43.6977" lon="3.20182">
        <ele>416.87</ele>
        <time>2014-08-23T12:53:27Z</time>
      </trkpt>
      <trkpt lat="43.69768" lon="3.20183">
        <ele>417.83</ele>
        <time>2014-08-23T12:53:28Z</time>
      </trkpt>
      <trkpt lat="43.69766" lon="3.20183">
        <ele>418.31</ele>
        <time>2014-08-23T12:53:29Z</time>
      </trkpt>
      <trkpt lat="43.69751" lon="3.20185">
        <ele>419.27</ele>
        <time>2014-08-23T12:53:38Z</time>
      </trkpt>
      <trkpt lat="43.69747" lon="3.20186">
        <ele>419.75</ele>
        <time>2014-08-23T12:53:41Z</time>
      </trkpt>
      <trkpt lat="43.69746" lon="3.20186">
        <ele>419.75</ele>
        <time>2014-08-23T12:53:42Z</time>
      </trkpt>
      <trkpt lat="43.69745" lon="3.20186">
        <ele>420.23</ele>
        <time>2014-08-23T12:53:43Z</time>
      </trkpt>
      <trkpt lat="43.69731" lon="3.20185">
        <ele>421.68</ele>
        <time>2014-08-23T12:53:52Z</time>
      </trkpt>
      <trkpt lat="43.69723" lon="3.20182">
        <ele>423.12</ele>
        <time>2014-08-23T12:53:58Z</time>
      </trkpt>
      <trkpt lat="43.69722" lon="3.20181">
        <ele>423.6</ele>
        <time>2014-08-23T12:53:59Z</time>
      </trkpt>
      <trkpt lat="43.69714" lon="3.20173">
        <ele>426.48</ele>
        <time>2014-08-23T12:54:06Z</time>
      </trkpt>
      <trkpt lat="43.69705" lon="3.20164">
        <ele>426.48</ele>
        <time>2014-08-23T12:54:14Z</time>
      </trkpt>
      <trkpt lat="43.69704" lon="3.20163">
        <ele>426.48</ele>
        <time>2014-08-23T12:54:15Z</time>
      </trkpt>
      <trkpt lat="43.69703" lon="3.20161">
        <ele>426.48</ele>
        <time>2014-08-23T12:54:16Z</time>
      </trkpt>
      <trkpt lat="43.69702" lon="3.2016">
        <ele>426.48</ele>
        <time>2014-08-23T12:54:17Z</time>
      </trkpt>
      <trkpt lat="43.697" lon="3.20157">
        <ele>426.48</ele>
        <time>2014-08-23T12:54:20Z</time>
      </trkpt>
      <trkpt lat="43.69691" lon="3.20147">
        <ele>427.92</ele>
        <time>2014-08-23T12:54:28Z</time>
      </trkpt>
      <trkpt lat="43.69682" lon="3.2014">
        <ele>428.89</ele>
        <time>2014-08-23T12:54:35Z</time>
      </trkpt>
      <trkpt lat="43.69676" lon="3.20136">
        <ele>429.37</ele>
        <time>2014-08-23T12:54:40Z</time>
      </trkpt>
      <trkpt lat="43.69675" lon="3.20135">
        <ele>429.37</ele>
        <time>2014-08-23T12:54:41Z</time>
      </trkpt>
      <trkpt lat="43.69665" lon="3.20124">
        <ele>430.81</ele>
        <time>2014-08-23T12:54:50Z</time>
      </trkpt>
      <trkpt lat="43.69654" lon="3.20117">
        <ele>432.25</ele>
        <time>2014-08-23T12:54:59Z</time>
      </trkpt>
      <trkpt lat="43.69647" lon="3.20115">
        <ele>433.21</ele>
        <time>2014-08-23T12:55:06Z</time>
      </trkpt>
      <trkpt lat="43.69646" lon="3.20115">
        <ele>433.21</ele>
        <time>2014-08-23T12:55:07Z</time>
      </trkpt>
      <trkpt lat="43.69644" lon="3.20116">
        <ele>433.21</ele>
        <time>2014-08-23T12:55:08Z</time>
      </trkpt>
      <trkpt lat="43.69641" lon="3.20117">
        <ele>433.69</ele>
        <time>2014-08-23T12:55:10Z</time>
      </trkpt>
      <trkpt lat="43.6964" lon="3.20119">
        <ele>433.69</ele>
        <time>2014-08-23T12:55:11Z</time>
      </trkpt>
      <trkpt lat="43.69639" lon="3.2012">
        <ele>433.69</ele>
        <time>2014-08-23T12:55:12Z</time>
      </trkpt>
      <trkpt lat="43.69629" lon="3.20133">
        <ele>434.65</ele>
        <time>2014-08-23T12:55:20Z</time>
      </trkpt>
      <trkpt lat="43.69628" lon="3.20134">
        <ele>434.65</ele>
        <time>2014-08-23T12:55:21Z</time>
      </trkpt>
      <trkpt lat="43.69626" lon="3.20135">
        <ele>434.65</ele>
        <time>2014-08-23T12:55:22Z</time>
      </trkpt>
      <trkpt lat="43.69625" lon="3.20136">
        <ele>435.13</ele>
        <time>2014-08-23T12:55:23Z</time>
      </trkpt>
      <trkpt lat="43.69624" lon="3.20138">
        <ele>435.13</ele>
        <time>2014-08-23T12:55:24Z</time>
      </trkpt>
      <trkpt lat="43.69623" lon="3.20139">
        <ele>435.13</ele>
        <time>2014-08-23T12:55:25Z</time>
      </trkpt>
      <trkpt lat="43.69622" lon="3.2014">
        <ele>435.61</ele>
        <time>2014-08-23T12:55:26Z</time>
      </trkpt>
      <trkpt lat="43.69621" lon="3.20142">
        <ele>435.61</ele>
        <time>2014-08-23T12:55:27Z</time>
      </trkpt>
      <trkpt lat="43.6962" lon="3.20143">
        <ele>436.1</ele>
        <time>2014-08-23T12:55:28Z</time>
      </trkpt>
      <trkpt lat="43.69611" lon="3.20156">
        <ele>437.06</ele>
        <time>2014-08-23T12:55:37Z</time>
      </trkpt>
      <trkpt lat="43.69599" lon="3.20171">
        <ele>438.98</ele>
        <time>2014-08-23T12:55:48Z</time>
      </trkpt>
      <trkpt lat="43.69593" lon="3.20183">
        <ele>440.42</ele>
        <time>2014-08-23T12:55:56Z</time>
      </trkpt>
      <trkpt lat="43.69586" lon="3.20189">
        <ele>441.86</ele>
        <time>2014-08-23T12:56:03Z</time>
      </trkpt>
      <trkpt lat="43.69578" lon="3.20191">
        <ele>444.75</ele>
        <time>2014-08-23T12:56:09Z</time>
      </trkpt>
      <trkpt lat="43.69568" lon="3.20196">
        <ele>444.75</ele>
        <time>2014-08-23T12:56:17Z</time>
      </trkpt>
      <trkpt lat="43.69555" lon="3.20201">
        <ele>446.19</ele>
        <time>2014-08-23T12:56:27Z</time>
      </trkpt>
      <trkpt lat="43.69554" lon="3.20202">
        <ele>446.19</ele>
        <time>2014-08-23T12:56:28Z</time>
      </trkpt>
      <trkpt lat="43.69553" lon="3.20203">
        <ele>446.67</ele>
        <time>2014-08-23T12:56:29Z</time>
      </trkpt>
      <trkpt lat="43.69552" lon="3.20203">
        <ele>446.67</ele>
        <time>2014-08-23T12:56:30Z</time>
      </trkpt>
      <trkpt lat="43.69551" lon="3.20203">
        <ele>446.67</ele>
        <time>2014-08-23T12:56:31Z</time>
      </trkpt>
      <trkpt lat="43.6955" lon="3.20204">
        <ele>446.67</ele>
        <time>2014-08-23T12:56:32Z</time>
      </trkpt>
      <trkpt lat="43.69549" lon="3.20204">
        <ele>447.15</ele>
        <time>2014-08-23T12:56:33Z</time>
      </trkpt>
      <trkpt lat="43.69548" lon="3.20205">
        <ele>446.67</ele>
        <time>2014-08-23T12:56:34Z</time>
      </trkpt>
      <trkpt lat="43.69541" lon="3.20208">
        <ele>447.63</ele>
        <time>2014-08-23T12:56:40Z</time>
      </trkpt>
      <trkpt lat="43.6954" lon="3.20209">
        <ele>447.63</ele>
        <time>2014-08-23T12:56:41Z</time>
      </trkpt>
      <trkpt lat="43.69539" lon="3.20209">
        <ele>447.63</ele>
        <time>2014-08-23T12:56:42Z</time>
      </trkpt>
      <trkpt lat="43.69538" lon="3.2021">
        <ele>447.63</ele>
        <time>2014-08-23T12:56:43Z</time>
      </trkpt>
      <trkpt lat="43.69536" lon="3.20211">
        <ele>447.63</ele>
        <time>2014-08-23T12:56:44Z</time>
      </trkpt>
      <trkpt lat="43.69535" lon="3.20211">
        <ele>447.63</ele>
        <time>2014-08-23T12:56:45Z</time>
      </trkpt>
      <trkpt lat="43.69534" lon="3.20212">
        <ele>447.63</ele>
        <time>2014-08-23T12:56:46Z</time>
      </trkpt>
      <trkpt lat="43.69533" lon="3.20213">
        <ele>447.63</ele>
        <time>2014-08-23T12:56:47Z</time>
      </trkpt>
      <trkpt lat="43.69532" lon="3.20214">
        <ele>448.11</ele>
        <time>2014-08-23T12:56:48Z</time>
      </trkpt>
      <trkpt lat="43.6952" lon="3.20219">
        <ele>449.07</ele>
        <time>2014-08-23T12:56:57Z</time>
      </trkpt>
      <trkpt lat="43.6951" lon="3.20225">
        <ele>450.52</ele>
        <time>2014-08-23T12:57:05Z</time>
      </trkpt>
      <trkpt lat="43.69501" lon="3.20229">
        <ele>451.48</ele>
        <time>2014-08-23T12:57:13Z</time>
      </trkpt>
      <trkpt lat="43.695" lon="3.20229">
        <ele>451.48</ele>
        <time>2014-08-23T12:57:14Z</time>
      </trkpt>
      <trkpt lat="43.69499" lon="3.2023">
        <ele>451.48</ele>
        <time>2014-08-23T12:57:15Z</time>
      </trkpt>
      <trkpt lat="43.69497" lon="3.2023">
        <ele>452.44</ele>
        <time>2014-08-23T12:57:16Z</time>
      </trkpt>
      <trkpt lat="43.69496" lon="3.20231">
        <ele>452.44</ele>
        <time>2014-08-23T12:57:17Z</time>
      </trkpt>
      <trkpt lat="43.69495" lon="3.20231">
        <ele>452.44</ele>
        <time>2014-08-23T12:57:18Z</time>
      </trkpt>
      <trkpt lat="43.69494" lon="3.20231">
        <ele>452.44</ele>
        <time>2014-08-23T12:57:19Z</time>
      </trkpt>
      <trkpt lat="43.69492" lon="3.20232">
        <ele>452.92</ele>
        <time>2014-08-23T12:57:20Z</time>
      </trkpt>
      <trkpt lat="43.69491" lon="3.20232">
        <ele>452.92</ele>
        <time>2014-08-23T12:57:21Z</time>
      </trkpt>
      <trkpt lat="43.6949" lon="3.20232">
        <ele>453.4</ele>
        <time>2014-08-23T12:57:22Z</time>
      </trkpt>
      <trkpt lat="43.69488" lon="3.20233">
        <ele>453.4</ele>
        <time>2014-08-23T12:57:24Z</time>
      </trkpt>
      <trkpt lat="43.69486" lon="3.20233">
        <ele>453.88</ele>
        <time>2014-08-23T12:57:25Z</time>
      </trkpt>
      <trkpt lat="43.69485" lon="3.20233">
        <ele>453.88</ele>
        <time>2014-08-23T12:57:26Z</time>
      </trkpt>
      <trkpt lat="43.69475" lon="3.20234">
        <ele>454.84</ele>
        <time>2014-08-23T12:57:34Z</time>
      </trkpt>
      <trkpt lat="43.69471" lon="3.20235">
        <ele>454.84</ele>
        <time>2014-08-23T12:57:37Z</time>
      </trkpt>
      <trkpt lat="43.6947" lon="3.20235">
        <ele>455.8</ele>
        <time>2014-08-23T12:57:38Z</time>
      </trkpt>
      <trkpt lat="43.69466" lon="3.20236">
        <ele>456.28</ele>
        <time>2014-08-23T12:57:41Z</time>
      </trkpt>
      <trkpt lat="43.69465" lon="3.20237">
        <ele>456.28</ele>
        <time>2014-08-23T12:57:42Z</time>
      </trkpt>
      <trkpt lat="43.69453" lon="3.20237">
        <ele>456.76</ele>
        <time>2014-08-23T12:57:50Z</time>
      </trkpt>
      <trkpt lat="43.69451" lon="3.20236">
        <ele>457.24</ele>
        <time>2014-08-23T12:57:52Z</time>
      </trkpt>
      <trkpt lat="43.69445" lon="3.20235">
        <ele>457.72</ele>
        <time>2014-08-23T12:57:57Z</time>
      </trkpt>
      <trkpt lat="43.69443" lon="3.20234">
        <ele>457.72</ele>
        <time>2014-08-23T12:57:58Z</time>
      </trkpt>
      <trkpt lat="43.69434" lon="3.20231">
        <ele>460.13</ele>
        <time>2014-08-23T12:58:06Z</time>
      </trkpt>
      <trkpt lat="43.69433" lon="3.20231">
        <ele>460.13</ele>
        <time>2014-08-23T12:58:07Z</time>
      </trkpt>
      <trkpt lat="43.69421" lon="3.20227">
        <ele>461.57</ele>
        <time>2014-08-23T12:58:17Z</time>
      </trkpt>
      <trkpt lat="43.69417" lon="3.20225">
        <ele>462.53</ele>
        <time>2014-08-23T12:58:21Z</time>
      </trkpt>
      <trkpt lat="43.69416" lon="3.20225">
        <ele>462.53</ele>
        <time>2014-08-23T12:58:22Z</time>
      </trkpt>
      <trkpt lat="43.69405" lon="3.20223">
        <ele>464.45</ele>
        <time>2014-08-23T12:58:31Z</time>
      </trkpt>
      <trkpt lat="43.69397" lon="3.20222">
        <ele>465.42</ele>
        <time>2014-08-23T12:58:39Z</time>
      </trkpt>
      <trkpt lat="43.69389" lon="3.20222">
        <ele>466.38</ele>
        <time>2014-08-23T12:58:45Z</time>
      </trkpt>
      <trkpt lat="43.69379" lon="3.20222">
        <ele>467.82</ele>
        <time>2014-08-23T12:58:54Z</time>
      </trkpt>
      <trkpt lat="43.6937" lon="3.20221">
        <ele>468.78</ele>
        <time>2014-08-23T12:59:02Z</time>
      </trkpt>
      <trkpt lat="43.69359" lon="3.20221">
        <ele>469.26</ele>
        <time>2014-08-23T12:59:10Z</time>
      </trkpt>
      <trkpt lat="43.69358" lon="3.20222">
        <ele>469.74</ele>
        <time>2014-08-23T12:59:11Z</time>
      </trkpt>
      <trkpt lat="43.69357" lon="3.20222">
        <ele>469.74</ele>
        <time>2014-08-23T12:59:12Z</time>
      </trkpt>
      <trkpt lat="43.69349" lon="3.20221">
        <ele>469.74</ele>
        <time>2014-08-23T12:59:18Z</time>
      </trkpt>
      <trkpt lat="43.69344" lon="3.20221">
        <ele>470.22</ele>
        <time>2014-08-23T12:59:21Z</time>
      </trkpt>
      <trkpt lat="43.69342" lon="3.2022">
        <ele>470.22</ele>
        <time>2014-08-23T12:59:22Z</time>
      </trkpt>
      <trkpt lat="43.69341" lon="3.2022">
        <ele>470.22</ele>
        <time>2014-08-23T12:59:23Z</time>
      </trkpt>
      <trkpt lat="43.69326" lon="3.20212">
        <ele>472.14</ele>
        <time>2014-08-23T12:59:34Z</time>
      </trkpt>
      <trkpt lat="43.69318" lon="3.20206">
        <ele>474.07</ele>
        <time>2014-08-23T12:59:41Z</time>
      </trkpt>
      <trkpt lat="43.69317" lon="3.20205">
        <ele>474.07</ele>
        <time>2014-08-23T12:59:42Z</time>
      </trkpt>
      <trkpt lat="43.69314" lon="3.20203">
        <ele>474.55</ele>
        <time>2014-08-23T12:59:45Z</time>
      </trkpt>
      <trkpt lat="43.69313" lon="3.20202">
        <ele>474.55</ele>
        <time>2014-08-23T12:59:46Z</time>
      </trkpt>
      <trkpt lat="43.69312" lon="3.20201">
        <ele>475.03</ele>
        <time>2014-08-23T12:59:47Z</time>
      </trkpt>
      <trkpt lat="43.69306" lon="3.20187">
        <ele>476.47</ele>
        <time>2014-08-23T12:59:56Z</time>
      </trkpt>
      <trkpt lat="43.69301" lon="3.20175">
        <ele>478.87</ele>
        <time>2014-08-23T13:00:05Z</time>
      </trkpt>
      <trkpt lat="43.69295" lon="3.20159">
        <ele>480.32</ele>
        <time>2014-08-23T13:00:15Z</time>
      </trkpt>
      <trkpt lat="43.69294" lon="3.20155">
        <ele>480.8</ele>
        <time>2014-08-23T13:00:18Z</time>
      </trkpt>
      <trkpt lat="43.69289" lon="3.20143">
        <ele>482.24</ele>
        <time>2014-08-23T13:00:27Z</time>
      </trkpt>
      <trkpt lat="43.69284" lon="3.20131">
        <ele>483.2</ele>
        <time>2014-08-23T13:00:35Z</time>
      </trkpt>
      <trkpt lat="43.69279" lon="3.20121">
        <ele>484.16</ele>
        <time>2014-08-23T13:00:43Z</time>
      </trkpt>
      <trkpt lat="43.69273" lon="3.20111">
        <ele>485.12</ele>
        <time>2014-08-23T13:00:50Z</time>
      </trkpt>
      <trkpt lat="43.6927" lon="3.20109">
        <ele>485.6</ele>
        <time>2014-08-23T13:00:52Z</time>
      </trkpt>
      <trkpt lat="43.6927" lon="3.20107">
        <ele>485.6</ele>
        <time>2014-08-23T13:00:53Z</time>
      </trkpt>
      <trkpt lat="43.69269" lon="3.20106">
        <ele>485.6</ele>
        <time>2014-08-23T13:00:54Z</time>
      </trkpt>
      <trkpt lat="43.69268" lon="3.20105">
        <ele>486.08</ele>
        <time>2014-08-23T13:00:55Z</time>
      </trkpt>
      <trkpt lat="43.69267" lon="3.20103">
        <ele>486.08</ele>
        <time>2014-08-23T13:00:56Z</time>
      </trkpt>
      <trkpt lat="43.69267" lon="3.20102">
        <ele>486.56</ele>
        <time>2014-08-23T13:00:57Z</time>
      </trkpt>
      <trkpt lat="43.69266" lon="3.20101">
        <ele>486.56</ele>
        <time>2014-08-23T13:00:58Z</time>
      </trkpt>
      <trkpt lat="43.69265" lon="3.201">
        <ele>486.56</ele>
        <time>2014-08-23T13:00:59Z</time>
      </trkpt>
      <trkpt lat="43.69264" lon="3.20098">
        <ele>486.56</ele>
        <time>2014-08-23T13:01:00Z</time>
      </trkpt>
      <trkpt lat="43.69261" lon="3.20093">
        <ele>487.53</ele>
        <time>2014-08-23T13:01:05Z</time>
      </trkpt>
      <trkpt lat="43.69256" lon="3.20084">
        <ele>488.01</ele>
        <time>2014-08-23T13:01:12Z</time>
      </trkpt>
      <trkpt lat="43.69255" lon="3.2008">
        <ele>488.97</ele>
        <time>2014-08-23T13:01:15Z</time>
      </trkpt>
      <trkpt lat="43.69255" lon="3.20078">
        <ele>488.97</ele>
        <time>2014-08-23T13:01:16Z</time>
      </trkpt>
      <trkpt lat="43.69254" lon="3.20076">
        <ele>488.97</ele>
        <time>2014-08-23T13:01:17Z</time>
      </trkpt>
      <trkpt lat="43.69253" lon="3.20075">
        <ele>488.97</ele>
        <time>2014-08-23T13:01:18Z</time>
      </trkpt>
      <trkpt lat="43.69252" lon="3.20074">
        <ele>489.45</ele>
        <time>2014-08-23T13:01:19Z</time>
      </trkpt>
      <trkpt lat="43.69247" lon="3.20066">
        <ele>490.41</ele>
        <time>2014-08-23T13:01:24Z</time>
      </trkpt>
      <trkpt lat="43.69247" lon="3.20065">
        <ele>490.41</ele>
        <time>2014-08-23T13:01:25Z</time>
      </trkpt>
      <trkpt lat="43.69246" lon="3.20063">
        <ele>490.41</ele>
        <time>2014-08-23T13:01:26Z</time>
      </trkpt>
      <trkpt lat="43.69245" lon="3.20062">
        <ele>490.41</ele>
        <time>2014-08-23T13:01:27Z</time>
      </trkpt>
      <trkpt lat="43.69244" lon="3.2006">
        <ele>490.89</ele>
        <time>2014-08-23T13:01:29Z</time>
      </trkpt>
      <trkpt lat="43.69242" lon="3.20057">
        <ele>491.37</ele>
        <time>2014-08-23T13:01:31Z</time>
      </trkpt>
      <trkpt lat="43.69241" lon="3.20055">
        <ele>491.85</ele>
        <time>2014-08-23T13:01:33Z</time>
      </trkpt>
      <trkpt lat="43.69239" lon="3.20048">
        <ele>492.33</ele>
        <time>2014-08-23T13:01:38Z</time>
      </trkpt>
      <trkpt lat="43.69237" lon="3.20044">
        <ele>492.81</ele>
        <time>2014-08-23T13:01:41Z</time>
      </trkpt>
      <trkpt lat="43.69236" lon="3.20041">
        <ele>492.81</ele>
        <time>2014-08-23T13:01:44Z</time>
      </trkpt>
      <trkpt lat="43.69236" lon="3.20039">
        <ele>492.81</ele>
        <time>2014-08-23T13:01:45Z</time>
      </trkpt>
      <trkpt lat="43.69236" lon="3.20038">
        <ele>493.29</ele>
        <time>2014-08-23T13:01:46Z</time>
      </trkpt>
      <trkpt lat="43.69235" lon="3.20036">
        <ele>493.29</ele>
        <time>2014-08-23T13:01:47Z</time>
      </trkpt>
      <trkpt lat="43.69235" lon="3.20035">
        <ele>493.77</ele>
        <time>2014-08-23T13:01:48Z</time>
      </trkpt>
      <trkpt lat="43.69234" lon="3.20033">
        <ele>493.77</ele>
        <time>2014-08-23T13:01:49Z</time>
      </trkpt>
      <trkpt lat="43.69234" lon="3.20032">
        <ele>493.77</ele>
        <time>2014-08-23T13:01:50Z</time>
      </trkpt>
      <trkpt lat="43.69233" lon="3.2003">
        <ele>494.26</ele>
        <time>2014-08-23T13:01:51Z</time>
      </trkpt>
      <trkpt lat="43.69233" lon="3.20029">
        <ele>494.26</ele>
        <time>2014-08-23T13:01:52Z</time>
      </trkpt>
      <trkpt lat="43.69233" lon="3.20027">
        <ele>494.26</ele>
        <time>2014-08-23T13:01:53Z</time>
      </trkpt>
      <trkpt lat="43.69233" lon="3.20021">
        <ele>494.74</ele>
        <time>2014-08-23T13:01:56Z</time>
      </trkpt>
      <trkpt lat="43.69233" lon="3.2002">
        <ele>495.22</ele>
        <time>2014-08-23T13:01:57Z</time>
      </trkpt>
      <trkpt lat="43.69233" lon="3.20004">
        <ele>496.18</ele>
        <time>2014-08-23T13:02:06Z</time>
      </trkpt>
      <trkpt lat="43.69232" lon="3.20001">
        <ele>496.18</ele>
        <time>2014-08-23T13:02:08Z</time>
      </trkpt>
      <trkpt lat="43.69233" lon="3.19997">
        <ele>496.18</ele>
        <time>2014-08-23T13:02:11Z</time>
      </trkpt>
      <trkpt lat="43.69233" lon="3.19995">
        <ele>496.66</ele>
        <time>2014-08-23T13:02:12Z</time>
      </trkpt>
      <trkpt lat="43.69225" lon="3.19983">
        <ele>497.62</ele>
        <time>2014-08-23T13:02:21Z</time>
      </trkpt>
      <trkpt lat="43.69216" lon="3.19983">
        <ele>498.58</ele>
        <time>2014-08-23T13:02:29Z</time>
      </trkpt>
      <trkpt lat="43.69215" lon="3.19984">
        <ele>498.58</ele>
        <time>2014-08-23T13:02:30Z</time>
      </trkpt>
      <trkpt lat="43.69213" lon="3.19986">
        <ele>499.06</ele>
        <time>2014-08-23T13:02:32Z</time>
      </trkpt>
      <trkpt lat="43.69211" lon="3.19986">
        <ele>499.06</ele>
        <time>2014-08-23T13:02:33Z</time>
      </trkpt>
      <trkpt lat="43.69203" lon="3.19986">
        <ele>500.02</ele>
        <time>2014-08-23T13:02:42Z</time>
      </trkpt>
      <trkpt lat="43.69198" lon="3.19985">
        <ele>500.5</ele>
        <time>2014-08-23T13:02:46Z</time>
      </trkpt>
      <trkpt lat="43.69188" lon="3.19988">
        <ele>500.98</ele>
        <time>2014-08-23T13:02:54Z</time>
      </trkpt>
      <trkpt lat="43.69182" lon="3.19993">
        <ele>500.98</ele>
        <time>2014-08-23T13:02:59Z</time>
      </trkpt>
      <trkpt lat="43.69182" lon="3.19995">
        <ele>501.46</ele>
        <time>2014-08-23T13:03:00Z</time>
      </trkpt>
      <trkpt lat="43.69181" lon="3.19997">
        <ele>501.46</ele>
        <time>2014-08-23T13:03:01Z</time>
      </trkpt>
      <trkpt lat="43.6918" lon="3.20003">
        <ele>501.95</ele>
        <time>2014-08-23T13:03:05Z</time>
      </trkpt>
      <trkpt lat="43.69179" lon="3.20005">
        <ele>501.95</ele>
        <time>2014-08-23T13:03:06Z</time>
      </trkpt>
      <trkpt lat="43.69172" lon="3.20016">
        <ele>502.91</ele>
        <time>2014-08-23T13:03:14Z</time>
      </trkpt>
      <trkpt lat="43.69171" lon="3.20017">
        <ele>502.91</ele>
        <time>2014-08-23T13:03:15Z</time>
      </trkpt>
      <trkpt lat="43.6917" lon="3.20018">
        <ele>502.91</ele>
        <time>2014-08-23T13:03:16Z</time>
      </trkpt>
      <trkpt lat="43.69169" lon="3.2002">
        <ele>503.39</ele>
        <time>2014-08-23T13:03:17Z</time>
      </trkpt>
      <trkpt lat="43.69169" lon="3.20021">
        <ele>503.39</ele>
        <time>2014-08-23T13:03:18Z</time>
      </trkpt>
      <trkpt lat="43.69168" lon="3.20021">
        <ele>503.39</ele>
        <time>2014-08-23T13:03:19Z</time>
      </trkpt>
      <trkpt lat="43.69166" lon="3.20023">
        <ele>503.39</ele>
        <time>2014-08-23T13:03:20Z</time>
      </trkpt>
      <trkpt lat="43.69165" lon="3.20024">
        <ele>503.39</ele>
        <time>2014-08-23T13:03:21Z</time>
      </trkpt>
      <trkpt lat="43.6916" lon="3.20029">
        <ele>503.87</ele>
        <time>2014-08-23T13:03:26Z</time>
      </trkpt>
      <trkpt lat="43.69159" lon="3.2003">
        <ele>503.87</ele>
        <time>2014-08-23T13:03:27Z</time>
      </trkpt>
      <trkpt lat="43.69158" lon="3.20039">
        <ele>504.83</ele>
        <time>2014-08-23T13:03:33Z</time>
      </trkpt>
      <trkpt lat="43.69156" lon="3.20045">
        <ele>505.31</ele>
        <time>2014-08-23T13:03:38Z</time>
      </trkpt>
      <trkpt lat="43.69155" lon="3.20047">
        <ele>505.31</ele>
        <time>2014-08-23T13:03:39Z</time>
      </trkpt>
      <trkpt lat="43.69155" lon="3.20049">
        <ele>505.31</ele>
        <time>2014-08-23T13:03:40Z</time>
      </trkpt>
      <trkpt lat="43.69153" lon="3.20052">
        <ele>505.31</ele>
        <time>2014-08-23T13:03:42Z</time>
      </trkpt>
      <trkpt lat="43.69147" lon="3.20063">
        <ele>506.27</ele>
        <time>2014-08-23T13:03:49Z</time>
      </trkpt>
      <trkpt lat="43.69146" lon="3.20065">
        <ele>506.75</ele>
        <time>2014-08-23T13:03:50Z</time>
      </trkpt>
      <trkpt lat="43.69145" lon="3.20066">
        <ele>506.75</ele>
        <time>2014-08-23T13:03:51Z</time>
      </trkpt>
      <trkpt lat="43.69145" lon="3.20068">
        <ele>506.75</ele>
        <time>2014-08-23T13:03:52Z</time>
      </trkpt>
      <trkpt lat="43.69144" lon="3.2007">
        <ele>506.75</ele>
        <time>2014-08-23T13:03:53Z</time>
      </trkpt>
      <trkpt lat="43.69144" lon="3.20071">
        <ele>507.23</ele>
        <time>2014-08-23T13:03:54Z</time>
      </trkpt>
      <trkpt lat="43.69143" lon="3.20073">
        <ele>507.23</ele>
        <time>2014-08-23T13:03:55Z</time>
      </trkpt>
      <trkpt lat="43.69142" lon="3.20075">
        <ele>507.71</ele>
        <time>2014-08-23T13:03:56Z</time>
      </trkpt>
      <trkpt lat="43.69142" lon="3.20076">
        <ele>507.71</ele>
        <time>2014-08-23T13:03:57Z</time>
      </trkpt>
      <trkpt lat="43.69141" lon="3.20078">
        <ele>507.71</ele>
        <time>2014-08-23T13:03:58Z</time>
      </trkpt>
      <trkpt lat="43.69141" lon="3.2008">
        <ele>507.71</ele>
        <time>2014-08-23T13:03:59Z</time>
      </trkpt>
      <trkpt lat="43.6914" lon="3.20081">
        <ele>508.19</ele>
        <time>2014-08-23T13:04:00Z</time>
      </trkpt>
      <trkpt lat="43.69136" lon="3.20091">
        <ele>508.67</ele>
        <time>2014-08-23T13:04:06Z</time>
      </trkpt>
      <trkpt lat="43.69136" lon="3.20092">
        <ele>508.67</ele>
        <time>2014-08-23T13:04:07Z</time>
      </trkpt>
      <trkpt lat="43.69135" lon="3.20093">
        <ele>509.64</ele>
        <time>2014-08-23T13:04:08Z</time>
      </trkpt>
      <trkpt lat="43.69134" lon="3.20095">
        <ele>509.64</ele>
        <time>2014-08-23T13:04:09Z</time>
      </trkpt>
      <trkpt lat="43.69134" lon="3.20096">
        <ele>509.64</ele>
        <time>2014-08-23T13:04:10Z</time>
      </trkpt>
      <trkpt lat="43.69133" lon="3.20098">
        <ele>510.12</ele>
        <time>2014-08-23T13:04:11Z</time>
      </trkpt>
      <trkpt lat="43.69132" lon="3.20099">
        <ele>510.12</ele>
        <time>2014-08-23T13:04:12Z</time>
      </trkpt>
      <trkpt lat="43.6913" lon="3.20105">
        <ele>510.6</ele>
        <time>2014-08-23T13:04:16Z</time>
      </trkpt>
      <trkpt lat="43.69129" lon="3.20106">
        <ele>510.6</ele>
        <time>2014-08-23T13:04:17Z</time>
      </trkpt>
      <trkpt lat="43.69128" lon="3.20108">
        <ele>511.08</ele>
        <time>2014-08-23T13:04:18Z</time>
      </trkpt>
      <trkpt lat="43.69127" lon="3.2011">
        <ele>511.08</ele>
        <time>2014-08-23T13:04:19Z</time>
      </trkpt>
      <trkpt lat="43.69126" lon="3.20111">
        <ele>511.08</ele>
        <time>2014-08-23T13:04:20Z</time>
      </trkpt>
      <trkpt lat="43.69125" lon="3.20112">
        <ele>511.08</ele>
        <time>2014-08-23T13:04:21Z</time>
      </trkpt>
      <trkpt lat="43.69123" lon="3.20115">
        <ele>511.56</ele>
        <time>2014-08-23T13:04:23Z</time>
      </trkpt>
      <trkpt lat="43.69123" lon="3.20116">
        <ele>511.56</ele>
        <time>2014-08-23T13:04:24Z</time>
      </trkpt>
      <trkpt lat="43.69122" lon="3.20118">
        <ele>511.56</ele>
        <time>2014-08-23T13:04:25Z</time>
      </trkpt>
      <trkpt lat="43.69121" lon="3.20119">
        <ele>512.04</ele>
        <time>2014-08-23T13:04:26Z</time>
      </trkpt>
      <trkpt lat="43.6912" lon="3.2012">
        <ele>512.04</ele>
        <time>2014-08-23T13:04:27Z</time>
      </trkpt>
      <trkpt lat="43.69119" lon="3.20121">
        <ele>512.04</ele>
        <time>2014-08-23T13:04:28Z</time>
      </trkpt>
      <trkpt lat="43.69119" lon="3.20122">
        <ele>512.04</ele>
        <time>2014-08-23T13:04:29Z</time>
      </trkpt>
      <trkpt lat="43.69118" lon="3.20124">
        <ele>512.04</ele>
        <time>2014-08-23T13:04:30Z</time>
      </trkpt>
      <trkpt lat="43.69117" lon="3.20125">
        <ele>512.04</ele>
        <time>2014-08-23T13:04:31Z</time>
      </trkpt>
      <trkpt lat="43.69116" lon="3.20126">
        <ele>512.52</ele>
        <time>2014-08-23T13:04:32Z</time>
      </trkpt>
      <trkpt lat="43.69114" lon="3.20131">
        <ele>513</ele>
        <time>2014-08-23T13:04:36Z</time>
      </trkpt>
      <trkpt lat="43.69114" lon="3.20132">
        <ele>513</ele>
        <time>2014-08-23T13:04:37Z</time>
      </trkpt>
      <trkpt lat="43.69112" lon="3.20139">
        <ele>513.48</ele>
        <time>2014-08-23T13:04:42Z</time>
      </trkpt>
      <trkpt lat="43.69111" lon="3.2014">
        <ele>513.48</ele>
        <time>2014-08-23T13:04:43Z</time>
      </trkpt>
      <trkpt lat="43.69106" lon="3.20153">
        <ele>514.92</ele>
        <time>2014-08-23T13:04:52Z</time>
      </trkpt>
      <trkpt lat="43.69105" lon="3.20156">
        <ele>515.4</ele>
        <time>2014-08-23T13:04:54Z</time>
      </trkpt>
      <trkpt lat="43.69104" lon="3.20157">
        <ele>515.4</ele>
        <time>2014-08-23T13:04:55Z</time>
      </trkpt>
      <trkpt lat="43.69103" lon="3.20158">
        <ele>515.4</ele>
        <time>2014-08-23T13:04:56Z</time>
      </trkpt>
      <trkpt lat="43.69102" lon="3.20159">
        <ele>515.4</ele>
        <time>2014-08-23T13:04:57Z</time>
      </trkpt>
      <trkpt lat="43.69097" lon="3.2017">
        <ele>516.37</ele>
        <time>2014-08-23T13:05:05Z</time>
      </trkpt>
      <trkpt lat="43.69091" lon="3.20179">
        <ele>517.33</ele>
        <time>2014-08-23T13:05:12Z</time>
      </trkpt>
      <trkpt lat="43.69086" lon="3.2019">
        <ele>517.81</ele>
        <time>2014-08-23T13:05:19Z</time>
      </trkpt>
      <trkpt lat="43.69084" lon="3.20193">
        <ele>518.29</ele>
        <time>2014-08-23T13:05:21Z</time>
      </trkpt>
      <trkpt lat="43.69083" lon="3.20194">
        <ele>518.77</ele>
        <time>2014-08-23T13:05:22Z</time>
      </trkpt>
      <trkpt lat="43.69082" lon="3.20195">
        <ele>518.77</ele>
        <time>2014-08-23T13:05:23Z</time>
      </trkpt>
      <trkpt lat="43.69081" lon="3.20196">
        <ele>518.77</ele>
        <time>2014-08-23T13:05:24Z</time>
      </trkpt>
      <trkpt lat="43.6908" lon="3.20197">
        <ele>518.77</ele>
        <time>2014-08-23T13:05:25Z</time>
      </trkpt>
      <trkpt lat="43.69079" lon="3.20199">
        <ele>518.77</ele>
        <time>2014-08-23T13:05:26Z</time>
      </trkpt>
      <trkpt lat="43.69071" lon="3.20212">
        <ele>520.69</ele>
        <time>2014-08-23T13:05:36Z</time>
      </trkpt>
      <trkpt lat="43.69066" lon="3.20217">
        <ele>521.65</ele>
        <time>2014-08-23T13:05:41Z</time>
      </trkpt>
      <trkpt lat="43.69065" lon="3.20218">
        <ele>521.65</ele>
        <time>2014-08-23T13:05:42Z</time>
      </trkpt>
      <trkpt lat="43.69061" lon="3.20223">
        <ele>521.65</ele>
        <time>2014-08-23T13:05:47Z</time>
      </trkpt>
      <trkpt lat="43.6906" lon="3.20224">
        <ele>521.65</ele>
        <time>2014-08-23T13:05:48Z</time>
      </trkpt>
      <trkpt lat="43.69051" lon="3.20231">
        <ele>523.09</ele>
        <time>2014-08-23T13:05:55Z</time>
      </trkpt>
      <trkpt lat="43.69045" lon="3.20235">
        <ele>523.58</ele>
        <time>2014-08-23T13:06:00Z</time>
      </trkpt>
      <trkpt lat="43.69044" lon="3.20236">
        <ele>523.58</ele>
        <time>2014-08-23T13:06:01Z</time>
      </trkpt>
      <trkpt lat="43.69043" lon="3.20237">
        <ele>523.58</ele>
        <time>2014-08-23T13:06:02Z</time>
      </trkpt>
      <trkpt lat="43.69042" lon="3.20238">
        <ele>524.06</ele>
        <time>2014-08-23T13:06:03Z</time>
      </trkpt>
      <trkpt lat="43.6904" lon="3.20238">
        <ele>524.06</ele>
        <time>2014-08-23T13:06:04Z</time>
      </trkpt>
      <trkpt lat="43.69039" lon="3.20238">
        <ele>524.06</ele>
        <time>2014-08-23T13:06:05Z</time>
      </trkpt>
      <trkpt lat="43.69038" lon="3.20239">
        <ele>524.06</ele>
        <time>2014-08-23T13:06:06Z</time>
      </trkpt>
      <trkpt lat="43.69037" lon="3.20239">
        <ele>524.06</ele>
        <time>2014-08-23T13:06:07Z</time>
      </trkpt>
      <trkpt lat="43.69035" lon="3.20239">
        <ele>524.06</ele>
        <time>2014-08-23T13:06:08Z</time>
      </trkpt>
      <trkpt lat="43.69034" lon="3.2024">
        <ele>524.54</ele>
        <time>2014-08-23T13:06:09Z</time>
      </trkpt>
      <trkpt lat="43.69032" lon="3.2024">
        <ele>524.54</ele>
        <time>2014-08-23T13:06:10Z</time>
      </trkpt>
      <trkpt lat="43.69031" lon="3.20241">
        <ele>524.54</ele>
        <time>2014-08-23T13:06:11Z</time>
      </trkpt>
      <trkpt lat="43.6903" lon="3.20242">
        <ele>525.5</ele>
        <time>2014-08-23T13:06:12Z</time>
      </trkpt>
      <trkpt lat="43.69029" lon="3.20242">
        <ele>525.5</ele>
        <time>2014-08-23T13:06:13Z</time>
      </trkpt>
      <trkpt lat="43.69028" lon="3.20243">
        <ele>525.5</ele>
        <time>2014-08-23T13:06:14Z</time>
      </trkpt>
      <trkpt lat="43.69027" lon="3.20243">
        <ele>525.98</ele>
        <time>2014-08-23T13:06:15Z</time>
      </trkpt>
      <trkpt lat="43.69026" lon="3.20243">
        <ele>525.98</ele>
        <time>2014-08-23T13:06:16Z</time>
      </trkpt>
      <trkpt lat="43.69024" lon="3.20243">
        <ele>525.98</ele>
        <time>2014-08-23T13:06:17Z</time>
      </trkpt>
      <trkpt lat="43.69023" lon="3.20243">
        <ele>525.98</ele>
        <time>2014-08-23T13:06:18Z</time>
      </trkpt>
      <trkpt lat="43.69022" lon="3.20243">
        <ele>525.98</ele>
        <time>2014-08-23T13:06:19Z</time>
      </trkpt>
      <trkpt lat="43.69021" lon="3.20244">
        <ele>525.98</ele>
        <time>2014-08-23T13:06:20Z</time>
      </trkpt>
      <trkpt lat="43.6902" lon="3.20244">
        <ele>525.98</ele>
        <time>2014-08-23T13:06:21Z</time>
      </trkpt>
      <trkpt lat="43.69019" lon="3.20244">
        <ele>526.46</ele>
        <time>2014-08-23T13:06:22Z</time>
      </trkpt>
      <trkpt lat="43.69018" lon="3.20244">
        <ele>526.46</ele>
        <time>2014-08-23T13:06:23Z</time>
      </trkpt>
      <trkpt lat="43.69017" lon="3.20244">
        <ele>526.46</ele>
        <time>2014-08-23T13:06:24Z</time>
      </trkpt>
      <trkpt lat="43.69015" lon="3.20244">
        <ele>526.46</ele>
        <time>2014-08-23T13:06:25Z</time>
      </trkpt>
      <trkpt lat="43.69014" lon="3.20244">
        <ele>526.94</ele>
        <time>2014-08-23T13:06:26Z</time>
      </trkpt>
      <trkpt lat="43.69012" lon="3.20244">
        <ele>526.94</ele>
        <time>2014-08-23T13:06:27Z</time>
      </trkpt>
      <trkpt lat="43.69011" lon="3.20245">
        <ele>527.42</ele>
        <time>2014-08-23T13:06:28Z</time>
      </trkpt>
      <trkpt lat="43.6901" lon="3.20244">
        <ele>527.42</ele>
        <time>2014-08-23T13:06:29Z</time>
      </trkpt>
      <trkpt lat="43.69009" lon="3.20244">
        <ele>527.42</ele>
        <time>2014-08-23T13:06:30Z</time>
      </trkpt>
      <trkpt lat="43.69007" lon="3.20244">
        <ele>527.9</ele>
        <time>2014-08-23T13:06:31Z</time>
      </trkpt>
      <trkpt lat="43.69006" lon="3.20243">
        <ele>528.38</ele>
        <time>2014-08-23T13:06:32Z</time>
      </trkpt>
      <trkpt lat="43.69005" lon="3.20243">
        <ele>528.38</ele>
        <time>2014-08-23T13:06:33Z</time>
      </trkpt>
      <trkpt lat="43.69004" lon="3.20243">
        <ele>528.38</ele>
        <time>2014-08-23T13:06:34Z</time>
      </trkpt>
      <trkpt lat="43.69003" lon="3.20243">
        <ele>528.38</ele>
        <time>2014-08-23T13:06:35Z</time>
      </trkpt>
      <trkpt lat="43.69001" lon="3.20243">
        <ele>528.86</ele>
        <time>2014-08-23T13:06:36Z</time>
      </trkpt>
      <trkpt lat="43.68992" lon="3.20241">
        <ele>529.34</ele>
        <time>2014-08-23T13:06:44Z</time>
      </trkpt>
      <trkpt lat="43.6899" lon="3.20241">
        <ele>529.82</ele>
        <time>2014-08-23T13:06:45Z</time>
      </trkpt>
      <trkpt lat="43.6898" lon="3.20239">
        <ele>530.3</ele>
        <time>2014-08-23T13:06:53Z</time>
      </trkpt>
      <trkpt lat="43.68972" lon="3.20235">
        <ele>530.79</ele>
        <time>2014-08-23T13:06:59Z</time>
      </trkpt>
      <trkpt lat="43.68965" lon="3.20232">
        <ele>531.75</ele>
        <time>2014-08-23T13:07:04Z</time>
      </trkpt>
      <trkpt lat="43.68964" lon="3.20231">
        <ele>532.23</ele>
        <time>2014-08-23T13:07:05Z</time>
      </trkpt>
      <trkpt lat="43.68954" lon="3.20227">
        <ele>534.15</ele>
        <time>2014-08-23T13:07:13Z</time>
      </trkpt>
      <trkpt lat="43.68943" lon="3.20222">
        <ele>536.55</ele>
        <time>2014-08-23T13:07:21Z</time>
      </trkpt>
      <trkpt lat="43.68934" lon="3.20217">
        <ele>536.55</ele>
        <time>2014-08-23T13:07:27Z</time>
      </trkpt>
      <trkpt lat="43.68933" lon="3.20216">
        <ele>536.55</ele>
        <time>2014-08-23T13:07:28Z</time>
      </trkpt>
      <trkpt lat="43.68931" lon="3.20216">
        <ele>537.03</ele>
        <time>2014-08-23T13:07:29Z</time>
      </trkpt>
      <trkpt lat="43.68927" lon="3.20212">
        <ele>537.51</ele>
        <time>2014-08-23T13:07:32Z</time>
      </trkpt>
      <trkpt lat="43.68925" lon="3.2021">
        <ele>537.51</ele>
        <time>2014-08-23T13:07:34Z</time>
      </trkpt>
      <trkpt lat="43.68917" lon="3.20203">
        <ele>537.99</ele>
        <time>2014-08-23T13:07:42Z</time>
      </trkpt>
      <trkpt lat="43.68909" lon="3.20194">
        <ele>538.96</ele>
        <time>2014-08-23T13:07:51Z</time>
      </trkpt>
      <trkpt lat="43.68906" lon="3.2019">
        <ele>538.96</ele>
        <time>2014-08-23T13:07:55Z</time>
      </trkpt>
      <trkpt lat="43.68905" lon="3.20189">
        <ele>539.44</ele>
        <time>2014-08-23T13:07:56Z</time>
      </trkpt>
      <trkpt lat="43.68899" lon="3.20181">
        <ele>539.92</ele>
        <time>2014-08-23T13:08:04Z</time>
      </trkpt>
      <trkpt lat="43.68891" lon="3.20171">
        <ele>539.92</ele>
        <time>2014-08-23T13:08:14Z</time>
      </trkpt>
      <trkpt lat="43.68889" lon="3.20161">
        <ele>541.84</ele>
        <time>2014-08-23T13:08:21Z</time>
      </trkpt>
      <trkpt lat="43.68885" lon="3.20149">
        <ele>542.32</ele>
        <time>2014-08-23T13:08:29Z</time>
      </trkpt>
      <trkpt lat="43.68881" lon="3.20134">
        <ele>543.28</ele>
        <time>2014-08-23T13:08:39Z</time>
      </trkpt>
      <trkpt lat="43.68877" lon="3.20116">
        <ele>544.24</ele>
        <time>2014-08-23T13:08:48Z</time>
      </trkpt>
      <trkpt lat="43.68873" lon="3.201">
        <ele>545.2</ele>
        <time>2014-08-23T13:08:57Z</time>
      </trkpt>
      <trkpt lat="43.68867" lon="3.20087">
        <ele>546.17</ele>
        <time>2014-08-23T13:09:05Z</time>
      </trkpt>
      <trkpt lat="43.68864" lon="3.20074">
        <ele>547.13</ele>
        <time>2014-08-23T13:09:13Z</time>
      </trkpt>
      <trkpt lat="43.68862" lon="3.20069">
        <ele>547.61</ele>
        <time>2014-08-23T13:09:17Z</time>
      </trkpt>
      <trkpt lat="43.68862" lon="3.20067">
        <ele>548.09</ele>
        <time>2014-08-23T13:09:18Z</time>
      </trkpt>
      <trkpt lat="43.68859" lon="3.2006">
        <ele>548.57</ele>
        <time>2014-08-23T13:09:22Z</time>
      </trkpt>
      <trkpt lat="43.68859" lon="3.20058">
        <ele>548.57</ele>
        <time>2014-08-23T13:09:23Z</time>
      </trkpt>
      <trkpt lat="43.68853" lon="3.20042">
        <ele>549.53</ele>
        <time>2014-08-23T13:09:33Z</time>
      </trkpt>
      <trkpt lat="43.68851" lon="3.20038">
        <ele>549.53</ele>
        <time>2014-08-23T13:09:36Z</time>
      </trkpt>
      <trkpt lat="43.6885" lon="3.20035">
        <ele>549.53</ele>
        <time>2014-08-23T13:09:38Z</time>
      </trkpt>
      <trkpt lat="43.6885" lon="3.20032">
        <ele>550.49</ele>
        <time>2014-08-23T13:09:40Z</time>
      </trkpt>
      <trkpt lat="43.68849" lon="3.20031">
        <ele>550.49</ele>
        <time>2014-08-23T13:09:41Z</time>
      </trkpt>
      <trkpt lat="43.68847" lon="3.20025">
        <ele>550.97</ele>
        <time>2014-08-23T13:09:45Z</time>
      </trkpt>
      <trkpt lat="43.68846" lon="3.20023">
        <ele>551.45</ele>
        <time>2014-08-23T13:09:47Z</time>
      </trkpt>
      <trkpt lat="43.68842" lon="3.20011">
        <ele>552.9</ele>
        <time>2014-08-23T13:09:55Z</time>
      </trkpt>
      <trkpt lat="43.68839" lon="3.19998">
        <ele>553.86</ele>
        <time>2014-08-23T13:10:03Z</time>
      </trkpt>
      <trkpt lat="43.68835" lon="3.19989">
        <ele>554.34</ele>
        <time>2014-08-23T13:10:09Z</time>
      </trkpt>
      <trkpt lat="43.68834" lon="3.19987">
        <ele>554.34</ele>
        <time>2014-08-23T13:10:10Z</time>
      </trkpt>
      <trkpt lat="43.68834" lon="3.19986">
        <ele>554.82</ele>
        <time>2014-08-23T13:10:11Z</time>
      </trkpt>
      <trkpt lat="43.68833" lon="3.19984">
        <ele>554.82</ele>
        <time>2014-08-23T13:10:12Z</time>
      </trkpt>
      <trkpt lat="43.68833" lon="3.19983">
        <ele>555.3</ele>
        <time>2014-08-23T13:10:13Z</time>
      </trkpt>
      <trkpt lat="43.68829" lon="3.19971">
        <ele>556.26</ele>
        <time>2014-08-23T13:10:21Z</time>
      </trkpt>
      <trkpt lat="43.68828" lon="3.19969">
        <ele>556.74</ele>
        <time>2014-08-23T13:10:23Z</time>
      </trkpt>
      <trkpt lat="43.68827" lon="3.19967">
        <ele>556.74</ele>
        <time>2014-08-23T13:10:24Z</time>
      </trkpt>
      <trkpt lat="43.68827" lon="3.19966">
        <ele>556.74</ele>
        <time>2014-08-23T13:10:25Z</time>
      </trkpt>
      <trkpt lat="43.68822" lon="3.19957">
        <ele>557.7</ele>
        <time>2014-08-23T13:10:32Z</time>
      </trkpt>
      <trkpt lat="43.68821" lon="3.19955">
        <ele>557.7</ele>
        <time>2014-08-23T13:10:33Z</time>
      </trkpt>
      <trkpt lat="43.6882" lon="3.19954">
        <ele>557.7</ele>
        <time>2014-08-23T13:10:34Z</time>
      </trkpt>
      <trkpt lat="43.6882" lon="3.19952">
        <ele>558.18</ele>
        <time>2014-08-23T13:10:35Z</time>
      </trkpt>
      <trkpt lat="43.68819" lon="3.19951">
        <ele>558.18</ele>
        <time>2014-08-23T13:10:36Z</time>
      </trkpt>
      <trkpt lat="43.68816" lon="3.19942">
        <ele>558.66</ele>
        <time>2014-08-23T13:10:41Z</time>
      </trkpt>
      <trkpt lat="43.68816" lon="3.19941">
        <ele>558.66</ele>
        <time>2014-08-23T13:10:42Z</time>
      </trkpt>
      <trkpt lat="43.68815" lon="3.19939">
        <ele>559.14</ele>
        <time>2014-08-23T13:10:43Z</time>
      </trkpt>
      <trkpt lat="43.68815" lon="3.19938">
        <ele>559.14</ele>
        <time>2014-08-23T13:10:44Z</time>
      </trkpt>
      <trkpt lat="43.68814" lon="3.19937">
        <ele>559.14</ele>
        <time>2014-08-23T13:10:45Z</time>
      </trkpt>
      <trkpt lat="43.6881" lon="3.1993">
        <ele>559.62</ele>
        <time>2014-08-23T13:10:52Z</time>
      </trkpt>
      <trkpt lat="43.68803" lon="3.1992">
        <ele>560.59</ele>
        <time>2014-08-23T13:10:59Z</time>
      </trkpt>
      <trkpt lat="43.68796" lon="3.1991">
        <ele>561.55</ele>
        <time>2014-08-23T13:11:05Z</time>
      </trkpt>
      <trkpt lat="43.68795" lon="3.19909">
        <ele>561.55</ele>
        <time>2014-08-23T13:11:06Z</time>
      </trkpt>
      <trkpt lat="43.68794" lon="3.19907">
        <ele>561.55</ele>
        <time>2014-08-23T13:11:07Z</time>
      </trkpt>
      <trkpt lat="43.68793" lon="3.19906">
        <ele>561.55</ele>
        <time>2014-08-23T13:11:08Z</time>
      </trkpt>
      <trkpt lat="43.68792" lon="3.19904">
        <ele>561.55</ele>
        <time>2014-08-23T13:11:09Z</time>
      </trkpt>
      <trkpt lat="43.68791" lon="3.19903">
        <ele>561.55</ele>
        <time>2014-08-23T13:11:10Z</time>
      </trkpt>
      <trkpt lat="43.6879" lon="3.19901">
        <ele>561.55</ele>
        <time>2014-08-23T13:11:11Z</time>
      </trkpt>
      <trkpt lat="43.68789" lon="3.199">
        <ele>561.55</ele>
        <time>2014-08-23T13:11:12Z</time>
      </trkpt>
      <trkpt lat="43.68788" lon="3.19899">
        <ele>562.03</ele>
        <time>2014-08-23T13:11:13Z</time>
      </trkpt>
      <trkpt lat="43.68787" lon="3.19898">
        <ele>562.03</ele>
        <time>2014-08-23T13:11:14Z</time>
      </trkpt>
      <trkpt lat="43.68786" lon="3.19896">
        <ele>562.03</ele>
        <time>2014-08-23T13:11:15Z</time>
      </trkpt>
      <trkpt lat="43.68785" lon="3.19895">
        <ele>562.03</ele>
        <time>2014-08-23T13:11:16Z</time>
      </trkpt>
      <trkpt lat="43.68784" lon="3.19893">
        <ele>562.03</ele>
        <time>2014-08-23T13:11:17Z</time>
      </trkpt>
      <trkpt lat="43.68782" lon="3.19892">
        <ele>562.03</ele>
        <time>2014-08-23T13:11:18Z</time>
      </trkpt>
      <trkpt lat="43.68781" lon="3.1989">
        <ele>562.99</ele>
        <time>2014-08-23T13:11:19Z</time>
      </trkpt>
      <trkpt lat="43.6878" lon="3.19889">
        <ele>562.99</ele>
        <time>2014-08-23T13:11:20Z</time>
      </trkpt>
      <trkpt lat="43.68779" lon="3.19888">
        <ele>562.99</ele>
        <time>2014-08-23T13:11:21Z</time>
      </trkpt>
      <trkpt lat="43.68771" lon="3.19877">
        <ele>564.43</ele>
        <time>2014-08-23T13:11:30Z</time>
      </trkpt>
      <trkpt lat="43.68765" lon="3.19866">
        <ele>564.91</ele>
        <time>2014-08-23T13:11:37Z</time>
      </trkpt>
      <trkpt lat="43.68757" lon="3.19851">
        <ele>565.87</ele>
        <time>2014-08-23T13:11:45Z</time>
      </trkpt>
      <trkpt lat="43.68752" lon="3.19838">
        <ele>566.83</ele>
        <time>2014-08-23T13:11:52Z</time>
      </trkpt>
      <trkpt lat="43.68752" lon="3.19836">
        <ele>566.83</ele>
        <time>2014-08-23T13:11:53Z</time>
      </trkpt>
      <trkpt lat="43.68752" lon="3.19834">
        <ele>566.83</ele>
        <time>2014-08-23T13:11:54Z</time>
      </trkpt>
      <trkpt lat="43.68752" lon="3.19832">
        <ele>566.83</ele>
        <time>2014-08-23T13:11:55Z</time>
      </trkpt>
      <trkpt lat="43.68751" lon="3.19831">
        <ele>566.83</ele>
        <time>2014-08-23T13:11:56Z</time>
      </trkpt>
      <trkpt lat="43.6875" lon="3.19829">
        <ele>566.83</ele>
        <time>2014-08-23T13:11:57Z</time>
      </trkpt>
      <trkpt lat="43.6875" lon="3.19827">
        <ele>566.83</ele>
        <time>2014-08-23T13:11:58Z</time>
      </trkpt>
      <trkpt lat="43.68749" lon="3.19823">
        <ele>566.83</ele>
        <time>2014-08-23T13:12:00Z</time>
      </trkpt>
      <trkpt lat="43.68749" lon="3.1982">
        <ele>566.83</ele>
        <time>2014-08-23T13:12:01Z</time>
      </trkpt>
      <trkpt lat="43.68748" lon="3.19818">
        <ele>567.32</ele>
        <time>2014-08-23T13:12:02Z</time>
      </trkpt>
      <trkpt lat="43.68746" lon="3.1981">
        <ele>567.32</ele>
        <time>2014-08-23T13:12:06Z</time>
      </trkpt>
      <trkpt lat="43.68744" lon="3.19808">
        <ele>567.32</ele>
        <time>2014-08-23T13:12:07Z</time>
      </trkpt>
      <trkpt lat="43.68744" lon="3.19806">
        <ele>568.28</ele>
        <time>2014-08-23T13:12:08Z</time>
      </trkpt>
      <trkpt lat="43.68743" lon="3.19804">
        <ele>568.28</ele>
        <time>2014-08-23T13:12:09Z</time>
      </trkpt>
      <trkpt lat="43.68742" lon="3.19802">
        <ele>568.28</ele>
        <time>2014-08-23T13:12:10Z</time>
      </trkpt>
      <trkpt lat="43.68742" lon="3.19799">
        <ele>568.28</ele>
        <time>2014-08-23T13:12:11Z</time>
      </trkpt>
      <trkpt lat="43.68741" lon="3.19798">
        <ele>568.28</ele>
        <time>2014-08-23T13:12:12Z</time>
      </trkpt>
      <trkpt lat="43.68742" lon="3.19796">
        <ele>568.76</ele>
        <time>2014-08-23T13:12:13Z</time>
      </trkpt>
      <trkpt lat="43.68735" lon="3.19787">
        <ele>569.72</ele>
        <time>2014-08-23T13:12:20Z</time>
      </trkpt>
      <trkpt lat="43.68731" lon="3.19788">
        <ele>570.68</ele>
        <time>2014-08-23T13:12:26Z</time>
      </trkpt>
      <trkpt lat="43.68728" lon="3.1979">
        <ele>571.64</ele>
        <time>2014-08-23T13:12:31Z</time>
      </trkpt>
      <trkpt lat="43.68724" lon="3.19793">
        <ele>571.64</ele>
        <time>2014-08-23T13:12:36Z</time>
      </trkpt>
      <trkpt lat="43.68717" lon="3.19798">
        <ele>572.6</ele>
        <time>2014-08-23T13:12:45Z</time>
      </trkpt>
      <trkpt lat="43.68702" lon="3.19805">
        <ele>573.56</ele>
        <time>2014-08-23T13:12:53Z</time>
      </trkpt>
      <trkpt lat="43.6869" lon="3.19808">
        <ele>574.53</ele>
        <time>2014-08-23T13:13:01Z</time>
      </trkpt>
      <trkpt lat="43.68689" lon="3.1981">
        <ele>574.53</ele>
        <time>2014-08-23T13:13:02Z</time>
      </trkpt>
      <trkpt lat="43.68687" lon="3.19811">
        <ele>574.53</ele>
        <time>2014-08-23T13:13:03Z</time>
      </trkpt>
      <trkpt lat="43.68686" lon="3.19812">
        <ele>575.01</ele>
        <time>2014-08-23T13:13:04Z</time>
      </trkpt>
      <trkpt lat="43.68685" lon="3.19813">
        <ele>575.01</ele>
        <time>2014-08-23T13:13:05Z</time>
      </trkpt>
      <trkpt lat="43.68669" lon="3.1982">
        <ele>575.97</ele>
        <time>2014-08-23T13:13:13Z</time>
      </trkpt>
      <trkpt lat="43.68656" lon="3.19825">
        <ele>576.93</ele>
        <time>2014-08-23T13:13:21Z</time>
      </trkpt>
      <trkpt lat="43.68645" lon="3.19829">
        <ele>577.89</ele>
        <time>2014-08-23T13:13:29Z</time>
      </trkpt>
      <trkpt lat="43.68635" lon="3.19834">
        <ele>579.33</ele>
        <time>2014-08-23T13:13:38Z</time>
      </trkpt>
      <trkpt lat="43.68627" lon="3.19839">
        <ele>580.29</ele>
        <time>2014-08-23T13:13:45Z</time>
      </trkpt>
      <trkpt lat="43.68624" lon="3.1984">
        <ele>580.77</ele>
        <time>2014-08-23T13:13:47Z</time>
      </trkpt>
      <trkpt lat="43.68623" lon="3.19841">
        <ele>580.77</ele>
        <time>2014-08-23T13:13:48Z</time>
      </trkpt>
      <trkpt lat="43.68616" lon="3.19846">
        <ele>581.25</ele>
        <time>2014-08-23T13:13:55Z</time>
      </trkpt>
      <trkpt lat="43.6861" lon="3.19849">
        <ele>582.22</ele>
        <time>2014-08-23T13:14:00Z</time>
      </trkpt>
      <trkpt lat="43.68608" lon="3.19849">
        <ele>582.22</ele>
        <time>2014-08-23T13:14:01Z</time>
      </trkpt>
      <trkpt lat="43.68607" lon="3.1985">
        <ele>582.22</ele>
        <time>2014-08-23T13:14:02Z</time>
      </trkpt>
      <trkpt lat="43.68605" lon="3.1985">
        <ele>582.22</ele>
        <time>2014-08-23T13:14:03Z</time>
      </trkpt>
      <trkpt lat="43.68604" lon="3.19851">
        <ele>582.7</ele>
        <time>2014-08-23T13:14:04Z</time>
      </trkpt>
      <trkpt lat="43.68602" lon="3.19852">
        <ele>582.7</ele>
        <time>2014-08-23T13:14:05Z</time>
      </trkpt>
      <trkpt lat="43.686" lon="3.19853">
        <ele>582.7</ele>
        <time>2014-08-23T13:14:06Z</time>
      </trkpt>
      <trkpt lat="43.68599" lon="3.19854">
        <ele>582.7</ele>
        <time>2014-08-23T13:14:07Z</time>
      </trkpt>
      <trkpt lat="43.68597" lon="3.19855">
        <ele>582.7</ele>
        <time>2014-08-23T13:14:08Z</time>
      </trkpt>
      <trkpt lat="43.68595" lon="3.19856">
        <ele>583.18</ele>
        <time>2014-08-23T13:14:09Z</time>
      </trkpt>
      <trkpt lat="43.68586" lon="3.19861">
        <ele>583.66</ele>
        <time>2014-08-23T13:14:16Z</time>
      </trkpt>
      <trkpt lat="43.68585" lon="3.19861">
        <ele>584.14</ele>
        <time>2014-08-23T13:14:17Z</time>
      </trkpt>
      <trkpt lat="43.68571" lon="3.19865">
        <ele>584.62</ele>
        <time>2014-08-23T13:14:27Z</time>
      </trkpt>
      <trkpt lat="43.68565" lon="3.19868">
        <ele>585.1</ele>
        <time>2014-08-23T13:14:31Z</time>
      </trkpt>
      <trkpt lat="43.68559" lon="3.19878">
        <ele>585.58</ele>
        <time>2014-08-23T13:14:37Z</time>
      </trkpt>
      <trkpt lat="43.68558" lon="3.19879">
        <ele>585.58</ele>
        <time>2014-08-23T13:14:38Z</time>
      </trkpt>
      <trkpt lat="43.6855" lon="3.19892">
        <ele>586.54</ele>
        <time>2014-08-23T13:14:45Z</time>
      </trkpt>
      <trkpt lat="43.6855" lon="3.19894">
        <ele>586.54</ele>
        <time>2014-08-23T13:14:46Z</time>
      </trkpt>
      <trkpt lat="43.68548" lon="3.19896">
        <ele>586.54</ele>
        <time>2014-08-23T13:14:47Z</time>
      </trkpt>
      <trkpt lat="43.68547" lon="3.19897">
        <ele>586.54</ele>
        <time>2014-08-23T13:14:48Z</time>
      </trkpt>
      <trkpt lat="43.68545" lon="3.19899">
        <ele>587.02</ele>
        <time>2014-08-23T13:14:49Z</time>
      </trkpt>
      <trkpt lat="43.68544" lon="3.19902">
        <ele>587.02</ele>
        <time>2014-08-23T13:14:50Z</time>
      </trkpt>
      <trkpt lat="43.68543" lon="3.19903">
        <ele>587.02</ele>
        <time>2014-08-23T13:14:51Z</time>
      </trkpt>
      <trkpt lat="43.68538" lon="3.19909">
        <ele>587.5</ele>
        <time>2014-08-23T13:14:53Z</time>
      </trkpt>
      <trkpt lat="43.68537" lon="3.19912">
        <ele>587.5</ele>
        <time>2014-08-23T13:14:54Z</time>
      </trkpt>
      <trkpt lat="43.68536" lon="3.19914">
        <ele>587.5</ele>
        <time>2014-08-23T13:14:55Z</time>
      </trkpt>
      <trkpt lat="43.68534" lon="3.19916">
        <ele>587.5</ele>
        <time>2014-08-23T13:14:56Z</time>
      </trkpt>
      <trkpt lat="43.68533" lon="3.19919">
        <ele>588.46</ele>
        <time>2014-08-23T13:14:57Z</time>
      </trkpt>
      <trkpt lat="43.68524" lon="3.19933">
        <ele>588.46</ele>
        <time>2014-08-23T13:15:03Z</time>
      </trkpt>
      <trkpt lat="43.68515" lon="3.19947">
        <ele>588.95</ele>
        <time>2014-08-23T13:15:10Z</time>
      </trkpt>
      <trkpt lat="43.68504" lon="3.19963">
        <ele>590.39</ele>
        <time>2014-08-23T13:15:16Z</time>
      </trkpt>
      <trkpt lat="43.68492" lon="3.1998">
        <ele>590.87</ele>
        <time>2014-08-23T13:15:23Z</time>
      </trkpt>
      <trkpt lat="43.68478" lon="3.2">
        <ele>590.87</ele>
        <time>2014-08-23T13:15:31Z</time>
      </trkpt>
      <trkpt lat="43.6847" lon="3.20013">
        <ele>590.39</ele>
        <time>2014-08-23T13:15:37Z</time>
      </trkpt>
      <trkpt lat="43.68461" lon="3.20028">
        <ele>590.39</ele>
        <time>2014-08-23T13:15:44Z</time>
      </trkpt>
      <trkpt lat="43.68446" lon="3.20048">
        <ele>590.39</ele>
        <time>2014-08-23T13:15:53Z</time>
      </trkpt>
      <trkpt lat="43.68434" lon="3.20067">
        <ele>590.39</ele>
        <time>2014-08-23T13:16:01Z</time>
      </trkpt>
      <trkpt lat="43.68426" lon="3.20078">
        <ele>590.39</ele>
        <time>2014-08-23T13:16:06Z</time>
      </trkpt>
      <trkpt lat="43.68416" lon="3.20089">
        <ele>590.39</ele>
        <time>2014-08-23T13:16:11Z</time>
      </trkpt>
      <trkpt lat="43.68407" lon="3.20103">
        <ele>589.43</ele>
        <time>2014-08-23T13:16:17Z</time>
      </trkpt>
      <trkpt lat="43.68398" lon="3.20114">
        <ele>589.43</ele>
        <time>2014-08-23T13:16:22Z</time>
      </trkpt>
      <trkpt lat="43.68388" lon="3.20128">
        <ele>588.95</ele>
        <time>2014-08-23T13:16:28Z</time>
      </trkpt>
      <trkpt lat="43.68381" lon="3.20142">
        <ele>588.95</ele>
        <time>2014-08-23T13:16:34Z</time>
      </trkpt>
      <trkpt lat="43.68372" lon="3.20155">
        <ele>588.95</ele>
        <time>2014-08-23T13:16:40Z</time>
      </trkpt>
      <trkpt lat="43.68369" lon="3.20158">
        <ele>588.95</ele>
        <time>2014-08-23T13:16:42Z</time>
      </trkpt>
      <trkpt lat="43.68367" lon="3.2016">
        <ele>588.95</ele>
        <time>2014-08-23T13:16:43Z</time>
      </trkpt>
      <trkpt lat="43.68365" lon="3.20161">
        <ele>588.95</ele>
        <time>2014-08-23T13:16:44Z</time>
      </trkpt>
      <trkpt lat="43.68358" lon="3.20172">
        <ele>588.95</ele>
        <time>2014-08-23T13:16:50Z</time>
      </trkpt>
      <trkpt lat="43.68357" lon="3.20173">
        <ele>588.95</ele>
        <time>2014-08-23T13:16:51Z</time>
      </trkpt>
      <trkpt lat="43.68356" lon="3.20174">
        <ele>588.95</ele>
        <time>2014-08-23T13:16:52Z</time>
      </trkpt>
      <trkpt lat="43.68349" lon="3.20187">
        <ele>588.95</ele>
        <time>2014-08-23T13:16:59Z</time>
      </trkpt>
      <trkpt lat="43.68341" lon="3.20198">
        <ele>588.95</ele>
        <time>2014-08-23T13:17:05Z</time>
      </trkpt>
      <trkpt lat="43.68329" lon="3.20214">
        <ele>588.95</ele>
        <time>2014-08-23T13:17:13Z</time>
      </trkpt>
      <trkpt lat="43.68328" lon="3.20216">
        <ele>588.95</ele>
        <time>2014-08-23T13:17:14Z</time>
      </trkpt>
      <trkpt lat="43.68309" lon="3.20238">
        <ele>588.95</ele>
        <time>2014-08-23T13:17:25Z</time>
      </trkpt>
      <trkpt lat="43.68299" lon="3.20247">
        <ele>588.95</ele>
        <time>2014-08-23T13:17:32Z</time>
      </trkpt>
      <trkpt lat="43.68296" lon="3.20248">
        <ele>588.95</ele>
        <time>2014-08-23T13:17:34Z</time>
      </trkpt>
      <trkpt lat="43.68285" lon="3.20251">
        <ele>589.91</ele>
        <time>2014-08-23T13:17:43Z</time>
      </trkpt>
      <trkpt lat="43.68284" lon="3.20253">
        <ele>589.91</ele>
        <time>2014-08-23T13:17:45Z</time>
      </trkpt>
      <trkpt lat="43.68283" lon="3.20255">
        <ele>589.91</ele>
        <time>2014-08-23T13:17:46Z</time>
      </trkpt>
      <trkpt lat="43.68283" lon="3.20259">
        <ele>589.91</ele>
        <time>2014-08-23T13:17:52Z</time>
      </trkpt>
      <trkpt lat="43.68283" lon="3.2026">
        <ele>589.91</ele>
        <time>2014-08-23T13:17:53Z</time>
      </trkpt>
      <trkpt lat="43.68284" lon="3.20261">
        <ele>589.91</ele>
        <time>2014-08-23T13:17:54Z</time>
      </trkpt>
      <trkpt lat="43.68288" lon="3.20264">
        <ele>590.39</ele>
        <time>2014-08-23T13:18:03Z</time>
      </trkpt>
      <trkpt lat="43.68285" lon="3.20259">
        <ele>590.39</ele>
        <time>2014-08-23T13:18:09Z</time>
      </trkpt>
      <trkpt lat="43.68285" lon="3.20259">
        <ele>588.95</ele>
        <time>2014-08-23T13:18:19Z</time>
      </trkpt>
      <trkpt lat="43.68285" lon="3.2026">
        <ele>589.43</ele>
        <time>2014-08-23T13:18:34Z</time>
      </trkpt>
      <trkpt lat="43.68284" lon="3.20259">
        <ele>589.43</ele>
        <time>2014-08-23T13:18:46Z</time>
      </trkpt>
      <trkpt lat="43.68284" lon="3.20259">
        <ele>590.39</ele>
        <time>2014-08-23T13:18:49Z</time>
      </trkpt>
      <trkpt lat="43.68282" lon="3.20258">
        <ele>590.39</ele>
        <time>2014-08-23T13:18:56Z</time>
      </trkpt>
      <trkpt lat="43.68282" lon="3.20258">
        <ele>590.39</ele>
        <time>2014-08-23T13:19:06Z</time>
      </trkpt>
      <trkpt lat="43.68281" lon="3.20255">
        <ele>589.91</ele>
        <time>2014-08-23T13:19:19Z</time>
      </trkpt>
      <trkpt lat="43.68281" lon="3.20257">
        <ele>589.91</ele>
        <time>2014-08-23T13:19:29Z</time>
      </trkpt>
      <trkpt lat="43.68282" lon="3.20255">
        <ele>589.91</ele>
        <time>2014-08-23T13:19:36Z</time>
      </trkpt>
      <trkpt lat="43.68283" lon="3.20251">
        <ele>589.91</ele>
        <time>2014-08-23T13:19:39Z</time>
      </trkpt>
      <trkpt lat="43.68284" lon="3.20251">
        <ele>589.91</ele>
        <time>2014-08-23T13:19:40Z</time>
      </trkpt>
      <trkpt lat="43.68286" lon="3.2025">
        <ele>589.91</ele>
        <time>2014-08-23T13:19:41Z</time>
      </trkpt>
      <trkpt lat="43.68287" lon="3.2025">
        <ele>589.91</ele>
        <time>2014-08-23T13:19:42Z</time>
      </trkpt>
      <trkpt lat="43.68289" lon="3.2025">
        <ele>589.91</ele>
        <time>2014-08-23T13:19:43Z</time>
      </trkpt>
      <trkpt lat="43.6829" lon="3.20251">
        <ele>589.91</ele>
        <time>2014-08-23T13:19:44Z</time>
      </trkpt>
      <trkpt lat="43.68291" lon="3.20251">
        <ele>589.91</ele>
        <time>2014-08-23T13:19:45Z</time>
      </trkpt>
      <trkpt lat="43.68293" lon="3.20251">
        <ele>589.91</ele>
        <time>2014-08-23T13:19:46Z</time>
      </trkpt>
      <trkpt lat="43.68294" lon="3.2025">
        <ele>589.91</ele>
        <time>2014-08-23T13:19:47Z</time>
      </trkpt>
      <trkpt lat="43.68296" lon="3.2025">
        <ele>589.91</ele>
        <time>2014-08-23T13:19:48Z</time>
      </trkpt>
      <trkpt lat="43.68298" lon="3.20249">
        <ele>589.91</ele>
        <time>2014-08-23T13:19:49Z</time>
      </trkpt>
      <trkpt lat="43.68299" lon="3.20248">
        <ele>589.91</ele>
        <time>2014-08-23T13:19:50Z</time>
      </trkpt>
      <trkpt lat="43.68301" lon="3.20247">
        <ele>589.91</ele>
        <time>2014-08-23T13:19:51Z</time>
      </trkpt>
      <trkpt lat="43.68302" lon="3.20246">
        <ele>589.91</ele>
        <time>2014-08-23T13:19:52Z</time>
      </trkpt>
      <trkpt lat="43.68303" lon="3.20245">
        <ele>589.91</ele>
        <time>2014-08-23T13:19:53Z</time>
      </trkpt>
      <trkpt lat="43.68304" lon="3.20244">
        <ele>589.91</ele>
        <time>2014-08-23T13:19:54Z</time>
      </trkpt>
      <trkpt lat="43.68306" lon="3.20243">
        <ele>589.91</ele>
        <time>2014-08-23T13:19:55Z</time>
      </trkpt>
      <trkpt lat="43.68307" lon="3.20241">
        <ele>589.91</ele>
        <time>2014-08-23T13:19:56Z</time>
      </trkpt>
      <trkpt lat="43.68308" lon="3.2024">
        <ele>589.91</ele>
        <time>2014-08-23T13:19:57Z</time>
      </trkpt>
      <trkpt lat="43.68308" lon="3.20238">
        <ele>589.91</ele>
        <time>2014-08-23T13:19:58Z</time>
      </trkpt>
      <trkpt lat="43.68316" lon="3.20224">
        <ele>589.91</ele>
        <time>2014-08-23T13:20:07Z</time>
      </trkpt>
      <trkpt lat="43.68317" lon="3.20223">
        <ele>589.91</ele>
        <time>2014-08-23T13:20:08Z</time>
      </trkpt>
      <trkpt lat="43.68318" lon="3.20221">
        <ele>589.91</ele>
        <time>2014-08-23T13:20:09Z</time>
      </trkpt>
      <trkpt lat="43.68318" lon="3.2022">
        <ele>589.91</ele>
        <time>2014-08-23T13:20:10Z</time>
      </trkpt>
      <trkpt lat="43.6832" lon="3.20219">
        <ele>589.91</ele>
        <time>2014-08-23T13:20:11Z</time>
      </trkpt>
      <trkpt lat="43.68321" lon="3.20218">
        <ele>589.91</ele>
        <time>2014-08-23T13:20:12Z</time>
      </trkpt>
      <trkpt lat="43.68322" lon="3.20217">
        <ele>589.91</ele>
        <time>2014-08-23T13:20:13Z</time>
      </trkpt>
      <trkpt lat="43.68323" lon="3.20216">
        <ele>589.91</ele>
        <time>2014-08-23T13:20:14Z</time>
      </trkpt>
      <trkpt lat="43.68323" lon="3.20214">
        <ele>589.91</ele>
        <time>2014-08-23T13:20:15Z</time>
      </trkpt>
      <trkpt lat="43.68324" lon="3.20213">
        <ele>589.91</ele>
        <time>2014-08-23T13:20:16Z</time>
      </trkpt>
      <trkpt lat="43.68325" lon="3.20212">
        <ele>589.91</ele>
        <time>2014-08-23T13:20:17Z</time>
      </trkpt>
      <trkpt lat="43.68326" lon="3.20211">
        <ele>589.91</ele>
        <time>2014-08-23T13:20:18Z</time>
      </trkpt>
      <trkpt lat="43.68327" lon="3.2021">
        <ele>589.91</ele>
        <time>2014-08-23T13:20:19Z</time>
      </trkpt>
      <trkpt lat="43.68329" lon="3.20208">
        <ele>589.91</ele>
        <time>2014-08-23T13:20:21Z</time>
      </trkpt>
      <trkpt lat="43.68329" lon="3.20206">
        <ele>589.91</ele>
        <time>2014-08-23T13:20:22Z</time>
      </trkpt>
      <trkpt lat="43.6833" lon="3.20205">
        <ele>589.91</ele>
        <time>2014-08-23T13:20:23Z</time>
      </trkpt>
      <trkpt lat="43.6833" lon="3.20203">
        <ele>589.91</ele>
        <time>2014-08-23T13:20:24Z</time>
      </trkpt>
      <trkpt lat="43.6833" lon="3.20201">
        <ele>589.91</ele>
        <time>2014-08-23T13:20:25Z</time>
      </trkpt>
      <trkpt lat="43.68329" lon="3.20201">
        <ele>589.91</ele>
        <time>2014-08-23T13:20:27Z</time>
      </trkpt>
      <trkpt lat="43.68323" lon="3.20209">
        <ele>589.43</ele>
        <time>2014-08-23T13:20:35Z</time>
      </trkpt>
      <trkpt lat="43.68321" lon="3.20212">
        <ele>589.43</ele>
        <time>2014-08-23T13:20:37Z</time>
      </trkpt>
      <trkpt lat="43.6832" lon="3.20213">
        <ele>589.43</ele>
        <time>2014-08-23T13:20:38Z</time>
      </trkpt>
      <trkpt lat="43.68319" lon="3.20215">
        <ele>589.43</ele>
        <time>2014-08-23T13:20:39Z</time>
      </trkpt>
      <trkpt lat="43.68306" lon="3.20232">
        <ele>589.43</ele>
        <time>2014-08-23T13:20:48Z</time>
      </trkpt>
      <trkpt lat="43.68293" lon="3.20245">
        <ele>589.43</ele>
        <time>2014-08-23T13:20:56Z</time>
      </trkpt>
      <trkpt lat="43.68276" lon="3.20244">
        <ele>589.43</ele>
        <time>2014-08-23T13:21:04Z</time>
      </trkpt>
      <trkpt lat="43.68255" lon="3.20228">
        <ele>589.43</ele>
        <time>2014-08-23T13:21:14Z</time>
      </trkpt>
      <trkpt lat="43.68234" lon="3.2021">
        <ele>588.95</ele>
        <time>2014-08-23T13:21:21Z</time>
      </trkpt>
      <trkpt lat="43.682" lon="3.2018">
        <ele>587.98</ele>
        <time>2014-08-23T13:21:30Z</time>
      </trkpt>
      <trkpt lat="43.68171" lon="3.20155">
        <ele>587.98</ele>
        <time>2014-08-23T13:21:39Z</time>
      </trkpt>
      <trkpt lat="43.68162" lon="3.20148">
        <ele>589.43</ele>
        <time>2014-08-23T13:21:42Z</time>
      </trkpt>
      <trkpt lat="43.68138" lon="3.20127">
        <ele>589.91</ele>
        <time>2014-08-23T13:21:51Z</time>
      </trkpt>
      <trkpt lat="43.6812" lon="3.20112">
        <ele>589.91</ele>
        <time>2014-08-23T13:21:58Z</time>
      </trkpt>
      <trkpt lat="43.68096" lon="3.20091">
        <ele>588.95</ele>
        <time>2014-08-23T13:22:06Z</time>
      </trkpt>
      <trkpt lat="43.68065" lon="3.20066">
        <ele>588.95</ele>
        <time>2014-08-23T13:22:17Z</time>
      </trkpt>
      <trkpt lat="43.68046" lon="3.20049">
        <ele>588.95</ele>
        <time>2014-08-23T13:22:25Z</time>
      </trkpt>
      <trkpt lat="43.68022" lon="3.20029">
        <ele>589.91</ele>
        <time>2014-08-23T13:22:35Z</time>
      </trkpt>
      <trkpt lat="43.68" lon="3.20012">
        <ele>589.91</ele>
        <time>2014-08-23T13:22:43Z</time>
      </trkpt>
      <trkpt lat="43.67981" lon="3.19996">
        <ele>589.91</ele>
        <time>2014-08-23T13:22:50Z</time>
      </trkpt>
      <trkpt lat="43.67958" lon="3.19977">
        <ele>588.46</ele>
        <time>2014-08-23T13:22:59Z</time>
      </trkpt>
      <trkpt lat="43.67937" lon="3.19963">
        <ele>588.95</ele>
        <time>2014-08-23T13:23:07Z</time>
      </trkpt>
      <trkpt lat="43.67921" lon="3.19965">
        <ele>589.91</ele>
        <time>2014-08-23T13:23:13Z</time>
      </trkpt>
      <trkpt lat="43.67919" lon="3.19967">
        <ele>589.91</ele>
        <time>2014-08-23T13:23:14Z</time>
      </trkpt>
      <trkpt lat="43.67917" lon="3.19969">
        <ele>590.39</ele>
        <time>2014-08-23T13:23:15Z</time>
      </trkpt>
      <trkpt lat="43.67906" lon="3.19985">
        <ele>590.39</ele>
        <time>2014-08-23T13:23:21Z</time>
      </trkpt>
      <trkpt lat="43.6789" lon="3.20014">
        <ele>592.31</ele>
        <time>2014-08-23T13:23:30Z</time>
      </trkpt>
      <trkpt lat="43.67876" lon="3.20041">
        <ele>593.75</ele>
        <time>2014-08-23T13:23:38Z</time>
      </trkpt>
      <trkpt lat="43.67858" lon="3.20069">
        <ele>594.23</ele>
        <time>2014-08-23T13:23:48Z</time>
      </trkpt>
      <trkpt lat="43.67843" lon="3.20097">
        <ele>595.19</ele>
        <time>2014-08-23T13:23:57Z</time>
      </trkpt>
      <trkpt lat="43.67827" lon="3.20122">
        <ele>596.15</ele>
        <time>2014-08-23T13:24:06Z</time>
      </trkpt>
      <trkpt lat="43.67811" lon="3.20149">
        <ele>596.64</ele>
        <time>2014-08-23T13:24:15Z</time>
      </trkpt>
      <trkpt lat="43.67794" lon="3.20182">
        <ele>596.64</ele>
        <time>2014-08-23T13:24:25Z</time>
      </trkpt>
      <trkpt lat="43.6778" lon="3.20207">
        <ele>596.64</ele>
        <time>2014-08-23T13:24:33Z</time>
      </trkpt>
      <trkpt lat="43.6777" lon="3.20231">
        <ele>595.19</ele>
        <time>2014-08-23T13:24:41Z</time>
      </trkpt>
      <trkpt lat="43.67759" lon="3.20273">
        <ele>594.23</ele>
        <time>2014-08-23T13:24:50Z</time>
      </trkpt>
      <trkpt lat="43.67747" lon="3.20316">
        <ele>593.75</ele>
        <time>2014-08-23T13:24:59Z</time>
      </trkpt>
      <trkpt lat="43.67738" lon="3.20349">
        <ele>593.27</ele>
        <time>2014-08-23T13:25:06Z</time>
      </trkpt>
      <trkpt lat="43.67726" lon="3.20395">
        <ele>592.31</ele>
        <time>2014-08-23T13:25:16Z</time>
      </trkpt>
      <trkpt lat="43.67722" lon="3.20414">
        <ele>591.83</ele>
        <time>2014-08-23T13:25:23Z</time>
      </trkpt>
      <trkpt lat="43.67722" lon="3.20415">
        <ele>591.83</ele>
        <time>2014-08-23T13:25:32Z</time>
      </trkpt>
      <trkpt lat="43.67721" lon="3.20416">
        <ele>591.83</ele>
        <time>2014-08-23T13:25:33Z</time>
      </trkpt>
      <trkpt lat="43.6772" lon="3.20418">
        <ele>591.83</ele>
        <time>2014-08-23T13:25:34Z</time>
      </trkpt>
      <trkpt lat="43.67719" lon="3.20419">
        <ele>591.83</ele>
        <time>2014-08-23T13:25:35Z</time>
      </trkpt>
      <trkpt lat="43.67717" lon="3.20421">
        <ele>591.83</ele>
        <time>2014-08-23T13:25:36Z</time>
      </trkpt>
      <trkpt lat="43.67716" lon="3.20422">
        <ele>591.83</ele>
        <time>2014-08-23T13:25:37Z</time>
      </trkpt>
      <trkpt lat="43.67715" lon="3.20424">
        <ele>591.83</ele>
        <time>2014-08-23T13:25:38Z</time>
      </trkpt>
      <trkpt lat="43.67713" lon="3.20425">
        <ele>591.83</ele>
        <time>2014-08-23T13:25:39Z</time>
      </trkpt>
      <trkpt lat="43.67711" lon="3.20427">
        <ele>591.83</ele>
        <time>2014-08-23T13:25:40Z</time>
      </trkpt>
      <trkpt lat="43.67709" lon="3.20428">
        <ele>591.83</ele>
        <time>2014-08-23T13:25:41Z</time>
      </trkpt>
      <trkpt lat="43.67694" lon="3.20434">
        <ele>591.83</ele>
        <time>2014-08-23T13:25:48Z</time>
      </trkpt>
      <trkpt lat="43.67679" lon="3.20441">
        <ele>591.83</ele>
        <time>2014-08-23T13:25:54Z</time>
      </trkpt>
      <trkpt lat="43.67663" lon="3.20449">
        <ele>591.83</ele>
        <time>2014-08-23T13:26:01Z</time>
      </trkpt>
      <trkpt lat="43.67638" lon="3.20465">
        <ele>591.35</ele>
        <time>2014-08-23T13:26:09Z</time>
      </trkpt>
      <trkpt lat="43.67608" lon="3.20484">
        <ele>590.39</ele>
        <time>2014-08-23T13:26:18Z</time>
      </trkpt>
      <trkpt lat="43.67575" lon="3.20508">
        <ele>589.91</ele>
        <time>2014-08-23T13:26:28Z</time>
      </trkpt>
      <trkpt lat="43.67544" lon="3.20535">
        <ele>589.91</ele>
        <time>2014-08-23T13:26:38Z</time>
      </trkpt>
      <trkpt lat="43.67518" lon="3.2056">
        <ele>587.98</ele>
        <time>2014-08-23T13:26:47Z</time>
      </trkpt>
      <trkpt lat="43.67492" lon="3.20586">
        <ele>587.5</ele>
        <time>2014-08-23T13:26:55Z</time>
      </trkpt>
      <trkpt lat="43.67476" lon="3.20603">
        <ele>586.54</ele>
        <time>2014-08-23T13:27:01Z</time>
      </trkpt>
      <trkpt lat="43.67465" lon="3.20613">
        <ele>584.62</ele>
        <time>2014-08-23T13:27:07Z</time>
      </trkpt>
      <trkpt lat="43.67462" lon="3.20616">
        <ele>584.62</ele>
        <time>2014-08-23T13:27:11Z</time>
      </trkpt>
      <trkpt lat="43.67457" lon="3.20621">
        <ele>584.62</ele>
        <time>2014-08-23T13:27:16Z</time>
      </trkpt>
      <trkpt lat="43.67457" lon="3.2062">
        <ele>584.14</ele>
        <time>2014-08-23T13:27:25Z</time>
      </trkpt>
      <trkpt lat="43.67456" lon="3.2062">
        <ele>584.14</ele>
        <time>2014-08-23T13:27:38Z</time>
      </trkpt>
      <trkpt lat="43.67451" lon="3.20625">
        <ele>583.66</ele>
        <time>2014-08-23T13:27:45Z</time>
      </trkpt>
      <trkpt lat="43.6743" lon="3.2063">
        <ele>581.73</ele>
        <time>2014-08-23T13:27:51Z</time>
      </trkpt>
      <trkpt lat="43.67426" lon="3.20631">
        <ele>580.77</ele>
        <time>2014-08-23T13:27:52Z</time>
      </trkpt>
      <trkpt lat="43.67421" lon="3.20632">
        <ele>580.77</ele>
        <time>2014-08-23T13:27:53Z</time>
      </trkpt>
      <trkpt lat="43.67416" lon="3.20632">
        <ele>580.29</ele>
        <time>2014-08-23T13:27:54Z</time>
      </trkpt>
      <trkpt lat="43.67411" lon="3.20632">
        <ele>579.81</ele>
        <time>2014-08-23T13:27:55Z</time>
      </trkpt>
      <trkpt lat="43.67406" lon="3.20632">
        <ele>579.33</ele>
        <time>2014-08-23T13:27:56Z</time>
      </trkpt>
      <trkpt lat="43.67401" lon="3.20633">
        <ele>578.37</ele>
        <time>2014-08-23T13:27:57Z</time>
      </trkpt>
      <trkpt lat="43.67395" lon="3.20634">
        <ele>578.37</ele>
        <time>2014-08-23T13:27:58Z</time>
      </trkpt>
      <trkpt lat="43.67379" lon="3.20634">
        <ele>576.93</ele>
        <time>2014-08-23T13:28:01Z</time>
      </trkpt>
      <trkpt lat="43.67373" lon="3.20633">
        <ele>576.45</ele>
        <time>2014-08-23T13:28:02Z</time>
      </trkpt>
      <trkpt lat="43.67366" lon="3.20631">
        <ele>575.97</ele>
        <time>2014-08-23T13:28:03Z</time>
      </trkpt>
      <trkpt lat="43.67354" lon="3.20624">
        <ele>575.01</ele>
        <time>2014-08-23T13:28:05Z</time>
      </trkpt>
      <trkpt lat="43.67348" lon="3.20621">
        <ele>573.56</ele>
        <time>2014-08-23T13:28:06Z</time>
      </trkpt>
      <trkpt lat="43.67343" lon="3.20618">
        <ele>573.56</ele>
        <time>2014-08-23T13:28:07Z</time>
      </trkpt>
      <trkpt lat="43.67333" lon="3.20612">
        <ele>573.08</ele>
        <time>2014-08-23T13:28:09Z</time>
      </trkpt>
      <trkpt lat="43.6733" lon="3.20612">
        <ele>573.08</ele>
        <time>2014-08-23T13:28:10Z</time>
      </trkpt>
      <trkpt lat="43.67327" lon="3.20614">
        <ele>573.08</ele>
        <time>2014-08-23T13:28:11Z</time>
      </trkpt>
      <trkpt lat="43.67325" lon="3.20617">
        <ele>573.08</ele>
        <time>2014-08-23T13:28:12Z</time>
      </trkpt>
      <trkpt lat="43.67324" lon="3.20621">
        <ele>572.12</ele>
        <time>2014-08-23T13:28:13Z</time>
      </trkpt>
      <trkpt lat="43.67324" lon="3.20626">
        <ele>572.12</ele>
        <time>2014-08-23T13:28:14Z</time>
      </trkpt>
      <trkpt lat="43.67326" lon="3.2063">
        <ele>572.12</ele>
        <time>2014-08-23T13:28:15Z</time>
      </trkpt>
      <trkpt lat="43.67329" lon="3.20635">
        <ele>571.64</ele>
        <time>2014-08-23T13:28:16Z</time>
      </trkpt>
      <trkpt lat="43.67334" lon="3.20645">
        <ele>570.68</ele>
        <time>2014-08-23T13:28:18Z</time>
      </trkpt>
      <trkpt lat="43.67357" lon="3.20679">
        <ele>568.28</ele>
        <time>2014-08-23T13:28:24Z</time>
      </trkpt>
      <trkpt lat="43.67361" lon="3.20684">
        <ele>568.28</ele>
        <time>2014-08-23T13:28:25Z</time>
      </trkpt>
      <trkpt lat="43.67363" lon="3.20689">
        <ele>567.8</ele>
        <time>2014-08-23T13:28:26Z</time>
      </trkpt>
      <trkpt lat="43.67364" lon="3.20694">
        <ele>567.32</ele>
        <time>2014-08-23T13:28:27Z</time>
      </trkpt>
      <trkpt lat="43.67363" lon="3.20699">
        <ele>567.32</ele>
        <time>2014-08-23T13:28:28Z</time>
      </trkpt>
      <trkpt lat="43.67359" lon="3.20703">
        <ele>566.35</ele>
        <time>2014-08-23T13:28:29Z</time>
      </trkpt>
      <trkpt lat="43.67355" lon="3.20703">
        <ele>565.87</ele>
        <time>2014-08-23T13:28:30Z</time>
      </trkpt>
      <trkpt lat="43.6735" lon="3.20701">
        <ele>564.43</ele>
        <time>2014-08-23T13:28:31Z</time>
      </trkpt>
      <trkpt lat="43.67344" lon="3.20695">
        <ele>563.95</ele>
        <time>2014-08-23T13:28:32Z</time>
      </trkpt>
      <trkpt lat="43.67339" lon="3.20689">
        <ele>562.51</ele>
        <time>2014-08-23T13:28:33Z</time>
      </trkpt>
      <trkpt lat="43.67332" lon="3.20683">
        <ele>562.03</ele>
        <time>2014-08-23T13:28:34Z</time>
      </trkpt>
      <trkpt lat="43.67326" lon="3.20677">
        <ele>561.55</ele>
        <time>2014-08-23T13:28:35Z</time>
      </trkpt>
      <trkpt lat="43.6732" lon="3.20671">
        <ele>560.59</ele>
        <time>2014-08-23T13:28:36Z</time>
      </trkpt>
      <trkpt lat="43.67313" lon="3.20667">
        <ele>559.62</ele>
        <time>2014-08-23T13:28:37Z</time>
      </trkpt>
      <trkpt lat="43.67306" lon="3.20664">
        <ele>559.62</ele>
        <time>2014-08-23T13:28:38Z</time>
      </trkpt>
      <trkpt lat="43.67299" lon="3.20662">
        <ele>559.14</ele>
        <time>2014-08-23T13:28:39Z</time>
      </trkpt>
      <trkpt lat="43.67276" lon="3.20656">
        <ele>556.74</ele>
        <time>2014-08-23T13:28:42Z</time>
      </trkpt>
      <trkpt lat="43.67268" lon="3.20656">
        <ele>555.3</ele>
        <time>2014-08-23T13:28:43Z</time>
      </trkpt>
      <trkpt lat="43.67262" lon="3.20656">
        <ele>555.3</ele>
        <time>2014-08-23T13:28:44Z</time>
      </trkpt>
      <trkpt lat="43.67255" lon="3.20658">
        <ele>554.82</ele>
        <time>2014-08-23T13:28:45Z</time>
      </trkpt>
      <trkpt lat="43.6724" lon="3.20664">
        <ele>553.86</ele>
        <time>2014-08-23T13:28:47Z</time>
      </trkpt>
      <trkpt lat="43.67211" lon="3.20676">
        <ele>550.49</ele>
        <time>2014-08-23T13:28:51Z</time>
      </trkpt>
      <trkpt lat="43.67193" lon="3.20686">
        <ele>548.09</ele>
        <time>2014-08-23T13:28:54Z</time>
      </trkpt>
      <trkpt lat="43.67188" lon="3.20693">
        <ele>547.61</ele>
        <time>2014-08-23T13:28:56Z</time>
      </trkpt>
      <trkpt lat="43.67189" lon="3.20698">
        <ele>546.65</ele>
        <time>2014-08-23T13:28:57Z</time>
      </trkpt>
      <trkpt lat="43.67192" lon="3.20701">
        <ele>546.17</ele>
        <time>2014-08-23T13:28:58Z</time>
      </trkpt>
      <trkpt lat="43.67196" lon="3.20702">
        <ele>545.69</ele>
        <time>2014-08-23T13:28:59Z</time>
      </trkpt>
      <trkpt lat="43.672" lon="3.20701">
        <ele>545.2</ele>
        <time>2014-08-23T13:29:00Z</time>
      </trkpt>
      <trkpt lat="43.67205" lon="3.20701">
        <ele>544.72</ele>
        <time>2014-08-23T13:29:01Z</time>
      </trkpt>
      <trkpt lat="43.6721" lon="3.20701">
        <ele>544.24</ele>
        <time>2014-08-23T13:29:02Z</time>
      </trkpt>
      <trkpt lat="43.67214" lon="3.207">
        <ele>544.24</ele>
        <time>2014-08-23T13:29:03Z</time>
      </trkpt>
      <trkpt lat="43.67236" lon="3.207">
        <ele>543.76</ele>
        <time>2014-08-23T13:29:09Z</time>
      </trkpt>
      <trkpt lat="43.67237" lon="3.20701">
        <ele>543.76</ele>
        <time>2014-08-23T13:29:10Z</time>
      </trkpt>
      <trkpt lat="43.67237" lon="3.20703">
        <ele>543.76</ele>
        <time>2014-08-23T13:29:11Z</time>
      </trkpt>
      <trkpt lat="43.67238" lon="3.20705">
        <ele>543.76</ele>
        <time>2014-08-23T13:29:12Z</time>
      </trkpt>
      <trkpt lat="43.67237" lon="3.20707">
        <ele>543.76</ele>
        <time>2014-08-23T13:29:13Z</time>
      </trkpt>
      <trkpt lat="43.67237" lon="3.20709">
        <ele>543.76</ele>
        <time>2014-08-23T13:29:14Z</time>
      </trkpt>
      <trkpt lat="43.67236" lon="3.20712">
        <ele>543.28</ele>
        <time>2014-08-23T13:29:15Z</time>
      </trkpt>
      <trkpt lat="43.67233" lon="3.20715">
        <ele>542.32</ele>
        <time>2014-08-23T13:29:16Z</time>
      </trkpt>
      <trkpt lat="43.6723" lon="3.20716">
        <ele>541.36</ele>
        <time>2014-08-23T13:29:17Z</time>
      </trkpt>
      <trkpt lat="43.67226" lon="3.20716">
        <ele>540.88</ele>
        <time>2014-08-23T13:29:18Z</time>
      </trkpt>
      <trkpt lat="43.67215" lon="3.20717">
        <ele>539.44</ele>
        <time>2014-08-23T13:29:20Z</time>
      </trkpt>
      <trkpt lat="43.67209" lon="3.20719">
        <ele>538.48</ele>
        <time>2014-08-23T13:29:21Z</time>
      </trkpt>
      <trkpt lat="43.67181" lon="3.2073">
        <ele>535.59</ele>
        <time>2014-08-23T13:29:25Z</time>
      </trkpt>
      <trkpt lat="43.67176" lon="3.20731">
        <ele>534.63</ele>
        <time>2014-08-23T13:29:26Z</time>
      </trkpt>
      <trkpt lat="43.67172" lon="3.20732">
        <ele>534.15</ele>
        <time>2014-08-23T13:29:27Z</time>
      </trkpt>
      <trkpt lat="43.6717" lon="3.20735">
        <ele>534.15</ele>
        <time>2014-08-23T13:29:28Z</time>
      </trkpt>
      <trkpt lat="43.6717" lon="3.20739">
        <ele>533.67</ele>
        <time>2014-08-23T13:29:29Z</time>
      </trkpt>
      <trkpt lat="43.67172" lon="3.20742">
        <ele>533.19</ele>
        <time>2014-08-23T13:29:30Z</time>
      </trkpt>
      <trkpt lat="43.67176" lon="3.20742">
        <ele>532.23</ele>
        <time>2014-08-23T13:29:31Z</time>
      </trkpt>
      <trkpt lat="43.67181" lon="3.20741">
        <ele>531.75</ele>
        <time>2014-08-23T13:29:32Z</time>
      </trkpt>
      <trkpt lat="43.67186" lon="3.20739">
        <ele>531.75</ele>
        <time>2014-08-23T13:29:33Z</time>
      </trkpt>
      <trkpt lat="43.67197" lon="3.20737">
        <ele>530.79</ele>
        <time>2014-08-23T13:29:35Z</time>
      </trkpt>
      <trkpt lat="43.67202" lon="3.20739">
        <ele>530.3</ele>
        <time>2014-08-23T13:29:36Z</time>
      </trkpt>
      <trkpt lat="43.67206" lon="3.20744">
        <ele>528.86</ele>
        <time>2014-08-23T13:29:37Z</time>
      </trkpt>
      <trkpt lat="43.67207" lon="3.20752">
        <ele>528.86</ele>
        <time>2014-08-23T13:29:38Z</time>
      </trkpt>
      <trkpt lat="43.67207" lon="3.2076">
        <ele>527.9</ele>
        <time>2014-08-23T13:29:39Z</time>
      </trkpt>
      <trkpt lat="43.67206" lon="3.20768">
        <ele>526.94</ele>
        <time>2014-08-23T13:29:40Z</time>
      </trkpt>
      <trkpt lat="43.67205" lon="3.20772">
        <ele>526.94</ele>
        <time>2014-08-23T13:29:41Z</time>
      </trkpt>
      <trkpt lat="43.67206" lon="3.20786">
        <ele>525.98</ele>
        <time>2014-08-23T13:29:46Z</time>
      </trkpt>
      <trkpt lat="43.67206" lon="3.20788">
        <ele>525.98</ele>
        <time>2014-08-23T13:29:50Z</time>
      </trkpt>
      <trkpt lat="43.67207" lon="3.20786">
        <ele>525.98</ele>
        <time>2014-08-23T13:30:00Z</time>
      </trkpt>
      <trkpt lat="43.67207" lon="3.20785">
        <ele>525.5</ele>
        <time>2014-08-23T13:30:10Z</time>
      </trkpt>
      <trkpt lat="43.67207" lon="3.20785">
        <ele>525.5</ele>
        <time>2014-08-23T13:30:32Z</time>
      </trkpt>
      <trkpt lat="43.67208" lon="3.20785">
        <ele>525.5</ele>
        <time>2014-08-23T13:30:51Z</time>
      </trkpt>
      <trkpt lat="43.67207" lon="3.20784">
        <ele>525.5</ele>
        <time>2014-08-23T13:31:12Z</time>
      </trkpt>
      <trkpt lat="43.67205" lon="3.20787">
        <ele>525.5</ele>
        <time>2014-08-23T13:31:27Z</time>
      </trkpt>
      <trkpt lat="43.67205" lon="3.2079">
        <ele>525.5</ele>
        <time>2014-08-23T13:31:35Z</time>
      </trkpt>
      <trkpt lat="43.67205" lon="3.20791">
        <ele>525.5</ele>
        <time>2014-08-23T13:31:44Z</time>
      </trkpt>
      <trkpt lat="43.67206" lon="3.20791">
        <ele>525.5</ele>
        <time>2014-08-23T13:31:58Z</time>
      </trkpt>
      <trkpt lat="43.67206" lon="3.20791">
        <ele>525.02</ele>
        <time>2014-08-23T13:32:12Z</time>
      </trkpt>
      <trkpt lat="43.67206" lon="3.20791">
        <ele>526.46</ele>
        <time>2014-08-23T13:32:14Z</time>
      </trkpt>
      <trkpt lat="43.67205" lon="3.2079">
        <ele>525.02</ele>
        <time>2014-08-23T13:32:25Z</time>
      </trkpt>
      <trkpt lat="43.67205" lon="3.20791">
        <ele>525.02</ele>
        <time>2014-08-23T13:32:48Z</time>
      </trkpt>
      <trkpt lat="43.67206" lon="3.20791">
        <ele>525.02</ele>
        <time>2014-08-23T13:33:00Z</time>
      </trkpt>
      <trkpt lat="43.67206" lon="3.20791">
        <ele>524.54</ele>
        <time>2014-08-23T13:33:26Z</time>
      </trkpt>
      <trkpt lat="43.67206" lon="3.20791">
        <ele>524.54</ele>
        <time>2014-08-23T13:33:45Z</time>
      </trkpt>
      <trkpt lat="43.67205" lon="3.20792">
        <ele>524.54</ele>
        <time>2014-08-23T13:33:57Z</time>
      </trkpt>
      <trkpt lat="43.67204" lon="3.20792">
        <ele>524.54</ele>
        <time>2014-08-23T13:34:21Z</time>
      </trkpt>
      <trkpt lat="43.67204" lon="3.20794">
        <ele>524.54</ele>
        <time>2014-08-23T13:34:40Z</time>
      </trkpt>
      <trkpt lat="43.67204" lon="3.20794">
        <ele>524.54</ele>
        <time>2014-08-23T13:34:50Z</time>
      </trkpt>
      <trkpt lat="43.67204" lon="3.20795">
        <ele>525.98</ele>
        <time>2014-08-23T13:35:01Z</time>
      </trkpt>
      <trkpt lat="43.67205" lon="3.20795">
        <ele>525.02</ele>
        <time>2014-08-23T13:35:04Z</time>
      </trkpt>
      <trkpt lat="43.67205" lon="3.20797">
        <ele>525.02</ele>
        <time>2014-08-23T13:35:14Z</time>
      </trkpt>
      <trkpt lat="43.67207" lon="3.20798">
        <ele>525.02</ele>
        <time>2014-08-23T13:35:27Z</time>
      </trkpt>
      <trkpt lat="43.67208" lon="3.20799">
        <ele>525.02</ele>
        <time>2014-08-23T13:35:28Z</time>
      </trkpt>
      <trkpt lat="43.67209" lon="3.20801">
        <ele>525.02</ele>
        <time>2014-08-23T13:35:29Z</time>
      </trkpt>
      <trkpt lat="43.67209" lon="3.20804">
        <ele>524.54</ele>
        <time>2014-08-23T13:35:30Z</time>
      </trkpt>
      <trkpt lat="43.6721" lon="3.20807">
        <ele>524.54</ele>
        <time>2014-08-23T13:35:31Z</time>
      </trkpt>
      <trkpt lat="43.6721" lon="3.20811">
        <ele>524.06</ele>
        <time>2014-08-23T13:35:32Z</time>
      </trkpt>
      <trkpt lat="43.67211" lon="3.20815">
        <ele>524.06</ele>
        <time>2014-08-23T13:35:33Z</time>
      </trkpt>
      <trkpt lat="43.67211" lon="3.20818">
        <ele>523.58</ele>
        <time>2014-08-23T13:35:37Z</time>
      </trkpt>
      <trkpt lat="43.67211" lon="3.20817">
        <ele>523.58</ele>
        <time>2014-08-23T13:35:51Z</time>
      </trkpt>
      <trkpt lat="43.67211" lon="3.20818">
        <ele>523.58</ele>
        <time>2014-08-23T13:36:04Z</time>
      </trkpt>
      <trkpt lat="43.6721" lon="3.20818">
        <ele>523.58</ele>
        <time>2014-08-23T13:36:15Z</time>
      </trkpt>
      <trkpt lat="43.67209" lon="3.20818">
        <ele>523.58</ele>
        <time>2014-08-23T13:36:31Z</time>
      </trkpt>
      <trkpt lat="43.6721" lon="3.20818">
        <ele>523.58</ele>
        <time>2014-08-23T13:36:48Z</time>
      </trkpt>
      <trkpt lat="43.6721" lon="3.20825">
        <ele>523.58</ele>
        <time>2014-08-23T13:36:55Z</time>
      </trkpt>
      <trkpt lat="43.67207" lon="3.20843">
        <ele>521.65</ele>
        <time>2014-08-23T13:37:00Z</time>
      </trkpt>
      <trkpt lat="43.67204" lon="3.20854">
        <ele>520.21</ele>
        <time>2014-08-23T13:37:05Z</time>
      </trkpt>
      <trkpt lat="43.67204" lon="3.20854">
        <ele>520.21</ele>
        <time>2014-08-23T13:37:14Z</time>
      </trkpt>
      <trkpt lat="43.67205" lon="3.20855">
        <ele>520.21</ele>
        <time>2014-08-23T13:37:15Z</time>
      </trkpt>
      <trkpt lat="43.67205" lon="3.20857">
        <ele>520.21</ele>
        <time>2014-08-23T13:37:16Z</time>
      </trkpt>
      <trkpt lat="43.67206" lon="3.20858">
        <ele>519.73</ele>
        <time>2014-08-23T13:37:22Z</time>
      </trkpt>
      <trkpt lat="43.67204" lon="3.20862">
        <ele>519.73</ele>
        <time>2014-08-23T13:37:35Z</time>
      </trkpt>
      <trkpt lat="43.67201" lon="3.20877">
        <ele>517.81</ele>
        <time>2014-08-23T13:37:38Z</time>
      </trkpt>
      <trkpt lat="43.67198" lon="3.20887">
        <ele>516.85</ele>
        <time>2014-08-23T13:37:40Z</time>
      </trkpt>
      <trkpt lat="43.67197" lon="3.20892">
        <ele>515.88</ele>
        <time>2014-08-23T13:37:41Z</time>
      </trkpt>
      <trkpt lat="43.67196" lon="3.20899">
        <ele>515.4</ele>
        <time>2014-08-23T13:37:42Z</time>
      </trkpt>
      <trkpt lat="43.67195" lon="3.20905">
        <ele>514.44</ele>
        <time>2014-08-23T13:37:43Z</time>
      </trkpt>
      <trkpt lat="43.67195" lon="3.20911">
        <ele>514.44</ele>
        <time>2014-08-23T13:37:44Z</time>
      </trkpt>
      <trkpt lat="43.67196" lon="3.20915">
        <ele>513.96</ele>
        <time>2014-08-23T13:37:45Z</time>
      </trkpt>
      <trkpt lat="43.67195" lon="3.2092">
        <ele>513.48</ele>
        <time>2014-08-23T13:37:46Z</time>
      </trkpt>
      <trkpt lat="43.67195" lon="3.20924">
        <ele>513.48</ele>
        <time>2014-08-23T13:37:47Z</time>
      </trkpt>
      <trkpt lat="43.67195" lon="3.20928">
        <ele>512.52</ele>
        <time>2014-08-23T13:37:48Z</time>
      </trkpt>
      <trkpt lat="43.67195" lon="3.20931">
        <ele>512.52</ele>
        <time>2014-08-23T13:37:49Z</time>
      </trkpt>
      <trkpt lat="43.67195" lon="3.20934">
        <ele>513</ele>
        <time>2014-08-23T13:37:50Z</time>
      </trkpt>
      <trkpt lat="43.67196" lon="3.20936">
        <ele>512.52</ele>
        <time>2014-08-23T13:37:55Z</time>
      </trkpt>
      <trkpt lat="43.67196" lon="3.20936">
        <ele>510.12</ele>
        <time>2014-08-23T13:37:57Z</time>
      </trkpt>
      <trkpt lat="43.67196" lon="3.20936">
        <ele>515.88</ele>
        <time>2014-08-23T13:37:58Z</time>
      </trkpt>
      <trkpt lat="43.67196" lon="3.20935">
        <ele>515.88</ele>
        <time>2014-08-23T13:37:59Z</time>
      </trkpt>
      <trkpt lat="43.67196" lon="3.20935">
        <ele>510.6</ele>
        <time>2014-08-23T13:38:00Z</time>
      </trkpt>
      <trkpt lat="43.67196" lon="3.20935">
        <ele>510.6</ele>
        <time>2014-08-23T13:38:01Z</time>
      </trkpt>
      <trkpt lat="43.67196" lon="3.20935">
        <ele>514.92</ele>
        <time>2014-08-23T13:38:02Z</time>
      </trkpt>
      <trkpt lat="43.67197" lon="3.20935">
        <ele>513</ele>
        <time>2014-08-23T13:38:03Z</time>
      </trkpt>
      <trkpt lat="43.67196" lon="3.20942">
        <ele>513</ele>
        <time>2014-08-23T13:38:10Z</time>
      </trkpt>
      <trkpt lat="43.67198" lon="3.20968">
        <ele>511.56</ele>
        <time>2014-08-23T13:38:16Z</time>
      </trkpt>
      <trkpt lat="43.67201" lon="3.20997">
        <ele>510.6</ele>
        <time>2014-08-23T13:38:23Z</time>
      </trkpt>
      <trkpt lat="43.67208" lon="3.21022">
        <ele>510.12</ele>
        <time>2014-08-23T13:38:30Z</time>
      </trkpt>
      <trkpt lat="43.67215" lon="3.21043">
        <ele>509.16</ele>
        <time>2014-08-23T13:38:35Z</time>
      </trkpt>
      <trkpt lat="43.67217" lon="3.21049">
        <ele>508.67</ele>
        <time>2014-08-23T13:38:36Z</time>
      </trkpt>
      <trkpt lat="43.6723" lon="3.21079">
        <ele>505.31</ele>
        <time>2014-08-23T13:38:41Z</time>
      </trkpt>
      <trkpt lat="43.67235" lon="3.21092">
        <ele>504.35</ele>
        <time>2014-08-23T13:38:43Z</time>
      </trkpt>
      <trkpt lat="43.67245" lon="3.21131">
        <ele>502.43</ele>
        <time>2014-08-23T13:38:49Z</time>
      </trkpt>
      <trkpt lat="43.67244" lon="3.21138">
        <ele>502.43</ele>
        <time>2014-08-23T13:38:50Z</time>
      </trkpt>
      <trkpt lat="43.67242" lon="3.21145">
        <ele>501.95</ele>
        <time>2014-08-23T13:38:51Z</time>
      </trkpt>
      <trkpt lat="43.67238" lon="3.21149">
        <ele>501.95</ele>
        <time>2014-08-23T13:38:52Z</time>
      </trkpt>
      <trkpt lat="43.67233" lon="3.21153">
        <ele>501.95</ele>
        <time>2014-08-23T13:38:53Z</time>
      </trkpt>
      <trkpt lat="43.67227" lon="3.21156">
        <ele>500.98</ele>
        <time>2014-08-23T13:38:54Z</time>
      </trkpt>
      <trkpt lat="43.67222" lon="3.21158">
        <ele>500.02</ele>
        <time>2014-08-23T13:38:55Z</time>
      </trkpt>
      <trkpt lat="43.67215" lon="3.2116">
        <ele>499.06</ele>
        <time>2014-08-23T13:38:56Z</time>
      </trkpt>
      <trkpt lat="43.6721" lon="3.21164">
        <ele>498.58</ele>
        <time>2014-08-23T13:38:57Z</time>
      </trkpt>
      <trkpt lat="43.67204" lon="3.21168">
        <ele>498.1</ele>
        <time>2014-08-23T13:38:58Z</time>
      </trkpt>
      <trkpt lat="43.67198" lon="3.21173">
        <ele>496.66</ele>
        <time>2014-08-23T13:38:59Z</time>
      </trkpt>
      <trkpt lat="43.67186" lon="3.21184">
        <ele>495.22</ele>
        <time>2014-08-23T13:39:01Z</time>
      </trkpt>
      <trkpt lat="43.67182" lon="3.21191">
        <ele>495.22</ele>
        <time>2014-08-23T13:39:02Z</time>
      </trkpt>
      <trkpt lat="43.67177" lon="3.21198">
        <ele>495.22</ele>
        <time>2014-08-23T13:39:03Z</time>
      </trkpt>
      <trkpt lat="43.67169" lon="3.21214">
        <ele>494.26</ele>
        <time>2014-08-23T13:39:05Z</time>
      </trkpt>
      <trkpt lat="43.67166" lon="3.21222">
        <ele>493.77</ele>
        <time>2014-08-23T13:39:06Z</time>
      </trkpt>
      <trkpt lat="43.67155" lon="3.2125">
        <ele>493.29</ele>
        <time>2014-08-23T13:39:10Z</time>
      </trkpt>
      <trkpt lat="43.67152" lon="3.21252">
        <ele>493.29</ele>
        <time>2014-08-23T13:39:11Z</time>
      </trkpt>
      <trkpt lat="43.67149" lon="3.21253">
        <ele>492.33</ele>
        <time>2014-08-23T13:39:12Z</time>
      </trkpt>
      <trkpt lat="43.67147" lon="3.21251">
        <ele>492.33</ele>
        <time>2014-08-23T13:39:13Z</time>
      </trkpt>
      <trkpt lat="43.67145" lon="3.21247">
        <ele>491.37</ele>
        <time>2014-08-23T13:39:14Z</time>
      </trkpt>
      <trkpt lat="43.67146" lon="3.21242">
        <ele>491.37</ele>
        <time>2014-08-23T13:39:15Z</time>
      </trkpt>
      <trkpt lat="43.67147" lon="3.21237">
        <ele>490.89</ele>
        <time>2014-08-23T13:39:16Z</time>
      </trkpt>
      <trkpt lat="43.67149" lon="3.21233">
        <ele>490.41</ele>
        <time>2014-08-23T13:39:17Z</time>
      </trkpt>
      <trkpt lat="43.67156" lon="3.21219">
        <ele>489.93</ele>
        <time>2014-08-23T13:39:20Z</time>
      </trkpt>
      <trkpt lat="43.67162" lon="3.21202">
        <ele>488.97</ele>
        <time>2014-08-23T13:39:23Z</time>
      </trkpt>
      <trkpt lat="43.67171" lon="3.21179">
        <ele>487.05</ele>
        <time>2014-08-23T13:39:27Z</time>
      </trkpt>
      <trkpt lat="43.67184" lon="3.21155">
        <ele>485.6</ele>
        <time>2014-08-23T13:39:31Z</time>
      </trkpt>
      <trkpt lat="43.67188" lon="3.21148">
        <ele>484.64</ele>
        <time>2014-08-23T13:39:32Z</time>
      </trkpt>
      <trkpt lat="43.67192" lon="3.21141">
        <ele>484.64</ele>
        <time>2014-08-23T13:39:33Z</time>
      </trkpt>
      <trkpt lat="43.67195" lon="3.21134">
        <ele>484.64</ele>
        <time>2014-08-23T13:39:34Z</time>
      </trkpt>
      <trkpt lat="43.67196" lon="3.21125">
        <ele>484.64</ele>
        <time>2014-08-23T13:39:35Z</time>
      </trkpt>
      <trkpt lat="43.67195" lon="3.21115">
        <ele>483.68</ele>
        <time>2014-08-23T13:39:36Z</time>
      </trkpt>
      <trkpt lat="43.67193" lon="3.21106">
        <ele>483.68</ele>
        <time>2014-08-23T13:39:37Z</time>
      </trkpt>
      <trkpt lat="43.6719" lon="3.21097">
        <ele>483.68</ele>
        <time>2014-08-23T13:39:38Z</time>
      </trkpt>
      <trkpt lat="43.67187" lon="3.21088">
        <ele>483.68</ele>
        <time>2014-08-23T13:39:39Z</time>
      </trkpt>
      <trkpt lat="43.67176" lon="3.2106">
        <ele>482.24</ele>
        <time>2014-08-23T13:39:42Z</time>
      </trkpt>
      <trkpt lat="43.67168" lon="3.2104">
        <ele>480.8</ele>
        <time>2014-08-23T13:39:44Z</time>
      </trkpt>
      <trkpt lat="43.67155" lon="3.21007">
        <ele>477.43</ele>
        <time>2014-08-23T13:39:47Z</time>
      </trkpt>
      <trkpt lat="43.67135" lon="3.20964">
        <ele>473.59</ele>
        <time>2014-08-23T13:39:51Z</time>
      </trkpt>
      <trkpt lat="43.67126" lon="3.20948">
        <ele>472.63</ele>
        <time>2014-08-23T13:39:53Z</time>
      </trkpt>
      <trkpt lat="43.67119" lon="3.20932">
        <ele>470.22</ele>
        <time>2014-08-23T13:39:55Z</time>
      </trkpt>
      <trkpt lat="43.67116" lon="3.20923">
        <ele>469.26</ele>
        <time>2014-08-23T13:39:56Z</time>
      </trkpt>
      <trkpt lat="43.67115" lon="3.20914">
        <ele>469.26</ele>
        <time>2014-08-23T13:39:57Z</time>
      </trkpt>
      <trkpt lat="43.67113" lon="3.20905">
        <ele>468.78</ele>
        <time>2014-08-23T13:39:58Z</time>
      </trkpt>
      <trkpt lat="43.67112" lon="3.20897">
        <ele>467.82</ele>
        <time>2014-08-23T13:39:59Z</time>
      </trkpt>
      <trkpt lat="43.67109" lon="3.2089">
        <ele>467.34</ele>
        <time>2014-08-23T13:40:00Z</time>
      </trkpt>
      <trkpt lat="43.67105" lon="3.20883">
        <ele>466.38</ele>
        <time>2014-08-23T13:40:01Z</time>
      </trkpt>
      <trkpt lat="43.67099" lon="3.20876">
        <ele>465.42</ele>
        <time>2014-08-23T13:40:02Z</time>
      </trkpt>
      <trkpt lat="43.67093" lon="3.20871">
        <ele>464.93</ele>
        <time>2014-08-23T13:40:03Z</time>
      </trkpt>
      <trkpt lat="43.67085" lon="3.20866">
        <ele>463.97</ele>
        <time>2014-08-23T13:40:04Z</time>
      </trkpt>
      <trkpt lat="43.67065" lon="3.20854">
        <ele>460.13</ele>
        <time>2014-08-23T13:40:07Z</time>
      </trkpt>
      <trkpt lat="43.67059" lon="3.20851">
        <ele>459.65</ele>
        <time>2014-08-23T13:40:08Z</time>
      </trkpt>
      <trkpt lat="43.67054" lon="3.20851">
        <ele>459.65</ele>
        <time>2014-08-23T13:40:09Z</time>
      </trkpt>
      <trkpt lat="43.67052" lon="3.20855">
        <ele>459.17</ele>
        <time>2014-08-23T13:40:10Z</time>
      </trkpt>
      <trkpt lat="43.67051" lon="3.20862">
        <ele>457.72</ele>
        <time>2014-08-23T13:40:11Z</time>
      </trkpt>
      <trkpt lat="43.67054" lon="3.20869">
        <ele>457.72</ele>
        <time>2014-08-23T13:40:12Z</time>
      </trkpt>
      <trkpt lat="43.67059" lon="3.20876">
        <ele>456.76</ele>
        <time>2014-08-23T13:40:13Z</time>
      </trkpt>
      <trkpt lat="43.67064" lon="3.20882">
        <ele>455.8</ele>
        <time>2014-08-23T13:40:14Z</time>
      </trkpt>
      <trkpt lat="43.67068" lon="3.20888">
        <ele>455.32</ele>
        <time>2014-08-23T13:40:15Z</time>
      </trkpt>
      <trkpt lat="43.6707" lon="3.20895">
        <ele>455.32</ele>
        <time>2014-08-23T13:40:16Z</time>
      </trkpt>
      <trkpt lat="43.67069" lon="3.209">
        <ele>454.84</ele>
        <time>2014-08-23T13:40:17Z</time>
      </trkpt>
      <trkpt lat="43.67065" lon="3.20901">
        <ele>454.36</ele>
        <time>2014-08-23T13:40:18Z</time>
      </trkpt>
      <trkpt lat="43.67061" lon="3.20899">
        <ele>452.44</ele>
        <time>2014-08-23T13:40:19Z</time>
      </trkpt>
      <trkpt lat="43.67057" lon="3.20893">
        <ele>451.96</ele>
        <time>2014-08-23T13:40:20Z</time>
      </trkpt>
      <trkpt lat="43.67053" lon="3.20887">
        <ele>451.48</ele>
        <time>2014-08-23T13:40:21Z</time>
      </trkpt>
      <trkpt lat="43.67049" lon="3.20881">
        <ele>451.48</ele>
        <time>2014-08-23T13:40:22Z</time>
      </trkpt>
      <trkpt lat="43.67044" lon="3.2088">
        <ele>450.52</ele>
        <time>2014-08-23T13:40:23Z</time>
      </trkpt>
      <trkpt lat="43.6704" lon="3.20883">
        <ele>450.03</ele>
        <time>2014-08-23T13:40:24Z</time>
      </trkpt>
      <trkpt lat="43.67039" lon="3.20889">
        <ele>450.03</ele>
        <time>2014-08-23T13:40:25Z</time>
      </trkpt>
      <trkpt lat="43.67041" lon="3.20895">
        <ele>450.03</ele>
        <time>2014-08-23T13:40:26Z</time>
      </trkpt>
      <trkpt lat="43.67044" lon="3.20899">
        <ele>449.55</ele>
        <time>2014-08-23T13:40:27Z</time>
      </trkpt>
      <trkpt lat="43.67049" lon="3.20903">
        <ele>449.55</ele>
        <time>2014-08-23T13:40:28Z</time>
      </trkpt>
      <trkpt lat="43.67052" lon="3.20908">
        <ele>449.55</ele>
        <time>2014-08-23T13:40:29Z</time>
      </trkpt>
      <trkpt lat="43.67053" lon="3.20914">
        <ele>449.55</ele>
        <time>2014-08-23T13:40:30Z</time>
      </trkpt>
      <trkpt lat="43.6705" lon="3.2092">
        <ele>448.59</ele>
        <time>2014-08-23T13:40:31Z</time>
      </trkpt>
      <trkpt lat="43.67045" lon="3.20921">
        <ele>447.15</ele>
        <time>2014-08-23T13:40:32Z</time>
      </trkpt>
      <trkpt lat="43.67038" lon="3.20919">
        <ele>446.19</ele>
        <time>2014-08-23T13:40:33Z</time>
      </trkpt>
      <trkpt lat="43.67032" lon="3.20915">
        <ele>444.75</ele>
        <time>2014-08-23T13:40:34Z</time>
      </trkpt>
      <trkpt lat="43.67024" lon="3.2091">
        <ele>442.82</ele>
        <time>2014-08-23T13:40:35Z</time>
      </trkpt>
      <trkpt lat="43.67016" lon="3.20905">
        <ele>440.9</ele>
        <time>2014-08-23T13:40:36Z</time>
      </trkpt>
      <trkpt lat="43.67008" lon="3.20899">
        <ele>438.98</ele>
        <time>2014-08-23T13:40:37Z</time>
      </trkpt>
      <trkpt lat="43.67001" lon="3.20892">
        <ele>437.54</ele>
        <time>2014-08-23T13:40:38Z</time>
      </trkpt>
      <trkpt lat="43.66994" lon="3.20887">
        <ele>437.06</ele>
        <time>2014-08-23T13:40:39Z</time>
      </trkpt>
      <trkpt lat="43.66986" lon="3.20886">
        <ele>436.1</ele>
        <time>2014-08-23T13:40:40Z</time>
      </trkpt>
      <trkpt lat="43.66979" lon="3.20889">
        <ele>435.13</ele>
        <time>2014-08-23T13:40:41Z</time>
      </trkpt>
      <trkpt lat="43.66973" lon="3.20893">
        <ele>434.17</ele>
        <time>2014-08-23T13:40:42Z</time>
      </trkpt>
      <trkpt lat="43.66968" lon="3.20899">
        <ele>433.69</ele>
        <time>2014-08-23T13:40:43Z</time>
      </trkpt>
      <trkpt lat="43.66965" lon="3.20906">
        <ele>432.73</ele>
        <time>2014-08-23T13:40:44Z</time>
      </trkpt>
      <trkpt lat="43.66963" lon="3.20913">
        <ele>432.25</ele>
        <time>2014-08-23T13:40:45Z</time>
      </trkpt>
      <trkpt lat="43.6696" lon="3.20919">
        <ele>431.77</ele>
        <time>2014-08-23T13:40:46Z</time>
      </trkpt>
      <trkpt lat="43.66959" lon="3.20926">
        <ele>430.81</ele>
        <time>2014-08-23T13:40:47Z</time>
      </trkpt>
      <trkpt lat="43.66959" lon="3.20933">
        <ele>429.37</ele>
        <time>2014-08-23T13:40:48Z</time>
      </trkpt>
      <trkpt lat="43.6696" lon="3.2094">
        <ele>428.89</ele>
        <time>2014-08-23T13:40:49Z</time>
      </trkpt>
      <trkpt lat="43.6696" lon="3.20947">
        <ele>427.92</ele>
        <time>2014-08-23T13:40:50Z</time>
      </trkpt>
      <trkpt lat="43.6696" lon="3.20953">
        <ele>427.44</ele>
        <time>2014-08-23T13:40:51Z</time>
      </trkpt>
      <trkpt lat="43.66959" lon="3.20959">
        <ele>426.96</ele>
        <time>2014-08-23T13:40:52Z</time>
      </trkpt>
      <trkpt lat="43.66958" lon="3.20964">
        <ele>426.48</ele>
        <time>2014-08-23T13:40:53Z</time>
      </trkpt>
      <trkpt lat="43.66957" lon="3.20968">
        <ele>426.48</ele>
        <time>2014-08-23T13:40:54Z</time>
      </trkpt>
      <trkpt lat="43.66954" lon="3.20969">
        <ele>425.04</ele>
        <time>2014-08-23T13:40:55Z</time>
      </trkpt>
      <trkpt lat="43.6695" lon="3.20966">
        <ele>424.08</ele>
        <time>2014-08-23T13:40:56Z</time>
      </trkpt>
      <trkpt lat="43.66947" lon="3.20961">
        <ele>424.08</ele>
        <time>2014-08-23T13:40:57Z</time>
      </trkpt>
      <trkpt lat="43.66942" lon="3.20956">
        <ele>424.08</ele>
        <time>2014-08-23T13:40:59Z</time>
      </trkpt>
      <trkpt lat="43.6694" lon="3.20956">
        <ele>424.08</ele>
        <time>2014-08-23T13:41:00Z</time>
      </trkpt>
      <trkpt lat="43.66939" lon="3.20956">
        <ele>424.56</ele>
        <time>2014-08-23T13:41:04Z</time>
      </trkpt>
      <trkpt lat="43.6694" lon="3.20956">
        <ele>424.56</ele>
        <time>2014-08-23T13:41:14Z</time>
      </trkpt>
      <trkpt lat="43.66941" lon="3.2096">
        <ele>424.56</ele>
        <time>2014-08-23T13:41:20Z</time>
      </trkpt>
      <trkpt lat="43.66942" lon="3.20961">
        <ele>424.56</ele>
        <time>2014-08-23T13:41:25Z</time>
      </trkpt>
      <trkpt lat="43.66943" lon="3.20961">
        <ele>425.04</ele>
        <time>2014-08-23T13:41:28Z</time>
      </trkpt>
      <trkpt lat="43.66942" lon="3.20961">
        <ele>437.06</ele>
        <time>2014-08-23T13:53:51Z</time>
      </trkpt>
      <trkpt lat="43.66941" lon="3.20957">
        <ele>437.06</ele>
        <time>2014-08-23T13:53:52Z</time>
      </trkpt>
      <trkpt lat="43.66945" lon="3.20958">
        <ele>437.54</ele>
        <time>2014-08-23T13:53:59Z</time>
      </trkpt>
      <trkpt lat="43.66943" lon="3.20957">
        <ele>434.17</ele>
        <time>2014-08-23T13:54:06Z</time>
      </trkpt>
      <trkpt lat="43.66941" lon="3.20958">
        <ele>430.81</ele>
        <time>2014-08-23T13:54:14Z</time>
      </trkpt>
      <trkpt lat="43.66938" lon="3.20961">
        <ele>428.89</ele>
        <time>2014-08-23T13:54:21Z</time>
      </trkpt>
      <trkpt lat="43.66938" lon="3.20958">
        <ele>426.96</ele>
        <time>2014-08-23T13:54:28Z</time>
      </trkpt>
      <trkpt lat="43.66941" lon="3.20958">
        <ele>425.52</ele>
        <time>2014-08-23T13:54:35Z</time>
      </trkpt>
    </trkseg>
  </trk>
</gpx>